<?xml version="1.0" encoding="UTF-8" standalone="no" ?>
<gpx xmlns="http://www.topografix.com/GPX/1/1" xmlns:xsi="http://www.w3.org/2001/XMLSchema-instance" xsi:schemaLocation="http://www.topografix.com/GPX/1/1 http://www.topografix.com/GPX/1/1/gpx.xsd" version="1.1" creator="VisuGPX - https://www.visugpx.com">
  <metadata>
    <name>HM-Lag_Gui_V3</name>
    <desc><![CDATA[1ere version]]></desc>
  </metadata>
  <wpt lat="43.40465" lon="1.44869">
    <ele>184.2</ele>
  </wpt>
  <wpt lat="43.69751" lon="7.29057">
    <ele>42.2</ele>
  </wpt>
  <wpt lat="43.78375" lon="4.08992">
    <ele>25</ele>
  </wpt>
  <trk>
    <name><![CDATA[diagonale HM 2022 -V4 entière-15698371]]></name>
    <extensions>
      <line xmlns="http://www.topografix.com/GPX/gpx_style/0/2">
        <color>0000FF</color>
        <width>4</width>
      </line>
    </extensions>
    <trkseg>
      <trkpt lat="43.35253" lon="-1.78185">
        <ele>15</ele>
        <time>2024-04-05T20:19:47Z</time>
        <extensions>
          <visugpx:TrkExtension xmlns:visugpx="https://www.visugpx.com/editgpx/">
            <visugpx:node>1</visugpx:node>
            </visugpx:TrkExtension>
        </extensions>
      </trkpt>
      <trkpt lat="43.35252" lon="-1.78172">
        <ele>16</ele>
        <time>2024-04-05T20:19:49Z</time>
      </trkpt>
      <trkpt lat="43.35255" lon="-1.78118">
        <ele>19</ele>
        <time>2024-04-05T20:19:56Z</time>
      </trkpt>
      <trkpt lat="43.35257" lon="-1.78101">
        <ele>20</ele>
        <time>2024-04-05T20:19:58Z</time>
      </trkpt>
      <trkpt lat="43.35265" lon="-1.7807">
        <ele>20</ele>
        <time>2024-04-05T20:20:02Z</time>
      </trkpt>
      <trkpt lat="43.35271" lon="-1.78057">
        <ele>21</ele>
        <time>2024-04-05T20:20:04Z</time>
      </trkpt>
      <trkpt lat="43.35297" lon="-1.77987">
        <ele>23</ele>
        <time>2024-04-05T20:20:14Z</time>
      </trkpt>
      <trkpt lat="43.35313" lon="-1.77939">
        <ele>25</ele>
        <time>2024-04-05T20:20:21Z</time>
      </trkpt>
      <trkpt lat="43.35325" lon="-1.77893">
        <ele>27</ele>
        <time>2024-04-05T20:20:27Z</time>
      </trkpt>
      <trkpt lat="43.35346" lon="-1.77797">
        <ele>31</ele>
        <time>2024-04-05T20:20:40Z</time>
      </trkpt>
      <trkpt lat="43.35356" lon="-1.77723">
        <ele>33</ele>
        <time>2024-04-05T20:20:50Z</time>
      </trkpt>
      <trkpt lat="43.35383" lon="-1.77582">
        <ele>33</ele>
        <time>2024-04-05T20:21:09Z</time>
      </trkpt>
      <trkpt lat="43.35381" lon="-1.7757">
        <ele>33</ele>
        <time>2024-04-05T20:21:11Z</time>
      </trkpt>
      <trkpt lat="43.3537" lon="-1.77571">
        <ele>34</ele>
        <time>2024-04-05T20:21:13Z</time>
      </trkpt>
      <trkpt lat="43.35361" lon="-1.77563">
        <ele>34</ele>
        <time>2024-04-05T20:21:15Z</time>
      </trkpt>
      <trkpt lat="43.35358" lon="-1.77555">
        <ele>34</ele>
        <time>2024-04-05T20:21:16Z</time>
      </trkpt>
      <trkpt lat="43.35357" lon="-1.77542">
        <ele>34</ele>
        <time>2024-04-05T20:21:17Z</time>
      </trkpt>
      <trkpt lat="43.35359" lon="-1.77535">
        <ele>34</ele>
        <time>2024-04-05T20:21:18Z</time>
      </trkpt>
      <trkpt lat="43.35367" lon="-1.77525">
        <ele>34</ele>
        <time>2024-04-05T20:21:20Z</time>
      </trkpt>
      <trkpt lat="43.35372" lon="-1.77523">
        <ele>34</ele>
        <time>2024-04-05T20:21:21Z</time>
      </trkpt>
      <trkpt lat="43.35361" lon="-1.77432">
        <ele>33</ele>
        <time>2024-04-05T20:21:33Z</time>
      </trkpt>
      <trkpt lat="43.35353" lon="-1.77336">
        <ele>30</ele>
        <time>2024-04-05T20:21:46Z</time>
      </trkpt>
      <trkpt lat="43.35352" lon="-1.77277">
        <ele>31</ele>
        <time>2024-04-05T20:21:53Z</time>
      </trkpt>
      <trkpt lat="43.35353" lon="-1.77263">
        <ele>31</ele>
        <time>2024-04-05T20:21:55Z</time>
      </trkpt>
      <trkpt lat="43.35352" lon="-1.77237">
        <ele>32</ele>
        <time>2024-04-05T20:21:58Z</time>
      </trkpt>
      <trkpt lat="43.35346" lon="-1.77202">
        <ele>34</ele>
        <time>2024-04-05T20:22:03Z</time>
      </trkpt>
      <trkpt lat="43.35345" lon="-1.77179">
        <ele>35</ele>
        <time>2024-04-05T20:22:06Z</time>
      </trkpt>
      <trkpt lat="43.35339" lon="-1.77169">
        <ele>36</ele>
        <time>2024-04-05T20:22:08Z</time>
      </trkpt>
      <trkpt lat="43.35337" lon="-1.77158">
        <ele>36</ele>
        <time>2024-04-05T20:22:09Z</time>
      </trkpt>
      <trkpt lat="43.35331" lon="-1.77152">
        <ele>36</ele>
        <time>2024-04-05T20:22:11Z</time>
      </trkpt>
      <trkpt lat="43.35329" lon="-1.77142">
        <ele>37</ele>
        <time>2024-04-05T20:22:12Z</time>
      </trkpt>
      <trkpt lat="43.35332" lon="-1.77134">
        <ele>37</ele>
        <time>2024-04-05T20:22:13Z</time>
      </trkpt>
      <trkpt lat="43.35335" lon="-1.77131">
        <ele>37</ele>
        <time>2024-04-05T20:22:14Z</time>
      </trkpt>
      <trkpt lat="43.35342" lon="-1.7713">
        <ele>37</ele>
        <time>2024-04-05T20:22:15Z</time>
      </trkpt>
      <trkpt lat="43.35345" lon="-1.77123">
        <ele>37</ele>
        <time>2024-04-05T20:22:16Z</time>
      </trkpt>
      <trkpt lat="43.3536" lon="-1.77116">
        <ele>37</ele>
        <time>2024-04-05T20:22:19Z</time>
      </trkpt>
      <trkpt lat="43.35396" lon="-1.77044">
        <ele>38</ele>
        <time>2024-04-05T20:22:30Z</time>
      </trkpt>
      <trkpt lat="43.35434" lon="-1.76976">
        <ele>39</ele>
        <time>2024-04-05T20:22:41Z</time>
      </trkpt>
      <trkpt lat="43.35447" lon="-1.76949">
        <ele>40</ele>
        <time>2024-04-05T20:22:45Z</time>
      </trkpt>
      <trkpt lat="43.35478" lon="-1.76876">
        <ele>44</ele>
        <time>2024-04-05T20:22:56Z</time>
      </trkpt>
      <trkpt lat="43.35495" lon="-1.76821">
        <ele>49</ele>
        <time>2024-04-05T20:23:04Z</time>
      </trkpt>
      <trkpt lat="43.3549" lon="-1.76814">
        <ele>49</ele>
        <time>2024-04-05T20:23:05Z</time>
      </trkpt>
      <trkpt lat="43.35489" lon="-1.7681">
        <ele>49</ele>
        <time>2024-04-05T20:23:06Z</time>
      </trkpt>
      <trkpt lat="43.35492" lon="-1.76801">
        <ele>50</ele>
        <time>2024-04-05T20:23:07Z</time>
      </trkpt>
      <trkpt lat="43.35496" lon="-1.76797">
        <ele>50</ele>
        <time>2024-04-05T20:23:08Z</time>
      </trkpt>
      <trkpt lat="43.35499" lon="-1.76796">
        <ele>51</ele>
        <time>2024-04-05T20:23:09Z</time>
      </trkpt>
      <trkpt lat="43.35505" lon="-1.768">
        <ele>50</ele>
        <time>2024-04-05T20:23:10Z</time>
      </trkpt>
      <trkpt lat="43.35508" lon="-1.76807">
        <ele>49</ele>
        <time>2024-04-05T20:23:11Z</time>
      </trkpt>
      <trkpt lat="43.35516" lon="-1.76806">
        <ele>48</ele>
        <time>2024-04-05T20:23:12Z</time>
      </trkpt>
      <trkpt lat="43.35544" lon="-1.76779">
        <ele>47</ele>
        <time>2024-04-05T20:23:18Z</time>
      </trkpt>
      <trkpt lat="43.3556" lon="-1.76753">
        <ele>47</ele>
        <time>2024-04-05T20:23:23Z</time>
      </trkpt>
      <trkpt lat="43.35585" lon="-1.76682">
        <ele>44</ele>
        <time>2024-04-05T20:23:33Z</time>
      </trkpt>
      <trkpt lat="43.35601" lon="-1.76655">
        <ele>43</ele>
        <time>2024-04-05T20:23:38Z</time>
      </trkpt>
      <trkpt lat="43.35624" lon="-1.76629">
        <ele>41</ele>
        <time>2024-04-05T20:23:43Z</time>
      </trkpt>
      <trkpt lat="43.35639" lon="-1.76615">
        <ele>40</ele>
        <time>2024-04-05T20:23:46Z</time>
      </trkpt>
      <trkpt lat="43.35675" lon="-1.76593">
        <ele>39</ele>
        <time>2024-04-05T20:23:53Z</time>
      </trkpt>
      <trkpt lat="43.35702" lon="-1.76587">
        <ele>40</ele>
        <time>2024-04-05T20:23:58Z</time>
      </trkpt>
      <trkpt lat="43.3572" lon="-1.76581">
        <ele>42</ele>
        <time>2024-04-05T20:24:01Z</time>
      </trkpt>
      <trkpt lat="43.35754" lon="-1.76557">
        <ele>45</ele>
        <time>2024-04-05T20:24:08Z</time>
      </trkpt>
      <trkpt lat="43.35777" lon="-1.76552">
        <ele>45</ele>
        <time>2024-04-05T20:24:12Z</time>
      </trkpt>
      <trkpt lat="43.35783" lon="-1.76548">
        <ele>45</ele>
        <time>2024-04-05T20:24:13Z</time>
      </trkpt>
      <trkpt lat="43.35799" lon="-1.76538">
        <ele>46</ele>
        <time>2024-04-05T20:24:16Z</time>
      </trkpt>
      <trkpt lat="43.35855" lon="-1.76488">
        <ele>47</ele>
        <time>2024-04-05T20:24:28Z</time>
      </trkpt>
      <trkpt lat="43.35876" lon="-1.76459">
        <ele>48</ele>
        <time>2024-04-05T20:24:34Z</time>
      </trkpt>
      <trkpt lat="43.35894" lon="-1.76424">
        <ele>49</ele>
        <time>2024-04-05T20:24:39Z</time>
      </trkpt>
      <trkpt lat="43.35901" lon="-1.76405">
        <ele>50</ele>
        <time>2024-04-05T20:24:42Z</time>
      </trkpt>
      <trkpt lat="43.35919" lon="-1.76345">
        <ele>51</ele>
        <time>2024-04-05T20:24:50Z</time>
      </trkpt>
      <trkpt lat="43.35937" lon="-1.7632">
        <ele>53</ele>
        <time>2024-04-05T20:24:55Z</time>
      </trkpt>
      <trkpt lat="43.35934" lon="-1.76312">
        <ele>54</ele>
        <time>2024-04-05T20:24:56Z</time>
      </trkpt>
      <trkpt lat="43.35934" lon="-1.76303">
        <ele>55</ele>
        <time>2024-04-05T20:24:57Z</time>
      </trkpt>
      <trkpt lat="43.35937" lon="-1.76296">
        <ele>55</ele>
        <time>2024-04-05T20:24:58Z</time>
      </trkpt>
      <trkpt lat="43.35943" lon="-1.76292">
        <ele>56</ele>
        <time>2024-04-05T20:24:59Z</time>
      </trkpt>
      <trkpt lat="43.35948" lon="-1.76291">
        <ele>56</ele>
        <time>2024-04-05T20:25:00Z</time>
      </trkpt>
      <trkpt lat="43.35953" lon="-1.76294">
        <ele>55</ele>
        <time>2024-04-05T20:25:01Z</time>
      </trkpt>
      <trkpt lat="43.35956" lon="-1.763">
        <ele>55</ele>
        <time>2024-04-05T20:25:02Z</time>
      </trkpt>
      <trkpt lat="43.35958" lon="-1.76307">
        <ele>54</ele>
        <time>2024-04-05T20:25:03Z</time>
      </trkpt>
      <trkpt lat="43.35957" lon="-1.76314">
        <ele>54</ele>
        <time>2024-04-05T20:25:04Z</time>
      </trkpt>
      <trkpt lat="43.35992" lon="-1.76312">
        <ele>54</ele>
        <time>2024-04-05T20:25:10Z</time>
      </trkpt>
      <trkpt lat="43.36011" lon="-1.76304">
        <ele>54</ele>
        <time>2024-04-05T20:25:14Z</time>
      </trkpt>
      <trkpt lat="43.36118" lon="-1.76229">
        <ele>63</ele>
        <time>2024-04-05T20:25:35Z</time>
      </trkpt>
      <trkpt lat="43.36152" lon="-1.76212">
        <ele>66</ele>
        <time>2024-04-05T20:25:42Z</time>
      </trkpt>
      <trkpt lat="43.36222" lon="-1.76194">
        <ele>68</ele>
        <time>2024-04-05T20:25:54Z</time>
      </trkpt>
      <trkpt lat="43.36222" lon="-1.76185">
        <ele>69</ele>
        <time>2024-04-05T20:25:56Z</time>
      </trkpt>
      <trkpt lat="43.36227" lon="-1.76178">
        <ele>69</ele>
        <time>2024-04-05T20:25:57Z</time>
      </trkpt>
      <trkpt lat="43.36233" lon="-1.76177">
        <ele>69</ele>
        <time>2024-04-05T20:25:58Z</time>
      </trkpt>
      <trkpt lat="43.36236" lon="-1.76178">
        <ele>69</ele>
        <time>2024-04-05T20:25:58Z</time>
      </trkpt>
      <trkpt lat="43.36241" lon="-1.76185">
        <ele>69</ele>
        <time>2024-04-05T20:26:00Z</time>
      </trkpt>
      <trkpt lat="43.36242" lon="-1.76189">
        <ele>69</ele>
        <time>2024-04-05T20:26:00Z</time>
      </trkpt>
      <trkpt lat="43.36285" lon="-1.76183">
        <ele>66</ele>
        <time>2024-04-05T20:26:08Z</time>
      </trkpt>
      <trkpt lat="43.36307" lon="-1.76175">
        <ele>65</ele>
        <time>2024-04-05T20:26:12Z</time>
      </trkpt>
      <trkpt lat="43.36335" lon="-1.76159">
        <ele>64</ele>
        <time>2024-04-05T20:26:17Z</time>
      </trkpt>
      <trkpt lat="43.36369" lon="-1.76148">
        <ele>61</ele>
        <time>2024-04-05T20:26:24Z</time>
      </trkpt>
      <trkpt lat="43.36391" lon="-1.76135">
        <ele>59</ele>
        <time>2024-04-05T20:26:28Z</time>
      </trkpt>
      <trkpt lat="43.36453" lon="-1.76078">
        <ele>56</ele>
        <time>2024-04-05T20:26:41Z</time>
      </trkpt>
      <trkpt lat="43.3649" lon="-1.76053">
        <ele>55</ele>
        <time>2024-04-05T20:26:48Z</time>
      </trkpt>
      <trkpt lat="43.36505" lon="-1.76035">
        <ele>56</ele>
        <time>2024-04-05T20:26:52Z</time>
      </trkpt>
      <trkpt lat="43.36518" lon="-1.76005">
        <ele>57</ele>
        <time>2024-04-05T20:26:57Z</time>
      </trkpt>
      <trkpt lat="43.36525" lon="-1.75972">
        <ele>58</ele>
        <time>2024-04-05T20:27:01Z</time>
      </trkpt>
      <trkpt lat="43.36528" lon="-1.7591">
        <ele>60</ele>
        <time>2024-04-05T20:27:09Z</time>
      </trkpt>
      <trkpt lat="43.36535" lon="-1.75827">
        <ele>59</ele>
        <time>2024-04-05T20:27:20Z</time>
      </trkpt>
      <trkpt lat="43.36545" lon="-1.75787">
        <ele>59</ele>
        <time>2024-04-05T20:27:25Z</time>
      </trkpt>
      <trkpt lat="43.36561" lon="-1.75751">
        <ele>58</ele>
        <time>2024-04-05T20:27:31Z</time>
      </trkpt>
      <trkpt lat="43.3658" lon="-1.75736">
        <ele>57</ele>
        <time>2024-04-05T20:27:35Z</time>
      </trkpt>
      <trkpt lat="43.36578" lon="-1.75732">
        <ele>58</ele>
        <time>2024-04-05T20:27:35Z</time>
      </trkpt>
      <trkpt lat="43.36577" lon="-1.75723">
        <ele>58</ele>
        <time>2024-04-05T20:27:36Z</time>
      </trkpt>
      <trkpt lat="43.3658" lon="-1.75714">
        <ele>58</ele>
        <time>2024-04-05T20:27:38Z</time>
      </trkpt>
      <trkpt lat="43.36585" lon="-1.75709">
        <ele>58</ele>
        <time>2024-04-05T20:27:39Z</time>
      </trkpt>
      <trkpt lat="43.36592" lon="-1.7571">
        <ele>58</ele>
        <time>2024-04-05T20:27:40Z</time>
      </trkpt>
      <trkpt lat="43.36608" lon="-1.75683">
        <ele>59</ele>
        <time>2024-04-05T20:27:45Z</time>
      </trkpt>
      <trkpt lat="43.3662" lon="-1.75679">
        <ele>59</ele>
        <time>2024-04-05T20:27:47Z</time>
      </trkpt>
      <trkpt lat="43.36644" lon="-1.75675">
        <ele>60</ele>
        <time>2024-04-05T20:27:51Z</time>
      </trkpt>
      <trkpt lat="43.36665" lon="-1.7568">
        <ele>60</ele>
        <time>2024-04-05T20:27:55Z</time>
      </trkpt>
      <trkpt lat="43.36685" lon="-1.75681">
        <ele>60</ele>
        <time>2024-04-05T20:27:58Z</time>
      </trkpt>
      <trkpt lat="43.36703" lon="-1.75677">
        <ele>61</ele>
        <time>2024-04-05T20:28:02Z</time>
      </trkpt>
      <trkpt lat="43.36725" lon="-1.75663">
        <ele>61</ele>
        <time>2024-04-05T20:28:06Z</time>
      </trkpt>
      <trkpt lat="43.36766" lon="-1.75629">
        <ele>62</ele>
        <time>2024-04-05T20:28:15Z</time>
      </trkpt>
      <trkpt lat="43.36793" lon="-1.75613">
        <ele>63</ele>
        <time>2024-04-05T20:28:20Z</time>
      </trkpt>
      <trkpt lat="43.36836" lon="-1.75602">
        <ele>65</ele>
        <time>2024-04-05T20:28:28Z</time>
      </trkpt>
      <trkpt lat="43.36868" lon="-1.75611">
        <ele>65</ele>
        <time>2024-04-05T20:28:33Z</time>
      </trkpt>
      <trkpt lat="43.36891" lon="-1.75614">
        <ele>65</ele>
        <time>2024-04-05T20:28:37Z</time>
      </trkpt>
      <trkpt lat="43.36917" lon="-1.75602">
        <ele>65</ele>
        <time>2024-04-05T20:28:42Z</time>
      </trkpt>
      <trkpt lat="43.36976" lon="-1.75566">
        <ele>65</ele>
        <time>2024-04-05T20:28:54Z</time>
      </trkpt>
      <trkpt lat="43.37003" lon="-1.75552">
        <ele>64</ele>
        <time>2024-04-05T20:28:59Z</time>
      </trkpt>
      <trkpt lat="43.37014" lon="-1.75546">
        <ele>64</ele>
        <time>2024-04-05T20:29:01Z</time>
      </trkpt>
      <trkpt lat="43.37033" lon="-1.75541">
        <ele>63</ele>
        <time>2024-04-05T20:29:05Z</time>
      </trkpt>
      <trkpt lat="43.37098" lon="-1.75539">
        <ele>59</ele>
        <time>2024-04-05T20:29:16Z</time>
      </trkpt>
      <trkpt lat="43.37159" lon="-1.75539">
        <ele>54</ele>
        <time>2024-04-05T20:29:27Z</time>
      </trkpt>
      <trkpt lat="43.37184" lon="-1.75548">
        <ele>53</ele>
        <time>2024-04-05T20:29:32Z</time>
      </trkpt>
      <trkpt lat="43.37215" lon="-1.75573">
        <ele>51</ele>
        <time>2024-04-05T20:29:38Z</time>
      </trkpt>
      <trkpt lat="43.3722" lon="-1.7558">
        <ele>51</ele>
        <time>2024-04-05T20:29:39Z</time>
      </trkpt>
      <trkpt lat="43.37227" lon="-1.75584">
        <ele>50</ele>
        <time>2024-04-05T20:29:41Z</time>
      </trkpt>
      <trkpt lat="43.37231" lon="-1.7559">
        <ele>49</ele>
        <time>2024-04-05T20:29:42Z</time>
      </trkpt>
      <trkpt lat="43.37239" lon="-1.75594">
        <ele>49</ele>
        <time>2024-04-05T20:29:43Z</time>
      </trkpt>
      <trkpt lat="43.37243" lon="-1.75603">
        <ele>48</ele>
        <time>2024-04-05T20:29:44Z</time>
      </trkpt>
      <trkpt lat="43.37253" lon="-1.75608">
        <ele>47</ele>
        <time>2024-04-05T20:29:46Z</time>
      </trkpt>
      <trkpt lat="43.37265" lon="-1.75618">
        <ele>46</ele>
        <time>2024-04-05T20:29:49Z</time>
      </trkpt>
      <trkpt lat="43.37295" lon="-1.75628">
        <ele>44</ele>
        <time>2024-04-05T20:29:54Z</time>
      </trkpt>
      <trkpt lat="43.37327" lon="-1.75637">
        <ele>44</ele>
        <time>2024-04-05T20:30:00Z</time>
      </trkpt>
      <trkpt lat="43.37332" lon="-1.75638">
        <ele>44</ele>
        <time>2024-04-05T20:30:01Z</time>
      </trkpt>
      <trkpt lat="43.37336" lon="-1.75635">
        <ele>43</ele>
        <time>2024-04-05T20:30:02Z</time>
      </trkpt>
      <trkpt lat="43.37341" lon="-1.7563">
        <ele>43</ele>
        <time>2024-04-05T20:30:03Z</time>
      </trkpt>
      <trkpt lat="43.37346" lon="-1.75617">
        <ele>43</ele>
        <time>2024-04-05T20:30:05Z</time>
      </trkpt>
      <trkpt lat="43.37342" lon="-1.75557">
        <ele>44</ele>
        <time>2024-04-05T20:30:13Z</time>
      </trkpt>
      <trkpt lat="43.37343" lon="-1.75549">
        <ele>44</ele>
        <time>2024-04-05T20:30:14Z</time>
      </trkpt>
      <trkpt lat="43.37347" lon="-1.7554">
        <ele>44</ele>
        <time>2024-04-05T20:30:15Z</time>
      </trkpt>
      <trkpt lat="43.37351" lon="-1.75537">
        <ele>44</ele>
        <time>2024-04-05T20:30:16Z</time>
      </trkpt>
      <trkpt lat="43.37348" lon="-1.7551">
        <ele>45</ele>
        <time>2024-04-05T20:30:19Z</time>
      </trkpt>
      <trkpt lat="43.37355" lon="-1.75508">
        <ele>45</ele>
        <time>2024-04-05T20:30:21Z</time>
      </trkpt>
      <trkpt lat="43.37354" lon="-1.75484">
        <ele>46</ele>
        <time>2024-04-05T20:30:24Z</time>
      </trkpt>
      <trkpt lat="43.37355" lon="-1.75469">
        <ele>46</ele>
        <time>2024-04-05T20:30:26Z</time>
      </trkpt>
      <trkpt lat="43.37379" lon="-1.75313">
        <ele>52</ele>
        <time>2024-04-05T20:30:46Z</time>
      </trkpt>
      <trkpt lat="43.37383" lon="-1.75293">
        <ele>53</ele>
        <time>2024-04-05T20:30:49Z</time>
      </trkpt>
      <trkpt lat="43.37389" lon="-1.75277">
        <ele>54</ele>
        <time>2024-04-05T20:30:51Z</time>
      </trkpt>
      <trkpt lat="43.37403" lon="-1.75248">
        <ele>55</ele>
        <time>2024-04-05T20:30:56Z</time>
      </trkpt>
      <trkpt lat="43.37413" lon="-1.75234">
        <ele>56</ele>
        <time>2024-04-05T20:30:58Z</time>
      </trkpt>
      <trkpt lat="43.37424" lon="-1.75222">
        <ele>56</ele>
        <time>2024-04-05T20:31:01Z</time>
      </trkpt>
      <trkpt lat="43.37453" lon="-1.75199">
        <ele>58</ele>
        <time>2024-04-05T20:31:07Z</time>
      </trkpt>
      <trkpt lat="43.37469" lon="-1.75194">
        <ele>59</ele>
        <time>2024-04-05T20:31:10Z</time>
      </trkpt>
      <trkpt lat="43.37479" lon="-1.75196">
        <ele>60</ele>
        <time>2024-04-05T20:31:12Z</time>
      </trkpt>
      <trkpt lat="43.37487" lon="-1.75203">
        <ele>60</ele>
        <time>2024-04-05T20:31:13Z</time>
      </trkpt>
      <trkpt lat="43.37489" lon="-1.75212">
        <ele>60</ele>
        <time>2024-04-05T20:31:15Z</time>
      </trkpt>
      <trkpt lat="43.375" lon="-1.75211">
        <ele>60</ele>
        <time>2024-04-05T20:31:16Z</time>
      </trkpt>
      <trkpt lat="43.37513" lon="-1.75188">
        <ele>62</ele>
        <time>2024-04-05T20:31:20Z</time>
      </trkpt>
      <trkpt lat="43.37517" lon="-1.75183">
        <ele>62</ele>
        <time>2024-04-05T20:31:21Z</time>
      </trkpt>
      <trkpt lat="43.37522" lon="-1.7518">
        <ele>63</ele>
        <time>2024-04-05T20:31:22Z</time>
      </trkpt>
      <trkpt lat="43.37522" lon="-1.75174">
        <ele>63</ele>
        <time>2024-04-05T20:31:23Z</time>
      </trkpt>
      <trkpt lat="43.37535" lon="-1.75169">
        <ele>64</ele>
        <time>2024-04-05T20:31:25Z</time>
      </trkpt>
      <trkpt lat="43.37552" lon="-1.75159">
        <ele>64</ele>
        <time>2024-04-05T20:31:29Z</time>
      </trkpt>
      <trkpt lat="43.37571" lon="-1.75139">
        <ele>66</ele>
        <time>2024-04-05T20:31:33Z</time>
      </trkpt>
      <trkpt lat="43.37587" lon="-1.7511">
        <ele>66</ele>
        <time>2024-04-05T20:31:38Z</time>
      </trkpt>
      <trkpt lat="43.37593" lon="-1.75087">
        <ele>66</ele>
        <time>2024-04-05T20:31:41Z</time>
      </trkpt>
      <trkpt lat="43.37607" lon="-1.7501">
        <ele>67</ele>
        <time>2024-04-05T20:31:51Z</time>
      </trkpt>
      <trkpt lat="43.37611" lon="-1.74975">
        <ele>66</ele>
        <time>2024-04-05T20:31:56Z</time>
      </trkpt>
      <trkpt lat="43.37618" lon="-1.74882">
        <ele>61</ele>
        <time>2024-04-05T20:32:08Z</time>
      </trkpt>
      <trkpt lat="43.37621" lon="-1.74858">
        <ele>59</ele>
        <time>2024-04-05T20:32:11Z</time>
      </trkpt>
      <trkpt lat="43.37629" lon="-1.74832">
        <ele>57</ele>
        <time>2024-04-05T20:32:15Z</time>
      </trkpt>
      <trkpt lat="43.37646" lon="-1.74803">
        <ele>57</ele>
        <time>2024-04-05T20:32:19Z</time>
      </trkpt>
      <trkpt lat="43.37671" lon="-1.74768">
        <ele>58</ele>
        <time>2024-04-05T20:32:26Z</time>
      </trkpt>
      <trkpt lat="43.37693" lon="-1.74727">
        <ele>58</ele>
        <time>2024-04-05T20:32:32Z</time>
      </trkpt>
      <trkpt lat="43.37716" lon="-1.74666">
        <ele>58</ele>
        <time>2024-04-05T20:32:41Z</time>
      </trkpt>
      <trkpt lat="43.3773" lon="-1.74601">
        <ele>57</ele>
        <time>2024-04-05T20:32:50Z</time>
      </trkpt>
      <trkpt lat="43.37734" lon="-1.74576">
        <ele>56</ele>
        <time>2024-04-05T20:32:53Z</time>
      </trkpt>
      <trkpt lat="43.37736" lon="-1.74546">
        <ele>55</ele>
        <time>2024-04-05T20:32:57Z</time>
      </trkpt>
      <trkpt lat="43.37733" lon="-1.74381">
        <ele>49</ele>
        <time>2024-04-05T20:33:18Z</time>
      </trkpt>
      <trkpt lat="43.3773" lon="-1.74338">
        <ele>47</ele>
        <time>2024-04-05T20:33:24Z</time>
      </trkpt>
      <trkpt lat="43.37727" lon="-1.7432">
        <ele>46</ele>
        <time>2024-04-05T20:33:26Z</time>
      </trkpt>
      <trkpt lat="43.37722" lon="-1.743">
        <ele>46</ele>
        <time>2024-04-05T20:33:29Z</time>
      </trkpt>
      <trkpt lat="43.37715" lon="-1.74282">
        <ele>45</ele>
        <time>2024-04-05T20:33:32Z</time>
      </trkpt>
      <trkpt lat="43.37688" lon="-1.74243">
        <ele>44</ele>
        <time>2024-04-05T20:33:39Z</time>
      </trkpt>
      <trkpt lat="43.37683" lon="-1.74243">
        <ele>44</ele>
        <time>2024-04-05T20:33:40Z</time>
      </trkpt>
      <trkpt lat="43.37676" lon="-1.74237">
        <ele>44</ele>
        <time>2024-04-05T20:33:41Z</time>
      </trkpt>
      <trkpt lat="43.37675" lon="-1.74226">
        <ele>44</ele>
        <time>2024-04-05T20:33:43Z</time>
      </trkpt>
      <trkpt lat="43.3768" lon="-1.74217">
        <ele>44</ele>
        <time>2024-04-05T20:33:44Z</time>
      </trkpt>
      <trkpt lat="43.37679" lon="-1.74198">
        <ele>44</ele>
        <time>2024-04-05T20:33:47Z</time>
      </trkpt>
      <trkpt lat="43.37671" lon="-1.74158">
        <ele>45</ele>
        <time>2024-04-05T20:33:52Z</time>
      </trkpt>
      <trkpt lat="43.37646" lon="-1.74082">
        <ele>44</ele>
        <time>2024-04-05T20:34:03Z</time>
      </trkpt>
      <trkpt lat="43.37641" lon="-1.74058">
        <ele>43</ele>
        <time>2024-04-05T20:34:06Z</time>
      </trkpt>
      <trkpt lat="43.37642" lon="-1.74017">
        <ele>41</ele>
        <time>2024-04-05T20:34:11Z</time>
      </trkpt>
      <trkpt lat="43.37645" lon="-1.73994">
        <ele>40</ele>
        <time>2024-04-05T20:34:14Z</time>
      </trkpt>
      <trkpt lat="43.37655" lon="-1.73967">
        <ele>39</ele>
        <time>2024-04-05T20:34:18Z</time>
      </trkpt>
      <trkpt lat="43.37671" lon="-1.73942">
        <ele>37</ele>
        <time>2024-04-05T20:34:22Z</time>
      </trkpt>
      <trkpt lat="43.37727" lon="-1.73884">
        <ele>33</ele>
        <time>2024-04-05T20:34:35Z</time>
      </trkpt>
      <trkpt lat="43.37737" lon="-1.7387">
        <ele>32</ele>
        <time>2024-04-05T20:34:37Z</time>
      </trkpt>
      <trkpt lat="43.37749" lon="-1.73845">
        <ele>31</ele>
        <time>2024-04-05T20:34:41Z</time>
      </trkpt>
      <trkpt lat="43.37757" lon="-1.73812">
        <ele>29</ele>
        <time>2024-04-05T20:34:46Z</time>
      </trkpt>
      <trkpt lat="43.37757" lon="-1.73787">
        <ele>27</ele>
        <time>2024-04-05T20:34:49Z</time>
      </trkpt>
      <trkpt lat="43.37755" lon="-1.7377">
        <ele>27</ele>
        <time>2024-04-05T20:34:51Z</time>
      </trkpt>
      <trkpt lat="43.37736" lon="-1.73685">
        <ele>24</ele>
        <time>2024-04-05T20:35:03Z</time>
      </trkpt>
      <trkpt lat="43.37734" lon="-1.73667">
        <ele>24</ele>
        <time>2024-04-05T20:35:05Z</time>
      </trkpt>
      <trkpt lat="43.37733" lon="-1.73624">
        <ele>24</ele>
        <time>2024-04-05T20:35:11Z</time>
      </trkpt>
      <trkpt lat="43.37738" lon="-1.73599">
        <ele>25</ele>
        <time>2024-04-05T20:35:14Z</time>
      </trkpt>
      <trkpt lat="43.37746" lon="-1.73579">
        <ele>25</ele>
        <time>2024-04-05T20:35:17Z</time>
      </trkpt>
      <trkpt lat="43.37762" lon="-1.73547">
        <ele>21</ele>
        <time>2024-04-05T20:35:22Z</time>
      </trkpt>
      <trkpt lat="43.37871" lon="-1.73371">
        <ele>13</ele>
        <time>2024-04-05T20:35:52Z</time>
      </trkpt>
      <trkpt lat="43.37895" lon="-1.73335">
        <ele>12</ele>
        <time>2024-04-05T20:35:58Z</time>
      </trkpt>
      <trkpt lat="43.37919" lon="-1.73309">
        <ele>13</ele>
        <time>2024-04-05T20:36:04Z</time>
      </trkpt>
      <trkpt lat="43.37947" lon="-1.73286">
        <ele>12</ele>
        <time>2024-04-05T20:36:10Z</time>
      </trkpt>
      <trkpt lat="43.38018" lon="-1.7324">
        <ele>11</ele>
        <time>2024-04-05T20:36:23Z</time>
      </trkpt>
      <trkpt lat="43.38035" lon="-1.73234">
        <ele>12</ele>
        <time>2024-04-05T20:36:27Z</time>
      </trkpt>
      <trkpt lat="43.38053" lon="-1.73232">
        <ele>12</ele>
        <time>2024-04-05T20:36:30Z</time>
      </trkpt>
      <trkpt lat="43.38106" lon="-1.73233">
        <ele>11</ele>
        <time>2024-04-05T20:36:39Z</time>
      </trkpt>
      <trkpt lat="43.38124" lon="-1.73228">
        <ele>11</ele>
        <time>2024-04-05T20:36:42Z</time>
      </trkpt>
      <trkpt lat="43.38137" lon="-1.73221">
        <ele>12</ele>
        <time>2024-04-05T20:36:45Z</time>
      </trkpt>
      <trkpt lat="43.38149" lon="-1.73211">
        <ele>13</ele>
        <time>2024-04-05T20:36:47Z</time>
      </trkpt>
      <trkpt lat="43.38162" lon="-1.73195">
        <ele>14</ele>
        <time>2024-04-05T20:36:51Z</time>
      </trkpt>
      <trkpt lat="43.38174" lon="-1.73172">
        <ele>16</ele>
        <time>2024-04-05T20:36:54Z</time>
      </trkpt>
      <trkpt lat="43.38181" lon="-1.73146">
        <ele>15</ele>
        <time>2024-04-05T20:36:58Z</time>
      </trkpt>
      <trkpt lat="43.38183" lon="-1.73113">
        <ele>15</ele>
        <time>2024-04-05T20:37:02Z</time>
      </trkpt>
      <trkpt lat="43.38166" lon="-1.72973">
        <ele>15</ele>
        <time>2024-04-05T20:37:20Z</time>
      </trkpt>
      <trkpt lat="43.38165" lon="-1.72949">
        <ele>15</ele>
        <time>2024-04-05T20:37:24Z</time>
      </trkpt>
      <trkpt lat="43.38166" lon="-1.72918">
        <ele>15</ele>
        <time>2024-04-05T20:37:28Z</time>
      </trkpt>
      <trkpt lat="43.38169" lon="-1.72896">
        <ele>15</ele>
        <time>2024-04-05T20:37:30Z</time>
      </trkpt>
      <trkpt lat="43.38178" lon="-1.72857">
        <ele>15</ele>
        <time>2024-04-05T20:37:36Z</time>
      </trkpt>
      <trkpt lat="43.38202" lon="-1.72766">
        <ele>16</ele>
        <time>2024-04-05T20:37:48Z</time>
      </trkpt>
      <trkpt lat="43.38209" lon="-1.72746">
        <ele>16</ele>
        <time>2024-04-05T20:37:51Z</time>
      </trkpt>
      <trkpt lat="43.38219" lon="-1.72724">
        <ele>18</ele>
        <time>2024-04-05T20:37:55Z</time>
      </trkpt>
      <trkpt lat="43.38236" lon="-1.72702">
        <ele>19</ele>
        <time>2024-04-05T20:37:59Z</time>
      </trkpt>
      <trkpt lat="43.38378" lon="-1.72572">
        <ele>18</ele>
        <time>2024-04-05T20:38:29Z</time>
      </trkpt>
      <trkpt lat="43.38391" lon="-1.72558">
        <ele>18</ele>
        <time>2024-04-05T20:38:32Z</time>
      </trkpt>
      <trkpt lat="43.38407" lon="-1.72535">
        <ele>20</ele>
        <time>2024-04-05T20:38:36Z</time>
      </trkpt>
      <trkpt lat="43.38414" lon="-1.72521">
        <ele>22</ele>
        <time>2024-04-05T20:38:38Z</time>
      </trkpt>
      <trkpt lat="43.38423" lon="-1.725">
        <ele>23</ele>
        <time>2024-04-05T20:38:41Z</time>
      </trkpt>
      <trkpt lat="43.38431" lon="-1.72474">
        <ele>24</ele>
        <time>2024-04-05T20:38:45Z</time>
      </trkpt>
      <trkpt lat="43.38436" lon="-1.72448">
        <ele>25</ele>
        <time>2024-04-05T20:38:49Z</time>
      </trkpt>
      <trkpt lat="43.38439" lon="-1.72417">
        <ele>27</ele>
        <time>2024-04-05T20:38:53Z</time>
      </trkpt>
      <trkpt lat="43.38437" lon="-1.72386">
        <ele>30</ele>
        <time>2024-04-05T20:38:57Z</time>
      </trkpt>
      <trkpt lat="43.38431" lon="-1.72354">
        <ele>34</ele>
        <time>2024-04-05T20:39:01Z</time>
      </trkpt>
      <trkpt lat="43.38407" lon="-1.72251">
        <ele>43</ele>
        <time>2024-04-05T20:39:15Z</time>
      </trkpt>
      <trkpt lat="43.38404" lon="-1.72205">
        <ele>42</ele>
        <time>2024-04-05T20:39:21Z</time>
      </trkpt>
      <trkpt lat="43.38406" lon="-1.72191">
        <ele>42</ele>
        <time>2024-04-05T20:39:23Z</time>
      </trkpt>
      <trkpt lat="43.38412" lon="-1.72163">
        <ele>41</ele>
        <time>2024-04-05T20:39:26Z</time>
      </trkpt>
      <trkpt lat="43.38577" lon="-1.7172">
        <ele>26</ele>
        <time>2024-04-05T20:40:31Z</time>
      </trkpt>
      <trkpt lat="43.38678" lon="-1.71369">
        <ele>16</ele>
        <time>2024-04-05T20:41:20Z</time>
      </trkpt>
      <trkpt lat="43.38682" lon="-1.71344">
        <ele>14</ele>
        <time>2024-04-05T20:41:23Z</time>
      </trkpt>
      <trkpt lat="43.38683" lon="-1.71316">
        <ele>13</ele>
        <time>2024-04-05T20:41:27Z</time>
      </trkpt>
      <trkpt lat="43.38676" lon="-1.71273">
        <ele>13</ele>
        <time>2024-04-05T20:41:32Z</time>
      </trkpt>
      <trkpt lat="43.38635" lon="-1.7111">
        <ele>21</ele>
        <time>2024-04-05T20:41:55Z</time>
      </trkpt>
      <trkpt lat="43.38631" lon="-1.71085">
        <ele>23</ele>
        <time>2024-04-05T20:41:58Z</time>
      </trkpt>
      <trkpt lat="43.3863" lon="-1.71064">
        <ele>24</ele>
        <time>2024-04-05T20:42:01Z</time>
      </trkpt>
      <trkpt lat="43.38631" lon="-1.71045">
        <ele>25</ele>
        <time>2024-04-05T20:42:03Z</time>
      </trkpt>
      <trkpt lat="43.38635" lon="-1.71027">
        <ele>26</ele>
        <time>2024-04-05T20:42:06Z</time>
      </trkpt>
      <trkpt lat="43.38639" lon="-1.71011">
        <ele>27</ele>
        <time>2024-04-05T20:42:08Z</time>
      </trkpt>
      <trkpt lat="43.38646" lon="-1.70994">
        <ele>27</ele>
        <time>2024-04-05T20:42:10Z</time>
      </trkpt>
      <trkpt lat="43.38658" lon="-1.70975">
        <ele>28</ele>
        <time>2024-04-05T20:42:13Z</time>
      </trkpt>
      <trkpt lat="43.3867" lon="-1.70961">
        <ele>29</ele>
        <time>2024-04-05T20:42:16Z</time>
      </trkpt>
      <trkpt lat="43.38694" lon="-1.70943">
        <ele>30</ele>
        <time>2024-04-05T20:42:21Z</time>
      </trkpt>
      <trkpt lat="43.38825" lon="-1.70895">
        <ele>33</ele>
        <time>2024-04-05T20:42:45Z</time>
      </trkpt>
      <trkpt lat="43.38842" lon="-1.70887">
        <ele>32</ele>
        <time>2024-04-05T20:42:48Z</time>
      </trkpt>
      <trkpt lat="43.38851" lon="-1.7088">
        <ele>31</ele>
        <time>2024-04-05T20:42:50Z</time>
      </trkpt>
      <trkpt lat="43.38862" lon="-1.70868">
        <ele>31</ele>
        <time>2024-04-05T20:42:53Z</time>
      </trkpt>
      <trkpt lat="43.38872" lon="-1.70852">
        <ele>32</ele>
        <time>2024-04-05T20:42:56Z</time>
      </trkpt>
      <trkpt lat="43.3888" lon="-1.70827">
        <ele>34</ele>
        <time>2024-04-05T20:42:59Z</time>
      </trkpt>
      <trkpt lat="43.3889" lon="-1.70743">
        <ele>39</ele>
        <time>2024-04-05T20:43:10Z</time>
      </trkpt>
      <trkpt lat="43.38899" lon="-1.70698">
        <ele>42</ele>
        <time>2024-04-05T20:43:16Z</time>
      </trkpt>
      <trkpt lat="43.3891" lon="-1.70662">
        <ele>44</ele>
        <time>2024-04-05T20:43:21Z</time>
      </trkpt>
      <trkpt lat="43.38947" lon="-1.70596">
        <ele>40</ele>
        <time>2024-04-05T20:43:32Z</time>
      </trkpt>
      <trkpt lat="43.38956" lon="-1.70576">
        <ele>39</ele>
        <time>2024-04-05T20:43:35Z</time>
      </trkpt>
      <trkpt lat="43.38998" lon="-1.70437">
        <ele>34</ele>
        <time>2024-04-05T20:43:54Z</time>
      </trkpt>
      <trkpt lat="43.39043" lon="-1.70314">
        <ele>26</ele>
        <time>2024-04-05T20:44:12Z</time>
      </trkpt>
      <trkpt lat="43.39054" lon="-1.70278">
        <ele>26</ele>
        <time>2024-04-05T20:44:17Z</time>
      </trkpt>
      <trkpt lat="43.3906" lon="-1.70244">
        <ele>27</ele>
        <time>2024-04-05T20:44:22Z</time>
      </trkpt>
      <trkpt lat="43.39067" lon="-1.70191">
        <ele>33</ele>
        <time>2024-04-05T20:44:29Z</time>
      </trkpt>
      <trkpt lat="43.39066" lon="-1.70176">
        <ele>35</ele>
        <time>2024-04-05T20:44:31Z</time>
      </trkpt>
      <trkpt lat="43.39062" lon="-1.70168">
        <ele>36</ele>
        <time>2024-04-05T20:44:32Z</time>
      </trkpt>
      <trkpt lat="43.39055" lon="-1.70135">
        <ele>41</ele>
        <time>2024-04-05T20:44:36Z</time>
      </trkpt>
      <trkpt lat="43.39046" lon="-1.70103">
        <ele>45</ele>
        <time>2024-04-05T20:44:41Z</time>
      </trkpt>
      <trkpt lat="43.39048" lon="-1.70088">
        <ele>46</ele>
        <time>2024-04-05T20:44:43Z</time>
      </trkpt>
      <trkpt lat="43.39051" lon="-1.70083">
        <ele>47</ele>
        <time>2024-04-05T20:44:44Z</time>
      </trkpt>
      <trkpt lat="43.39055" lon="-1.70081">
        <ele>46</ele>
        <time>2024-04-05T20:44:44Z</time>
      </trkpt>
      <trkpt lat="43.39063" lon="-1.7008">
        <ele>46</ele>
        <time>2024-04-05T20:44:46Z</time>
      </trkpt>
      <trkpt lat="43.39098" lon="-1.70088">
        <ele>40</ele>
        <time>2024-04-05T20:44:52Z</time>
      </trkpt>
      <trkpt lat="43.39112" lon="-1.70083">
        <ele>37</ele>
        <time>2024-04-05T20:44:55Z</time>
      </trkpt>
      <trkpt lat="43.39119" lon="-1.70078">
        <ele>35</ele>
        <time>2024-04-05T20:44:56Z</time>
      </trkpt>
      <trkpt lat="43.39136" lon="-1.70056">
        <ele>32</ele>
        <time>2024-04-05T20:45:00Z</time>
      </trkpt>
      <trkpt lat="43.39147" lon="-1.70028">
        <ele>31</ele>
        <time>2024-04-05T20:45:04Z</time>
      </trkpt>
      <trkpt lat="43.39143" lon="-1.69843">
        <ele>39</ele>
        <time>2024-04-05T20:45:28Z</time>
      </trkpt>
      <trkpt lat="43.3915" lon="-1.69798">
        <ele>38</ele>
        <time>2024-04-05T20:45:34Z</time>
      </trkpt>
      <trkpt lat="43.39156" lon="-1.69778">
        <ele>37</ele>
        <time>2024-04-05T20:45:37Z</time>
      </trkpt>
      <trkpt lat="43.39225" lon="-1.69594">
        <ele>21</ele>
        <time>2024-04-05T20:46:04Z</time>
      </trkpt>
      <trkpt lat="43.39235" lon="-1.69573">
        <ele>21</ele>
        <time>2024-04-05T20:46:07Z</time>
      </trkpt>
      <trkpt lat="43.39359" lon="-1.69343">
        <ele>20</ele>
        <time>2024-04-05T20:46:44Z</time>
      </trkpt>
      <trkpt lat="43.39368" lon="-1.69316">
        <ele>19</ele>
        <time>2024-04-05T20:46:48Z</time>
      </trkpt>
      <trkpt lat="43.39373" lon="-1.69291">
        <ele>17</ele>
        <time>2024-04-05T20:46:51Z</time>
      </trkpt>
      <trkpt lat="43.39386" lon="-1.69191">
        <ele>14</ele>
        <time>2024-04-05T20:47:04Z</time>
      </trkpt>
      <trkpt lat="43.39399" lon="-1.69114">
        <ele>14</ele>
        <time>2024-04-05T20:47:15Z</time>
      </trkpt>
      <trkpt lat="43.3943" lon="-1.68958">
        <ele>12</ele>
        <time>2024-04-05T20:47:36Z</time>
      </trkpt>
      <trkpt lat="43.39433" lon="-1.68939">
        <ele>11</ele>
        <time>2024-04-05T20:47:38Z</time>
      </trkpt>
      <trkpt lat="43.39433" lon="-1.68903">
        <ele>11</ele>
        <time>2024-04-05T20:47:43Z</time>
      </trkpt>
      <trkpt lat="43.39428" lon="-1.68867">
        <ele>12</ele>
        <time>2024-04-05T20:47:48Z</time>
      </trkpt>
      <trkpt lat="43.39427" lon="-1.68858">
        <ele>12</ele>
        <time>2024-04-05T20:47:49Z</time>
      </trkpt>
      <trkpt lat="43.39422" lon="-1.6884">
        <ele>13</ele>
        <time>2024-04-05T20:47:51Z</time>
      </trkpt>
      <trkpt lat="43.39411" lon="-1.68814">
        <ele>15</ele>
        <time>2024-04-05T20:47:55Z</time>
      </trkpt>
      <trkpt lat="43.39403" lon="-1.68799">
        <ele>16</ele>
        <time>2024-04-05T20:47:57Z</time>
      </trkpt>
      <trkpt lat="43.39392" lon="-1.68783">
        <ele>16</ele>
        <time>2024-04-05T20:48:00Z</time>
      </trkpt>
      <trkpt lat="43.39371" lon="-1.68762">
        <ele>16</ele>
        <time>2024-04-05T20:48:05Z</time>
      </trkpt>
      <trkpt lat="43.39361" lon="-1.68754">
        <ele>16</ele>
        <time>2024-04-05T20:48:07Z</time>
      </trkpt>
      <trkpt lat="43.39285" lon="-1.68711">
        <ele>14</ele>
        <time>2024-04-05T20:48:22Z</time>
      </trkpt>
      <trkpt lat="43.39268" lon="-1.68697">
        <ele>13</ele>
        <time>2024-04-05T20:48:25Z</time>
      </trkpt>
      <trkpt lat="43.39255" lon="-1.68682">
        <ele>12</ele>
        <time>2024-04-05T20:48:28Z</time>
      </trkpt>
      <trkpt lat="43.39227" lon="-1.68642">
        <ele>10</ele>
        <time>2024-04-05T20:48:35Z</time>
      </trkpt>
      <trkpt lat="43.39216" lon="-1.68632">
        <ele>10</ele>
        <time>2024-04-05T20:48:38Z</time>
      </trkpt>
      <trkpt lat="43.39203" lon="-1.68624">
        <ele>9</ele>
        <time>2024-04-05T20:48:40Z</time>
      </trkpt>
      <trkpt lat="43.39189" lon="-1.68617">
        <ele>8</ele>
        <time>2024-04-05T20:48:43Z</time>
      </trkpt>
      <trkpt lat="43.39099" lon="-1.68606">
        <ele>6</ele>
        <time>2024-04-05T20:48:59Z</time>
      </trkpt>
      <trkpt lat="43.39067" lon="-1.686">
        <ele>5</ele>
        <time>2024-04-05T20:49:05Z</time>
      </trkpt>
      <trkpt lat="43.3903" lon="-1.68584">
        <ele>4</ele>
        <time>2024-04-05T20:49:12Z</time>
      </trkpt>
      <trkpt lat="43.39023" lon="-1.68577">
        <ele>4</ele>
        <time>2024-04-05T20:49:13Z</time>
      </trkpt>
      <trkpt lat="43.39007" lon="-1.68558">
        <ele>4</ele>
        <time>2024-04-05T20:49:17Z</time>
      </trkpt>
      <trkpt lat="43.38997" lon="-1.68533">
        <ele>4</ele>
        <time>2024-04-05T20:49:21Z</time>
      </trkpt>
      <trkpt lat="43.38993" lon="-1.68519">
        <ele>5</ele>
        <time>2024-04-05T20:49:23Z</time>
      </trkpt>
      <trkpt lat="43.38987" lon="-1.68499">
        <ele>5</ele>
        <time>2024-04-05T20:49:25Z</time>
      </trkpt>
      <trkpt lat="43.38985" lon="-1.68454">
        <ele>6</ele>
        <time>2024-04-05T20:49:31Z</time>
      </trkpt>
      <trkpt lat="43.3898" lon="-1.68405">
        <ele>6</ele>
        <time>2024-04-05T20:49:38Z</time>
      </trkpt>
      <trkpt lat="43.38972" lon="-1.68363">
        <ele>7</ele>
        <time>2024-04-05T20:49:43Z</time>
      </trkpt>
      <trkpt lat="43.38931" lon="-1.68202">
        <ele>6</ele>
        <time>2024-04-05T20:50:05Z</time>
      </trkpt>
      <trkpt lat="43.38906" lon="-1.68213">
        <ele>9</ele>
        <time>2024-04-05T20:50:10Z</time>
      </trkpt>
      <trkpt lat="43.38931" lon="-1.68202">
        <ele>6</ele>
        <time>2024-04-05T20:50:15Z</time>
      </trkpt>
      <trkpt lat="43.38884" lon="-1.68028">
        <ele>7</ele>
        <time>2024-04-05T20:50:39Z</time>
      </trkpt>
      <trkpt lat="43.38857" lon="-1.67978">
        <ele>9</ele>
        <time>2024-04-05T20:50:47Z</time>
      </trkpt>
      <trkpt lat="43.3885" lon="-1.67959">
        <ele>9</ele>
        <time>2024-04-05T20:50:49Z</time>
      </trkpt>
      <trkpt lat="43.3884" lon="-1.679">
        <ele>10</ele>
        <time>2024-04-05T20:50:57Z</time>
      </trkpt>
      <trkpt lat="43.38822" lon="-1.67842">
        <ele>15</ele>
        <time>2024-04-05T20:51:05Z</time>
      </trkpt>
      <trkpt lat="43.38826" lon="-1.67838">
        <ele>14</ele>
        <time>2024-04-05T20:51:06Z</time>
      </trkpt>
      <trkpt lat="43.38813" lon="-1.67788">
        <ele>16</ele>
        <time>2024-04-05T20:51:13Z</time>
      </trkpt>
      <trkpt lat="43.3881" lon="-1.67749">
        <ele>15</ele>
        <time>2024-04-05T20:51:18Z</time>
      </trkpt>
      <trkpt lat="43.38811" lon="-1.67595">
        <ele>14</ele>
        <time>2024-04-05T20:51:38Z</time>
      </trkpt>
      <trkpt lat="43.38816" lon="-1.67366">
        <ele>17</ele>
        <time>2024-04-05T20:52:08Z</time>
      </trkpt>
      <trkpt lat="43.38819" lon="-1.67341">
        <ele>16</ele>
        <time>2024-04-05T20:52:11Z</time>
      </trkpt>
      <trkpt lat="43.38826" lon="-1.67318">
        <ele>15</ele>
        <time>2024-04-05T20:52:14Z</time>
      </trkpt>
      <trkpt lat="43.38849" lon="-1.67275">
        <ele>11</ele>
        <time>2024-04-05T20:52:21Z</time>
      </trkpt>
      <trkpt lat="43.38853" lon="-1.67262">
        <ele>10</ele>
        <time>2024-04-05T20:52:23Z</time>
      </trkpt>
      <trkpt lat="43.38855" lon="-1.6725">
        <ele>10</ele>
        <time>2024-04-05T20:52:25Z</time>
      </trkpt>
      <trkpt lat="43.38856" lon="-1.67237">
        <ele>10</ele>
        <time>2024-04-05T20:52:26Z</time>
      </trkpt>
      <trkpt lat="43.38852" lon="-1.67213">
        <ele>9</ele>
        <time>2024-04-05T20:52:29Z</time>
      </trkpt>
      <trkpt lat="43.38838" lon="-1.67172">
        <ele>9</ele>
        <time>2024-04-05T20:52:35Z</time>
      </trkpt>
      <trkpt lat="43.38813" lon="-1.67107">
        <ele>7</ele>
        <time>2024-04-05T20:52:45Z</time>
      </trkpt>
      <trkpt lat="43.38772" lon="-1.67047">
        <ele>8</ele>
        <time>2024-04-05T20:52:55Z</time>
      </trkpt>
      <trkpt lat="43.38769" lon="-1.6704">
        <ele>8</ele>
        <time>2024-04-05T20:52:56Z</time>
      </trkpt>
      <trkpt lat="43.38746" lon="-1.66986">
        <ele>6</ele>
        <time>2024-04-05T20:53:05Z</time>
      </trkpt>
      <trkpt lat="43.3873" lon="-1.66954">
        <ele>6</ele>
        <time>2024-04-05T20:53:10Z</time>
      </trkpt>
      <trkpt lat="43.38728" lon="-1.66957">
        <ele>7</ele>
        <time>2024-04-05T20:53:10Z</time>
      </trkpt>
      <trkpt lat="43.38673" lon="-1.6689">
        <ele>7</ele>
        <time>2024-04-05T20:53:23Z</time>
      </trkpt>
      <trkpt lat="43.3863" lon="-1.66831">
        <ele>7</ele>
        <time>2024-04-05T20:53:34Z</time>
      </trkpt>
      <trkpt lat="43.38585" lon="-1.66778">
        <ele>6</ele>
        <time>2024-04-05T20:53:45Z</time>
      </trkpt>
      <trkpt lat="43.38558" lon="-1.66752">
        <ele>5</ele>
        <time>2024-04-05T20:53:50Z</time>
      </trkpt>
      <trkpt lat="43.38491" lon="-1.66705">
        <ele>5</ele>
        <time>2024-04-05T20:54:04Z</time>
      </trkpt>
      <trkpt lat="43.38482" lon="-1.66695">
        <ele>5</ele>
        <time>2024-04-05T20:54:06Z</time>
      </trkpt>
      <trkpt lat="43.3847" lon="-1.66674">
        <ele>5</ele>
        <time>2024-04-05T20:54:09Z</time>
      </trkpt>
      <trkpt lat="43.3846" lon="-1.66647">
        <ele>4</ele>
        <time>2024-04-05T20:54:13Z</time>
      </trkpt>
      <trkpt lat="43.38455" lon="-1.66649">
        <ele>4</ele>
        <time>2024-04-05T20:54:14Z</time>
      </trkpt>
      <trkpt lat="43.38449" lon="-1.66646">
        <ele>4</ele>
        <time>2024-04-05T20:54:15Z</time>
      </trkpt>
      <trkpt lat="43.38446" lon="-1.66639">
        <ele>4</ele>
        <time>2024-04-05T20:54:16Z</time>
      </trkpt>
      <trkpt lat="43.38446" lon="-1.66631">
        <ele>4</ele>
        <time>2024-04-05T20:54:17Z</time>
      </trkpt>
      <trkpt lat="43.38411" lon="-1.66589">
        <ele>4</ele>
        <time>2024-04-05T20:54:26Z</time>
      </trkpt>
      <trkpt lat="43.38408" lon="-1.66568">
        <ele>4</ele>
        <time>2024-04-05T20:54:28Z</time>
      </trkpt>
      <trkpt lat="43.38416" lon="-1.66546">
        <ele>4</ele>
        <time>2024-04-05T20:54:32Z</time>
      </trkpt>
      <trkpt lat="43.38482" lon="-1.6642">
        <ele>5</ele>
        <time>2024-04-05T20:54:52Z</time>
      </trkpt>
      <trkpt lat="43.38517" lon="-1.66346">
        <ele>2</ele>
        <time>2024-04-05T20:55:03Z</time>
      </trkpt>
      <trkpt lat="43.38548" lon="-1.66274">
        <ele>3</ele>
        <time>2024-04-05T20:55:14Z</time>
      </trkpt>
      <trkpt lat="43.38558" lon="-1.6625">
        <ele>3</ele>
        <time>2024-04-05T20:55:17Z</time>
      </trkpt>
      <trkpt lat="43.38566" lon="-1.66229">
        <ele>3</ele>
        <time>2024-04-05T20:55:21Z</time>
      </trkpt>
      <trkpt lat="43.38574" lon="-1.66212">
        <ele>4</ele>
        <time>2024-04-05T20:55:23Z</time>
      </trkpt>
      <trkpt lat="43.38589" lon="-1.66194">
        <ele>4</ele>
        <time>2024-04-05T20:55:27Z</time>
      </trkpt>
      <trkpt lat="43.3859" lon="-1.66189">
        <ele>4</ele>
        <time>2024-04-05T20:55:27Z</time>
      </trkpt>
      <trkpt lat="43.38593" lon="-1.66178">
        <ele>4</ele>
        <time>2024-04-05T20:55:29Z</time>
      </trkpt>
      <trkpt lat="43.38598" lon="-1.66173">
        <ele>5</ele>
        <time>2024-04-05T20:55:30Z</time>
      </trkpt>
      <trkpt lat="43.38603" lon="-1.6617">
        <ele>5</ele>
        <time>2024-04-05T20:55:31Z</time>
      </trkpt>
      <trkpt lat="43.38609" lon="-1.6617">
        <ele>5</ele>
        <time>2024-04-05T20:55:32Z</time>
      </trkpt>
      <trkpt lat="43.38615" lon="-1.66172">
        <ele>6</ele>
        <time>2024-04-05T20:55:33Z</time>
      </trkpt>
      <trkpt lat="43.38623" lon="-1.66181">
        <ele>6</ele>
        <time>2024-04-05T20:55:35Z</time>
      </trkpt>
      <trkpt lat="43.38625" lon="-1.66195">
        <ele>5</ele>
        <time>2024-04-05T20:55:37Z</time>
      </trkpt>
      <trkpt lat="43.3863" lon="-1.66198">
        <ele>6</ele>
        <time>2024-04-05T20:55:38Z</time>
      </trkpt>
      <trkpt lat="43.38654" lon="-1.66271">
        <ele>3</ele>
        <time>2024-04-05T20:55:48Z</time>
      </trkpt>
      <trkpt lat="43.38665" lon="-1.66299">
        <ele>2</ele>
        <time>2024-04-05T20:55:52Z</time>
      </trkpt>
      <trkpt lat="43.38674" lon="-1.66306">
        <ele>2</ele>
        <time>2024-04-05T20:55:54Z</time>
      </trkpt>
      <trkpt lat="43.3868" lon="-1.66306">
        <ele>2</ele>
        <time>2024-04-05T20:55:55Z</time>
      </trkpt>
      <trkpt lat="43.38692" lon="-1.66288">
        <ele>3</ele>
        <time>2024-04-05T20:55:58Z</time>
      </trkpt>
      <trkpt lat="43.387" lon="-1.66284">
        <ele>4</ele>
        <time>2024-04-05T20:56:00Z</time>
      </trkpt>
      <trkpt lat="43.38757" lon="-1.6613">
        <ele>8</ele>
        <time>2024-04-05T20:56:22Z</time>
      </trkpt>
      <trkpt lat="43.388" lon="-1.66015">
        <ele>6</ele>
        <time>2024-04-05T20:56:39Z</time>
      </trkpt>
      <trkpt lat="43.38808" lon="-1.65994">
        <ele>6</ele>
        <time>2024-04-05T20:56:42Z</time>
      </trkpt>
      <trkpt lat="43.38848" lon="-1.65887">
        <ele>9</ele>
        <time>2024-04-05T20:56:58Z</time>
      </trkpt>
      <trkpt lat="43.38851" lon="-1.65872">
        <ele>9</ele>
        <time>2024-04-05T20:57:00Z</time>
      </trkpt>
      <trkpt lat="43.38875" lon="-1.65832">
        <ele>10</ele>
        <time>2024-04-05T20:57:06Z</time>
      </trkpt>
      <trkpt lat="43.38883" lon="-1.65823">
        <ele>10</ele>
        <time>2024-04-05T20:57:08Z</time>
      </trkpt>
      <trkpt lat="43.38913" lon="-1.65803">
        <ele>11</ele>
        <time>2024-04-05T20:57:14Z</time>
      </trkpt>
      <trkpt lat="43.39054" lon="-1.65726">
        <ele>17</ele>
        <time>2024-04-05T20:57:41Z</time>
      </trkpt>
      <trkpt lat="43.39078" lon="-1.6571">
        <ele>18</ele>
        <time>2024-04-05T20:57:46Z</time>
      </trkpt>
      <trkpt lat="43.39084" lon="-1.65697">
        <ele>19</ele>
        <time>2024-04-05T20:57:48Z</time>
      </trkpt>
      <trkpt lat="43.3913" lon="-1.65586">
        <ele>22</ele>
        <time>2024-04-05T20:58:04Z</time>
      </trkpt>
      <trkpt lat="43.39137" lon="-1.65569">
        <ele>23</ele>
        <time>2024-04-05T20:58:07Z</time>
      </trkpt>
      <trkpt lat="43.39158" lon="-1.65507">
        <ele>26</ele>
        <time>2024-04-05T20:58:16Z</time>
      </trkpt>
      <trkpt lat="43.39161" lon="-1.65494">
        <ele>27</ele>
        <time>2024-04-05T20:58:17Z</time>
      </trkpt>
      <trkpt lat="43.39157" lon="-1.65488">
        <ele>27</ele>
        <time>2024-04-05T20:58:18Z</time>
      </trkpt>
      <trkpt lat="43.39157" lon="-1.65477">
        <ele>27</ele>
        <time>2024-04-05T20:58:20Z</time>
      </trkpt>
      <trkpt lat="43.39161" lon="-1.65472">
        <ele>27</ele>
        <time>2024-04-05T20:58:21Z</time>
      </trkpt>
      <trkpt lat="43.39168" lon="-1.65471">
        <ele>28</ele>
        <time>2024-04-05T20:58:22Z</time>
      </trkpt>
      <trkpt lat="43.39177" lon="-1.65461">
        <ele>28</ele>
        <time>2024-04-05T20:58:24Z</time>
      </trkpt>
      <trkpt lat="43.39183" lon="-1.65451">
        <ele>29</ele>
        <time>2024-04-05T20:58:26Z</time>
      </trkpt>
      <trkpt lat="43.3919" lon="-1.65432">
        <ele>30</ele>
        <time>2024-04-05T20:58:29Z</time>
      </trkpt>
      <trkpt lat="43.39208" lon="-1.65388">
        <ele>31</ele>
        <time>2024-04-05T20:58:35Z</time>
      </trkpt>
      <trkpt lat="43.39238" lon="-1.6531">
        <ele>30</ele>
        <time>2024-04-05T20:58:47Z</time>
      </trkpt>
      <trkpt lat="43.39503" lon="-1.64843">
        <ele>30</ele>
        <time>2024-04-05T21:00:03Z</time>
      </trkpt>
      <trkpt lat="43.39712" lon="-1.6448">
        <ele>28</ele>
        <time>2024-04-05T21:01:03Z</time>
      </trkpt>
      <trkpt lat="43.39717" lon="-1.64466">
        <ele>28</ele>
        <time>2024-04-05T21:01:05Z</time>
      </trkpt>
      <trkpt lat="43.39711" lon="-1.64443">
        <ele>27</ele>
        <time>2024-04-05T21:01:08Z</time>
      </trkpt>
      <trkpt lat="43.39712" lon="-1.64434">
        <ele>27</ele>
        <time>2024-04-05T21:01:09Z</time>
      </trkpt>
      <trkpt lat="43.39716" lon="-1.64429">
        <ele>27</ele>
        <time>2024-04-05T21:01:10Z</time>
      </trkpt>
      <trkpt lat="43.39721" lon="-1.64431">
        <ele>27</ele>
        <time>2024-04-05T21:01:11Z</time>
      </trkpt>
      <trkpt lat="43.39726" lon="-1.64408">
        <ele>27</ele>
        <time>2024-04-05T21:01:14Z</time>
      </trkpt>
      <trkpt lat="43.39722" lon="-1.64392">
        <ele>26</ele>
        <time>2024-04-05T21:01:17Z</time>
      </trkpt>
      <trkpt lat="43.39717" lon="-1.64368">
        <ele>25</ele>
        <time>2024-04-05T21:01:20Z</time>
      </trkpt>
      <trkpt lat="43.39715" lon="-1.64354">
        <ele>25</ele>
        <time>2024-04-05T21:01:22Z</time>
      </trkpt>
      <trkpt lat="43.39715" lon="-1.64341">
        <ele>24</ele>
        <time>2024-04-05T21:01:23Z</time>
      </trkpt>
      <trkpt lat="43.39719" lon="-1.64325">
        <ele>24</ele>
        <time>2024-04-05T21:01:25Z</time>
      </trkpt>
      <trkpt lat="43.39729" lon="-1.64309">
        <ele>25</ele>
        <time>2024-04-05T21:01:28Z</time>
      </trkpt>
      <trkpt lat="43.39741" lon="-1.643">
        <ele>25</ele>
        <time>2024-04-05T21:01:31Z</time>
      </trkpt>
      <trkpt lat="43.39788" lon="-1.64294">
        <ele>25</ele>
        <time>2024-04-05T21:01:39Z</time>
      </trkpt>
      <trkpt lat="43.39807" lon="-1.64286">
        <ele>26</ele>
        <time>2024-04-05T21:01:43Z</time>
      </trkpt>
      <trkpt lat="43.39823" lon="-1.64271">
        <ele>26</ele>
        <time>2024-04-05T21:01:46Z</time>
      </trkpt>
      <trkpt lat="43.39837" lon="-1.64253">
        <ele>27</ele>
        <time>2024-04-05T21:01:49Z</time>
      </trkpt>
      <trkpt lat="43.39863" lon="-1.6421">
        <ele>26</ele>
        <time>2024-04-05T21:01:57Z</time>
      </trkpt>
      <trkpt lat="43.39923" lon="-1.64094">
        <ele>27</ele>
        <time>2024-04-05T21:02:15Z</time>
      </trkpt>
      <trkpt lat="43.39924" lon="-1.64076">
        <ele>27</ele>
        <time>2024-04-05T21:02:17Z</time>
      </trkpt>
      <trkpt lat="43.39921" lon="-1.64066">
        <ele>28</ele>
        <time>2024-04-05T21:02:19Z</time>
      </trkpt>
      <trkpt lat="43.39921" lon="-1.6406">
        <ele>28</ele>
        <time>2024-04-05T21:02:20Z</time>
      </trkpt>
      <trkpt lat="43.39922" lon="-1.64054">
        <ele>28</ele>
        <time>2024-04-05T21:02:20Z</time>
      </trkpt>
      <trkpt lat="43.39928" lon="-1.64044">
        <ele>28</ele>
        <time>2024-04-05T21:02:22Z</time>
      </trkpt>
      <trkpt lat="43.39933" lon="-1.64041">
        <ele>29</ele>
        <time>2024-04-05T21:02:23Z</time>
      </trkpt>
      <trkpt lat="43.39943" lon="-1.64041">
        <ele>29</ele>
        <time>2024-04-05T21:02:25Z</time>
      </trkpt>
      <trkpt lat="43.39963" lon="-1.64027">
        <ele>29</ele>
        <time>2024-04-05T21:02:29Z</time>
      </trkpt>
      <trkpt lat="43.39976" lon="-1.64006">
        <ele>30</ele>
        <time>2024-04-05T21:02:32Z</time>
      </trkpt>
      <trkpt lat="43.40124" lon="-1.63738">
        <ele>26</ele>
        <time>2024-04-05T21:03:16Z</time>
      </trkpt>
      <trkpt lat="43.40203" lon="-1.63598">
        <ele>22</ele>
        <time>2024-04-05T21:03:39Z</time>
      </trkpt>
      <trkpt lat="43.40277" lon="-1.63481">
        <ele>19</ele>
        <time>2024-04-05T21:03:59Z</time>
      </trkpt>
      <trkpt lat="43.40399" lon="-1.6327">
        <ele>16</ele>
        <time>2024-04-05T21:04:34Z</time>
      </trkpt>
      <trkpt lat="43.40609" lon="-1.62895">
        <ele>13</ele>
        <time>2024-04-05T21:05:35Z</time>
      </trkpt>
      <trkpt lat="43.40665" lon="-1.62795">
        <ele>16</ele>
        <time>2024-04-05T21:05:51Z</time>
      </trkpt>
      <trkpt lat="43.40738" lon="-1.62648">
        <ele>20</ele>
        <time>2024-04-05T21:06:14Z</time>
      </trkpt>
      <trkpt lat="43.40752" lon="-1.62622">
        <ele>20</ele>
        <time>2024-04-05T21:06:18Z</time>
      </trkpt>
      <trkpt lat="43.40844" lon="-1.6248">
        <ele>23</ele>
        <time>2024-04-05T21:06:43Z</time>
      </trkpt>
      <trkpt lat="43.41145" lon="-1.61948">
        <ele>44</ele>
        <time>2024-04-05T21:08:10Z</time>
      </trkpt>
      <trkpt lat="43.41154" lon="-1.61919">
        <ele>44</ele>
        <time>2024-04-05T21:08:14Z</time>
      </trkpt>
      <trkpt lat="43.41199" lon="-1.61841">
        <ele>47</ele>
        <time>2024-04-05T21:08:27Z</time>
      </trkpt>
      <trkpt lat="43.41222" lon="-1.61791">
        <ele>48</ele>
        <time>2024-04-05T21:08:35Z</time>
      </trkpt>
      <trkpt lat="43.41225" lon="-1.61784">
        <ele>48</ele>
        <time>2024-04-05T21:08:36Z</time>
      </trkpt>
      <trkpt lat="43.4122" lon="-1.61766">
        <ele>47</ele>
        <time>2024-04-05T21:08:38Z</time>
      </trkpt>
      <trkpt lat="43.41222" lon="-1.61749">
        <ele>47</ele>
        <time>2024-04-05T21:08:41Z</time>
      </trkpt>
      <trkpt lat="43.41239" lon="-1.61732">
        <ele>48</ele>
        <time>2024-04-05T21:08:44Z</time>
      </trkpt>
      <trkpt lat="43.41245" lon="-1.61722">
        <ele>48</ele>
        <time>2024-04-05T21:08:46Z</time>
      </trkpt>
      <trkpt lat="43.41323" lon="-1.61486">
        <ele>45</ele>
        <time>2024-04-05T21:09:19Z</time>
      </trkpt>
      <trkpt lat="43.41328" lon="-1.61477">
        <ele>45</ele>
        <time>2024-04-05T21:09:21Z</time>
      </trkpt>
      <trkpt lat="43.4133" lon="-1.61463">
        <ele>44</ele>
        <time>2024-04-05T21:09:23Z</time>
      </trkpt>
      <trkpt lat="43.41345" lon="-1.6145">
        <ele>44</ele>
        <time>2024-04-05T21:09:26Z</time>
      </trkpt>
      <trkpt lat="43.41378" lon="-1.61411">
        <ele>43</ele>
        <time>2024-04-05T21:09:34Z</time>
      </trkpt>
      <trkpt lat="43.41831" lon="-1.60793">
        <ele>39</ele>
        <time>2024-04-05T21:11:27Z</time>
      </trkpt>
      <trkpt lat="43.4185" lon="-1.60772">
        <ele>42</ele>
        <time>2024-04-05T21:11:32Z</time>
      </trkpt>
      <trkpt lat="43.41866" lon="-1.60762">
        <ele>43</ele>
        <time>2024-04-05T21:11:35Z</time>
      </trkpt>
      <trkpt lat="43.41891" lon="-1.60753">
        <ele>45</ele>
        <time>2024-04-05T21:11:39Z</time>
      </trkpt>
      <trkpt lat="43.41999" lon="-1.60738">
        <ele>52</ele>
        <time>2024-04-05T21:11:59Z</time>
      </trkpt>
      <trkpt lat="43.42022" lon="-1.60727">
        <ele>53</ele>
        <time>2024-04-05T21:12:03Z</time>
      </trkpt>
      <trkpt lat="43.42051" lon="-1.60703">
        <ele>54</ele>
        <time>2024-04-05T21:12:09Z</time>
      </trkpt>
      <trkpt lat="43.42067" lon="-1.60683">
        <ele>54</ele>
        <time>2024-04-05T21:12:13Z</time>
      </trkpt>
      <trkpt lat="43.42079" lon="-1.60664">
        <ele>54</ele>
        <time>2024-04-05T21:12:16Z</time>
      </trkpt>
      <trkpt lat="43.42113" lon="-1.60563">
        <ele>49</ele>
        <time>2024-04-05T21:12:30Z</time>
      </trkpt>
      <trkpt lat="43.42123" lon="-1.60539">
        <ele>48</ele>
        <time>2024-04-05T21:12:34Z</time>
      </trkpt>
      <trkpt lat="43.42135" lon="-1.60521">
        <ele>47</ele>
        <time>2024-04-05T21:12:37Z</time>
      </trkpt>
      <trkpt lat="43.42152" lon="-1.60505">
        <ele>46</ele>
        <time>2024-04-05T21:12:41Z</time>
      </trkpt>
      <trkpt lat="43.42168" lon="-1.60496">
        <ele>45</ele>
        <time>2024-04-05T21:12:44Z</time>
      </trkpt>
      <trkpt lat="43.42181" lon="-1.60492">
        <ele>44</ele>
        <time>2024-04-05T21:12:46Z</time>
      </trkpt>
      <trkpt lat="43.42197" lon="-1.60492">
        <ele>43</ele>
        <time>2024-04-05T21:12:49Z</time>
      </trkpt>
      <trkpt lat="43.42215" lon="-1.60495">
        <ele>42</ele>
        <time>2024-04-05T21:12:52Z</time>
      </trkpt>
      <trkpt lat="43.42257" lon="-1.60515">
        <ele>39</ele>
        <time>2024-04-05T21:13:00Z</time>
      </trkpt>
      <trkpt lat="43.42283" lon="-1.60518">
        <ele>38</ele>
        <time>2024-04-05T21:13:05Z</time>
      </trkpt>
      <trkpt lat="43.42307" lon="-1.60515">
        <ele>38</ele>
        <time>2024-04-05T21:13:09Z</time>
      </trkpt>
      <trkpt lat="43.42344" lon="-1.60507">
        <ele>37</ele>
        <time>2024-04-05T21:13:16Z</time>
      </trkpt>
      <trkpt lat="43.42366" lon="-1.605">
        <ele>37</ele>
        <time>2024-04-05T21:13:20Z</time>
      </trkpt>
      <trkpt lat="43.42566" lon="-1.60408">
        <ele>30</ele>
        <time>2024-04-05T21:13:57Z</time>
      </trkpt>
      <trkpt lat="43.42638" lon="-1.60377">
        <ele>29</ele>
        <time>2024-04-05T21:14:11Z</time>
      </trkpt>
      <trkpt lat="43.42653" lon="-1.60373">
        <ele>28</ele>
        <time>2024-04-05T21:14:13Z</time>
      </trkpt>
      <trkpt lat="43.42662" lon="-1.60373">
        <ele>28</ele>
        <time>2024-04-05T21:14:15Z</time>
      </trkpt>
      <trkpt lat="43.42666" lon="-1.60375">
        <ele>28</ele>
        <time>2024-04-05T21:14:16Z</time>
      </trkpt>
      <trkpt lat="43.42698" lon="-1.6039">
        <ele>29</ele>
        <time>2024-04-05T21:14:22Z</time>
      </trkpt>
      <trkpt lat="43.42709" lon="-1.60393">
        <ele>29</ele>
        <time>2024-04-05T21:14:24Z</time>
      </trkpt>
      <trkpt lat="43.42722" lon="-1.6039">
        <ele>30</ele>
        <time>2024-04-05T21:14:26Z</time>
      </trkpt>
      <trkpt lat="43.42734" lon="-1.60382">
        <ele>30</ele>
        <time>2024-04-05T21:14:29Z</time>
      </trkpt>
      <trkpt lat="43.42739" lon="-1.60375">
        <ele>30</ele>
        <time>2024-04-05T21:14:30Z</time>
      </trkpt>
      <trkpt lat="43.42748" lon="-1.60357">
        <ele>30</ele>
        <time>2024-04-05T21:14:33Z</time>
      </trkpt>
      <trkpt lat="43.42751" lon="-1.60341">
        <ele>30</ele>
        <time>2024-04-05T21:14:35Z</time>
      </trkpt>
      <trkpt lat="43.42757" lon="-1.60286">
        <ele>26</ele>
        <time>2024-04-05T21:14:42Z</time>
      </trkpt>
      <trkpt lat="43.4276" lon="-1.60269">
        <ele>25</ele>
        <time>2024-04-05T21:14:44Z</time>
      </trkpt>
      <trkpt lat="43.42766" lon="-1.60258">
        <ele>25</ele>
        <time>2024-04-05T21:14:46Z</time>
      </trkpt>
      <trkpt lat="43.42854" lon="-1.60145">
        <ele>21</ele>
        <time>2024-04-05T21:15:07Z</time>
      </trkpt>
      <trkpt lat="43.43004" lon="-1.59965">
        <ele>9</ele>
        <time>2024-04-05T21:15:43Z</time>
      </trkpt>
      <trkpt lat="43.43031" lon="-1.5993">
        <ele>7</ele>
        <time>2024-04-05T21:15:49Z</time>
      </trkpt>
      <trkpt lat="43.43097" lon="-1.59839">
        <ele>4</ele>
        <time>2024-04-05T21:16:06Z</time>
      </trkpt>
      <trkpt lat="43.43117" lon="-1.59804">
        <ele>4</ele>
        <time>2024-04-05T21:16:12Z</time>
      </trkpt>
      <trkpt lat="43.43126" lon="-1.59783">
        <ele>4</ele>
        <time>2024-04-05T21:16:15Z</time>
      </trkpt>
      <trkpt lat="43.43127" lon="-1.59772">
        <ele>4</ele>
        <time>2024-04-05T21:16:16Z</time>
      </trkpt>
      <trkpt lat="43.43134" lon="-1.59763">
        <ele>4</ele>
        <time>2024-04-05T21:16:18Z</time>
      </trkpt>
      <trkpt lat="43.43143" lon="-1.59763">
        <ele>3</ele>
        <time>2024-04-05T21:16:20Z</time>
      </trkpt>
      <trkpt lat="43.43157" lon="-1.59743">
        <ele>3</ele>
        <time>2024-04-05T21:16:23Z</time>
      </trkpt>
      <trkpt lat="43.43188" lon="-1.59698">
        <ele>5</ele>
        <time>2024-04-05T21:16:31Z</time>
      </trkpt>
      <trkpt lat="43.4323" lon="-1.59638">
        <ele>5</ele>
        <time>2024-04-05T21:16:42Z</time>
      </trkpt>
      <trkpt lat="43.43259" lon="-1.59616">
        <ele>5</ele>
        <time>2024-04-05T21:16:48Z</time>
      </trkpt>
      <trkpt lat="43.43473" lon="-1.59429">
        <ele>11</ele>
        <time>2024-04-05T21:17:33Z</time>
      </trkpt>
      <trkpt lat="43.43474" lon="-1.59432">
        <ele>11</ele>
        <time>2024-04-05T21:17:33Z</time>
      </trkpt>
      <trkpt lat="43.43455" lon="-1.59449">
        <ele>11</ele>
        <time>2024-04-05T21:17:38Z</time>
      </trkpt>
      <trkpt lat="43.43349" lon="-1.59543">
        <ele>7</ele>
        <time>2024-04-05T21:18:00Z</time>
      </trkpt>
      <trkpt lat="43.43351" lon="-1.59548">
        <ele>8</ele>
        <time>2024-04-05T21:18:01Z</time>
      </trkpt>
      <trkpt lat="43.43351" lon="-1.59562">
        <ele>9</ele>
        <time>2024-04-05T21:18:02Z</time>
      </trkpt>
      <trkpt lat="43.43327" lon="-1.59699">
        <ele>9</ele>
        <time>2024-04-05T21:18:21Z</time>
      </trkpt>
      <trkpt lat="43.43336" lon="-1.59698">
        <ele>10</ele>
        <time>2024-04-05T21:18:22Z</time>
      </trkpt>
      <trkpt lat="43.43422" lon="-1.59666">
        <ele>15</ele>
        <time>2024-04-05T21:18:38Z</time>
      </trkpt>
      <trkpt lat="43.43454" lon="-1.59648">
        <ele>17</ele>
        <time>2024-04-05T21:18:44Z</time>
      </trkpt>
      <trkpt lat="43.43482" lon="-1.5963">
        <ele>19</ele>
        <time>2024-04-05T21:18:50Z</time>
      </trkpt>
      <trkpt lat="43.43502" lon="-1.59613">
        <ele>20</ele>
        <time>2024-04-05T21:18:54Z</time>
      </trkpt>
      <trkpt lat="43.43523" lon="-1.59587">
        <ele>21</ele>
        <time>2024-04-05T21:18:59Z</time>
      </trkpt>
      <trkpt lat="43.4377" lon="-1.59264">
        <ele>35</ele>
        <time>2024-04-05T21:20:00Z</time>
      </trkpt>
      <trkpt lat="43.43784" lon="-1.59249">
        <ele>37</ele>
        <time>2024-04-05T21:20:03Z</time>
      </trkpt>
      <trkpt lat="43.43807" lon="-1.59234">
        <ele>39</ele>
        <time>2024-04-05T21:20:07Z</time>
      </trkpt>
      <trkpt lat="43.43876" lon="-1.59202">
        <ele>47</ele>
        <time>2024-04-05T21:20:20Z</time>
      </trkpt>
      <trkpt lat="43.43886" lon="-1.59192">
        <ele>48</ele>
        <time>2024-04-05T21:20:22Z</time>
      </trkpt>
      <trkpt lat="43.4389" lon="-1.59181">
        <ele>49</ele>
        <time>2024-04-05T21:20:24Z</time>
      </trkpt>
      <trkpt lat="43.43924" lon="-1.59034">
        <ele>56</ele>
        <time>2024-04-05T21:20:44Z</time>
      </trkpt>
      <trkpt lat="43.43929" lon="-1.5902">
        <ele>57</ele>
        <time>2024-04-05T21:20:46Z</time>
      </trkpt>
      <trkpt lat="43.43932" lon="-1.59015">
        <ele>58</ele>
        <time>2024-04-05T21:20:47Z</time>
      </trkpt>
      <trkpt lat="43.44063" lon="-1.58912">
        <ele>69</ele>
        <time>2024-04-05T21:21:14Z</time>
      </trkpt>
      <trkpt lat="43.44074" lon="-1.58902">
        <ele>70</ele>
        <time>2024-04-05T21:21:16Z</time>
      </trkpt>
      <trkpt lat="43.44108" lon="-1.58864">
        <ele>72</ele>
        <time>2024-04-05T21:21:24Z</time>
      </trkpt>
      <trkpt lat="43.44266" lon="-1.58599">
        <ele>72</ele>
        <time>2024-04-05T21:22:08Z</time>
      </trkpt>
      <trkpt lat="43.44288" lon="-1.58574">
        <ele>71</ele>
        <time>2024-04-05T21:22:13Z</time>
      </trkpt>
      <trkpt lat="43.44294" lon="-1.5858">
        <ele>70</ele>
        <time>2024-04-05T21:22:14Z</time>
      </trkpt>
      <trkpt lat="43.44296" lon="-1.58581">
        <ele>70</ele>
        <time>2024-04-05T21:22:15Z</time>
      </trkpt>
      <trkpt lat="43.44298" lon="-1.58576">
        <ele>70</ele>
        <time>2024-04-05T21:22:16Z</time>
      </trkpt>
      <trkpt lat="43.44325" lon="-1.58545">
        <ele>70</ele>
        <time>2024-04-05T21:22:22Z</time>
      </trkpt>
      <trkpt lat="43.44345" lon="-1.58535">
        <ele>69</ele>
        <time>2024-04-05T21:22:26Z</time>
      </trkpt>
      <trkpt lat="43.44381" lon="-1.58507">
        <ele>68</ele>
        <time>2024-04-05T21:22:33Z</time>
      </trkpt>
      <trkpt lat="43.44401" lon="-1.58494">
        <ele>68</ele>
        <time>2024-04-05T21:22:37Z</time>
      </trkpt>
      <trkpt lat="43.44408" lon="-1.58492">
        <ele>68</ele>
        <time>2024-04-05T21:22:38Z</time>
      </trkpt>
      <trkpt lat="43.4449" lon="-1.58482">
        <ele>68</ele>
        <time>2024-04-05T21:22:53Z</time>
      </trkpt>
      <trkpt lat="43.44498" lon="-1.58477">
        <ele>68</ele>
        <time>2024-04-05T21:22:54Z</time>
      </trkpt>
      <trkpt lat="43.44501" lon="-1.5847">
        <ele>69</ele>
        <time>2024-04-05T21:22:55Z</time>
      </trkpt>
      <trkpt lat="43.44581" lon="-1.58452">
        <ele>74</ele>
        <time>2024-04-05T21:23:10Z</time>
      </trkpt>
      <trkpt lat="43.44627" lon="-1.58435">
        <ele>75</ele>
        <time>2024-04-05T21:23:18Z</time>
      </trkpt>
      <trkpt lat="43.4472" lon="-1.58372">
        <ele>73</ele>
        <time>2024-04-05T21:23:37Z</time>
      </trkpt>
      <trkpt lat="43.44737" lon="-1.58358">
        <ele>74</ele>
        <time>2024-04-05T21:23:40Z</time>
      </trkpt>
      <trkpt lat="43.44756" lon="-1.58347">
        <ele>74</ele>
        <time>2024-04-05T21:23:44Z</time>
      </trkpt>
      <trkpt lat="43.44797" lon="-1.58328">
        <ele>76</ele>
        <time>2024-04-05T21:23:52Z</time>
      </trkpt>
      <trkpt lat="43.44799" lon="-1.58321">
        <ele>76</ele>
        <time>2024-04-05T21:23:53Z</time>
      </trkpt>
      <trkpt lat="43.44796" lon="-1.58309">
        <ele>76</ele>
        <time>2024-04-05T21:23:54Z</time>
      </trkpt>
      <trkpt lat="43.44813" lon="-1.58189">
        <ele>77</ele>
        <time>2024-04-05T21:24:10Z</time>
      </trkpt>
      <trkpt lat="43.44814" lon="-1.58187">
        <ele>77</ele>
        <time>2024-04-05T21:24:10Z</time>
      </trkpt>
      <trkpt lat="43.44824" lon="-1.58182">
        <ele>77</ele>
        <time>2024-04-05T21:24:12Z</time>
      </trkpt>
      <trkpt lat="43.44826" lon="-1.58179">
        <ele>77</ele>
        <time>2024-04-05T21:24:13Z</time>
      </trkpt>
      <trkpt lat="43.4484" lon="-1.58083">
        <ele>76</ele>
        <time>2024-04-05T21:24:25Z</time>
      </trkpt>
      <trkpt lat="43.44891" lon="-1.58036">
        <ele>76</ele>
        <time>2024-04-05T21:24:36Z</time>
      </trkpt>
      <trkpt lat="43.449" lon="-1.58028">
        <ele>76</ele>
        <time>2024-04-05T21:24:38Z</time>
      </trkpt>
      <trkpt lat="43.44917" lon="-1.58004">
        <ele>75</ele>
        <time>2024-04-05T21:24:43Z</time>
      </trkpt>
      <trkpt lat="43.44926" lon="-1.57989">
        <ele>73</ele>
        <time>2024-04-05T21:24:45Z</time>
      </trkpt>
      <trkpt lat="43.44933" lon="-1.57969">
        <ele>72</ele>
        <time>2024-04-05T21:24:48Z</time>
      </trkpt>
      <trkpt lat="43.4494" lon="-1.57949">
        <ele>70</ele>
        <time>2024-04-05T21:24:51Z</time>
      </trkpt>
      <trkpt lat="43.44951" lon="-1.57895">
        <ele>68</ele>
        <time>2024-04-05T21:24:58Z</time>
      </trkpt>
      <trkpt lat="43.44963" lon="-1.57824">
        <ele>67</ele>
        <time>2024-04-05T21:25:08Z</time>
      </trkpt>
      <trkpt lat="43.44973" lon="-1.57791">
        <ele>66</ele>
        <time>2024-04-05T21:25:12Z</time>
      </trkpt>
      <trkpt lat="43.44981" lon="-1.5777">
        <ele>66</ele>
        <time>2024-04-05T21:25:15Z</time>
      </trkpt>
      <trkpt lat="43.45036" lon="-1.57652">
        <ele>65</ele>
        <time>2024-04-05T21:25:33Z</time>
      </trkpt>
      <trkpt lat="43.45073" lon="-1.57516">
        <ele>59</ele>
        <time>2024-04-05T21:25:52Z</time>
      </trkpt>
      <trkpt lat="43.4509" lon="-1.57486">
        <ele>57</ele>
        <time>2024-04-05T21:25:57Z</time>
      </trkpt>
      <trkpt lat="43.45114" lon="-1.57455">
        <ele>56</ele>
        <time>2024-04-05T21:26:03Z</time>
      </trkpt>
      <trkpt lat="43.45128" lon="-1.57443">
        <ele>56</ele>
        <time>2024-04-05T21:26:06Z</time>
      </trkpt>
      <trkpt lat="43.45142" lon="-1.57434">
        <ele>55</ele>
        <time>2024-04-05T21:26:09Z</time>
      </trkpt>
      <trkpt lat="43.45204" lon="-1.57405">
        <ele>54</ele>
        <time>2024-04-05T21:26:20Z</time>
      </trkpt>
      <trkpt lat="43.45222" lon="-1.57402">
        <ele>54</ele>
        <time>2024-04-05T21:26:23Z</time>
      </trkpt>
      <trkpt lat="43.45288" lon="-1.57399">
        <ele>52</ele>
        <time>2024-04-05T21:26:35Z</time>
      </trkpt>
      <trkpt lat="43.45311" lon="-1.57395">
        <ele>50</ele>
        <time>2024-04-05T21:26:39Z</time>
      </trkpt>
      <trkpt lat="43.45449" lon="-1.57356">
        <ele>39</ele>
        <time>2024-04-05T21:27:04Z</time>
      </trkpt>
      <trkpt lat="43.4554" lon="-1.57339">
        <ele>39</ele>
        <time>2024-04-05T21:27:21Z</time>
      </trkpt>
      <trkpt lat="43.45539" lon="-1.57333">
        <ele>39</ele>
        <time>2024-04-05T21:27:22Z</time>
      </trkpt>
      <trkpt lat="43.45556" lon="-1.57328">
        <ele>39</ele>
        <time>2024-04-05T21:27:25Z</time>
      </trkpt>
      <trkpt lat="43.45577" lon="-1.57313">
        <ele>40</ele>
        <time>2024-04-05T21:27:29Z</time>
      </trkpt>
      <trkpt lat="43.45652" lon="-1.57248">
        <ele>36</ele>
        <time>2024-04-05T21:27:45Z</time>
      </trkpt>
      <trkpt lat="43.45672" lon="-1.57238">
        <ele>36</ele>
        <time>2024-04-05T21:27:48Z</time>
      </trkpt>
      <trkpt lat="43.45689" lon="-1.57236">
        <ele>35</ele>
        <time>2024-04-05T21:27:51Z</time>
      </trkpt>
      <trkpt lat="43.4578" lon="-1.57249">
        <ele>32</ele>
        <time>2024-04-05T21:28:08Z</time>
      </trkpt>
      <trkpt lat="43.45802" lon="-1.57249">
        <ele>31</ele>
        <time>2024-04-05T21:28:12Z</time>
      </trkpt>
      <trkpt lat="43.4581" lon="-1.57246">
        <ele>31</ele>
        <time>2024-04-05T21:28:13Z</time>
      </trkpt>
      <trkpt lat="43.45811" lon="-1.57233">
        <ele>30</ele>
        <time>2024-04-05T21:28:15Z</time>
      </trkpt>
      <trkpt lat="43.45818" lon="-1.57223">
        <ele>30</ele>
        <time>2024-04-05T21:28:17Z</time>
      </trkpt>
      <trkpt lat="43.45828" lon="-1.57222">
        <ele>29</ele>
        <time>2024-04-05T21:28:18Z</time>
      </trkpt>
      <trkpt lat="43.45833" lon="-1.57224">
        <ele>29</ele>
        <time>2024-04-05T21:28:19Z</time>
      </trkpt>
      <trkpt lat="43.45851" lon="-1.57197">
        <ele>27</ele>
        <time>2024-04-05T21:28:24Z</time>
      </trkpt>
      <trkpt lat="43.45973" lon="-1.57103">
        <ele>16</ele>
        <time>2024-04-05T21:28:49Z</time>
      </trkpt>
      <trkpt lat="43.45999" lon="-1.57073">
        <ele>15</ele>
        <time>2024-04-05T21:28:55Z</time>
      </trkpt>
      <trkpt lat="43.46016" lon="-1.57045">
        <ele>16</ele>
        <time>2024-04-05T21:29:00Z</time>
      </trkpt>
      <trkpt lat="43.46043" lon="-1.56976">
        <ele>19</ele>
        <time>2024-04-05T21:29:10Z</time>
      </trkpt>
      <trkpt lat="43.46086" lon="-1.56934">
        <ele>24</ele>
        <time>2024-04-05T21:29:19Z</time>
      </trkpt>
      <trkpt lat="43.46088" lon="-1.56929">
        <ele>25</ele>
        <time>2024-04-05T21:29:20Z</time>
      </trkpt>
      <trkpt lat="43.4611" lon="-1.56932">
        <ele>25</ele>
        <time>2024-04-05T21:29:24Z</time>
      </trkpt>
      <trkpt lat="43.46116" lon="-1.56936">
        <ele>25</ele>
        <time>2024-04-05T21:29:25Z</time>
      </trkpt>
      <trkpt lat="43.46136" lon="-1.56953">
        <ele>25</ele>
        <time>2024-04-05T21:29:29Z</time>
      </trkpt>
      <trkpt lat="43.46144" lon="-1.56947">
        <ele>26</ele>
        <time>2024-04-05T21:29:31Z</time>
      </trkpt>
      <trkpt lat="43.46174" lon="-1.56938">
        <ele>28</ele>
        <time>2024-04-05T21:29:36Z</time>
      </trkpt>
      <trkpt lat="43.46188" lon="-1.56928">
        <ele>29</ele>
        <time>2024-04-05T21:29:39Z</time>
      </trkpt>
      <trkpt lat="43.46227" lon="-1.56872">
        <ele>35</ele>
        <time>2024-04-05T21:29:49Z</time>
      </trkpt>
      <trkpt lat="43.46231" lon="-1.56861">
        <ele>35</ele>
        <time>2024-04-05T21:29:51Z</time>
      </trkpt>
      <trkpt lat="43.46231" lon="-1.5684">
        <ele>37</ele>
        <time>2024-04-05T21:29:53Z</time>
      </trkpt>
      <trkpt lat="43.46214" lon="-1.56769">
        <ele>37</ele>
        <time>2024-04-05T21:30:03Z</time>
      </trkpt>
      <trkpt lat="43.46203" lon="-1.56687">
        <ele>37</ele>
        <time>2024-04-05T21:30:14Z</time>
      </trkpt>
      <trkpt lat="43.46203" lon="-1.56656">
        <ele>37</ele>
        <time>2024-04-05T21:30:18Z</time>
      </trkpt>
      <trkpt lat="43.46229" lon="-1.56553">
        <ele>43</ele>
        <time>2024-04-05T21:30:32Z</time>
      </trkpt>
      <trkpt lat="43.46238" lon="-1.56531">
        <ele>44</ele>
        <time>2024-04-05T21:30:35Z</time>
      </trkpt>
      <trkpt lat="43.46309" lon="-1.56467">
        <ele>53</ele>
        <time>2024-04-05T21:30:50Z</time>
      </trkpt>
      <trkpt lat="43.46318" lon="-1.56451">
        <ele>55</ele>
        <time>2024-04-05T21:30:53Z</time>
      </trkpt>
      <trkpt lat="43.4632" lon="-1.56437">
        <ele>56</ele>
        <time>2024-04-05T21:30:55Z</time>
      </trkpt>
      <trkpt lat="43.46323" lon="-1.5619">
        <ele>66</ele>
        <time>2024-04-05T21:31:27Z</time>
      </trkpt>
      <trkpt lat="43.46313" lon="-1.56149">
        <ele>68</ele>
        <time>2024-04-05T21:31:32Z</time>
      </trkpt>
      <trkpt lat="43.46306" lon="-1.56134">
        <ele>69</ele>
        <time>2024-04-05T21:31:34Z</time>
      </trkpt>
      <trkpt lat="43.46298" lon="-1.56105">
        <ele>70</ele>
        <time>2024-04-05T21:31:38Z</time>
      </trkpt>
      <trkpt lat="43.46274" lon="-1.55941">
        <ele>70</ele>
        <time>2024-04-05T21:32:00Z</time>
      </trkpt>
      <trkpt lat="43.46273" lon="-1.55917">
        <ele>70</ele>
        <time>2024-04-05T21:32:03Z</time>
      </trkpt>
      <trkpt lat="43.4627" lon="-1.55915">
        <ele>70</ele>
        <time>2024-04-05T21:32:04Z</time>
      </trkpt>
      <trkpt lat="43.46255" lon="-1.55894">
        <ele>70</ele>
        <time>2024-04-05T21:32:08Z</time>
      </trkpt>
      <trkpt lat="43.46251" lon="-1.55878">
        <ele>70</ele>
        <time>2024-04-05T21:32:10Z</time>
      </trkpt>
      <trkpt lat="43.46244" lon="-1.55772">
        <ele>71</ele>
        <time>2024-04-05T21:32:24Z</time>
      </trkpt>
      <trkpt lat="43.46227" lon="-1.55665">
        <ele>72</ele>
        <time>2024-04-05T21:32:38Z</time>
      </trkpt>
      <trkpt lat="43.46211" lon="-1.55577">
        <ele>73</ele>
        <time>2024-04-05T21:32:49Z</time>
      </trkpt>
      <trkpt lat="43.46208" lon="-1.55552">
        <ele>73</ele>
        <time>2024-04-05T21:32:53Z</time>
      </trkpt>
      <trkpt lat="43.46207" lon="-1.55491">
        <ele>72</ele>
        <time>2024-04-05T21:33:01Z</time>
      </trkpt>
      <trkpt lat="43.46213" lon="-1.55374">
        <ele>73</ele>
        <time>2024-04-05T21:33:16Z</time>
      </trkpt>
      <trkpt lat="43.46219" lon="-1.55327">
        <ele>74</ele>
        <time>2024-04-05T21:33:22Z</time>
      </trkpt>
      <trkpt lat="43.46219" lon="-1.55317">
        <ele>73</ele>
        <time>2024-04-05T21:33:23Z</time>
      </trkpt>
      <trkpt lat="43.46239" lon="-1.55174">
        <ele>72</ele>
        <time>2024-04-05T21:33:42Z</time>
      </trkpt>
      <trkpt lat="43.46243" lon="-1.55163">
        <ele>72</ele>
        <time>2024-04-05T21:33:44Z</time>
      </trkpt>
      <trkpt lat="43.46247" lon="-1.55123">
        <ele>70</ele>
        <time>2024-04-05T21:33:49Z</time>
      </trkpt>
      <trkpt lat="43.46255" lon="-1.55066">
        <ele>69</ele>
        <time>2024-04-05T21:33:56Z</time>
      </trkpt>
      <trkpt lat="43.46268" lon="-1.55035">
        <ele>69</ele>
        <time>2024-04-05T21:34:01Z</time>
      </trkpt>
      <trkpt lat="43.46298" lon="-1.54979">
        <ele>69</ele>
        <time>2024-04-05T21:34:10Z</time>
      </trkpt>
      <trkpt lat="43.46309" lon="-1.54953">
        <ele>70</ele>
        <time>2024-04-05T21:34:14Z</time>
      </trkpt>
      <trkpt lat="43.4633" lon="-1.54865">
        <ele>70</ele>
        <time>2024-04-05T21:34:26Z</time>
      </trkpt>
      <trkpt lat="43.46376" lon="-1.54758">
        <ele>68</ele>
        <time>2024-04-05T21:34:42Z</time>
      </trkpt>
      <trkpt lat="43.46382" lon="-1.54727">
        <ele>69</ele>
        <time>2024-04-05T21:34:46Z</time>
      </trkpt>
      <trkpt lat="43.46404" lon="-1.54558">
        <ele>68</ele>
        <time>2024-04-05T21:35:08Z</time>
      </trkpt>
      <trkpt lat="43.46426" lon="-1.54479">
        <ele>64</ele>
        <time>2024-04-05T21:35:19Z</time>
      </trkpt>
      <trkpt lat="43.46391" lon="-1.54447">
        <ele>61</ele>
        <time>2024-04-05T21:35:26Z</time>
      </trkpt>
      <trkpt lat="43.46364" lon="-1.54405">
        <ele>57</ele>
        <time>2024-04-05T21:35:34Z</time>
      </trkpt>
      <trkpt lat="43.46624" lon="-1.54146">
        <ele>60</ele>
        <time>2024-04-05T21:36:31Z</time>
      </trkpt>
      <trkpt lat="43.46644" lon="-1.54124">
        <ele>59</ele>
        <time>2024-04-05T21:36:35Z</time>
      </trkpt>
      <trkpt lat="43.46696" lon="-1.54073">
        <ele>60</ele>
        <time>2024-04-05T21:36:47Z</time>
      </trkpt>
      <trkpt lat="43.46715" lon="-1.54051">
        <ele>61</ele>
        <time>2024-04-05T21:36:51Z</time>
      </trkpt>
      <trkpt lat="43.46723" lon="-1.54034">
        <ele>61</ele>
        <time>2024-04-05T21:36:54Z</time>
      </trkpt>
      <trkpt lat="43.46722" lon="-1.54019">
        <ele>62</ele>
        <time>2024-04-05T21:36:56Z</time>
      </trkpt>
      <trkpt lat="43.46724" lon="-1.54003">
        <ele>62</ele>
        <time>2024-04-05T21:36:58Z</time>
      </trkpt>
      <trkpt lat="43.4673" lon="-1.53987">
        <ele>62</ele>
        <time>2024-04-05T21:37:00Z</time>
      </trkpt>
      <trkpt lat="43.4674" lon="-1.53976">
        <ele>63</ele>
        <time>2024-04-05T21:37:02Z</time>
      </trkpt>
      <trkpt lat="43.46754" lon="-1.53969">
        <ele>63</ele>
        <time>2024-04-05T21:37:05Z</time>
      </trkpt>
      <trkpt lat="43.46768" lon="-1.53971">
        <ele>63</ele>
        <time>2024-04-05T21:37:08Z</time>
      </trkpt>
      <trkpt lat="43.46781" lon="-1.53981">
        <ele>63</ele>
        <time>2024-04-05T21:37:10Z</time>
      </trkpt>
      <trkpt lat="43.46803" lon="-1.53969">
        <ele>64</ele>
        <time>2024-04-05T21:37:14Z</time>
      </trkpt>
      <trkpt lat="43.4682" lon="-1.5395">
        <ele>64</ele>
        <time>2024-04-05T21:37:18Z</time>
      </trkpt>
      <trkpt lat="43.47073" lon="-1.53694">
        <ele>69</ele>
        <time>2024-04-05T21:38:14Z</time>
      </trkpt>
      <trkpt lat="43.47102" lon="-1.53663">
        <ele>69</ele>
        <time>2024-04-05T21:38:21Z</time>
      </trkpt>
      <trkpt lat="43.47109" lon="-1.53645">
        <ele>69</ele>
        <time>2024-04-05T21:38:23Z</time>
      </trkpt>
      <trkpt lat="43.47108" lon="-1.53634">
        <ele>69</ele>
        <time>2024-04-05T21:38:25Z</time>
      </trkpt>
      <trkpt lat="43.47109" lon="-1.53622">
        <ele>69</ele>
        <time>2024-04-05T21:38:26Z</time>
      </trkpt>
      <trkpt lat="43.47112" lon="-1.53612">
        <ele>69</ele>
        <time>2024-04-05T21:38:28Z</time>
      </trkpt>
      <trkpt lat="43.47118" lon="-1.53603">
        <ele>69</ele>
        <time>2024-04-05T21:38:29Z</time>
      </trkpt>
      <trkpt lat="43.4713" lon="-1.53593">
        <ele>68</ele>
        <time>2024-04-05T21:38:32Z</time>
      </trkpt>
      <trkpt lat="43.47136" lon="-1.53592">
        <ele>68</ele>
        <time>2024-04-05T21:38:33Z</time>
      </trkpt>
      <trkpt lat="43.47145" lon="-1.53592">
        <ele>68</ele>
        <time>2024-04-05T21:38:34Z</time>
      </trkpt>
      <trkpt lat="43.47153" lon="-1.53596">
        <ele>68</ele>
        <time>2024-04-05T21:38:36Z</time>
      </trkpt>
      <trkpt lat="43.47168" lon="-1.53595">
        <ele>68</ele>
        <time>2024-04-05T21:38:39Z</time>
      </trkpt>
      <trkpt lat="43.47219" lon="-1.5355">
        <ele>68</ele>
        <time>2024-04-05T21:38:49Z</time>
      </trkpt>
      <trkpt lat="43.47245" lon="-1.53525">
        <ele>67</ele>
        <time>2024-04-05T21:38:55Z</time>
      </trkpt>
      <trkpt lat="43.4728" lon="-1.53486">
        <ele>67</ele>
        <time>2024-04-05T21:39:03Z</time>
      </trkpt>
      <trkpt lat="43.47294" lon="-1.5347">
        <ele>67</ele>
        <time>2024-04-05T21:39:06Z</time>
      </trkpt>
      <trkpt lat="43.47311" lon="-1.5344">
        <ele>68</ele>
        <time>2024-04-05T21:39:11Z</time>
      </trkpt>
      <trkpt lat="43.47361" lon="-1.53328">
        <ele>66</ele>
        <time>2024-04-05T21:39:28Z</time>
      </trkpt>
      <trkpt lat="43.4747" lon="-1.53071">
        <ele>63</ele>
        <time>2024-04-05T21:40:07Z</time>
      </trkpt>
      <trkpt lat="43.4774" lon="-1.52448">
        <ele>36</ele>
        <time>2024-04-05T21:41:40Z</time>
      </trkpt>
      <trkpt lat="43.47752" lon="-1.52431">
        <ele>34</ele>
        <time>2024-04-05T21:41:43Z</time>
      </trkpt>
      <trkpt lat="43.47762" lon="-1.5241">
        <ele>34</ele>
        <time>2024-04-05T21:41:47Z</time>
      </trkpt>
      <trkpt lat="43.47761" lon="-1.52403">
        <ele>33</ele>
        <time>2024-04-05T21:41:48Z</time>
      </trkpt>
      <trkpt lat="43.47767" lon="-1.52379">
        <ele>33</ele>
        <time>2024-04-05T21:41:51Z</time>
      </trkpt>
      <trkpt lat="43.47772" lon="-1.52374">
        <ele>33</ele>
        <time>2024-04-05T21:41:52Z</time>
      </trkpt>
      <trkpt lat="43.47777" lon="-1.52371">
        <ele>33</ele>
        <time>2024-04-05T21:41:53Z</time>
      </trkpt>
      <trkpt lat="43.4779" lon="-1.52345">
        <ele>32</ele>
        <time>2024-04-05T21:41:57Z</time>
      </trkpt>
      <trkpt lat="43.47799" lon="-1.52311">
        <ele>32</ele>
        <time>2024-04-05T21:42:02Z</time>
      </trkpt>
      <trkpt lat="43.47813" lon="-1.52275">
        <ele>31</ele>
        <time>2024-04-05T21:42:07Z</time>
      </trkpt>
      <trkpt lat="43.47868" lon="-1.5215">
        <ele>30</ele>
        <time>2024-04-05T21:42:26Z</time>
      </trkpt>
      <trkpt lat="43.479" lon="-1.52074">
        <ele>29</ele>
        <time>2024-04-05T21:42:37Z</time>
      </trkpt>
      <trkpt lat="43.47928" lon="-1.51999">
        <ele>28</ele>
        <time>2024-04-05T21:42:48Z</time>
      </trkpt>
      <trkpt lat="43.47967" lon="-1.51835">
        <ele>28</ele>
        <time>2024-04-05T21:43:10Z</time>
      </trkpt>
      <trkpt lat="43.48005" lon="-1.5166">
        <ele>23</ele>
        <time>2024-04-05T21:43:34Z</time>
      </trkpt>
      <trkpt lat="43.4802" lon="-1.51603">
        <ele>22</ele>
        <time>2024-04-05T21:43:42Z</time>
      </trkpt>
      <trkpt lat="43.48017" lon="-1.51589">
        <ele>22</ele>
        <time>2024-04-05T21:43:44Z</time>
      </trkpt>
      <trkpt lat="43.48032" lon="-1.51524">
        <ele>21</ele>
        <time>2024-04-05T21:43:52Z</time>
      </trkpt>
      <trkpt lat="43.48042" lon="-1.51486">
        <ele>21</ele>
        <time>2024-04-05T21:43:58Z</time>
      </trkpt>
      <trkpt lat="43.48057" lon="-1.51437">
        <ele>21</ele>
        <time>2024-04-05T21:44:05Z</time>
      </trkpt>
      <trkpt lat="43.4808" lon="-1.51336">
        <ele>17</ele>
        <time>2024-04-05T21:44:18Z</time>
      </trkpt>
      <trkpt lat="43.48078" lon="-1.51319">
        <ele>17</ele>
        <time>2024-04-05T21:44:20Z</time>
      </trkpt>
      <trkpt lat="43.48079" lon="-1.51309">
        <ele>17</ele>
        <time>2024-04-05T21:44:22Z</time>
      </trkpt>
      <trkpt lat="43.48103" lon="-1.51196">
        <ele>17</ele>
        <time>2024-04-05T21:44:37Z</time>
      </trkpt>
      <trkpt lat="43.48131" lon="-1.51074">
        <ele>16</ele>
        <time>2024-04-05T21:44:53Z</time>
      </trkpt>
      <trkpt lat="43.48135" lon="-1.51038">
        <ele>15</ele>
        <time>2024-04-05T21:44:58Z</time>
      </trkpt>
      <trkpt lat="43.48165" lon="-1.50922">
        <ele>12</ele>
        <time>2024-04-05T21:45:14Z</time>
      </trkpt>
      <trkpt lat="43.48185" lon="-1.50855">
        <ele>12</ele>
        <time>2024-04-05T21:45:23Z</time>
      </trkpt>
      <trkpt lat="43.48208" lon="-1.50749">
        <ele>10</ele>
        <time>2024-04-05T21:45:38Z</time>
      </trkpt>
      <trkpt lat="43.48227" lon="-1.50651">
        <ele>10</ele>
        <time>2024-04-05T21:45:51Z</time>
      </trkpt>
      <trkpt lat="43.48235" lon="-1.50619">
        <ele>9</ele>
        <time>2024-04-05T21:45:55Z</time>
      </trkpt>
      <trkpt lat="43.48254" lon="-1.50524">
        <ele>10</ele>
        <time>2024-04-05T21:46:08Z</time>
      </trkpt>
      <trkpt lat="43.48287" lon="-1.50365">
        <ele>6</ele>
        <time>2024-04-05T21:46:29Z</time>
      </trkpt>
      <trkpt lat="43.48297" lon="-1.50323">
        <ele>6</ele>
        <time>2024-04-05T21:46:35Z</time>
      </trkpt>
      <trkpt lat="43.483" lon="-1.5031">
        <ele>6</ele>
        <time>2024-04-05T21:46:37Z</time>
      </trkpt>
      <trkpt lat="43.48319" lon="-1.50266">
        <ele>5</ele>
        <time>2024-04-05T21:46:43Z</time>
      </trkpt>
      <trkpt lat="43.48323" lon="-1.5026">
        <ele>5</ele>
        <time>2024-04-05T21:46:44Z</time>
      </trkpt>
      <trkpt lat="43.4832" lon="-1.50251">
        <ele>5</ele>
        <time>2024-04-05T21:46:46Z</time>
      </trkpt>
      <trkpt lat="43.48318" lon="-1.50241">
        <ele>6</ele>
        <time>2024-04-05T21:46:47Z</time>
      </trkpt>
      <trkpt lat="43.48318" lon="-1.50232">
        <ele>6</ele>
        <time>2024-04-05T21:46:48Z</time>
      </trkpt>
      <trkpt lat="43.4832" lon="-1.50222">
        <ele>6</ele>
        <time>2024-04-05T21:46:49Z</time>
      </trkpt>
      <trkpt lat="43.48323" lon="-1.50214">
        <ele>7</ele>
        <time>2024-04-05T21:46:51Z</time>
      </trkpt>
      <trkpt lat="43.48328" lon="-1.50208">
        <ele>7</ele>
        <time>2024-04-05T21:46:52Z</time>
      </trkpt>
      <trkpt lat="43.48335" lon="-1.50203">
        <ele>7</ele>
        <time>2024-04-05T21:46:53Z</time>
      </trkpt>
      <trkpt lat="43.48342" lon="-1.50185">
        <ele>7</ele>
        <time>2024-04-05T21:46:56Z</time>
      </trkpt>
      <trkpt lat="43.48431" lon="-1.49794">
        <ele>17</ele>
        <time>2024-04-05T21:47:49Z</time>
      </trkpt>
      <trkpt lat="43.48461" lon="-1.49645">
        <ele>20</ele>
        <time>2024-04-05T21:48:09Z</time>
      </trkpt>
      <trkpt lat="43.48519" lon="-1.49397">
        <ele>17</ele>
        <time>2024-04-05T21:48:42Z</time>
      </trkpt>
      <trkpt lat="43.48555" lon="-1.49228">
        <ele>10</ele>
        <time>2024-04-05T21:49:05Z</time>
      </trkpt>
      <trkpt lat="43.4856" lon="-1.49195">
        <ele>8</ele>
        <time>2024-04-05T21:49:09Z</time>
      </trkpt>
      <trkpt lat="43.48573" lon="-1.49123">
        <ele>6</ele>
        <time>2024-04-05T21:49:19Z</time>
      </trkpt>
      <trkpt lat="43.48592" lon="-1.49039">
        <ele>5</ele>
        <time>2024-04-05T21:49:30Z</time>
      </trkpt>
      <trkpt lat="43.48601" lon="-1.49001">
        <ele>5</ele>
        <time>2024-04-05T21:49:36Z</time>
      </trkpt>
      <trkpt lat="43.4861" lon="-1.48961">
        <ele>8</ele>
        <time>2024-04-05T21:49:41Z</time>
      </trkpt>
      <trkpt lat="43.48616" lon="-1.48936">
        <ele>10</ele>
        <time>2024-04-05T21:49:44Z</time>
      </trkpt>
      <trkpt lat="43.48654" lon="-1.48775">
        <ele>23</ele>
        <time>2024-04-05T21:50:06Z</time>
      </trkpt>
      <trkpt lat="43.48682" lon="-1.48683">
        <ele>23</ele>
        <time>2024-04-05T21:50:19Z</time>
      </trkpt>
      <trkpt lat="43.48704" lon="-1.48595">
        <ele>24</ele>
        <time>2024-04-05T21:50:31Z</time>
      </trkpt>
      <trkpt lat="43.4877" lon="-1.48282">
        <ele>16</ele>
        <time>2024-04-05T21:51:13Z</time>
      </trkpt>
      <trkpt lat="43.48778" lon="-1.48248">
        <ele>16</ele>
        <time>2024-04-05T21:51:18Z</time>
      </trkpt>
      <trkpt lat="43.48786" lon="-1.48225">
        <ele>16</ele>
        <time>2024-04-05T21:51:21Z</time>
      </trkpt>
      <trkpt lat="43.48789" lon="-1.48204">
        <ele>16</ele>
        <time>2024-04-05T21:51:24Z</time>
      </trkpt>
      <trkpt lat="43.48794" lon="-1.48193">
        <ele>15</ele>
        <time>2024-04-05T21:51:26Z</time>
      </trkpt>
      <trkpt lat="43.48801" lon="-1.48185">
        <ele>15</ele>
        <time>2024-04-05T21:51:27Z</time>
      </trkpt>
      <trkpt lat="43.48808" lon="-1.48179">
        <ele>15</ele>
        <time>2024-04-05T21:51:29Z</time>
      </trkpt>
      <trkpt lat="43.48816" lon="-1.48175">
        <ele>15</ele>
        <time>2024-04-05T21:51:30Z</time>
      </trkpt>
      <trkpt lat="43.48825" lon="-1.48174">
        <ele>15</ele>
        <time>2024-04-05T21:51:32Z</time>
      </trkpt>
      <trkpt lat="43.48823" lon="-1.48149">
        <ele>15</ele>
        <time>2024-04-05T21:51:35Z</time>
      </trkpt>
      <trkpt lat="43.48817" lon="-1.48128">
        <ele>15</ele>
        <time>2024-04-05T21:51:38Z</time>
      </trkpt>
      <trkpt lat="43.48816" lon="-1.48118">
        <ele>15</ele>
        <time>2024-04-05T21:51:39Z</time>
      </trkpt>
      <trkpt lat="43.48821" lon="-1.48103">
        <ele>15</ele>
        <time>2024-04-05T21:51:41Z</time>
      </trkpt>
      <trkpt lat="43.48823" lon="-1.48093">
        <ele>15</ele>
        <time>2024-04-05T21:51:43Z</time>
      </trkpt>
      <trkpt lat="43.48852" lon="-1.4797">
        <ele>14</ele>
        <time>2024-04-05T21:51:59Z</time>
      </trkpt>
      <trkpt lat="43.48854" lon="-1.47948">
        <ele>15</ele>
        <time>2024-04-05T21:52:02Z</time>
      </trkpt>
      <trkpt lat="43.48853" lon="-1.47933">
        <ele>15</ele>
        <time>2024-04-05T21:52:04Z</time>
      </trkpt>
      <trkpt lat="43.48829" lon="-1.47782">
        <ele>15</ele>
        <time>2024-04-05T21:52:24Z</time>
      </trkpt>
      <trkpt lat="43.48828" lon="-1.47763">
        <ele>15</ele>
        <time>2024-04-05T21:52:27Z</time>
      </trkpt>
      <trkpt lat="43.48834" lon="-1.47644">
        <ele>12</ele>
        <time>2024-04-05T21:52:42Z</time>
      </trkpt>
      <trkpt lat="43.4883" lon="-1.47613">
        <ele>9</ele>
        <time>2024-04-05T21:52:46Z</time>
      </trkpt>
      <trkpt lat="43.48822" lon="-1.47582">
        <ele>7</ele>
        <time>2024-04-05T21:52:50Z</time>
      </trkpt>
      <trkpt lat="43.4881" lon="-1.47556">
        <ele>6</ele>
        <time>2024-04-05T21:52:54Z</time>
      </trkpt>
      <trkpt lat="43.48801" lon="-1.47543">
        <ele>5</ele>
        <time>2024-04-05T21:52:57Z</time>
      </trkpt>
      <trkpt lat="43.48796" lon="-1.47523">
        <ele>5</ele>
        <time>2024-04-05T21:52:59Z</time>
      </trkpt>
      <trkpt lat="43.48789" lon="-1.47449">
        <ele>4</ele>
        <time>2024-04-05T21:53:09Z</time>
      </trkpt>
      <trkpt lat="43.48786" lon="-1.47406">
        <ele>4</ele>
        <time>2024-04-05T21:53:15Z</time>
      </trkpt>
      <trkpt lat="43.48787" lon="-1.47392">
        <ele>4</ele>
        <time>2024-04-05T21:53:16Z</time>
      </trkpt>
      <trkpt lat="43.48821" lon="-1.4727">
        <ele>6</ele>
        <time>2024-04-05T21:53:33Z</time>
      </trkpt>
      <trkpt lat="43.48824" lon="-1.47255">
        <ele>6</ele>
        <time>2024-04-05T21:53:35Z</time>
      </trkpt>
      <trkpt lat="43.4882" lon="-1.47249">
        <ele>6</ele>
        <time>2024-04-05T21:53:36Z</time>
      </trkpt>
      <trkpt lat="43.4882" lon="-1.47242">
        <ele>7</ele>
        <time>2024-04-05T21:53:37Z</time>
      </trkpt>
      <trkpt lat="43.48824" lon="-1.47236">
        <ele>6</ele>
        <time>2024-04-05T21:53:38Z</time>
      </trkpt>
      <trkpt lat="43.4883" lon="-1.47236">
        <ele>6</ele>
        <time>2024-04-05T21:53:39Z</time>
      </trkpt>
      <trkpt lat="43.48834" lon="-1.47241">
        <ele>6</ele>
        <time>2024-04-05T21:53:40Z</time>
      </trkpt>
      <trkpt lat="43.48834" lon="-1.47249">
        <ele>6</ele>
        <time>2024-04-05T21:53:41Z</time>
      </trkpt>
      <trkpt lat="43.48872" lon="-1.47269">
        <ele>7</ele>
        <time>2024-04-05T21:53:49Z</time>
      </trkpt>
      <trkpt lat="43.48879" lon="-1.47269">
        <ele>8</ele>
        <time>2024-04-05T21:53:50Z</time>
      </trkpt>
      <trkpt lat="43.48885" lon="-1.47264">
        <ele>8</ele>
        <time>2024-04-05T21:53:51Z</time>
      </trkpt>
      <trkpt lat="43.48891" lon="-1.47254">
        <ele>8</ele>
        <time>2024-04-05T21:53:53Z</time>
      </trkpt>
      <trkpt lat="43.48902" lon="-1.47214">
        <ele>8</ele>
        <time>2024-04-05T21:53:58Z</time>
      </trkpt>
      <trkpt lat="43.4891" lon="-1.47198">
        <ele>8</ele>
        <time>2024-04-05T21:54:01Z</time>
      </trkpt>
      <trkpt lat="43.48909" lon="-1.47191">
        <ele>8</ele>
        <time>2024-04-05T21:54:02Z</time>
      </trkpt>
      <trkpt lat="43.48912" lon="-1.47186">
        <ele>8</ele>
        <time>2024-04-05T21:54:02Z</time>
      </trkpt>
      <trkpt lat="43.48919" lon="-1.47185">
        <ele>8</ele>
        <time>2024-04-05T21:54:04Z</time>
      </trkpt>
      <trkpt lat="43.48922" lon="-1.47193">
        <ele>8</ele>
        <time>2024-04-05T21:54:05Z</time>
      </trkpt>
      <trkpt lat="43.48936" lon="-1.47191">
        <ele>9</ele>
        <time>2024-04-05T21:54:07Z</time>
      </trkpt>
      <trkpt lat="43.48951" lon="-1.47189">
        <ele>9</ele>
        <time>2024-04-05T21:54:10Z</time>
      </trkpt>
      <trkpt lat="43.48968" lon="-1.47178">
        <ele>9</ele>
        <time>2024-04-05T21:54:13Z</time>
      </trkpt>
      <trkpt lat="43.4898" lon="-1.47164">
        <ele>9</ele>
        <time>2024-04-05T21:54:16Z</time>
      </trkpt>
      <trkpt lat="43.48992" lon="-1.47141">
        <ele>10</ele>
        <time>2024-04-05T21:54:20Z</time>
      </trkpt>
      <trkpt lat="43.49037" lon="-1.47047">
        <ele>9</ele>
        <time>2024-04-05T21:54:34Z</time>
      </trkpt>
      <trkpt lat="43.49063" lon="-1.47006">
        <ele>8</ele>
        <time>2024-04-05T21:54:41Z</time>
      </trkpt>
      <trkpt lat="43.49078" lon="-1.46986">
        <ele>7</ele>
        <time>2024-04-05T21:54:45Z</time>
      </trkpt>
      <trkpt lat="43.49088" lon="-1.46976">
        <ele>6</ele>
        <time>2024-04-05T21:54:47Z</time>
      </trkpt>
      <trkpt lat="43.49123" lon="-1.46956">
        <ele>4</ele>
        <time>2024-04-05T21:54:54Z</time>
      </trkpt>
      <trkpt lat="43.49149" lon="-1.46936">
        <ele>3</ele>
        <time>2024-04-05T21:54:59Z</time>
      </trkpt>
      <trkpt lat="43.4914" lon="-1.46915">
        <ele>2</ele>
        <time>2024-04-05T21:55:03Z</time>
      </trkpt>
      <trkpt lat="43.49148" lon="-1.46908">
        <ele>2</ele>
        <time>2024-04-05T21:55:04Z</time>
      </trkpt>
      <trkpt lat="43.49085" lon="-1.46783">
        <ele>1</ele>
        <time>2024-04-05T21:55:24Z</time>
      </trkpt>
      <trkpt lat="43.49076" lon="-1.46771">
        <ele>1</ele>
        <time>2024-04-05T21:55:26Z</time>
      </trkpt>
      <trkpt lat="43.48968" lon="-1.46689">
        <ele>4</ele>
        <time>2024-04-05T21:55:48Z</time>
      </trkpt>
      <trkpt lat="43.48941" lon="-1.46664">
        <ele>4</ele>
        <time>2024-04-05T21:55:54Z</time>
      </trkpt>
      <trkpt lat="43.48925" lon="-1.46645">
        <ele>4</ele>
        <time>2024-04-05T21:55:58Z</time>
      </trkpt>
      <trkpt lat="43.4891" lon="-1.46622">
        <ele>4</ele>
        <time>2024-04-05T21:56:02Z</time>
      </trkpt>
      <trkpt lat="43.48898" lon="-1.46604">
        <ele>5</ele>
        <time>2024-04-05T21:56:05Z</time>
      </trkpt>
      <trkpt lat="43.48896" lon="-1.46594">
        <ele>4</ele>
        <time>2024-04-05T21:56:06Z</time>
      </trkpt>
      <trkpt lat="43.48884" lon="-1.46575">
        <ele>5</ele>
        <time>2024-04-05T21:56:09Z</time>
      </trkpt>
      <trkpt lat="43.48877" lon="-1.46569">
        <ele>6</ele>
        <time>2024-04-05T21:56:11Z</time>
      </trkpt>
      <trkpt lat="43.48871" lon="-1.46556">
        <ele>6</ele>
        <time>2024-04-05T21:56:13Z</time>
      </trkpt>
      <trkpt lat="43.48853" lon="-1.46528">
        <ele>7</ele>
        <time>2024-04-05T21:56:18Z</time>
      </trkpt>
      <trkpt lat="43.48833" lon="-1.46496">
        <ele>8</ele>
        <time>2024-04-05T21:56:23Z</time>
      </trkpt>
      <trkpt lat="43.48795" lon="-1.46415">
        <ele>4</ele>
        <time>2024-04-05T21:56:36Z</time>
      </trkpt>
      <trkpt lat="43.48791" lon="-1.46398">
        <ele>4</ele>
        <time>2024-04-05T21:56:38Z</time>
      </trkpt>
      <trkpt lat="43.4878" lon="-1.4638">
        <ele>4</ele>
        <time>2024-04-05T21:56:41Z</time>
      </trkpt>
      <trkpt lat="43.48765" lon="-1.46351">
        <ele>4</ele>
        <time>2024-04-05T21:56:45Z</time>
      </trkpt>
      <trkpt lat="43.4874" lon="-1.46317">
        <ele>4</ele>
        <time>2024-04-05T21:56:52Z</time>
      </trkpt>
      <trkpt lat="43.48737" lon="-1.46321">
        <ele>5</ele>
        <time>2024-04-05T21:56:52Z</time>
      </trkpt>
      <trkpt lat="43.48718" lon="-1.463">
        <ele>6</ele>
        <time>2024-04-05T21:56:57Z</time>
      </trkpt>
      <trkpt lat="43.48658" lon="-1.46215">
        <ele>5</ele>
        <time>2024-04-05T21:57:12Z</time>
      </trkpt>
      <trkpt lat="43.48647" lon="-1.46194">
        <ele>6</ele>
        <time>2024-04-05T21:57:15Z</time>
      </trkpt>
      <trkpt lat="43.48622" lon="-1.46138">
        <ele>6</ele>
        <time>2024-04-05T21:57:24Z</time>
      </trkpt>
      <trkpt lat="43.48584" lon="-1.46087">
        <ele>6</ele>
        <time>2024-04-05T21:57:33Z</time>
      </trkpt>
      <trkpt lat="43.48563" lon="-1.46055">
        <ele>8</ele>
        <time>2024-04-05T21:57:39Z</time>
      </trkpt>
      <trkpt lat="43.48553" lon="-1.46034">
        <ele>8</ele>
        <time>2024-04-05T21:57:42Z</time>
      </trkpt>
      <trkpt lat="43.48541" lon="-1.45994">
        <ele>7</ele>
        <time>2024-04-05T21:57:48Z</time>
      </trkpt>
      <trkpt lat="43.48527" lon="-1.4596">
        <ele>6</ele>
        <time>2024-04-05T21:57:53Z</time>
      </trkpt>
      <trkpt lat="43.48495" lon="-1.45906">
        <ele>4</ele>
        <time>2024-04-05T21:58:02Z</time>
      </trkpt>
      <trkpt lat="43.48478" lon="-1.45894">
        <ele>7</ele>
        <time>2024-04-05T21:58:05Z</time>
      </trkpt>
      <trkpt lat="43.48476" lon="-1.45895">
        <ele>7</ele>
        <time>2024-04-05T21:58:06Z</time>
      </trkpt>
      <trkpt lat="43.48469" lon="-1.45892">
        <ele>8</ele>
        <time>2024-04-05T21:58:07Z</time>
      </trkpt>
      <trkpt lat="43.48466" lon="-1.45883">
        <ele>8</ele>
        <time>2024-04-05T21:58:08Z</time>
      </trkpt>
      <trkpt lat="43.48469" lon="-1.45874">
        <ele>8</ele>
        <time>2024-04-05T21:58:09Z</time>
      </trkpt>
      <trkpt lat="43.48466" lon="-1.45843">
        <ele>8</ele>
        <time>2024-04-05T21:58:13Z</time>
      </trkpt>
      <trkpt lat="43.48446" lon="-1.45763">
        <ele>10</ele>
        <time>2024-04-05T21:58:24Z</time>
      </trkpt>
      <trkpt lat="43.48429" lon="-1.45718">
        <ele>10</ele>
        <time>2024-04-05T21:58:31Z</time>
      </trkpt>
      <trkpt lat="43.48415" lon="-1.45693">
        <ele>9</ele>
        <time>2024-04-05T21:58:35Z</time>
      </trkpt>
      <trkpt lat="43.48394" lon="-1.45657">
        <ele>8</ele>
        <time>2024-04-05T21:58:41Z</time>
      </trkpt>
      <trkpt lat="43.48388" lon="-1.45644">
        <ele>8</ele>
        <time>2024-04-05T21:58:43Z</time>
      </trkpt>
      <trkpt lat="43.48376" lon="-1.45595">
        <ele>5</ele>
        <time>2024-04-05T21:58:50Z</time>
      </trkpt>
      <trkpt lat="43.48366" lon="-1.45551">
        <ele>3</ele>
        <time>2024-04-05T21:58:56Z</time>
      </trkpt>
      <trkpt lat="43.48356" lon="-1.45487">
        <ele>3</ele>
        <time>2024-04-05T21:59:04Z</time>
      </trkpt>
      <trkpt lat="43.48353" lon="-1.45416">
        <ele>2</ele>
        <time>2024-04-05T21:59:13Z</time>
      </trkpt>
      <trkpt lat="43.48352" lon="-1.45381">
        <ele>2</ele>
        <time>2024-04-05T21:59:18Z</time>
      </trkpt>
      <trkpt lat="43.48355" lon="-1.45357">
        <ele>2</ele>
        <time>2024-04-05T21:59:21Z</time>
      </trkpt>
      <trkpt lat="43.48359" lon="-1.45358">
        <ele>2</ele>
        <time>2024-04-05T21:59:22Z</time>
      </trkpt>
      <trkpt lat="43.48412" lon="-1.45082">
        <ele>1</ele>
        <time>2024-04-05T21:59:58Z</time>
      </trkpt>
      <trkpt lat="43.48421" lon="-1.45028">
        <ele>2</ele>
        <time>2024-04-05T22:00:06Z</time>
      </trkpt>
      <trkpt lat="43.48428" lon="-1.44855">
        <ele>2</ele>
        <time>2024-04-05T22:00:28Z</time>
      </trkpt>
      <trkpt lat="43.48423" lon="-1.44855">
        <ele>2</ele>
        <time>2024-04-05T22:00:29Z</time>
      </trkpt>
      <trkpt lat="43.48424" lon="-1.44832">
        <ele>3</ele>
        <time>2024-04-05T22:00:32Z</time>
      </trkpt>
      <trkpt lat="43.48423" lon="-1.44766">
        <ele>4</ele>
        <time>2024-04-05T22:00:40Z</time>
      </trkpt>
      <trkpt lat="43.4842" lon="-1.44757">
        <ele>4</ele>
        <time>2024-04-05T22:00:42Z</time>
      </trkpt>
      <trkpt lat="43.48405" lon="-1.44741">
        <ele>4</ele>
        <time>2024-04-05T22:00:45Z</time>
      </trkpt>
      <trkpt lat="43.48398" lon="-1.44743">
        <ele>4</ele>
        <time>2024-04-05T22:00:46Z</time>
      </trkpt>
      <trkpt lat="43.48391" lon="-1.44741">
        <ele>5</ele>
        <time>2024-04-05T22:00:48Z</time>
      </trkpt>
      <trkpt lat="43.48384" lon="-1.44736">
        <ele>5</ele>
        <time>2024-04-05T22:00:49Z</time>
      </trkpt>
      <trkpt lat="43.48379" lon="-1.44729">
        <ele>5</ele>
        <time>2024-04-05T22:00:50Z</time>
      </trkpt>
      <trkpt lat="43.48376" lon="-1.44721">
        <ele>5</ele>
        <time>2024-04-05T22:00:51Z</time>
      </trkpt>
      <trkpt lat="43.48375" lon="-1.44711">
        <ele>5</ele>
        <time>2024-04-05T22:00:53Z</time>
      </trkpt>
      <trkpt lat="43.48356" lon="-1.44686">
        <ele>5</ele>
        <time>2024-04-05T22:00:57Z</time>
      </trkpt>
      <trkpt lat="43.48351" lon="-1.44673">
        <ele>5</ele>
        <time>2024-04-05T22:00:59Z</time>
      </trkpt>
      <trkpt lat="43.4835" lon="-1.44652">
        <ele>4</ele>
        <time>2024-04-05T22:01:02Z</time>
      </trkpt>
      <trkpt lat="43.48366" lon="-1.44499">
        <ele>3</ele>
        <time>2024-04-05T22:01:22Z</time>
      </trkpt>
      <trkpt lat="43.48366" lon="-1.44486">
        <ele>3</ele>
        <time>2024-04-05T22:01:24Z</time>
      </trkpt>
      <trkpt lat="43.48374" lon="-1.44461">
        <ele>3</ele>
        <time>2024-04-05T22:01:27Z</time>
      </trkpt>
      <trkpt lat="43.4838" lon="-1.44448">
        <ele>3</ele>
        <time>2024-04-05T22:01:29Z</time>
      </trkpt>
      <trkpt lat="43.4839" lon="-1.44432">
        <ele>2</ele>
        <time>2024-04-05T22:01:32Z</time>
      </trkpt>
      <trkpt lat="43.48408" lon="-1.44408">
        <ele>1</ele>
        <time>2024-04-05T22:01:36Z</time>
      </trkpt>
      <trkpt lat="43.48417" lon="-1.44392">
        <ele>1</ele>
        <time>2024-04-05T22:01:39Z</time>
      </trkpt>
      <trkpt lat="43.48439" lon="-1.44344">
        <ele>1</ele>
        <time>2024-04-05T22:01:46Z</time>
      </trkpt>
      <trkpt lat="43.48434" lon="-1.44367">
        <ele>1</ele>
        <time>2024-04-05T22:01:49Z</time>
      </trkpt>
      <trkpt lat="43.48436" lon="-1.4437">
        <ele>1</ele>
        <time>2024-04-05T22:01:50Z</time>
      </trkpt>
      <trkpt lat="43.48453" lon="-1.44317">
        <ele>1</ele>
        <time>2024-04-05T22:01:57Z</time>
      </trkpt>
      <trkpt lat="43.48457" lon="-1.44312">
        <ele>1</ele>
        <time>2024-04-05T22:01:58Z</time>
      </trkpt>
      <trkpt lat="43.48466" lon="-1.44289">
        <ele>2</ele>
        <time>2024-04-05T22:02:02Z</time>
      </trkpt>
      <trkpt lat="43.48466" lon="-1.4428">
        <ele>2</ele>
        <time>2024-04-05T22:02:03Z</time>
      </trkpt>
      <trkpt lat="43.48485" lon="-1.44229">
        <ele>3</ele>
        <time>2024-04-05T22:02:10Z</time>
      </trkpt>
      <trkpt lat="43.48526" lon="-1.44132">
        <ele>2</ele>
        <time>2024-04-05T22:02:25Z</time>
      </trkpt>
      <trkpt lat="43.48559" lon="-1.44074">
        <ele>2</ele>
        <time>2024-04-05T22:02:34Z</time>
      </trkpt>
      <trkpt lat="43.48571" lon="-1.44048">
        <ele>2</ele>
        <time>2024-04-05T22:02:38Z</time>
      </trkpt>
      <trkpt lat="43.48595" lon="-1.43978">
        <ele>2</ele>
        <time>2024-04-05T22:02:48Z</time>
      </trkpt>
      <trkpt lat="43.486" lon="-1.43972">
        <ele>2</ele>
        <time>2024-04-05T22:02:49Z</time>
      </trkpt>
      <trkpt lat="43.4863" lon="-1.43897">
        <ele>1</ele>
        <time>2024-04-05T22:03:01Z</time>
      </trkpt>
      <trkpt lat="43.4864" lon="-1.4387">
        <ele>1</ele>
        <time>2024-04-05T22:03:04Z</time>
      </trkpt>
      <trkpt lat="43.48662" lon="-1.43822">
        <ele>1</ele>
        <time>2024-04-05T22:03:12Z</time>
      </trkpt>
      <trkpt lat="43.4869" lon="-1.43775">
        <ele>1</ele>
        <time>2024-04-05T22:03:20Z</time>
      </trkpt>
      <trkpt lat="43.48723" lon="-1.43706">
        <ele>1</ele>
        <time>2024-04-05T22:03:30Z</time>
      </trkpt>
      <trkpt lat="43.48746" lon="-1.43653">
        <ele>1</ele>
        <time>2024-04-05T22:03:38Z</time>
      </trkpt>
      <trkpt lat="43.48767" lon="-1.43585">
        <ele>2</ele>
        <time>2024-04-05T22:03:48Z</time>
      </trkpt>
      <trkpt lat="43.48786" lon="-1.43537">
        <ele>1</ele>
        <time>2024-04-05T22:03:55Z</time>
      </trkpt>
      <trkpt lat="43.48862" lon="-1.43367">
        <ele>2</ele>
        <time>2024-04-05T22:04:21Z</time>
      </trkpt>
      <trkpt lat="43.48882" lon="-1.43332">
        <ele>1</ele>
        <time>2024-04-05T22:04:26Z</time>
      </trkpt>
      <trkpt lat="43.48883" lon="-1.43326">
        <ele>1</ele>
        <time>2024-04-05T22:04:27Z</time>
      </trkpt>
      <trkpt lat="43.48896" lon="-1.43309">
        <ele>2</ele>
        <time>2024-04-05T22:04:30Z</time>
      </trkpt>
      <trkpt lat="43.48915" lon="-1.43262">
        <ele>2</ele>
        <time>2024-04-05T22:04:37Z</time>
      </trkpt>
      <trkpt lat="43.48913" lon="-1.4324">
        <ele>2</ele>
        <time>2024-04-05T22:04:40Z</time>
      </trkpt>
      <trkpt lat="43.48914" lon="-1.43233">
        <ele>2</ele>
        <time>2024-04-05T22:04:41Z</time>
      </trkpt>
      <trkpt lat="43.48898" lon="-1.43209">
        <ele>2</ele>
        <time>2024-04-05T22:04:45Z</time>
      </trkpt>
      <trkpt lat="43.48893" lon="-1.43204">
        <ele>2</ele>
        <time>2024-04-05T22:04:46Z</time>
      </trkpt>
      <trkpt lat="43.48879" lon="-1.43199">
        <ele>2</ele>
        <time>2024-04-05T22:04:49Z</time>
      </trkpt>
      <trkpt lat="43.48875" lon="-1.43194">
        <ele>2</ele>
        <time>2024-04-05T22:04:50Z</time>
      </trkpt>
      <trkpt lat="43.48886" lon="-1.4316">
        <ele>1</ele>
        <time>2024-04-05T22:04:55Z</time>
      </trkpt>
      <trkpt lat="43.48899" lon="-1.43107">
        <ele>2</ele>
        <time>2024-04-05T22:05:02Z</time>
      </trkpt>
      <trkpt lat="43.4897" lon="-1.42807">
        <ele>1</ele>
        <time>2024-04-05T22:05:43Z</time>
      </trkpt>
      <trkpt lat="43.48976" lon="-1.42752">
        <ele>2</ele>
        <time>2024-04-05T22:05:50Z</time>
      </trkpt>
      <trkpt lat="43.48979" lon="-1.42673">
        <ele>3</ele>
        <time>2024-04-05T22:06:00Z</time>
      </trkpt>
      <trkpt lat="43.48977" lon="-1.42524">
        <ele>7</ele>
        <time>2024-04-05T22:06:19Z</time>
      </trkpt>
      <trkpt lat="43.48978" lon="-1.42497">
        <ele>7</ele>
        <time>2024-04-05T22:06:23Z</time>
      </trkpt>
      <trkpt lat="43.48979" lon="-1.42489">
        <ele>7</ele>
        <time>2024-04-05T22:06:24Z</time>
      </trkpt>
      <trkpt lat="43.48985" lon="-1.42476">
        <ele>8</ele>
        <time>2024-04-05T22:06:26Z</time>
      </trkpt>
      <trkpt lat="43.48997" lon="-1.42468">
        <ele>8</ele>
        <time>2024-04-05T22:06:28Z</time>
      </trkpt>
      <trkpt lat="43.49039" lon="-1.42469">
        <ele>8</ele>
        <time>2024-04-05T22:06:36Z</time>
      </trkpt>
      <trkpt lat="43.49096" lon="-1.42465">
        <ele>7</ele>
        <time>2024-04-05T22:06:46Z</time>
      </trkpt>
      <trkpt lat="43.49099" lon="-1.42462">
        <ele>7</ele>
        <time>2024-04-05T22:06:47Z</time>
      </trkpt>
      <trkpt lat="43.49102" lon="-1.42455">
        <ele>7</ele>
        <time>2024-04-05T22:06:48Z</time>
      </trkpt>
      <trkpt lat="43.49106" lon="-1.42454">
        <ele>7</ele>
        <time>2024-04-05T22:06:48Z</time>
      </trkpt>
      <trkpt lat="43.49112" lon="-1.42453">
        <ele>7</ele>
        <time>2024-04-05T22:06:49Z</time>
      </trkpt>
      <trkpt lat="43.49115" lon="-1.4246">
        <ele>7</ele>
        <time>2024-04-05T22:06:50Z</time>
      </trkpt>
      <trkpt lat="43.49119" lon="-1.42462">
        <ele>7</ele>
        <time>2024-04-05T22:06:51Z</time>
      </trkpt>
      <trkpt lat="43.49172" lon="-1.42448">
        <ele>6</ele>
        <time>2024-04-05T22:07:01Z</time>
      </trkpt>
      <trkpt lat="43.4923" lon="-1.4243">
        <ele>5</ele>
        <time>2024-04-05T22:07:11Z</time>
      </trkpt>
      <trkpt lat="43.49238" lon="-1.42415">
        <ele>4</ele>
        <time>2024-04-05T22:07:14Z</time>
      </trkpt>
      <trkpt lat="43.49243" lon="-1.42413">
        <ele>4</ele>
        <time>2024-04-05T22:07:15Z</time>
      </trkpt>
      <trkpt lat="43.49255" lon="-1.42403">
        <ele>4</ele>
        <time>2024-04-05T22:07:17Z</time>
      </trkpt>
      <trkpt lat="43.49271" lon="-1.42413">
        <ele>4</ele>
        <time>2024-04-05T22:07:20Z</time>
      </trkpt>
      <trkpt lat="43.49274" lon="-1.42424">
        <ele>4</ele>
        <time>2024-04-05T22:07:22Z</time>
      </trkpt>
      <trkpt lat="43.49282" lon="-1.42417">
        <ele>4</ele>
        <time>2024-04-05T22:07:24Z</time>
      </trkpt>
      <trkpt lat="43.49295" lon="-1.42391">
        <ele>3</ele>
        <time>2024-04-05T22:07:28Z</time>
      </trkpt>
      <trkpt lat="43.49327" lon="-1.423">
        <ele>1</ele>
        <time>2024-04-05T22:07:41Z</time>
      </trkpt>
      <trkpt lat="43.49346" lon="-1.4226">
        <ele>1</ele>
        <time>2024-04-05T22:07:47Z</time>
      </trkpt>
      <trkpt lat="43.49362" lon="-1.42234">
        <ele>2</ele>
        <time>2024-04-05T22:07:51Z</time>
      </trkpt>
      <trkpt lat="43.49381" lon="-1.42207">
        <ele>2</ele>
        <time>2024-04-05T22:07:56Z</time>
      </trkpt>
      <trkpt lat="43.49407" lon="-1.42177">
        <ele>2</ele>
        <time>2024-04-05T22:08:02Z</time>
      </trkpt>
      <trkpt lat="43.49485" lon="-1.42105">
        <ele>1</ele>
        <time>2024-04-05T22:08:19Z</time>
      </trkpt>
      <trkpt lat="43.495" lon="-1.42086">
        <ele>1</ele>
        <time>2024-04-05T22:08:22Z</time>
      </trkpt>
      <trkpt lat="43.49512" lon="-1.42061">
        <ele>1</ele>
        <time>2024-04-05T22:08:26Z</time>
      </trkpt>
      <trkpt lat="43.49523" lon="-1.42028">
        <ele>2.8</ele>
        <time>2024-04-05T22:08:31Z</time>
      </trkpt>
      <trkpt lat="43.49532" lon="-1.41981">
        <ele>3</ele>
        <time>2024-04-05T22:08:37Z</time>
      </trkpt>
      <trkpt lat="43.49547" lon="-1.41871">
        <ele>1.6</ele>
        <time>2024-04-05T22:08:52Z</time>
      </trkpt>
      <trkpt lat="43.49555" lon="-1.41802">
        <ele>3</ele>
        <time>2024-04-05T22:09:01Z</time>
      </trkpt>
      <trkpt lat="43.4956" lon="-1.41713">
        <ele>2.7</ele>
        <time>2024-04-05T22:09:12Z</time>
      </trkpt>
      <trkpt lat="43.49562" lon="-1.41618">
        <ele>2</ele>
        <time>2024-04-05T22:09:25Z</time>
      </trkpt>
      <trkpt lat="43.49547" lon="-1.41115">
        <ele>1.4</ele>
        <time>2024-04-05T22:10:29Z</time>
      </trkpt>
      <trkpt lat="43.49542" lon="-1.41077">
        <ele>2</ele>
        <time>2024-04-05T22:10:34Z</time>
      </trkpt>
      <trkpt lat="43.4952" lon="-1.41013">
        <ele>2.3</ele>
        <time>2024-04-05T22:10:44Z</time>
      </trkpt>
      <trkpt lat="43.49516" lon="-1.40993">
        <ele>1.9</ele>
        <time>2024-04-05T22:10:46Z</time>
      </trkpt>
      <trkpt lat="43.49513" lon="-1.40971">
        <ele>1.6</ele>
        <time>2024-04-05T22:10:49Z</time>
      </trkpt>
      <trkpt lat="43.49513" lon="-1.40943">
        <ele>1</ele>
        <time>2024-04-05T22:10:53Z</time>
      </trkpt>
      <trkpt lat="43.49532" lon="-1.40688">
        <ele>1</ele>
        <time>2024-04-05T22:11:26Z</time>
      </trkpt>
      <trkpt lat="43.49532" lon="-1.40626">
        <ele>1</ele>
        <time>2024-04-05T22:11:34Z</time>
      </trkpt>
      <trkpt lat="43.49511" lon="-1.40508">
        <ele>1</ele>
        <time>2024-04-05T22:11:50Z</time>
      </trkpt>
      <trkpt lat="43.49507" lon="-1.4048">
        <ele>1</ele>
        <time>2024-04-05T22:11:53Z</time>
      </trkpt>
      <trkpt lat="43.49496" lon="-1.40182">
        <ele>2.5</ele>
        <time>2024-04-05T22:12:32Z</time>
      </trkpt>
      <trkpt lat="43.49491" lon="-1.40107">
        <ele>1</ele>
        <time>2024-04-05T22:12:41Z</time>
      </trkpt>
      <trkpt lat="43.49485" lon="-1.40063">
        <ele>1</ele>
        <time>2024-04-05T22:12:47Z</time>
      </trkpt>
      <trkpt lat="43.49461" lon="-1.39955">
        <ele>1</ele>
        <time>2024-04-05T22:13:02Z</time>
      </trkpt>
      <trkpt lat="43.49423" lon="-1.39865">
        <ele>1</ele>
        <time>2024-04-05T22:13:15Z</time>
      </trkpt>
      <trkpt lat="43.49397" lon="-1.39796">
        <ele>2.2</ele>
        <time>2024-04-05T22:13:25Z</time>
      </trkpt>
      <trkpt lat="43.49373" lon="-1.39716">
        <ele>2</ele>
        <time>2024-04-05T22:13:36Z</time>
      </trkpt>
      <trkpt lat="43.49356" lon="-1.39634">
        <ele>2.7</ele>
        <time>2024-04-05T22:13:48Z</time>
      </trkpt>
      <trkpt lat="43.49346" lon="-1.39569">
        <ele>2</ele>
        <time>2024-04-05T22:13:56Z</time>
      </trkpt>
      <trkpt lat="43.49345" lon="-1.39561">
        <ele>1</ele>
        <time>2024-04-05T22:13:57Z</time>
      </trkpt>
      <trkpt lat="43.49319" lon="-1.39365">
        <ele>2</ele>
        <time>2024-04-05T22:14:23Z</time>
      </trkpt>
      <trkpt lat="43.49298" lon="-1.39249">
        <ele>4</ele>
        <time>2024-04-05T22:14:38Z</time>
      </trkpt>
      <trkpt lat="43.49271" lon="-1.39162">
        <ele>1</ele>
        <time>2024-04-05T22:14:50Z</time>
      </trkpt>
      <trkpt lat="43.49205" lon="-1.39007">
        <ele>2</ele>
        <time>2024-04-05T22:15:14Z</time>
      </trkpt>
      <trkpt lat="43.49147" lon="-1.38819">
        <ele>2.4</ele>
        <time>2024-04-05T22:15:40Z</time>
      </trkpt>
      <trkpt lat="43.49134" lon="-1.38765">
        <ele>2</ele>
        <time>2024-04-05T22:15:47Z</time>
      </trkpt>
      <trkpt lat="43.4913" lon="-1.38739">
        <ele>2</ele>
        <time>2024-04-05T22:15:51Z</time>
      </trkpt>
      <trkpt lat="43.49125" lon="-1.38669">
        <ele>2</ele>
        <time>2024-04-05T22:16:00Z</time>
      </trkpt>
      <trkpt lat="43.49124" lon="-1.3845">
        <ele>1</ele>
        <time>2024-04-05T22:16:28Z</time>
      </trkpt>
      <trkpt lat="43.4913" lon="-1.38203">
        <ele>2</ele>
        <time>2024-04-05T22:17:00Z</time>
      </trkpt>
      <trkpt lat="43.49125" lon="-1.37621">
        <ele>1</ele>
        <time>2024-04-05T22:18:15Z</time>
      </trkpt>
      <trkpt lat="43.49127" lon="-1.37542">
        <ele>1.6</ele>
        <time>2024-04-05T22:18:25Z</time>
      </trkpt>
      <trkpt lat="43.49132" lon="-1.37458">
        <ele>1</ele>
        <time>2024-04-05T22:18:36Z</time>
      </trkpt>
      <trkpt lat="43.49143" lon="-1.37365">
        <ele>1</ele>
        <time>2024-04-05T22:18:48Z</time>
      </trkpt>
      <trkpt lat="43.49155" lon="-1.37287">
        <ele>1</ele>
        <time>2024-04-05T22:18:59Z</time>
      </trkpt>
      <trkpt lat="43.49206" lon="-1.36996">
        <ele>1</ele>
        <time>2024-04-05T22:19:37Z</time>
      </trkpt>
      <trkpt lat="43.49297" lon="-1.36599">
        <ele>1</ele>
        <time>2024-04-05T22:20:31Z</time>
      </trkpt>
      <trkpt lat="43.49306" lon="-1.36569">
        <ele>1</ele>
        <time>2024-04-05T22:20:35Z</time>
      </trkpt>
      <trkpt lat="43.49428" lon="-1.36196">
        <ele>1</ele>
        <time>2024-04-05T22:21:28Z</time>
      </trkpt>
      <trkpt lat="43.49453" lon="-1.36136">
        <ele>2</ele>
        <time>2024-04-05T22:21:37Z</time>
      </trkpt>
      <trkpt lat="43.49485" lon="-1.36067">
        <ele>2</ele>
        <time>2024-04-05T22:21:48Z</time>
      </trkpt>
      <trkpt lat="43.49486" lon="-1.36053">
        <ele>3</ele>
        <time>2024-04-05T22:21:49Z</time>
      </trkpt>
      <trkpt lat="43.49496" lon="-1.36042">
        <ele>4</ele>
        <time>2024-04-05T22:21:52Z</time>
      </trkpt>
      <trkpt lat="43.49524" lon="-1.3598">
        <ele>6</ele>
        <time>2024-04-05T22:22:01Z</time>
      </trkpt>
      <trkpt lat="43.49529" lon="-1.35964">
        <ele>7</ele>
        <time>2024-04-05T22:22:03Z</time>
      </trkpt>
      <trkpt lat="43.49537" lon="-1.35925">
        <ele>7</ele>
        <time>2024-04-05T22:22:09Z</time>
      </trkpt>
      <trkpt lat="43.49545" lon="-1.35841">
        <ele>7</ele>
        <time>2024-04-05T22:22:20Z</time>
      </trkpt>
      <trkpt lat="43.49541" lon="-1.35771">
        <ele>6</ele>
        <time>2024-04-05T22:22:29Z</time>
      </trkpt>
      <trkpt lat="43.49523" lon="-1.35609">
        <ele>6</ele>
        <time>2024-04-05T22:22:50Z</time>
      </trkpt>
      <trkpt lat="43.49522" lon="-1.35567">
        <ele>5</ele>
        <time>2024-04-05T22:22:55Z</time>
      </trkpt>
      <trkpt lat="43.49523" lon="-1.3554">
        <ele>5</ele>
        <time>2024-04-05T22:22:59Z</time>
      </trkpt>
      <trkpt lat="43.49528" lon="-1.35512">
        <ele>4</ele>
        <time>2024-04-05T22:23:02Z</time>
      </trkpt>
      <trkpt lat="43.49597" lon="-1.35302">
        <ele>3</ele>
        <time>2024-04-05T22:23:32Z</time>
      </trkpt>
      <trkpt lat="43.49633" lon="-1.35198">
        <ele>2</ele>
        <time>2024-04-05T22:23:47Z</time>
      </trkpt>
      <trkpt lat="43.49654" lon="-1.35148">
        <ele>2</ele>
        <time>2024-04-05T22:23:55Z</time>
      </trkpt>
      <trkpt lat="43.49673" lon="-1.35109">
        <ele>2</ele>
        <time>2024-04-05T22:24:01Z</time>
      </trkpt>
      <trkpt lat="43.4971" lon="-1.35042">
        <ele>2</ele>
        <time>2024-04-05T22:24:11Z</time>
      </trkpt>
      <trkpt lat="43.49736" lon="-1.35001">
        <ele>2</ele>
        <time>2024-04-05T22:24:18Z</time>
      </trkpt>
      <trkpt lat="43.498" lon="-1.34903">
        <ele>1</ele>
        <time>2024-04-05T22:24:36Z</time>
      </trkpt>
      <trkpt lat="43.49894" lon="-1.34759">
        <ele>2</ele>
        <time>2024-04-05T22:25:01Z</time>
      </trkpt>
      <trkpt lat="43.49925" lon="-1.34705">
        <ele>2</ele>
        <time>2024-04-05T22:25:09Z</time>
      </trkpt>
      <trkpt lat="43.49955" lon="-1.34645">
        <ele>2</ele>
        <time>2024-04-05T22:25:19Z</time>
      </trkpt>
      <trkpt lat="43.49972" lon="-1.34606">
        <ele>2</ele>
        <time>2024-04-05T22:25:25Z</time>
      </trkpt>
      <trkpt lat="43.49996" lon="-1.34538">
        <ele>3</ele>
        <time>2024-04-05T22:25:34Z</time>
      </trkpt>
      <trkpt lat="43.50026" lon="-1.34443">
        <ele>2</ele>
        <time>2024-04-05T22:25:48Z</time>
      </trkpt>
      <trkpt lat="43.50108" lon="-1.34112">
        <ele>2</ele>
        <time>2024-04-05T22:26:33Z</time>
      </trkpt>
      <trkpt lat="43.50118" lon="-1.34004">
        <ele>3</ele>
        <time>2024-04-05T22:26:47Z</time>
      </trkpt>
      <trkpt lat="43.50137" lon="-1.33193">
        <ele>2</ele>
        <time>2024-04-05T22:28:32Z</time>
      </trkpt>
      <trkpt lat="43.50132" lon="-1.33133">
        <ele>2</ele>
        <time>2024-04-05T22:28:40Z</time>
      </trkpt>
      <trkpt lat="43.50124" lon="-1.33078">
        <ele>3</ele>
        <time>2024-04-05T22:28:47Z</time>
      </trkpt>
      <trkpt lat="43.50124" lon="-1.33043">
        <ele>3</ele>
        <time>2024-04-05T22:28:51Z</time>
      </trkpt>
      <trkpt lat="43.50128" lon="-1.33007">
        <ele>3</ele>
        <time>2024-04-05T22:28:56Z</time>
      </trkpt>
      <trkpt lat="43.50151" lon="-1.329">
        <ele>1</ele>
        <time>2024-04-05T22:29:10Z</time>
      </trkpt>
      <trkpt lat="43.50153" lon="-1.32882">
        <ele>1</ele>
        <time>2024-04-05T22:29:13Z</time>
      </trkpt>
      <trkpt lat="43.50154" lon="-1.3283">
        <ele>1.5</ele>
        <time>2024-04-05T22:29:19Z</time>
      </trkpt>
      <trkpt lat="43.50152" lon="-1.32769">
        <ele>1</ele>
        <time>2024-04-05T22:29:27Z</time>
      </trkpt>
      <trkpt lat="43.50142" lon="-1.32637">
        <ele>3.1</ele>
        <time>2024-04-05T22:29:44Z</time>
      </trkpt>
      <trkpt lat="43.50139" lon="-1.32612">
        <ele>1</ele>
        <time>2024-04-05T22:29:48Z</time>
      </trkpt>
      <trkpt lat="43.50131" lon="-1.32565">
        <ele>1</ele>
        <time>2024-04-05T22:29:54Z</time>
      </trkpt>
      <trkpt lat="43.5011" lon="-1.32481">
        <ele>1</ele>
        <time>2024-04-05T22:30:05Z</time>
      </trkpt>
      <trkpt lat="43.50106" lon="-1.32458">
        <ele>1</ele>
        <time>2024-04-05T22:30:08Z</time>
      </trkpt>
      <trkpt lat="43.50101" lon="-1.32413">
        <ele>1</ele>
        <time>2024-04-05T22:30:14Z</time>
      </trkpt>
      <trkpt lat="43.50099" lon="-1.3233">
        <ele>2</ele>
        <time>2024-04-05T22:30:25Z</time>
      </trkpt>
      <trkpt lat="43.50105" lon="-1.3224">
        <ele>1</ele>
        <time>2024-04-05T22:30:37Z</time>
      </trkpt>
      <trkpt lat="43.50147" lon="-1.31934">
        <ele>1</ele>
        <time>2024-04-05T22:31:17Z</time>
      </trkpt>
      <trkpt lat="43.50152" lon="-1.31888">
        <ele>2</ele>
        <time>2024-04-05T22:31:23Z</time>
      </trkpt>
      <trkpt lat="43.50153" lon="-1.31836">
        <ele>2</ele>
        <time>2024-04-05T22:31:30Z</time>
      </trkpt>
      <trkpt lat="43.50151" lon="-1.31797">
        <ele>2</ele>
        <time>2024-04-05T22:31:35Z</time>
      </trkpt>
      <trkpt lat="43.50145" lon="-1.31744">
        <ele>2</ele>
        <time>2024-04-05T22:31:42Z</time>
      </trkpt>
      <trkpt lat="43.50137" lon="-1.31713">
        <ele>3</ele>
        <time>2024-04-05T22:31:46Z</time>
      </trkpt>
      <trkpt lat="43.50127" lon="-1.31682">
        <ele>4</ele>
        <time>2024-04-05T22:31:50Z</time>
      </trkpt>
      <trkpt lat="43.501" lon="-1.31613">
        <ele>3</ele>
        <time>2024-04-05T22:32:00Z</time>
      </trkpt>
      <trkpt lat="43.5003" lon="-1.31444">
        <ele>4</ele>
        <time>2024-04-05T22:32:25Z</time>
      </trkpt>
      <trkpt lat="43.49894" lon="-1.31127">
        <ele>4</ele>
        <time>2024-04-05T22:33:13Z</time>
      </trkpt>
      <trkpt lat="43.49875" lon="-1.31074">
        <ele>4</ele>
        <time>2024-04-05T22:33:21Z</time>
      </trkpt>
      <trkpt lat="43.49862" lon="-1.31015">
        <ele>4</ele>
        <time>2024-04-05T22:33:29Z</time>
      </trkpt>
      <trkpt lat="43.49853" lon="-1.30943">
        <ele>4</ele>
        <time>2024-04-05T22:33:38Z</time>
      </trkpt>
      <trkpt lat="43.49852" lon="-1.30875">
        <ele>4</ele>
        <time>2024-04-05T22:33:47Z</time>
      </trkpt>
      <trkpt lat="43.49856" lon="-1.30818">
        <ele>3</ele>
        <time>2024-04-05T22:33:54Z</time>
      </trkpt>
      <trkpt lat="43.49902" lon="-1.30526">
        <ele>3</ele>
        <time>2024-04-05T22:34:33Z</time>
      </trkpt>
      <trkpt lat="43.49964" lon="-1.30136">
        <ele>3</ele>
        <time>2024-04-05T22:35:24Z</time>
      </trkpt>
      <trkpt lat="43.49966" lon="-1.30066">
        <ele>4</ele>
        <time>2024-04-05T22:35:33Z</time>
      </trkpt>
      <trkpt lat="43.49964" lon="-1.29911">
        <ele>5</ele>
        <time>2024-04-05T22:35:53Z</time>
      </trkpt>
      <trkpt lat="43.49963" lon="-1.29889">
        <ele>4</ele>
        <time>2024-04-05T22:35:56Z</time>
      </trkpt>
      <trkpt lat="43.49959" lon="-1.29863">
        <ele>4</ele>
        <time>2024-04-05T22:36:00Z</time>
      </trkpt>
      <trkpt lat="43.49951" lon="-1.2984">
        <ele>4</ele>
        <time>2024-04-05T22:36:03Z</time>
      </trkpt>
      <trkpt lat="43.49941" lon="-1.29823">
        <ele>4</ele>
        <time>2024-04-05T22:36:06Z</time>
      </trkpt>
      <trkpt lat="43.49933" lon="-1.29819">
        <ele>4</ele>
        <time>2024-04-05T22:36:07Z</time>
      </trkpt>
      <trkpt lat="43.49926" lon="-1.29817">
        <ele>4</ele>
        <time>2024-04-05T22:36:09Z</time>
      </trkpt>
      <trkpt lat="43.49911" lon="-1.2982">
        <ele>4</ele>
        <time>2024-04-05T22:36:11Z</time>
      </trkpt>
      <trkpt lat="43.49902" lon="-1.29818">
        <ele>5</ele>
        <time>2024-04-05T22:36:13Z</time>
      </trkpt>
      <trkpt lat="43.49898" lon="-1.29813">
        <ele>5</ele>
        <time>2024-04-05T22:36:14Z</time>
      </trkpt>
      <trkpt lat="43.49892" lon="-1.29798">
        <ele>5</ele>
        <time>2024-04-05T22:36:16Z</time>
      </trkpt>
      <trkpt lat="43.49873" lon="-1.29706">
        <ele>6</ele>
        <time>2024-04-05T22:36:28Z</time>
      </trkpt>
      <trkpt lat="43.49863" lon="-1.29688">
        <ele>7</ele>
        <time>2024-04-05T22:36:31Z</time>
      </trkpt>
      <trkpt lat="43.4985" lon="-1.29675">
        <ele>7</ele>
        <time>2024-04-05T22:36:34Z</time>
      </trkpt>
      <trkpt lat="43.4982" lon="-1.2966">
        <ele>8</ele>
        <time>2024-04-05T22:36:40Z</time>
      </trkpt>
      <trkpt lat="43.49809" lon="-1.2965">
        <ele>9</ele>
        <time>2024-04-05T22:36:42Z</time>
      </trkpt>
      <trkpt lat="43.49796" lon="-1.29635">
        <ele>9</ele>
        <time>2024-04-05T22:36:45Z</time>
      </trkpt>
      <trkpt lat="43.4981" lon="-1.29611">
        <ele>8</ele>
        <time>2024-04-05T22:36:49Z</time>
      </trkpt>
      <trkpt lat="43.49813" lon="-1.29593">
        <ele>8</ele>
        <time>2024-04-05T22:36:52Z</time>
      </trkpt>
      <trkpt lat="43.49813" lon="-1.2958">
        <ele>8</ele>
        <time>2024-04-05T22:36:53Z</time>
      </trkpt>
      <trkpt lat="43.49725" lon="-1.2943">
        <ele>10</ele>
        <time>2024-04-05T22:37:18Z</time>
      </trkpt>
      <trkpt lat="43.49725" lon="-1.29421">
        <ele>9</ele>
        <time>2024-04-05T22:37:19Z</time>
      </trkpt>
      <trkpt lat="43.49723" lon="-1.29392">
        <ele>7</ele>
        <time>2024-04-05T22:37:23Z</time>
      </trkpt>
      <trkpt lat="43.49718" lon="-1.29318">
        <ele>3</ele>
        <time>2024-04-05T22:37:33Z</time>
      </trkpt>
      <trkpt lat="43.49717" lon="-1.29291">
        <ele>2</ele>
        <time>2024-04-05T22:37:36Z</time>
      </trkpt>
      <trkpt lat="43.49707" lon="-1.29077">
        <ele>1.9</ele>
        <time>2024-04-05T22:38:04Z</time>
      </trkpt>
      <trkpt lat="43.49708" lon="-1.29046">
        <ele>1.7</ele>
        <time>2024-04-05T22:38:08Z</time>
      </trkpt>
      <trkpt lat="43.49729" lon="-1.28906">
        <ele>2</ele>
        <time>2024-04-05T22:38:26Z</time>
      </trkpt>
      <trkpt lat="43.49757" lon="-1.28786">
        <ele>2.1</ele>
        <time>2024-04-05T22:38:43Z</time>
      </trkpt>
      <trkpt lat="43.49784" lon="-1.28691">
        <ele>2.8</ele>
        <time>2024-04-05T22:38:56Z</time>
      </trkpt>
      <trkpt lat="43.49811" lon="-1.28625">
        <ele>1</ele>
        <time>2024-04-05T22:39:05Z</time>
      </trkpt>
      <trkpt lat="43.49857" lon="-1.28538">
        <ele>1</ele>
        <time>2024-04-05T22:39:19Z</time>
      </trkpt>
      <trkpt lat="43.49919" lon="-1.28404">
        <ele>2.9</ele>
        <time>2024-04-05T22:39:40Z</time>
      </trkpt>
      <trkpt lat="43.50018" lon="-1.28214">
        <ele>2.1</ele>
        <time>2024-04-05T22:40:10Z</time>
      </trkpt>
      <trkpt lat="43.50081" lon="-1.28106">
        <ele>1</ele>
        <time>2024-04-05T22:40:28Z</time>
      </trkpt>
      <trkpt lat="43.50128" lon="-1.28031">
        <ele>1</ele>
        <time>2024-04-05T22:40:41Z</time>
      </trkpt>
      <trkpt lat="43.50203" lon="-1.27874">
        <ele>2.5</ele>
        <time>2024-04-05T22:41:05Z</time>
      </trkpt>
      <trkpt lat="43.50302" lon="-1.27697">
        <ele>1</ele>
        <time>2024-04-05T22:41:34Z</time>
      </trkpt>
      <trkpt lat="43.50373" lon="-1.27564">
        <ele>2</ele>
        <time>2024-04-05T22:41:55Z</time>
      </trkpt>
      <trkpt lat="43.50671" lon="-1.27056">
        <ele>3</ele>
        <time>2024-04-05T22:43:20Z</time>
      </trkpt>
      <trkpt lat="43.5077" lon="-1.26908">
        <ele>1.7</ele>
        <time>2024-04-05T22:43:45Z</time>
      </trkpt>
      <trkpt lat="43.50925" lon="-1.26656">
        <ele>2.5</ele>
        <time>2024-04-05T22:44:28Z</time>
      </trkpt>
      <trkpt lat="43.50954" lon="-1.26606">
        <ele>2.8</ele>
        <time>2024-04-05T22:44:36Z</time>
      </trkpt>
      <trkpt lat="43.50962" lon="-1.26588">
        <ele>2.2</ele>
        <time>2024-04-05T22:44:39Z</time>
      </trkpt>
      <trkpt lat="43.50986" lon="-1.26522">
        <ele>2.5</ele>
        <time>2024-04-05T22:44:49Z</time>
      </trkpt>
      <trkpt lat="43.51051" lon="-1.26333">
        <ele>3</ele>
        <time>2024-04-05T22:45:16Z</time>
      </trkpt>
      <trkpt lat="43.5106" lon="-1.26298">
        <ele>3</ele>
        <time>2024-04-05T22:45:20Z</time>
      </trkpt>
      <trkpt lat="43.51081" lon="-1.26197">
        <ele>1</ele>
        <time>2024-04-05T22:45:34Z</time>
      </trkpt>
      <trkpt lat="43.51099" lon="-1.26135">
        <ele>1</ele>
        <time>2024-04-05T22:45:43Z</time>
      </trkpt>
      <trkpt lat="43.5111" lon="-1.26104">
        <ele>2.8</ele>
        <time>2024-04-05T22:45:47Z</time>
      </trkpt>
      <trkpt lat="43.51137" lon="-1.26041">
        <ele>2.5</ele>
        <time>2024-04-05T22:45:56Z</time>
      </trkpt>
      <trkpt lat="43.51195" lon="-1.25922">
        <ele>1</ele>
        <time>2024-04-05T22:46:15Z</time>
      </trkpt>
      <trkpt lat="43.51214" lon="-1.25869">
        <ele>2.1</ele>
        <time>2024-04-05T22:46:23Z</time>
      </trkpt>
      <trkpt lat="43.5129" lon="-1.25609">
        <ele>1</ele>
        <time>2024-04-05T22:46:59Z</time>
      </trkpt>
      <trkpt lat="43.51315" lon="-1.25548">
        <ele>2</ele>
        <time>2024-04-05T22:47:08Z</time>
      </trkpt>
      <trkpt lat="43.5134" lon="-1.25483">
        <ele>3</ele>
        <time>2024-04-05T22:47:17Z</time>
      </trkpt>
      <trkpt lat="43.51421" lon="-1.25245">
        <ele>1</ele>
        <time>2024-04-05T22:47:51Z</time>
      </trkpt>
      <trkpt lat="43.51461" lon="-1.25142">
        <ele>1</ele>
        <time>2024-04-05T22:48:06Z</time>
      </trkpt>
      <trkpt lat="43.5158" lon="-1.24864">
        <ele>1</ele>
        <time>2024-04-05T22:48:48Z</time>
      </trkpt>
      <trkpt lat="43.51589" lon="-1.24835">
        <ele>1</ele>
        <time>2024-04-05T22:48:52Z</time>
      </trkpt>
      <trkpt lat="43.51604" lon="-1.24778">
        <ele>1</ele>
        <time>2024-04-05T22:49:00Z</time>
      </trkpt>
      <trkpt lat="43.51629" lon="-1.24706">
        <ele>1</ele>
        <time>2024-04-05T22:49:10Z</time>
      </trkpt>
      <trkpt lat="43.51646" lon="-1.24667">
        <ele>1</ele>
        <time>2024-04-05T22:49:16Z</time>
      </trkpt>
      <trkpt lat="43.51663" lon="-1.24631">
        <ele>1</ele>
        <time>2024-04-05T22:49:22Z</time>
      </trkpt>
      <trkpt lat="43.51691" lon="-1.24585">
        <ele>1</ele>
        <time>2024-04-05T22:49:29Z</time>
      </trkpt>
      <trkpt lat="43.517" lon="-1.24568">
        <ele>1</ele>
        <time>2024-04-05T22:49:32Z</time>
      </trkpt>
      <trkpt lat="43.51708" lon="-1.24546">
        <ele>1</ele>
        <time>2024-04-05T22:49:35Z</time>
      </trkpt>
      <trkpt lat="43.51728" lon="-1.24469">
        <ele>3</ele>
        <time>2024-04-05T22:49:46Z</time>
      </trkpt>
      <trkpt lat="43.51773" lon="-1.24248">
        <ele>1</ele>
        <time>2024-04-05T22:50:15Z</time>
      </trkpt>
      <trkpt lat="43.51827" lon="-1.24041">
        <ele>1</ele>
        <time>2024-04-05T22:50:44Z</time>
      </trkpt>
      <trkpt lat="43.51833" lon="-1.24003">
        <ele>1</ele>
        <time>2024-04-05T22:50:49Z</time>
      </trkpt>
      <trkpt lat="43.51839" lon="-1.23981">
        <ele>1</ele>
        <time>2024-04-05T22:50:52Z</time>
      </trkpt>
      <trkpt lat="43.51914" lon="-1.2378">
        <ele>1</ele>
        <time>2024-04-05T22:51:21Z</time>
      </trkpt>
      <trkpt lat="43.5193" lon="-1.23743">
        <ele>1</ele>
        <time>2024-04-05T22:51:27Z</time>
      </trkpt>
      <trkpt lat="43.52002" lon="-1.23592">
        <ele>3.5</ele>
        <time>2024-04-05T22:51:50Z</time>
      </trkpt>
      <trkpt lat="43.52139" lon="-1.23336">
        <ele>2.9</ele>
        <time>2024-04-05T22:52:31Z</time>
      </trkpt>
      <trkpt lat="43.52209" lon="-1.23182">
        <ele>2.4</ele>
        <time>2024-04-05T22:52:54Z</time>
      </trkpt>
      <trkpt lat="43.52268" lon="-1.23036">
        <ele>1</ele>
        <time>2024-04-05T22:53:16Z</time>
      </trkpt>
      <trkpt lat="43.52288" lon="-1.22987">
        <ele>1</ele>
        <time>2024-04-05T22:53:23Z</time>
      </trkpt>
      <trkpt lat="43.52301" lon="-1.22963">
        <ele>1</ele>
        <time>2024-04-05T22:53:27Z</time>
      </trkpt>
      <trkpt lat="43.52366" lon="-1.22857">
        <ele>1</ele>
        <time>2024-04-05T22:53:45Z</time>
      </trkpt>
      <trkpt lat="43.52539" lon="-1.2259">
        <ele>2.2</ele>
        <time>2024-04-05T22:54:31Z</time>
      </trkpt>
      <trkpt lat="43.52592" lon="-1.22511">
        <ele>2</ele>
        <time>2024-04-05T22:54:45Z</time>
      </trkpt>
      <trkpt lat="43.52618" lon="-1.22456">
        <ele>1</ele>
        <time>2024-04-05T22:54:54Z</time>
      </trkpt>
      <trkpt lat="43.52743" lon="-1.22217">
        <ele>2</ele>
        <time>2024-04-05T22:55:32Z</time>
      </trkpt>
      <trkpt lat="43.52833" lon="-1.22068">
        <ele>2.6</ele>
        <time>2024-04-05T22:55:57Z</time>
      </trkpt>
      <trkpt lat="43.529" lon="-1.21939">
        <ele>2.4</ele>
        <time>2024-04-05T22:56:17Z</time>
      </trkpt>
      <trkpt lat="43.52914" lon="-1.21909">
        <ele>3</ele>
        <time>2024-04-05T22:56:22Z</time>
      </trkpt>
      <trkpt lat="43.52933" lon="-1.21863">
        <ele>1</ele>
        <time>2024-04-05T22:56:28Z</time>
      </trkpt>
      <trkpt lat="43.52979" lon="-1.21742">
        <ele>3.1</ele>
        <time>2024-04-05T22:56:46Z</time>
      </trkpt>
      <trkpt lat="43.53068" lon="-1.21485">
        <ele>1</ele>
        <time>2024-04-05T22:57:23Z</time>
      </trkpt>
      <trkpt lat="43.53076" lon="-1.21454">
        <ele>2</ele>
        <time>2024-04-05T22:57:27Z</time>
      </trkpt>
      <trkpt lat="43.53078" lon="-1.21417">
        <ele>2</ele>
        <time>2024-04-05T22:57:32Z</time>
      </trkpt>
      <trkpt lat="43.53082" lon="-1.21409">
        <ele>2</ele>
        <time>2024-04-05T22:57:33Z</time>
      </trkpt>
      <trkpt lat="43.531" lon="-1.21393">
        <ele>1</ele>
        <time>2024-04-05T22:57:37Z</time>
      </trkpt>
      <trkpt lat="43.53171" lon="-1.21331">
        <ele>2</ele>
        <time>2024-04-05T22:57:52Z</time>
      </trkpt>
      <trkpt lat="43.53255" lon="-1.21252">
        <ele>2</ele>
        <time>2024-04-05T22:58:10Z</time>
      </trkpt>
      <trkpt lat="43.53328" lon="-1.21167">
        <ele>2</ele>
        <time>2024-04-05T22:58:27Z</time>
      </trkpt>
      <trkpt lat="43.53384" lon="-1.21096">
        <ele>1</ele>
        <time>2024-04-05T22:58:40Z</time>
      </trkpt>
      <trkpt lat="43.53439" lon="-1.21014">
        <ele>2</ele>
        <time>2024-04-05T22:58:55Z</time>
      </trkpt>
      <trkpt lat="43.53506" lon="-1.20921">
        <ele>1</ele>
        <time>2024-04-05T22:59:12Z</time>
      </trkpt>
      <trkpt lat="43.53587" lon="-1.20815">
        <ele>2</ele>
        <time>2024-04-05T22:59:32Z</time>
      </trkpt>
      <trkpt lat="43.53614" lon="-1.20784">
        <ele>2</ele>
        <time>2024-04-05T22:59:38Z</time>
      </trkpt>
      <trkpt lat="43.53625" lon="-1.20765">
        <ele>1</ele>
        <time>2024-04-05T22:59:41Z</time>
      </trkpt>
      <trkpt lat="43.53645" lon="-1.20728">
        <ele>1</ele>
        <time>2024-04-05T22:59:47Z</time>
      </trkpt>
      <trkpt lat="43.53675" lon="-1.2066">
        <ele>1</ele>
        <time>2024-04-05T22:59:57Z</time>
      </trkpt>
      <trkpt lat="43.53713" lon="-1.20601">
        <ele>2</ele>
        <time>2024-04-05T23:00:07Z</time>
      </trkpt>
      <trkpt lat="43.53755" lon="-1.20538">
        <ele>2</ele>
        <time>2024-04-05T23:00:19Z</time>
      </trkpt>
      <trkpt lat="43.53788" lon="-1.20494">
        <ele>2</ele>
        <time>2024-04-05T23:00:27Z</time>
      </trkpt>
      <trkpt lat="43.53827" lon="-1.20431">
        <ele>2</ele>
        <time>2024-04-05T23:00:37Z</time>
      </trkpt>
      <trkpt lat="43.53942" lon="-1.20261">
        <ele>2</ele>
        <time>2024-04-05T23:01:07Z</time>
      </trkpt>
      <trkpt lat="43.53969" lon="-1.20226">
        <ele>1</ele>
        <time>2024-04-05T23:01:14Z</time>
      </trkpt>
      <trkpt lat="43.54057" lon="-1.20103">
        <ele>2</ele>
        <time>2024-04-05T23:01:36Z</time>
      </trkpt>
      <trkpt lat="43.54084" lon="-1.20067">
        <ele>3</ele>
        <time>2024-04-05T23:01:43Z</time>
      </trkpt>
      <trkpt lat="43.54189" lon="-1.19942">
        <ele>1</ele>
        <time>2024-04-05T23:02:08Z</time>
      </trkpt>
      <trkpt lat="43.54263" lon="-1.19858">
        <ele>1</ele>
        <time>2024-04-05T23:02:25Z</time>
      </trkpt>
      <trkpt lat="43.54357" lon="-1.19756">
        <ele>1</ele>
        <time>2024-04-05T23:02:46Z</time>
      </trkpt>
      <trkpt lat="43.5441" lon="-1.19695">
        <ele>3</ele>
        <time>2024-04-05T23:02:58Z</time>
      </trkpt>
      <trkpt lat="43.54433" lon="-1.19665">
        <ele>3</ele>
        <time>2024-04-05T23:03:04Z</time>
      </trkpt>
      <trkpt lat="43.54468" lon="-1.19611">
        <ele>1</ele>
        <time>2024-04-05T23:03:13Z</time>
      </trkpt>
      <trkpt lat="43.54526" lon="-1.19491">
        <ele>2</ele>
        <time>2024-04-05T23:03:32Z</time>
      </trkpt>
      <trkpt lat="43.54551" lon="-1.19444">
        <ele>2</ele>
        <time>2024-04-05T23:03:39Z</time>
      </trkpt>
      <trkpt lat="43.54563" lon="-1.19419">
        <ele>2</ele>
        <time>2024-04-05T23:03:43Z</time>
      </trkpt>
      <trkpt lat="43.54573" lon="-1.19384">
        <ele>2</ele>
        <time>2024-04-05T23:03:48Z</time>
      </trkpt>
      <trkpt lat="43.54602" lon="-1.19268">
        <ele>4</ele>
        <time>2024-04-05T23:04:04Z</time>
      </trkpt>
      <trkpt lat="43.54619" lon="-1.19162">
        <ele>2</ele>
        <time>2024-04-05T23:04:18Z</time>
      </trkpt>
      <trkpt lat="43.5463" lon="-1.19104">
        <ele>3</ele>
        <time>2024-04-05T23:04:26Z</time>
      </trkpt>
      <trkpt lat="43.54646" lon="-1.19029">
        <ele>4</ele>
        <time>2024-04-05T23:04:36Z</time>
      </trkpt>
      <trkpt lat="43.54653" lon="-1.1899">
        <ele>3</ele>
        <time>2024-04-05T23:04:41Z</time>
      </trkpt>
      <trkpt lat="43.5466" lon="-1.18928">
        <ele>1</ele>
        <time>2024-04-05T23:04:49Z</time>
      </trkpt>
      <trkpt lat="43.54668" lon="-1.1883">
        <ele>-3</ele>
        <time>2024-04-05T23:05:02Z</time>
      </trkpt>
      <trkpt lat="43.54669" lon="-1.18786">
        <ele>-2</ele>
        <time>2024-04-05T23:05:07Z</time>
      </trkpt>
      <trkpt lat="43.54666" lon="-1.18671">
        <ele>3</ele>
        <time>2024-04-05T23:05:22Z</time>
      </trkpt>
      <trkpt lat="43.5466" lon="-1.18558">
        <ele>2</ele>
        <time>2024-04-05T23:05:37Z</time>
      </trkpt>
      <trkpt lat="43.54643" lon="-1.18382">
        <ele>1</ele>
        <time>2024-04-05T23:06:00Z</time>
      </trkpt>
      <trkpt lat="43.54623" lon="-1.18226">
        <ele>1</ele>
        <time>2024-04-05T23:06:20Z</time>
      </trkpt>
      <trkpt lat="43.54552" lon="-1.17723">
        <ele>3</ele>
        <time>2024-04-05T23:07:26Z</time>
      </trkpt>
      <trkpt lat="43.54542" lon="-1.17582">
        <ele>5</ele>
        <time>2024-04-05T23:07:44Z</time>
      </trkpt>
      <trkpt lat="43.5453" lon="-1.17468">
        <ele>6</ele>
        <time>2024-04-05T23:07:59Z</time>
      </trkpt>
      <trkpt lat="43.54517" lon="-1.17328">
        <ele>2</ele>
        <time>2024-04-05T23:08:18Z</time>
      </trkpt>
      <trkpt lat="43.54493" lon="-1.17141">
        <ele>2</ele>
        <time>2024-04-05T23:08:42Z</time>
      </trkpt>
      <trkpt lat="43.54484" lon="-1.17088">
        <ele>3</ele>
        <time>2024-04-05T23:08:49Z</time>
      </trkpt>
      <trkpt lat="43.54471" lon="-1.17031">
        <ele>6</ele>
        <time>2024-04-05T23:08:57Z</time>
      </trkpt>
      <trkpt lat="43.54455" lon="-1.16979">
        <ele>7</ele>
        <time>2024-04-05T23:09:04Z</time>
      </trkpt>
      <trkpt lat="43.5442" lon="-1.16887">
        <ele>5</ele>
        <time>2024-04-05T23:09:17Z</time>
      </trkpt>
      <trkpt lat="43.54399" lon="-1.16851">
        <ele>4</ele>
        <time>2024-04-05T23:09:23Z</time>
      </trkpt>
      <trkpt lat="43.54375" lon="-1.16791">
        <ele>2</ele>
        <time>2024-04-05T23:09:32Z</time>
      </trkpt>
      <trkpt lat="43.54316" lon="-1.16689">
        <ele>3</ele>
        <time>2024-04-05T23:09:49Z</time>
      </trkpt>
      <trkpt lat="43.54275" lon="-1.16631">
        <ele>5</ele>
        <time>2024-04-05T23:10:00Z</time>
      </trkpt>
      <trkpt lat="43.5413" lon="-1.16406">
        <ele>5</ele>
        <time>2024-04-05T23:10:38Z</time>
      </trkpt>
      <trkpt lat="43.54063" lon="-1.16293">
        <ele>4</ele>
        <time>2024-04-05T23:10:57Z</time>
      </trkpt>
      <trkpt lat="43.53993" lon="-1.16194">
        <ele>3</ele>
        <time>2024-04-05T23:11:15Z</time>
      </trkpt>
      <trkpt lat="43.53957" lon="-1.16158">
        <ele>2</ele>
        <time>2024-04-05T23:11:23Z</time>
      </trkpt>
      <trkpt lat="43.53911" lon="-1.1612">
        <ele>2</ele>
        <time>2024-04-05T23:11:32Z</time>
      </trkpt>
      <trkpt lat="43.5389" lon="-1.16094">
        <ele>3</ele>
        <time>2024-04-05T23:11:37Z</time>
      </trkpt>
      <trkpt lat="43.53868" lon="-1.16067">
        <ele>3</ele>
        <time>2024-04-05T23:11:43Z</time>
      </trkpt>
      <trkpt lat="43.53823" lon="-1.15995">
        <ele>5</ele>
        <time>2024-04-05T23:11:55Z</time>
      </trkpt>
      <trkpt lat="43.53799" lon="-1.15967">
        <ele>6</ele>
        <time>2024-04-05T23:12:01Z</time>
      </trkpt>
      <trkpt lat="43.53785" lon="-1.15946">
        <ele>7</ele>
        <time>2024-04-05T23:12:04Z</time>
      </trkpt>
      <trkpt lat="43.53762" lon="-1.15894">
        <ele>8</ele>
        <time>2024-04-05T23:12:12Z</time>
      </trkpt>
      <trkpt lat="43.53755" lon="-1.15885">
        <ele>7</ele>
        <time>2024-04-05T23:12:14Z</time>
      </trkpt>
      <trkpt lat="43.53743" lon="-1.15883">
        <ele>8</ele>
        <time>2024-04-05T23:12:16Z</time>
      </trkpt>
      <trkpt lat="43.5373" lon="-1.15892">
        <ele>9</ele>
        <time>2024-04-05T23:12:19Z</time>
      </trkpt>
      <trkpt lat="43.5371" lon="-1.15828">
        <ele>11</ele>
        <time>2024-04-05T23:12:28Z</time>
      </trkpt>
      <trkpt lat="43.53648" lon="-1.15614">
        <ele>18</ele>
        <time>2024-04-05T23:12:57Z</time>
      </trkpt>
      <trkpt lat="43.5363" lon="-1.15533">
        <ele>20</ele>
        <time>2024-04-05T23:13:08Z</time>
      </trkpt>
      <trkpt lat="43.53591" lon="-1.15345">
        <ele>24</ele>
        <time>2024-04-05T23:13:33Z</time>
      </trkpt>
      <trkpt lat="43.5358" lon="-1.15211">
        <ele>24</ele>
        <time>2024-04-05T23:13:51Z</time>
      </trkpt>
      <trkpt lat="43.53577" lon="-1.15047">
        <ele>20</ele>
        <time>2024-04-05T23:14:12Z</time>
      </trkpt>
      <trkpt lat="43.53589" lon="-1.14922">
        <ele>18</ele>
        <time>2024-04-05T23:14:28Z</time>
      </trkpt>
      <trkpt lat="43.53606" lon="-1.14824">
        <ele>10</ele>
        <time>2024-04-05T23:14:41Z</time>
      </trkpt>
      <trkpt lat="43.53606" lon="-1.14801">
        <ele>9</ele>
        <time>2024-04-05T23:14:44Z</time>
      </trkpt>
      <trkpt lat="43.53599" lon="-1.14738">
        <ele>8</ele>
        <time>2024-04-05T23:14:52Z</time>
      </trkpt>
      <trkpt lat="43.53598" lon="-1.14717">
        <ele>7</ele>
        <time>2024-04-05T23:14:55Z</time>
      </trkpt>
      <trkpt lat="43.53599" lon="-1.14714">
        <ele>7</ele>
        <time>2024-04-05T23:14:56Z</time>
      </trkpt>
      <trkpt lat="43.53605" lon="-1.14698">
        <ele>6</ele>
        <time>2024-04-05T23:14:58Z</time>
      </trkpt>
      <trkpt lat="43.53626" lon="-1.14657">
        <ele>5</ele>
        <time>2024-04-05T23:15:04Z</time>
      </trkpt>
      <trkpt lat="43.53666" lon="-1.14544">
        <ele>3</ele>
        <time>2024-04-05T23:15:21Z</time>
      </trkpt>
      <trkpt lat="43.53682" lon="-1.14505">
        <ele>2</ele>
        <time>2024-04-05T23:15:26Z</time>
      </trkpt>
      <trkpt lat="43.53703" lon="-1.14462">
        <ele>2</ele>
        <time>2024-04-05T23:15:33Z</time>
      </trkpt>
      <trkpt lat="43.5373" lon="-1.14422">
        <ele>1</ele>
        <time>2024-04-05T23:15:40Z</time>
      </trkpt>
      <trkpt lat="43.53777" lon="-1.14379">
        <ele>3</ele>
        <time>2024-04-05T23:15:50Z</time>
      </trkpt>
      <trkpt lat="43.53814" lon="-1.1433">
        <ele>5</ele>
        <time>2024-04-05T23:15:59Z</time>
      </trkpt>
      <trkpt lat="43.53848" lon="-1.14298">
        <ele>5</ele>
        <time>2024-04-05T23:16:07Z</time>
      </trkpt>
      <trkpt lat="43.53882" lon="-1.14273">
        <ele>4</ele>
        <time>2024-04-05T23:16:13Z</time>
      </trkpt>
      <trkpt lat="43.53912" lon="-1.14255">
        <ele>4</ele>
        <time>2024-04-05T23:16:19Z</time>
      </trkpt>
      <trkpt lat="43.54089" lon="-1.14176">
        <ele>4</ele>
        <time>2024-04-05T23:16:52Z</time>
      </trkpt>
      <trkpt lat="43.54111" lon="-1.14157">
        <ele>3</ele>
        <time>2024-04-05T23:16:57Z</time>
      </trkpt>
      <trkpt lat="43.54129" lon="-1.14131">
        <ele>2</ele>
        <time>2024-04-05T23:17:02Z</time>
      </trkpt>
      <trkpt lat="43.54137" lon="-1.14113">
        <ele>1</ele>
        <time>2024-04-05T23:17:04Z</time>
      </trkpt>
      <trkpt lat="43.54149" lon="-1.14061">
        <ele>1</ele>
        <time>2024-04-05T23:17:11Z</time>
      </trkpt>
      <trkpt lat="43.54159" lon="-1.14007">
        <ele>4</ele>
        <time>2024-04-05T23:17:19Z</time>
      </trkpt>
      <trkpt lat="43.54164" lon="-1.13962">
        <ele>4</ele>
        <time>2024-04-05T23:17:24Z</time>
      </trkpt>
      <trkpt lat="43.54173" lon="-1.13812">
        <ele>4</ele>
        <time>2024-04-05T23:17:44Z</time>
      </trkpt>
      <trkpt lat="43.54174" lon="-1.13737">
        <ele>4</ele>
        <time>2024-04-05T23:17:54Z</time>
      </trkpt>
      <trkpt lat="43.54172" lon="-1.13701">
        <ele>3</ele>
        <time>2024-04-05T23:17:58Z</time>
      </trkpt>
      <trkpt lat="43.54153" lon="-1.13612">
        <ele>3</ele>
        <time>2024-04-05T23:18:10Z</time>
      </trkpt>
      <trkpt lat="43.54147" lon="-1.13565">
        <ele>3</ele>
        <time>2024-04-05T23:18:16Z</time>
      </trkpt>
      <trkpt lat="43.54145" lon="-1.13501">
        <ele>3</ele>
        <time>2024-04-05T23:18:25Z</time>
      </trkpt>
      <trkpt lat="43.54151" lon="-1.13324">
        <ele>3</ele>
        <time>2024-04-05T23:18:47Z</time>
      </trkpt>
      <trkpt lat="43.54152" lon="-1.13259">
        <ele>3</ele>
        <time>2024-04-05T23:18:56Z</time>
      </trkpt>
      <trkpt lat="43.54151" lon="-1.13226">
        <ele>4</ele>
        <time>2024-04-05T23:19:00Z</time>
      </trkpt>
      <trkpt lat="43.54146" lon="-1.13189">
        <ele>5</ele>
        <time>2024-04-05T23:19:05Z</time>
      </trkpt>
      <trkpt lat="43.54146" lon="-1.1316">
        <ele>5</ele>
        <time>2024-04-05T23:19:09Z</time>
      </trkpt>
      <trkpt lat="43.54148" lon="-1.13083">
        <ele>3</ele>
        <time>2024-04-05T23:19:19Z</time>
      </trkpt>
      <trkpt lat="43.54148" lon="-1.13054">
        <ele>4</ele>
        <time>2024-04-05T23:19:22Z</time>
      </trkpt>
      <trkpt lat="43.54146" lon="-1.13032">
        <ele>4</ele>
        <time>2024-04-05T23:19:25Z</time>
      </trkpt>
      <trkpt lat="43.54106" lon="-1.12869">
        <ele>7</ele>
        <time>2024-04-05T23:19:47Z</time>
      </trkpt>
      <trkpt lat="43.54073" lon="-1.12786">
        <ele>7</ele>
        <time>2024-04-05T23:20:00Z</time>
      </trkpt>
      <trkpt lat="43.54065" lon="-1.12747">
        <ele>7</ele>
        <time>2024-04-05T23:20:05Z</time>
      </trkpt>
      <trkpt lat="43.5406" lon="-1.12689">
        <ele>6</ele>
        <time>2024-04-05T23:20:12Z</time>
      </trkpt>
      <trkpt lat="43.5405" lon="-1.12635">
        <ele>4</ele>
        <time>2024-04-05T23:20:20Z</time>
      </trkpt>
      <trkpt lat="43.54041" lon="-1.12602">
        <ele>3</ele>
        <time>2024-04-05T23:20:24Z</time>
      </trkpt>
      <trkpt lat="43.53996" lon="-1.1246">
        <ele>4</ele>
        <time>2024-04-05T23:20:44Z</time>
      </trkpt>
      <trkpt lat="43.53979" lon="-1.124">
        <ele>5</ele>
        <time>2024-04-05T23:20:52Z</time>
      </trkpt>
      <trkpt lat="43.53957" lon="-1.12307">
        <ele>4</ele>
        <time>2024-04-05T23:21:05Z</time>
      </trkpt>
      <trkpt lat="43.53948" lon="-1.12242">
        <ele>5</ele>
        <time>2024-04-05T23:21:14Z</time>
      </trkpt>
      <trkpt lat="43.53946" lon="-1.12208">
        <ele>5</ele>
        <time>2024-04-05T23:21:18Z</time>
      </trkpt>
      <trkpt lat="43.53947" lon="-1.12158">
        <ele>5</ele>
        <time>2024-04-05T23:21:24Z</time>
      </trkpt>
      <trkpt lat="43.5395" lon="-1.12125">
        <ele>5</ele>
        <time>2024-04-05T23:21:29Z</time>
      </trkpt>
      <trkpt lat="43.53957" lon="-1.12086">
        <ele>5</ele>
        <time>2024-04-05T23:21:34Z</time>
      </trkpt>
      <trkpt lat="43.53972" lon="-1.1203">
        <ele>5</ele>
        <time>2024-04-05T23:21:42Z</time>
      </trkpt>
      <trkpt lat="43.53983" lon="-1.11998">
        <ele>6</ele>
        <time>2024-04-05T23:21:46Z</time>
      </trkpt>
      <trkpt lat="43.5402" lon="-1.11915">
        <ele>5</ele>
        <time>2024-04-05T23:21:59Z</time>
      </trkpt>
      <trkpt lat="43.54025" lon="-1.11899">
        <ele>5</ele>
        <time>2024-04-05T23:22:01Z</time>
      </trkpt>
      <trkpt lat="43.54028" lon="-1.11877">
        <ele>5</ele>
        <time>2024-04-05T23:22:04Z</time>
      </trkpt>
      <trkpt lat="43.54033" lon="-1.11814">
        <ele>4</ele>
        <time>2024-04-05T23:22:12Z</time>
      </trkpt>
      <trkpt lat="43.54036" lon="-1.11805">
        <ele>4</ele>
        <time>2024-04-05T23:22:13Z</time>
      </trkpt>
      <trkpt lat="43.54089" lon="-1.11697">
        <ele>4</ele>
        <time>2024-04-05T23:22:30Z</time>
      </trkpt>
      <trkpt lat="43.54106" lon="-1.11661">
        <ele>4</ele>
        <time>2024-04-05T23:22:36Z</time>
      </trkpt>
      <trkpt lat="43.54123" lon="-1.11625">
        <ele>4</ele>
        <time>2024-04-05T23:22:41Z</time>
      </trkpt>
      <trkpt lat="43.54136" lon="-1.11589">
        <ele>3</ele>
        <time>2024-04-05T23:22:46Z</time>
      </trkpt>
      <trkpt lat="43.54176" lon="-1.11465">
        <ele>5</ele>
        <time>2024-04-05T23:23:04Z</time>
      </trkpt>
      <trkpt lat="43.54181" lon="-1.11445">
        <ele>5</ele>
        <time>2024-04-05T23:23:07Z</time>
      </trkpt>
      <trkpt lat="43.54189" lon="-1.11408">
        <ele>5</ele>
        <time>2024-04-05T23:23:12Z</time>
      </trkpt>
      <trkpt lat="43.54193" lon="-1.11374">
        <ele>4</ele>
        <time>2024-04-05T23:23:16Z</time>
      </trkpt>
      <trkpt lat="43.54193" lon="-1.11342">
        <ele>3</ele>
        <time>2024-04-05T23:23:20Z</time>
      </trkpt>
      <trkpt lat="43.5419" lon="-1.11244">
        <ele>4</ele>
        <time>2024-04-05T23:23:33Z</time>
      </trkpt>
      <trkpt lat="43.54193" lon="-1.11198">
        <ele>5</ele>
        <time>2024-04-05T23:23:39Z</time>
      </trkpt>
      <trkpt lat="43.54225" lon="-1.10964">
        <ele>6</ele>
        <time>2024-04-05T23:24:09Z</time>
      </trkpt>
      <trkpt lat="43.54259" lon="-1.10728">
        <ele>6</ele>
        <time>2024-04-05T23:24:41Z</time>
      </trkpt>
      <trkpt lat="43.54268" lon="-1.10676">
        <ele>6</ele>
        <time>2024-04-05T23:24:47Z</time>
      </trkpt>
      <trkpt lat="43.54268" lon="-1.10668">
        <ele>6</ele>
        <time>2024-04-05T23:24:48Z</time>
      </trkpt>
      <trkpt lat="43.54266" lon="-1.10661">
        <ele>6</ele>
        <time>2024-04-05T23:24:49Z</time>
      </trkpt>
      <trkpt lat="43.54262" lon="-1.10652">
        <ele>6</ele>
        <time>2024-04-05T23:24:51Z</time>
      </trkpt>
      <trkpt lat="43.54231" lon="-1.10596">
        <ele>7</ele>
        <time>2024-04-05T23:25:00Z</time>
      </trkpt>
      <trkpt lat="43.54285" lon="-1.10572">
        <ele>6</ele>
        <time>2024-04-05T23:25:10Z</time>
      </trkpt>
      <trkpt lat="43.54381" lon="-1.1053">
        <ele>7</ele>
        <time>2024-04-05T23:25:28Z</time>
      </trkpt>
      <trkpt lat="43.54385" lon="-1.10528">
        <ele>8</ele>
        <time>2024-04-05T23:25:29Z</time>
      </trkpt>
      <trkpt lat="43.54395" lon="-1.10511">
        <ele>8</ele>
        <time>2024-04-05T23:25:31Z</time>
      </trkpt>
      <trkpt lat="43.54395" lon="-1.10506">
        <ele>8</ele>
        <time>2024-04-05T23:25:32Z</time>
      </trkpt>
      <trkpt lat="43.54399" lon="-1.10495">
        <ele>8</ele>
        <time>2024-04-05T23:25:34Z</time>
      </trkpt>
      <trkpt lat="43.54403" lon="-1.10492">
        <ele>8</ele>
        <time>2024-04-05T23:25:35Z</time>
      </trkpt>
      <trkpt lat="43.5441" lon="-1.1049">
        <ele>9</ele>
        <time>2024-04-05T23:25:36Z</time>
      </trkpt>
      <trkpt lat="43.54417" lon="-1.10494">
        <ele>9</ele>
        <time>2024-04-05T23:25:37Z</time>
      </trkpt>
      <trkpt lat="43.54434" lon="-1.10479">
        <ele>11</ele>
        <time>2024-04-05T23:25:41Z</time>
      </trkpt>
      <trkpt lat="43.54446" lon="-1.10444">
        <ele>12</ele>
        <time>2024-04-05T23:25:46Z</time>
      </trkpt>
      <trkpt lat="43.54479" lon="-1.10309">
        <ele>13</ele>
        <time>2024-04-05T23:26:04Z</time>
      </trkpt>
      <trkpt lat="43.54487" lon="-1.10261">
        <ele>12</ele>
        <time>2024-04-05T23:26:10Z</time>
      </trkpt>
      <trkpt lat="43.54491" lon="-1.10213">
        <ele>12</ele>
        <time>2024-04-05T23:26:17Z</time>
      </trkpt>
      <trkpt lat="43.54485" lon="-1.10139">
        <ele>13</ele>
        <time>2024-04-05T23:26:26Z</time>
      </trkpt>
      <trkpt lat="43.54492" lon="-1.10054">
        <ele>14</ele>
        <time>2024-04-05T23:26:37Z</time>
      </trkpt>
      <trkpt lat="43.54491" lon="-1.09995">
        <ele>14</ele>
        <time>2024-04-05T23:26:45Z</time>
      </trkpt>
      <trkpt lat="43.545" lon="-1.09937">
        <ele>13</ele>
        <time>2024-04-05T23:26:53Z</time>
      </trkpt>
      <trkpt lat="43.54524" lon="-1.09866">
        <ele>16</ele>
        <time>2024-04-05T23:27:03Z</time>
      </trkpt>
      <trkpt lat="43.54529" lon="-1.09843">
        <ele>15</ele>
        <time>2024-04-05T23:27:06Z</time>
      </trkpt>
      <trkpt lat="43.54529" lon="-1.09832">
        <ele>14</ele>
        <time>2024-04-05T23:27:07Z</time>
      </trkpt>
      <trkpt lat="43.54522" lon="-1.0977">
        <ele>11</ele>
        <time>2024-04-05T23:27:15Z</time>
      </trkpt>
      <trkpt lat="43.54509" lon="-1.09747">
        <ele>10</ele>
        <time>2024-04-05T23:27:19Z</time>
      </trkpt>
      <trkpt lat="43.54494" lon="-1.09737">
        <ele>10</ele>
        <time>2024-04-05T23:27:22Z</time>
      </trkpt>
      <trkpt lat="43.54519" lon="-1.09722">
        <ele>10</ele>
        <time>2024-04-05T23:27:27Z</time>
      </trkpt>
      <trkpt lat="43.54538" lon="-1.09704">
        <ele>11</ele>
        <time>2024-04-05T23:27:31Z</time>
      </trkpt>
      <trkpt lat="43.5465" lon="-1.09633">
        <ele>13</ele>
        <time>2024-04-05T23:27:53Z</time>
      </trkpt>
      <trkpt lat="43.54538" lon="-1.09704">
        <ele>11</ele>
        <time>2024-04-05T23:28:15Z</time>
      </trkpt>
      <trkpt lat="43.54519" lon="-1.09722">
        <ele>10</ele>
        <time>2024-04-05T23:28:19Z</time>
      </trkpt>
      <trkpt lat="43.54484" lon="-1.09741">
        <ele>9</ele>
        <time>2024-04-05T23:28:26Z</time>
      </trkpt>
      <trkpt lat="43.54376" lon="-1.0981">
        <ele>5</ele>
        <time>2024-04-05T23:28:47Z</time>
      </trkpt>
      <trkpt lat="43.54304" lon="-1.09858">
        <ele>7</ele>
        <time>2024-04-05T23:29:01Z</time>
      </trkpt>
      <trkpt lat="43.54304" lon="-1.09836">
        <ele>6</ele>
        <time>2024-04-05T23:29:04Z</time>
      </trkpt>
      <trkpt lat="43.54301" lon="-1.09822">
        <ele>6</ele>
        <time>2024-04-05T23:29:06Z</time>
      </trkpt>
      <trkpt lat="43.54272" lon="-1.09689">
        <ele>5</ele>
        <time>2024-04-05T23:29:24Z</time>
      </trkpt>
      <trkpt lat="43.54256" lon="-1.09632">
        <ele>5</ele>
        <time>2024-04-05T23:29:32Z</time>
      </trkpt>
      <trkpt lat="43.54185" lon="-1.09461">
        <ele>7</ele>
        <time>2024-04-05T23:29:57Z</time>
      </trkpt>
      <trkpt lat="43.54179" lon="-1.0944">
        <ele>6</ele>
        <time>2024-04-05T23:30:00Z</time>
      </trkpt>
      <trkpt lat="43.54177" lon="-1.09425">
        <ele>6</ele>
        <time>2024-04-05T23:30:02Z</time>
      </trkpt>
      <trkpt lat="43.54175" lon="-1.09394">
        <ele>5</ele>
        <time>2024-04-05T23:30:06Z</time>
      </trkpt>
      <trkpt lat="43.54172" lon="-1.09204">
        <ele>4</ele>
        <time>2024-04-05T23:30:30Z</time>
      </trkpt>
      <trkpt lat="43.54168" lon="-1.0906">
        <ele>6</ele>
        <time>2024-04-05T23:30:49Z</time>
      </trkpt>
      <trkpt lat="43.54163" lon="-1.09029">
        <ele>7</ele>
        <time>2024-04-05T23:30:53Z</time>
      </trkpt>
      <trkpt lat="43.54149" lon="-1.08969">
        <ele>7</ele>
        <time>2024-04-05T23:31:01Z</time>
      </trkpt>
      <trkpt lat="43.54124" lon="-1.08896">
        <ele>7</ele>
        <time>2024-04-05T23:31:12Z</time>
      </trkpt>
      <trkpt lat="43.54075" lon="-1.08744">
        <ele>8</ele>
        <time>2024-04-05T23:31:33Z</time>
      </trkpt>
      <trkpt lat="43.53689" lon="-1.07571">
        <ele>14</ele>
        <time>2024-04-05T23:34:19Z</time>
      </trkpt>
      <trkpt lat="43.53654" lon="-1.07475">
        <ele>14</ele>
        <time>2024-04-05T23:34:33Z</time>
      </trkpt>
      <trkpt lat="43.53467" lon="-1.06996">
        <ele>9</ele>
        <time>2024-04-05T23:35:43Z</time>
      </trkpt>
      <trkpt lat="43.53406" lon="-1.06892">
        <ele>12</ele>
        <time>2024-04-05T23:36:00Z</time>
      </trkpt>
      <trkpt lat="43.53403" lon="-1.06885">
        <ele>13</ele>
        <time>2024-04-05T23:36:02Z</time>
      </trkpt>
      <trkpt lat="43.53315" lon="-1.06734">
        <ele>11</ele>
        <time>2024-04-05T23:36:27Z</time>
      </trkpt>
      <trkpt lat="43.53341" lon="-1.06721">
        <ele>13</ele>
        <time>2024-04-05T23:36:31Z</time>
      </trkpt>
      <trkpt lat="43.53439" lon="-1.06721">
        <ele>17</ele>
        <time>2024-04-05T23:36:49Z</time>
      </trkpt>
      <trkpt lat="43.53484" lon="-1.06712">
        <ele>17</ele>
        <time>2024-04-05T23:36:57Z</time>
      </trkpt>
      <trkpt lat="43.53663" lon="-1.06634">
        <ele>17</ele>
        <time>2024-04-05T23:37:30Z</time>
      </trkpt>
      <trkpt lat="43.53839" lon="-1.06506">
        <ele>15</ele>
        <time>2024-04-05T23:38:06Z</time>
      </trkpt>
      <trkpt lat="43.5386" lon="-1.06483">
        <ele>15</ele>
        <time>2024-04-05T23:38:11Z</time>
      </trkpt>
      <trkpt lat="43.53872" lon="-1.06448">
        <ele>14</ele>
        <time>2024-04-05T23:38:16Z</time>
      </trkpt>
      <trkpt lat="43.539" lon="-1.06069">
        <ele>14</ele>
        <time>2024-04-05T23:39:05Z</time>
      </trkpt>
      <trkpt lat="43.5391" lon="-1.05873">
        <ele>14</ele>
        <time>2024-04-05T23:39:30Z</time>
      </trkpt>
      <trkpt lat="43.53934" lon="-1.05559">
        <ele>13</ele>
        <time>2024-04-05T23:40:11Z</time>
      </trkpt>
      <trkpt lat="43.53943" lon="-1.0546">
        <ele>13</ele>
        <time>2024-04-05T23:40:24Z</time>
      </trkpt>
      <trkpt lat="43.53975" lon="-1.0523">
        <ele>14</ele>
        <time>2024-04-05T23:40:54Z</time>
      </trkpt>
      <trkpt lat="43.53981" lon="-1.05087">
        <ele>13</ele>
        <time>2024-04-05T23:41:12Z</time>
      </trkpt>
      <trkpt lat="43.53976" lon="-1.04981">
        <ele>13</ele>
        <time>2024-04-05T23:41:26Z</time>
      </trkpt>
      <trkpt lat="43.53968" lon="-1.04863">
        <ele>13</ele>
        <time>2024-04-05T23:41:41Z</time>
      </trkpt>
      <trkpt lat="43.53989" lon="-1.04798">
        <ele>12</ele>
        <time>2024-04-05T23:41:50Z</time>
      </trkpt>
      <trkpt lat="43.53988" lon="-1.04765">
        <ele>11</ele>
        <time>2024-04-05T23:41:55Z</time>
      </trkpt>
      <trkpt lat="43.53957" lon="-1.04626">
        <ele>13</ele>
        <time>2024-04-05T23:42:13Z</time>
      </trkpt>
      <trkpt lat="43.53955" lon="-1.04555">
        <ele>16</ele>
        <time>2024-04-05T23:42:23Z</time>
      </trkpt>
      <trkpt lat="43.53957" lon="-1.04526">
        <ele>16</ele>
        <time>2024-04-05T23:42:26Z</time>
      </trkpt>
      <trkpt lat="43.53965" lon="-1.04497">
        <ele>16</ele>
        <time>2024-04-05T23:42:30Z</time>
      </trkpt>
      <trkpt lat="43.53994" lon="-1.04447">
        <ele>9</ele>
        <time>2024-04-05T23:42:39Z</time>
      </trkpt>
      <trkpt lat="43.54002" lon="-1.04414">
        <ele>8</ele>
        <time>2024-04-05T23:42:43Z</time>
      </trkpt>
      <trkpt lat="43.53998" lon="-1.04365">
        <ele>7</ele>
        <time>2024-04-05T23:42:50Z</time>
      </trkpt>
      <trkpt lat="43.53986" lon="-1.04291">
        <ele>10</ele>
        <time>2024-04-05T23:42:59Z</time>
      </trkpt>
      <trkpt lat="43.53987" lon="-1.04231">
        <ele>11</ele>
        <time>2024-04-05T23:43:07Z</time>
      </trkpt>
      <trkpt lat="43.54008" lon="-1.04098">
        <ele>12</ele>
        <time>2024-04-05T23:43:25Z</time>
      </trkpt>
      <trkpt lat="43.54007" lon="-1.04061">
        <ele>12</ele>
        <time>2024-04-05T23:43:29Z</time>
      </trkpt>
      <trkpt lat="43.53998" lon="-1.04023">
        <ele>12</ele>
        <time>2024-04-05T23:43:35Z</time>
      </trkpt>
      <trkpt lat="43.53985" lon="-1.03981">
        <ele>11</ele>
        <time>2024-04-05T23:43:40Z</time>
      </trkpt>
      <trkpt lat="43.53966" lon="-1.03938">
        <ele>9</ele>
        <time>2024-04-05T23:43:47Z</time>
      </trkpt>
      <trkpt lat="43.53948" lon="-1.03835">
        <ele>12</ele>
        <time>2024-04-05T23:44:01Z</time>
      </trkpt>
      <trkpt lat="43.53934" lon="-1.03797">
        <ele>12</ele>
        <time>2024-04-05T23:44:06Z</time>
      </trkpt>
      <trkpt lat="43.53803" lon="-1.03654">
        <ele>10</ele>
        <time>2024-04-05T23:44:36Z</time>
      </trkpt>
      <trkpt lat="43.53754" lon="-1.0359">
        <ele>11</ele>
        <time>2024-04-05T23:44:48Z</time>
      </trkpt>
      <trkpt lat="43.53709" lon="-1.03528">
        <ele>9</ele>
        <time>2024-04-05T23:44:59Z</time>
      </trkpt>
      <trkpt lat="43.53695" lon="-1.03506">
        <ele>9</ele>
        <time>2024-04-05T23:45:03Z</time>
      </trkpt>
      <trkpt lat="43.53682" lon="-1.0349">
        <ele>9</ele>
        <time>2024-04-05T23:45:06Z</time>
      </trkpt>
      <trkpt lat="43.53665" lon="-1.03477">
        <ele>9</ele>
        <time>2024-04-05T23:45:09Z</time>
      </trkpt>
      <trkpt lat="43.53573" lon="-1.03434">
        <ele>8</ele>
        <time>2024-04-05T23:45:27Z</time>
      </trkpt>
      <trkpt lat="43.53546" lon="-1.03417">
        <ele>8</ele>
        <time>2024-04-05T23:45:32Z</time>
      </trkpt>
      <trkpt lat="43.53507" lon="-1.03386">
        <ele>9</ele>
        <time>2024-04-05T23:45:40Z</time>
      </trkpt>
      <trkpt lat="43.53479" lon="-1.03355">
        <ele>10</ele>
        <time>2024-04-05T23:45:46Z</time>
      </trkpt>
      <trkpt lat="43.53467" lon="-1.03335">
        <ele>11</ele>
        <time>2024-04-05T23:45:50Z</time>
      </trkpt>
      <trkpt lat="43.53442" lon="-1.03286">
        <ele>11</ele>
        <time>2024-04-05T23:45:57Z</time>
      </trkpt>
      <trkpt lat="43.53406" lon="-1.03208">
        <ele>10</ele>
        <time>2024-04-05T23:46:09Z</time>
      </trkpt>
      <trkpt lat="43.5336" lon="-1.03129">
        <ele>12</ele>
        <time>2024-04-05T23:46:22Z</time>
      </trkpt>
      <trkpt lat="43.53345" lon="-1.03091">
        <ele>13</ele>
        <time>2024-04-05T23:46:28Z</time>
      </trkpt>
      <trkpt lat="43.53295" lon="-1.02927">
        <ele>15</ele>
        <time>2024-04-05T23:46:51Z</time>
      </trkpt>
      <trkpt lat="43.53288" lon="-1.02885">
        <ele>15</ele>
        <time>2024-04-05T23:46:57Z</time>
      </trkpt>
      <trkpt lat="43.53283" lon="-1.02836">
        <ele>14</ele>
        <time>2024-04-05T23:47:03Z</time>
      </trkpt>
      <trkpt lat="43.53267" lon="-1.02802">
        <ele>14</ele>
        <time>2024-04-05T23:47:08Z</time>
      </trkpt>
      <trkpt lat="43.53248" lon="-1.02772">
        <ele>13</ele>
        <time>2024-04-05T23:47:13Z</time>
      </trkpt>
      <trkpt lat="43.53233" lon="-1.02741">
        <ele>13</ele>
        <time>2024-04-05T23:47:18Z</time>
      </trkpt>
      <trkpt lat="43.53148" lon="-1.02546">
        <ele>12</ele>
        <time>2024-04-05T23:47:47Z</time>
      </trkpt>
      <trkpt lat="43.53136" lon="-1.02511">
        <ele>12</ele>
        <time>2024-04-05T23:47:52Z</time>
      </trkpt>
      <trkpt lat="43.53135" lon="-1.02491">
        <ele>12</ele>
        <time>2024-04-05T23:47:55Z</time>
      </trkpt>
      <trkpt lat="43.53141" lon="-1.02475">
        <ele>12</ele>
        <time>2024-04-05T23:47:57Z</time>
      </trkpt>
      <trkpt lat="43.53188" lon="-1.02416">
        <ele>11</ele>
        <time>2024-04-05T23:48:09Z</time>
      </trkpt>
      <trkpt lat="43.53196" lon="-1.02377">
        <ele>12</ele>
        <time>2024-04-05T23:48:14Z</time>
      </trkpt>
      <trkpt lat="43.53169" lon="-1.02171">
        <ele>19</ele>
        <time>2024-04-05T23:48:41Z</time>
      </trkpt>
      <trkpt lat="43.53158" lon="-1.02098">
        <ele>19</ele>
        <time>2024-04-05T23:48:51Z</time>
      </trkpt>
      <trkpt lat="43.5315" lon="-1.02069">
        <ele>19</ele>
        <time>2024-04-05T23:48:55Z</time>
      </trkpt>
      <trkpt lat="43.53133" lon="-1.02024">
        <ele>17</ele>
        <time>2024-04-05T23:49:01Z</time>
      </trkpt>
      <trkpt lat="43.53126" lon="-1.01996">
        <ele>17</ele>
        <time>2024-04-05T23:49:05Z</time>
      </trkpt>
      <trkpt lat="43.53092" lon="-1.01803">
        <ele>21</ele>
        <time>2024-04-05T23:49:31Z</time>
      </trkpt>
      <trkpt lat="43.53034" lon="-1.01488">
        <ele>21</ele>
        <time>2024-04-05T23:50:12Z</time>
      </trkpt>
      <trkpt lat="43.53031" lon="-1.01456">
        <ele>20</ele>
        <time>2024-04-05T23:50:17Z</time>
      </trkpt>
      <trkpt lat="43.53028" lon="-1.01339">
        <ele>21</ele>
        <time>2024-04-05T23:50:32Z</time>
      </trkpt>
      <trkpt lat="43.53022" lon="-1.01292">
        <ele>22</ele>
        <time>2024-04-05T23:50:38Z</time>
      </trkpt>
      <trkpt lat="43.53022" lon="-1.01282">
        <ele>22</ele>
        <time>2024-04-05T23:50:39Z</time>
      </trkpt>
      <trkpt lat="43.53044" lon="-1.0108">
        <ele>23</ele>
        <time>2024-04-05T23:51:06Z</time>
      </trkpt>
      <trkpt lat="43.53057" lon="-1.00874">
        <ele>21</ele>
        <time>2024-04-05T23:51:32Z</time>
      </trkpt>
      <trkpt lat="43.53063" lon="-1.00762">
        <ele>22</ele>
        <time>2024-04-05T23:51:47Z</time>
      </trkpt>
      <trkpt lat="43.53062" lon="-1.00643">
        <ele>21</ele>
        <time>2024-04-05T23:52:02Z</time>
      </trkpt>
      <trkpt lat="43.53063" lon="-1.00566">
        <ele>21</ele>
        <time>2024-04-05T23:52:12Z</time>
      </trkpt>
      <trkpt lat="43.53066" lon="-1.00537">
        <ele>21</ele>
        <time>2024-04-05T23:52:16Z</time>
      </trkpt>
      <trkpt lat="43.53076" lon="-1.00489">
        <ele>21</ele>
        <time>2024-04-05T23:52:22Z</time>
      </trkpt>
      <trkpt lat="43.53084" lon="-1.00467">
        <ele>21</ele>
        <time>2024-04-05T23:52:25Z</time>
      </trkpt>
      <trkpt lat="43.53136" lon="-1.00344">
        <ele>21</ele>
        <time>2024-04-05T23:52:44Z</time>
      </trkpt>
      <trkpt lat="43.53141" lon="-1.00336">
        <ele>21</ele>
        <time>2024-04-05T23:52:45Z</time>
      </trkpt>
      <trkpt lat="43.53148" lon="-1.00332">
        <ele>21</ele>
        <time>2024-04-05T23:52:46Z</time>
      </trkpt>
      <trkpt lat="43.53147" lon="-1.00311">
        <ele>21</ele>
        <time>2024-04-05T23:52:49Z</time>
      </trkpt>
      <trkpt lat="43.53181" lon="-1.00013">
        <ele>23</ele>
        <time>2024-04-05T23:53:28Z</time>
      </trkpt>
      <trkpt lat="43.53182" lon="-0.99987">
        <ele>23</ele>
        <time>2024-04-05T23:53:31Z</time>
      </trkpt>
      <trkpt lat="43.53181" lon="-0.9996">
        <ele>23</ele>
        <time>2024-04-05T23:53:35Z</time>
      </trkpt>
      <trkpt lat="43.53154" lon="-0.99733">
        <ele>23</ele>
        <time>2024-04-05T23:54:05Z</time>
      </trkpt>
      <trkpt lat="43.53153" lon="-0.99697">
        <ele>23</ele>
        <time>2024-04-05T23:54:09Z</time>
      </trkpt>
      <trkpt lat="43.53154" lon="-0.99664">
        <ele>23</ele>
        <time>2024-04-05T23:54:14Z</time>
      </trkpt>
      <trkpt lat="43.53171" lon="-0.99563">
        <ele>24</ele>
        <time>2024-04-05T23:54:27Z</time>
      </trkpt>
      <trkpt lat="43.53174" lon="-0.99533">
        <ele>25</ele>
        <time>2024-04-05T23:54:31Z</time>
      </trkpt>
      <trkpt lat="43.53175" lon="-0.99492">
        <ele>25</ele>
        <time>2024-04-05T23:54:36Z</time>
      </trkpt>
      <trkpt lat="43.53158" lon="-0.99078">
        <ele>23</ele>
        <time>2024-04-05T23:55:30Z</time>
      </trkpt>
      <trkpt lat="43.53167" lon="-0.98965">
        <ele>27</ele>
        <time>2024-04-05T23:55:44Z</time>
      </trkpt>
      <trkpt lat="43.53168" lon="-0.98952">
        <ele>26</ele>
        <time>2024-04-05T23:55:46Z</time>
      </trkpt>
      <trkpt lat="43.53171" lon="-0.98906">
        <ele>26</ele>
        <time>2024-04-05T23:55:52Z</time>
      </trkpt>
      <trkpt lat="43.53172" lon="-0.98809">
        <ele>26</ele>
        <time>2024-04-05T23:56:04Z</time>
      </trkpt>
      <trkpt lat="43.53164" lon="-0.98708">
        <ele>26</ele>
        <time>2024-04-05T23:56:17Z</time>
      </trkpt>
      <trkpt lat="43.53161" lon="-0.98668">
        <ele>27</ele>
        <time>2024-04-05T23:56:23Z</time>
      </trkpt>
      <trkpt lat="43.53152" lon="-0.98384">
        <ele>27</ele>
        <time>2024-04-05T23:56:59Z</time>
      </trkpt>
      <trkpt lat="43.53145" lon="-0.98221">
        <ele>28</ele>
        <time>2024-04-05T23:57:20Z</time>
      </trkpt>
      <trkpt lat="43.53119" lon="-0.98024">
        <ele>29</ele>
        <time>2024-04-05T23:57:46Z</time>
      </trkpt>
      <trkpt lat="43.53055" lon="-0.97708">
        <ele>29</ele>
        <time>2024-04-05T23:58:29Z</time>
      </trkpt>
      <trkpt lat="43.53045" lon="-0.9764">
        <ele>29</ele>
        <time>2024-04-05T23:58:38Z</time>
      </trkpt>
      <trkpt lat="43.53024" lon="-0.97435">
        <ele>29</ele>
        <time>2024-04-05T23:59:04Z</time>
      </trkpt>
      <trkpt lat="43.53022" lon="-0.97428">
        <ele>29</ele>
        <time>2024-04-05T23:59:05Z</time>
      </trkpt>
      <trkpt lat="43.53016" lon="-0.9742">
        <ele>30</ele>
        <time>2024-04-05T23:59:07Z</time>
      </trkpt>
      <trkpt lat="43.5302" lon="-0.97406">
        <ele>30</ele>
        <time>2024-04-05T23:59:09Z</time>
      </trkpt>
      <trkpt lat="43.53024" lon="-0.97296">
        <ele>31</ele>
        <time>2024-04-05T23:59:23Z</time>
      </trkpt>
      <trkpt lat="43.53019" lon="-0.97203">
        <ele>30</ele>
        <time>2024-04-05T23:59:35Z</time>
      </trkpt>
      <trkpt lat="43.53019" lon="-0.97196">
        <ele>30</ele>
        <time>2024-04-05T23:59:36Z</time>
      </trkpt>
      <trkpt lat="43.5302" lon="-0.97146">
        <ele>31</ele>
        <time>2024-04-05T23:59:42Z</time>
      </trkpt>
      <trkpt lat="43.53032" lon="-0.97054">
        <ele>32</ele>
        <time>2024-04-05T23:59:54Z</time>
      </trkpt>
      <trkpt lat="43.53034" lon="-0.9702">
        <ele>32</ele>
        <time>2024-04-05T23:59:59Z</time>
      </trkpt>
      <trkpt lat="43.53034" lon="-0.96948">
        <ele>31</ele>
        <time>2024-04-06T00:00:08Z</time>
      </trkpt>
      <trkpt lat="43.53032" lon="-0.96934">
        <ele>31</ele>
        <time>2024-04-06T00:00:10Z</time>
      </trkpt>
      <trkpt lat="43.53001" lon="-0.96795">
        <ele>31</ele>
        <time>2024-04-06T00:00:29Z</time>
      </trkpt>
      <trkpt lat="43.52997" lon="-0.96743">
        <ele>31</ele>
        <time>2024-04-06T00:00:35Z</time>
      </trkpt>
      <trkpt lat="43.52996" lon="-0.96601">
        <ele>33</ele>
        <time>2024-04-06T00:00:54Z</time>
      </trkpt>
      <trkpt lat="43.53007" lon="-0.96472">
        <ele>33</ele>
        <time>2024-04-06T00:01:10Z</time>
      </trkpt>
      <trkpt lat="43.5304" lon="-0.96321">
        <ele>32</ele>
        <time>2024-04-06T00:01:31Z</time>
      </trkpt>
      <trkpt lat="43.53041" lon="-0.96304">
        <ele>32</ele>
        <time>2024-04-06T00:01:33Z</time>
      </trkpt>
      <trkpt lat="43.53038" lon="-0.96254">
        <ele>32</ele>
        <time>2024-04-06T00:01:39Z</time>
      </trkpt>
      <trkpt lat="43.53032" lon="-0.96204">
        <ele>31</ele>
        <time>2024-04-06T00:01:46Z</time>
      </trkpt>
      <trkpt lat="43.5301" lon="-0.96066">
        <ele>31</ele>
        <time>2024-04-06T00:02:04Z</time>
      </trkpt>
      <trkpt lat="43.52949" lon="-0.95754">
        <ele>32</ele>
        <time>2024-04-06T00:02:46Z</time>
      </trkpt>
      <trkpt lat="43.52937" lon="-0.95702">
        <ele>32</ele>
        <time>2024-04-06T00:02:53Z</time>
      </trkpt>
      <trkpt lat="43.52919" lon="-0.95626">
        <ele>31</ele>
        <time>2024-04-06T00:03:03Z</time>
      </trkpt>
      <trkpt lat="43.52868" lon="-0.9545">
        <ele>30</ele>
        <time>2024-04-06T00:03:28Z</time>
      </trkpt>
      <trkpt lat="43.5284" lon="-0.95326">
        <ele>30</ele>
        <time>2024-04-06T00:03:44Z</time>
      </trkpt>
      <trkpt lat="43.52814" lon="-0.95207">
        <ele>30</ele>
        <time>2024-04-06T00:04:00Z</time>
      </trkpt>
      <trkpt lat="43.52793" lon="-0.95133">
        <ele>30</ele>
        <time>2024-04-06T00:04:11Z</time>
      </trkpt>
      <trkpt lat="43.52764" lon="-0.95039">
        <ele>30</ele>
        <time>2024-04-06T00:04:24Z</time>
      </trkpt>
      <trkpt lat="43.5275" lon="-0.94969">
        <ele>30</ele>
        <time>2024-04-06T00:04:33Z</time>
      </trkpt>
      <trkpt lat="43.52729" lon="-0.94801">
        <ele>32</ele>
        <time>2024-04-06T00:04:55Z</time>
      </trkpt>
      <trkpt lat="43.5268" lon="-0.94525">
        <ele>32</ele>
        <time>2024-04-06T00:05:32Z</time>
      </trkpt>
      <trkpt lat="43.52633" lon="-0.9421">
        <ele>32</ele>
        <time>2024-04-06T00:06:13Z</time>
      </trkpt>
      <trkpt lat="43.52625" lon="-0.94139">
        <ele>32</ele>
        <time>2024-04-06T00:06:23Z</time>
      </trkpt>
      <trkpt lat="43.52618" lon="-0.94013">
        <ele>33</ele>
        <time>2024-04-06T00:06:39Z</time>
      </trkpt>
      <trkpt lat="43.52612" lon="-0.93963">
        <ele>33</ele>
        <time>2024-04-06T00:06:45Z</time>
      </trkpt>
      <trkpt lat="43.526" lon="-0.93919">
        <ele>33</ele>
        <time>2024-04-06T00:06:52Z</time>
      </trkpt>
      <trkpt lat="43.52543" lon="-0.9377">
        <ele>33</ele>
        <time>2024-04-06T00:07:13Z</time>
      </trkpt>
      <trkpt lat="43.52533" lon="-0.93736">
        <ele>34</ele>
        <time>2024-04-06T00:07:18Z</time>
      </trkpt>
      <trkpt lat="43.52516" lon="-0.93668">
        <ele>34</ele>
        <time>2024-04-06T00:07:27Z</time>
      </trkpt>
      <trkpt lat="43.52508" lon="-0.93627">
        <ele>34</ele>
        <time>2024-04-06T00:07:33Z</time>
      </trkpt>
      <trkpt lat="43.52474" lon="-0.93418">
        <ele>34</ele>
        <time>2024-04-06T00:08:00Z</time>
      </trkpt>
      <trkpt lat="43.52464" lon="-0.93389">
        <ele>33</ele>
        <time>2024-04-06T00:08:05Z</time>
      </trkpt>
      <trkpt lat="43.52447" lon="-0.93349">
        <ele>33</ele>
        <time>2024-04-06T00:08:11Z</time>
      </trkpt>
      <trkpt lat="43.52401" lon="-0.93253">
        <ele>33</ele>
        <time>2024-04-06T00:08:25Z</time>
      </trkpt>
      <trkpt lat="43.52369" lon="-0.93203">
        <ele>34</ele>
        <time>2024-04-06T00:08:34Z</time>
      </trkpt>
      <trkpt lat="43.5225" lon="-0.93049">
        <ele>34</ele>
        <time>2024-04-06T00:09:03Z</time>
      </trkpt>
      <trkpt lat="43.52184" lon="-0.92954">
        <ele>34</ele>
        <time>2024-04-06T00:09:20Z</time>
      </trkpt>
      <trkpt lat="43.52143" lon="-0.92876">
        <ele>35</ele>
        <time>2024-04-06T00:09:32Z</time>
      </trkpt>
      <trkpt lat="43.52141" lon="-0.92868">
        <ele>35</ele>
        <time>2024-04-06T00:09:34Z</time>
      </trkpt>
      <trkpt lat="43.5208" lon="-0.92742">
        <ele>35</ele>
        <time>2024-04-06T00:09:53Z</time>
      </trkpt>
      <trkpt lat="43.52076" lon="-0.92737">
        <ele>35</ele>
        <time>2024-04-06T00:09:54Z</time>
      </trkpt>
      <trkpt lat="43.5203" lon="-0.92634">
        <ele>35</ele>
        <time>2024-04-06T00:10:10Z</time>
      </trkpt>
      <trkpt lat="43.52022" lon="-0.9262">
        <ele>35</ele>
        <time>2024-04-06T00:10:12Z</time>
      </trkpt>
      <trkpt lat="43.51992" lon="-0.92589">
        <ele>36</ele>
        <time>2024-04-06T00:10:19Z</time>
      </trkpt>
      <trkpt lat="43.51966" lon="-0.92552">
        <ele>37</ele>
        <time>2024-04-06T00:10:25Z</time>
      </trkpt>
      <trkpt lat="43.51915" lon="-0.92468">
        <ele>38</ele>
        <time>2024-04-06T00:10:39Z</time>
      </trkpt>
      <trkpt lat="43.51885" lon="-0.92402">
        <ele>37</ele>
        <time>2024-04-06T00:10:49Z</time>
      </trkpt>
      <trkpt lat="43.51867" lon="-0.92367">
        <ele>37</ele>
        <time>2024-04-06T00:10:55Z</time>
      </trkpt>
      <trkpt lat="43.51835" lon="-0.92292">
        <ele>38</ele>
        <time>2024-04-06T00:11:06Z</time>
      </trkpt>
      <trkpt lat="43.5181" lon="-0.92223">
        <ele>37</ele>
        <time>2024-04-06T00:11:16Z</time>
      </trkpt>
      <trkpt lat="43.51786" lon="-0.92169">
        <ele>36</ele>
        <time>2024-04-06T00:11:24Z</time>
      </trkpt>
      <trkpt lat="43.51781" lon="-0.92148">
        <ele>36</ele>
        <time>2024-04-06T00:11:27Z</time>
      </trkpt>
      <trkpt lat="43.51761" lon="-0.91972">
        <ele>36</ele>
        <time>2024-04-06T00:11:50Z</time>
      </trkpt>
      <trkpt lat="43.5173" lon="-0.91829">
        <ele>32</ele>
        <time>2024-04-06T00:12:09Z</time>
      </trkpt>
      <trkpt lat="43.51729" lon="-0.91816">
        <ele>32</ele>
        <time>2024-04-06T00:12:11Z</time>
      </trkpt>
      <trkpt lat="43.51732" lon="-0.91806">
        <ele>32</ele>
        <time>2024-04-06T00:12:13Z</time>
      </trkpt>
      <trkpt lat="43.51854" lon="-0.91658">
        <ele>33</ele>
        <time>2024-04-06T00:12:41Z</time>
      </trkpt>
      <trkpt lat="43.51955" lon="-0.91533">
        <ele>29</ele>
        <time>2024-04-06T00:13:06Z</time>
      </trkpt>
      <trkpt lat="43.51962" lon="-0.91527">
        <ele>28</ele>
        <time>2024-04-06T00:13:07Z</time>
      </trkpt>
      <trkpt lat="43.51975" lon="-0.91527">
        <ele>28</ele>
        <time>2024-04-06T00:13:09Z</time>
      </trkpt>
      <trkpt lat="43.51978" lon="-0.91521">
        <ele>28</ele>
        <time>2024-04-06T00:13:10Z</time>
      </trkpt>
      <trkpt lat="43.51982" lon="-0.91517">
        <ele>28</ele>
        <time>2024-04-06T00:13:11Z</time>
      </trkpt>
      <trkpt lat="43.5199" lon="-0.91515">
        <ele>28</ele>
        <time>2024-04-06T00:13:13Z</time>
      </trkpt>
      <trkpt lat="43.51998" lon="-0.91492">
        <ele>28</ele>
        <time>2024-04-06T00:13:16Z</time>
      </trkpt>
      <trkpt lat="43.52024" lon="-0.91453">
        <ele>27</ele>
        <time>2024-04-06T00:13:23Z</time>
      </trkpt>
      <trkpt lat="43.52055" lon="-0.91412">
        <ele>25</ele>
        <time>2024-04-06T00:13:30Z</time>
      </trkpt>
      <trkpt lat="43.52111" lon="-0.91344">
        <ele>27</ele>
        <time>2024-04-06T00:13:44Z</time>
      </trkpt>
      <trkpt lat="43.52123" lon="-0.91332">
        <ele>29</ele>
        <time>2024-04-06T00:13:46Z</time>
      </trkpt>
      <trkpt lat="43.52143" lon="-0.91328">
        <ele>31</ele>
        <time>2024-04-06T00:13:50Z</time>
      </trkpt>
      <trkpt lat="43.52154" lon="-0.91329">
        <ele>32</ele>
        <time>2024-04-06T00:13:52Z</time>
      </trkpt>
      <trkpt lat="43.52178" lon="-0.91342">
        <ele>33</ele>
        <time>2024-04-06T00:13:56Z</time>
      </trkpt>
      <trkpt lat="43.52203" lon="-0.91374">
        <ele>32</ele>
        <time>2024-04-06T00:14:03Z</time>
      </trkpt>
      <trkpt lat="43.52235" lon="-0.91434">
        <ele>32</ele>
        <time>2024-04-06T00:14:12Z</time>
      </trkpt>
      <trkpt lat="43.52255" lon="-0.91463">
        <ele>31</ele>
        <time>2024-04-06T00:14:17Z</time>
      </trkpt>
      <trkpt lat="43.52273" lon="-0.91476">
        <ele>32</ele>
        <time>2024-04-06T00:14:21Z</time>
      </trkpt>
      <trkpt lat="43.52294" lon="-0.91481">
        <ele>33</ele>
        <time>2024-04-06T00:14:25Z</time>
      </trkpt>
      <trkpt lat="43.52301" lon="-0.9148">
        <ele>33</ele>
        <time>2024-04-06T00:14:26Z</time>
      </trkpt>
      <trkpt lat="43.52311" lon="-0.91474">
        <ele>34</ele>
        <time>2024-04-06T00:14:28Z</time>
      </trkpt>
      <trkpt lat="43.52393" lon="-0.91405">
        <ele>39</ele>
        <time>2024-04-06T00:14:45Z</time>
      </trkpt>
      <trkpt lat="43.52436" lon="-0.91389">
        <ele>40</ele>
        <time>2024-04-06T00:14:53Z</time>
      </trkpt>
      <trkpt lat="43.5245" lon="-0.9138">
        <ele>40</ele>
        <time>2024-04-06T00:14:56Z</time>
      </trkpt>
      <trkpt lat="43.52459" lon="-0.91367">
        <ele>40</ele>
        <time>2024-04-06T00:14:58Z</time>
      </trkpt>
      <trkpt lat="43.52477" lon="-0.91322">
        <ele>40</ele>
        <time>2024-04-06T00:15:05Z</time>
      </trkpt>
      <trkpt lat="43.52485" lon="-0.91293">
        <ele>40</ele>
        <time>2024-04-06T00:15:09Z</time>
      </trkpt>
      <trkpt lat="43.5249" lon="-0.91268">
        <ele>40</ele>
        <time>2024-04-06T00:15:12Z</time>
      </trkpt>
      <trkpt lat="43.52494" lon="-0.91221">
        <ele>40</ele>
        <time>2024-04-06T00:15:18Z</time>
      </trkpt>
      <trkpt lat="43.52499" lon="-0.91181">
        <ele>42</ele>
        <time>2024-04-06T00:15:23Z</time>
      </trkpt>
      <trkpt lat="43.52506" lon="-0.91172">
        <ele>42</ele>
        <time>2024-04-06T00:15:25Z</time>
      </trkpt>
      <trkpt lat="43.52505" lon="-0.91165">
        <ele>42</ele>
        <time>2024-04-06T00:15:26Z</time>
      </trkpt>
      <trkpt lat="43.52506" lon="-0.91159">
        <ele>42</ele>
        <time>2024-04-06T00:15:27Z</time>
      </trkpt>
      <trkpt lat="43.52509" lon="-0.91154">
        <ele>42</ele>
        <time>2024-04-06T00:15:28Z</time>
      </trkpt>
      <trkpt lat="43.52513" lon="-0.91151">
        <ele>42</ele>
        <time>2024-04-06T00:15:28Z</time>
      </trkpt>
      <trkpt lat="43.52514" lon="-0.91141">
        <ele>42</ele>
        <time>2024-04-06T00:15:30Z</time>
      </trkpt>
      <trkpt lat="43.52507" lon="-0.9108">
        <ele>43</ele>
        <time>2024-04-06T00:15:38Z</time>
      </trkpt>
      <trkpt lat="43.52469" lon="-0.90855">
        <ele>42</ele>
        <time>2024-04-06T00:16:07Z</time>
      </trkpt>
      <trkpt lat="43.52133" lon="-0.88898">
        <ele>44</ele>
        <time>2024-04-06T00:20:27Z</time>
      </trkpt>
      <trkpt lat="43.52097" lon="-0.88695">
        <ele>45</ele>
        <time>2024-04-06T00:20:54Z</time>
      </trkpt>
      <trkpt lat="43.52087" lon="-0.88652">
        <ele>46</ele>
        <time>2024-04-06T00:21:00Z</time>
      </trkpt>
      <trkpt lat="43.52078" lon="-0.88624">
        <ele>45</ele>
        <time>2024-04-06T00:21:04Z</time>
      </trkpt>
      <trkpt lat="43.52065" lon="-0.88597">
        <ele>45</ele>
        <time>2024-04-06T00:21:08Z</time>
      </trkpt>
      <trkpt lat="43.52069" lon="-0.88589">
        <ele>45</ele>
        <time>2024-04-06T00:21:09Z</time>
      </trkpt>
      <trkpt lat="43.52071" lon="-0.88575">
        <ele>45</ele>
        <time>2024-04-06T00:21:11Z</time>
      </trkpt>
      <trkpt lat="43.52069" lon="-0.8853">
        <ele>46</ele>
        <time>2024-04-06T00:21:17Z</time>
      </trkpt>
      <trkpt lat="43.51476" lon="-0.85103">
        <ele>76</ele>
        <time>2024-04-06T00:28:51Z</time>
      </trkpt>
      <trkpt lat="43.51333" lon="-0.84287">
        <ele>57</ele>
        <time>2024-04-06T00:30:40Z</time>
      </trkpt>
      <trkpt lat="43.5133" lon="-0.84287">
        <ele>57</ele>
        <time>2024-04-06T00:30:40Z</time>
      </trkpt>
      <trkpt lat="43.51326" lon="-0.84284">
        <ele>57</ele>
        <time>2024-04-06T00:30:41Z</time>
      </trkpt>
      <trkpt lat="43.51324" lon="-0.8428">
        <ele>57</ele>
        <time>2024-04-06T00:30:42Z</time>
      </trkpt>
      <trkpt lat="43.51324" lon="-0.84274">
        <ele>57</ele>
        <time>2024-04-06T00:30:42Z</time>
      </trkpt>
      <trkpt lat="43.51327" lon="-0.8427">
        <ele>57</ele>
        <time>2024-04-06T00:30:43Z</time>
      </trkpt>
      <trkpt lat="43.5133" lon="-0.84267">
        <ele>57</ele>
        <time>2024-04-06T00:30:44Z</time>
      </trkpt>
      <trkpt lat="43.51265" lon="-0.83897">
        <ele>55</ele>
        <time>2024-04-06T00:31:33Z</time>
      </trkpt>
      <trkpt lat="43.51215" lon="-0.83595">
        <ele>64</ele>
        <time>2024-04-06T00:32:13Z</time>
      </trkpt>
      <trkpt lat="43.51185" lon="-0.83432">
        <ele>68</ele>
        <time>2024-04-06T00:32:35Z</time>
      </trkpt>
      <trkpt lat="43.51129" lon="-0.83108">
        <ele>83</ele>
        <time>2024-04-06T00:33:18Z</time>
      </trkpt>
      <trkpt lat="43.51116" lon="-0.83048">
        <ele>87</ele>
        <time>2024-04-06T00:33:26Z</time>
      </trkpt>
      <trkpt lat="43.5111" lon="-0.83028">
        <ele>89</ele>
        <time>2024-04-06T00:33:28Z</time>
      </trkpt>
      <trkpt lat="43.50676" lon="-0.81864">
        <ele>71</ele>
        <time>2024-04-06T00:36:17Z</time>
      </trkpt>
      <trkpt lat="43.50276" lon="-0.80788">
        <ele>78</ele>
        <time>2024-04-06T00:38:53Z</time>
      </trkpt>
      <trkpt lat="43.50241" lon="-0.80696">
        <ele>71</ele>
        <time>2024-04-06T00:39:07Z</time>
      </trkpt>
      <trkpt lat="43.49879" lon="-0.79722">
        <ele>92</ele>
        <time>2024-04-06T00:41:28Z</time>
      </trkpt>
      <trkpt lat="43.49787" lon="-0.79477">
        <ele>79</ele>
        <time>2024-04-06T00:42:04Z</time>
      </trkpt>
      <trkpt lat="43.49607" lon="-0.78987">
        <ele>76</ele>
        <time>2024-04-06T00:43:15Z</time>
      </trkpt>
      <trkpt lat="43.49155" lon="-0.77776">
        <ele>70</ele>
        <time>2024-04-06T00:46:10Z</time>
      </trkpt>
      <trkpt lat="43.4915" lon="-0.77761">
        <ele>70</ele>
        <time>2024-04-06T00:46:12Z</time>
      </trkpt>
      <trkpt lat="43.4914" lon="-0.77698">
        <ele>69</ele>
        <time>2024-04-06T00:46:21Z</time>
      </trkpt>
      <trkpt lat="43.49115" lon="-0.77591">
        <ele>69</ele>
        <time>2024-04-06T00:46:35Z</time>
      </trkpt>
      <trkpt lat="43.49092" lon="-0.77563">
        <ele>69</ele>
        <time>2024-04-06T00:46:41Z</time>
      </trkpt>
      <trkpt lat="43.49028" lon="-0.77498">
        <ele>69</ele>
        <time>2024-04-06T00:46:55Z</time>
      </trkpt>
      <trkpt lat="43.49014" lon="-0.77487">
        <ele>70</ele>
        <time>2024-04-06T00:46:58Z</time>
      </trkpt>
      <trkpt lat="43.48979" lon="-0.77554">
        <ele>69</ele>
        <time>2024-04-06T00:47:08Z</time>
      </trkpt>
      <trkpt lat="43.48979" lon="-0.77564">
        <ele>68</ele>
        <time>2024-04-06T00:47:10Z</time>
      </trkpt>
      <trkpt lat="43.48899" lon="-0.7756">
        <ele>70</ele>
        <time>2024-04-06T00:47:24Z</time>
      </trkpt>
      <trkpt lat="43.489" lon="-0.7755">
        <ele>70</ele>
        <time>2024-04-06T00:47:25Z</time>
      </trkpt>
      <trkpt lat="43.48872" lon="-0.77498">
        <ele>73</ele>
        <time>2024-04-06T00:47:34Z</time>
      </trkpt>
      <trkpt lat="43.48806" lon="-0.77395">
        <ele>75</ele>
        <time>2024-04-06T00:47:51Z</time>
      </trkpt>
      <trkpt lat="43.48792" lon="-0.7738">
        <ele>74</ele>
        <time>2024-04-06T00:47:54Z</time>
      </trkpt>
      <trkpt lat="43.4875" lon="-0.77316">
        <ele>73</ele>
        <time>2024-04-06T00:48:06Z</time>
      </trkpt>
      <trkpt lat="43.48726" lon="-0.77329">
        <ele>73</ele>
        <time>2024-04-06T00:48:10Z</time>
      </trkpt>
      <trkpt lat="43.4872" lon="-0.77329">
        <ele>73</ele>
        <time>2024-04-06T00:48:11Z</time>
      </trkpt>
      <trkpt lat="43.48713" lon="-0.77301">
        <ele>72</ele>
        <time>2024-04-06T00:48:15Z</time>
      </trkpt>
      <trkpt lat="43.48707" lon="-0.77268">
        <ele>72</ele>
        <time>2024-04-06T00:48:20Z</time>
      </trkpt>
      <trkpt lat="43.48686" lon="-0.77184">
        <ele>73</ele>
        <time>2024-04-06T00:48:31Z</time>
      </trkpt>
      <trkpt lat="43.48679" lon="-0.77163">
        <ele>73</ele>
        <time>2024-04-06T00:48:34Z</time>
      </trkpt>
      <trkpt lat="43.48645" lon="-0.7705">
        <ele>74</ele>
        <time>2024-04-06T00:48:50Z</time>
      </trkpt>
      <trkpt lat="43.48705" lon="-0.77004">
        <ele>75</ele>
        <time>2024-04-06T00:49:02Z</time>
      </trkpt>
      <trkpt lat="43.48708" lon="-0.76998">
        <ele>75</ele>
        <time>2024-04-06T00:49:03Z</time>
      </trkpt>
      <trkpt lat="43.48709" lon="-0.76993">
        <ele>75</ele>
        <time>2024-04-06T00:49:04Z</time>
      </trkpt>
      <trkpt lat="43.48709" lon="-0.76983">
        <ele>75</ele>
        <time>2024-04-06T00:49:05Z</time>
      </trkpt>
      <trkpt lat="43.48639" lon="-0.76861">
        <ele>73</ele>
        <time>2024-04-06T00:49:25Z</time>
      </trkpt>
      <trkpt lat="43.48599" lon="-0.76731">
        <ele>73</ele>
        <time>2024-04-06T00:49:43Z</time>
      </trkpt>
      <trkpt lat="43.48582" lon="-0.76666">
        <ele>72</ele>
        <time>2024-04-06T00:49:52Z</time>
      </trkpt>
      <trkpt lat="43.48427" lon="-0.76136">
        <ele>66</ele>
        <time>2024-04-06T00:51:06Z</time>
      </trkpt>
      <trkpt lat="43.48421" lon="-0.76093">
        <ele>66</ele>
        <time>2024-04-06T00:51:12Z</time>
      </trkpt>
      <trkpt lat="43.48416" lon="-0.76077">
        <ele>66</ele>
        <time>2024-04-06T00:51:14Z</time>
      </trkpt>
      <trkpt lat="43.48409" lon="-0.76073">
        <ele>66</ele>
        <time>2024-04-06T00:51:15Z</time>
      </trkpt>
      <trkpt lat="43.48407" lon="-0.7607">
        <ele>65</ele>
        <time>2024-04-06T00:51:16Z</time>
      </trkpt>
      <trkpt lat="43.48405" lon="-0.76062">
        <ele>65</ele>
        <time>2024-04-06T00:51:17Z</time>
      </trkpt>
      <trkpt lat="43.48405" lon="-0.76053">
        <ele>65</ele>
        <time>2024-04-06T00:51:18Z</time>
      </trkpt>
      <trkpt lat="43.48393" lon="-0.76021">
        <ele>64</ele>
        <time>2024-04-06T00:51:23Z</time>
      </trkpt>
      <trkpt lat="43.48388" lon="-0.76002">
        <ele>64</ele>
        <time>2024-04-06T00:51:25Z</time>
      </trkpt>
      <trkpt lat="43.48125" lon="-0.751">
        <ele>87</ele>
        <time>2024-04-06T00:53:31Z</time>
      </trkpt>
      <trkpt lat="43.48111" lon="-0.75045">
        <ele>85</ele>
        <time>2024-04-06T00:53:38Z</time>
      </trkpt>
      <trkpt lat="43.48085" lon="-0.74976">
        <ele>83</ele>
        <time>2024-04-06T00:53:48Z</time>
      </trkpt>
      <trkpt lat="43.48075" lon="-0.74968">
        <ele>83</ele>
        <time>2024-04-06T00:53:50Z</time>
      </trkpt>
      <trkpt lat="43.48072" lon="-0.74962">
        <ele>83</ele>
        <time>2024-04-06T00:53:51Z</time>
      </trkpt>
      <trkpt lat="43.48069" lon="-0.74948">
        <ele>83</ele>
        <time>2024-04-06T00:53:53Z</time>
      </trkpt>
      <trkpt lat="43.48073" lon="-0.74933">
        <ele>83</ele>
        <time>2024-04-06T00:53:55Z</time>
      </trkpt>
      <trkpt lat="43.48071" lon="-0.74917">
        <ele>83</ele>
        <time>2024-04-06T00:53:57Z</time>
      </trkpt>
      <trkpt lat="43.4806" lon="-0.74872">
        <ele>83</ele>
        <time>2024-04-06T00:54:03Z</time>
      </trkpt>
      <trkpt lat="43.47971" lon="-0.74577">
        <ele>78</ele>
        <time>2024-04-06T00:54:45Z</time>
      </trkpt>
      <trkpt lat="43.47757" lon="-0.73842">
        <ele>79</ele>
        <time>2024-04-06T00:56:27Z</time>
      </trkpt>
      <trkpt lat="43.47675" lon="-0.73567">
        <ele>84</ele>
        <time>2024-04-06T00:57:05Z</time>
      </trkpt>
      <trkpt lat="43.47571" lon="-0.73229">
        <ele>84</ele>
        <time>2024-04-06T00:57:53Z</time>
      </trkpt>
      <trkpt lat="43.47505" lon="-0.73086">
        <ele>82</ele>
        <time>2024-04-06T00:58:15Z</time>
      </trkpt>
      <trkpt lat="43.47445" lon="-0.72963">
        <ele>80</ele>
        <time>2024-04-06T00:58:34Z</time>
      </trkpt>
      <trkpt lat="43.47272" lon="-0.7262">
        <ele>73</ele>
        <time>2024-04-06T00:59:28Z</time>
      </trkpt>
      <trkpt lat="43.47239" lon="-0.72537">
        <ele>74</ele>
        <time>2024-04-06T00:59:40Z</time>
      </trkpt>
      <trkpt lat="43.47086" lon="-0.71992">
        <ele>84</ele>
        <time>2024-04-06T01:00:55Z</time>
      </trkpt>
      <trkpt lat="43.47033" lon="-0.71844">
        <ele>87</ele>
        <time>2024-04-06T01:01:17Z</time>
      </trkpt>
      <trkpt lat="43.46829" lon="-0.7134">
        <ele>93</ele>
        <time>2024-04-06T01:02:31Z</time>
      </trkpt>
      <trkpt lat="43.46653" lon="-0.70902">
        <ele>98</ele>
        <time>2024-04-06T01:03:36Z</time>
      </trkpt>
      <trkpt lat="43.46184" lon="-0.69739">
        <ele>102</ele>
        <time>2024-04-06T01:06:28Z</time>
      </trkpt>
      <trkpt lat="43.46177" lon="-0.69719">
        <ele>102</ele>
        <time>2024-04-06T01:06:30Z</time>
      </trkpt>
      <trkpt lat="43.46171" lon="-0.69691">
        <ele>102</ele>
        <time>2024-04-06T01:06:34Z</time>
      </trkpt>
      <trkpt lat="43.46164" lon="-0.69648">
        <ele>102</ele>
        <time>2024-04-06T01:06:40Z</time>
      </trkpt>
      <trkpt lat="43.46089" lon="-0.68981">
        <ele>101</ele>
        <time>2024-04-06T01:08:07Z</time>
      </trkpt>
      <trkpt lat="43.46084" lon="-0.68952">
        <ele>101</ele>
        <time>2024-04-06T01:08:11Z</time>
      </trkpt>
      <trkpt lat="43.4608" lon="-0.68941">
        <ele>101</ele>
        <time>2024-04-06T01:08:13Z</time>
      </trkpt>
      <trkpt lat="43.46073" lon="-0.68927">
        <ele>102</ele>
        <time>2024-04-06T01:08:15Z</time>
      </trkpt>
      <trkpt lat="43.4591" lon="-0.68661">
        <ele>106</ele>
        <time>2024-04-06T01:09:00Z</time>
      </trkpt>
      <trkpt lat="43.45645" lon="-0.68235">
        <ele>100</ele>
        <time>2024-04-06T01:10:12Z</time>
      </trkpt>
      <trkpt lat="43.45627" lon="-0.68214">
        <ele>98</ele>
        <time>2024-04-06T01:10:16Z</time>
      </trkpt>
      <trkpt lat="43.45614" lon="-0.68206">
        <ele>97</ele>
        <time>2024-04-06T01:10:19Z</time>
      </trkpt>
      <trkpt lat="43.45596" lon="-0.682">
        <ele>96</ele>
        <time>2024-04-06T01:10:22Z</time>
      </trkpt>
      <trkpt lat="43.45578" lon="-0.68197">
        <ele>94</ele>
        <time>2024-04-06T01:10:25Z</time>
      </trkpt>
      <trkpt lat="43.45542" lon="-0.68197">
        <ele>92</ele>
        <time>2024-04-06T01:10:32Z</time>
      </trkpt>
      <trkpt lat="43.45485" lon="-0.68208">
        <ele>89</ele>
        <time>2024-04-06T01:10:42Z</time>
      </trkpt>
      <trkpt lat="43.45463" lon="-0.68219">
        <ele>88</ele>
        <time>2024-04-06T01:10:46Z</time>
      </trkpt>
      <trkpt lat="43.45437" lon="-0.68235">
        <ele>87</ele>
        <time>2024-04-06T01:10:51Z</time>
      </trkpt>
      <trkpt lat="43.45412" lon="-0.68257">
        <ele>85</ele>
        <time>2024-04-06T01:10:57Z</time>
      </trkpt>
      <trkpt lat="43.45362" lon="-0.68312">
        <ele>84</ele>
        <time>2024-04-06T01:11:08Z</time>
      </trkpt>
      <trkpt lat="43.45352" lon="-0.68321">
        <ele>82</ele>
        <time>2024-04-06T01:11:10Z</time>
      </trkpt>
      <trkpt lat="43.45341" lon="-0.68327">
        <ele>81</ele>
        <time>2024-04-06T01:11:12Z</time>
      </trkpt>
      <trkpt lat="43.4532" lon="-0.68332">
        <ele>80</ele>
        <time>2024-04-06T01:11:16Z</time>
      </trkpt>
      <trkpt lat="43.45307" lon="-0.68331">
        <ele>80</ele>
        <time>2024-04-06T01:11:18Z</time>
      </trkpt>
      <trkpt lat="43.4528" lon="-0.68317">
        <ele>81</ele>
        <time>2024-04-06T01:11:23Z</time>
      </trkpt>
      <trkpt lat="43.45266" lon="-0.68302">
        <ele>81</ele>
        <time>2024-04-06T01:11:27Z</time>
      </trkpt>
      <trkpt lat="43.4506" lon="-0.6802">
        <ele>85</ele>
        <time>2024-04-06T01:12:18Z</time>
      </trkpt>
      <trkpt lat="43.44908" lon="-0.67829">
        <ele>84</ele>
        <time>2024-04-06T01:12:55Z</time>
      </trkpt>
      <trkpt lat="43.44707" lon="-0.67594">
        <ele>89</ele>
        <time>2024-04-06T01:13:42Z</time>
      </trkpt>
      <trkpt lat="43.44487" lon="-0.67343">
        <ele>85</ele>
        <time>2024-04-06T01:14:33Z</time>
      </trkpt>
      <trkpt lat="43.44441" lon="-0.67289">
        <ele>85</ele>
        <time>2024-04-06T01:14:43Z</time>
      </trkpt>
      <trkpt lat="43.43944" lon="-0.66715">
        <ele>90</ele>
        <time>2024-04-06T01:16:39Z</time>
      </trkpt>
      <trkpt lat="43.43536" lon="-0.66245">
        <ele>88</ele>
        <time>2024-04-06T01:18:13Z</time>
      </trkpt>
      <trkpt lat="43.43523" lon="-0.66229">
        <ele>88</ele>
        <time>2024-04-06T01:18:17Z</time>
      </trkpt>
      <trkpt lat="43.43224" lon="-0.65881">
        <ele>89</ele>
        <time>2024-04-06T01:19:26Z</time>
      </trkpt>
      <trkpt lat="43.4207" lon="-0.64553">
        <ele>92</ele>
        <time>2024-04-06T01:23:54Z</time>
      </trkpt>
      <trkpt lat="43.41989" lon="-0.64478">
        <ele>93</ele>
        <time>2024-04-06T01:24:11Z</time>
      </trkpt>
      <trkpt lat="43.41968" lon="-0.64469">
        <ele>93</ele>
        <time>2024-04-06T01:24:15Z</time>
      </trkpt>
      <trkpt lat="43.41961" lon="-0.64471">
        <ele>93</ele>
        <time>2024-04-06T01:24:16Z</time>
      </trkpt>
      <trkpt lat="43.41954" lon="-0.64469">
        <ele>93</ele>
        <time>2024-04-06T01:24:18Z</time>
      </trkpt>
      <trkpt lat="43.41947" lon="-0.64465">
        <ele>93</ele>
        <time>2024-04-06T01:24:19Z</time>
      </trkpt>
      <trkpt lat="43.41942" lon="-0.64457">
        <ele>94</ele>
        <time>2024-04-06T01:24:20Z</time>
      </trkpt>
      <trkpt lat="43.41939" lon="-0.64447">
        <ele>94</ele>
        <time>2024-04-06T01:24:22Z</time>
      </trkpt>
      <trkpt lat="43.41938" lon="-0.64436">
        <ele>94</ele>
        <time>2024-04-06T01:24:23Z</time>
      </trkpt>
      <trkpt lat="43.41927" lon="-0.6441">
        <ele>94</ele>
        <time>2024-04-06T01:24:27Z</time>
      </trkpt>
      <trkpt lat="43.41898" lon="-0.64359">
        <ele>95</ele>
        <time>2024-04-06T01:24:35Z</time>
      </trkpt>
      <trkpt lat="43.41889" lon="-0.64327">
        <ele>96</ele>
        <time>2024-04-06T01:24:40Z</time>
      </trkpt>
      <trkpt lat="43.41881" lon="-0.64307">
        <ele>95</ele>
        <time>2024-04-06T01:24:43Z</time>
      </trkpt>
      <trkpt lat="43.41826" lon="-0.64071">
        <ele>93</ele>
        <time>2024-04-06T01:25:15Z</time>
      </trkpt>
      <trkpt lat="43.41809" lon="-0.64016">
        <ele>93</ele>
        <time>2024-04-06T01:25:23Z</time>
      </trkpt>
      <trkpt lat="43.41542" lon="-0.62919">
        <ele>96</ele>
        <time>2024-04-06T01:27:52Z</time>
      </trkpt>
      <trkpt lat="43.41533" lon="-0.62892">
        <ele>96</ele>
        <time>2024-04-06T01:27:56Z</time>
      </trkpt>
      <trkpt lat="43.41498" lon="-0.62743">
        <ele>97</ele>
        <time>2024-04-06T01:28:16Z</time>
      </trkpt>
      <trkpt lat="43.41487" lon="-0.62726">
        <ele>98</ele>
        <time>2024-04-06T01:28:19Z</time>
      </trkpt>
      <trkpt lat="43.41476" lon="-0.62719">
        <ele>98</ele>
        <time>2024-04-06T01:28:21Z</time>
      </trkpt>
      <trkpt lat="43.4147" lon="-0.62705">
        <ele>98</ele>
        <time>2024-04-06T01:28:23Z</time>
      </trkpt>
      <trkpt lat="43.41471" lon="-0.62688">
        <ele>98</ele>
        <time>2024-04-06T01:28:26Z</time>
      </trkpt>
      <trkpt lat="43.41473" lon="-0.6268">
        <ele>98</ele>
        <time>2024-04-06T01:28:27Z</time>
      </trkpt>
      <trkpt lat="43.41478" lon="-0.62659">
        <ele>99</ele>
        <time>2024-04-06T01:28:29Z</time>
      </trkpt>
      <trkpt lat="43.41475" lon="-0.62644">
        <ele>99</ele>
        <time>2024-04-06T01:28:32Z</time>
      </trkpt>
      <trkpt lat="43.41477" lon="-0.62636">
        <ele>99</ele>
        <time>2024-04-06T01:28:33Z</time>
      </trkpt>
      <trkpt lat="43.41386" lon="-0.62278">
        <ele>115</ele>
        <time>2024-04-06T01:29:22Z</time>
      </trkpt>
      <trkpt lat="43.41166" lon="-0.61377">
        <ele>118</ele>
        <time>2024-04-06T01:31:24Z</time>
      </trkpt>
      <trkpt lat="43.41134" lon="-0.61252">
        <ele>117</ele>
        <time>2024-04-06T01:31:42Z</time>
      </trkpt>
      <trkpt lat="43.40891" lon="-0.60583">
        <ele>119</ele>
        <time>2024-04-06T01:33:18Z</time>
      </trkpt>
      <trkpt lat="43.40711" lon="-0.6009">
        <ele>112</ele>
        <time>2024-04-06T01:34:30Z</time>
      </trkpt>
      <trkpt lat="43.40578" lon="-0.59725">
        <ele>106</ele>
        <time>2024-04-06T01:35:22Z</time>
      </trkpt>
      <trkpt lat="43.40209" lon="-0.58721">
        <ele>105</ele>
        <time>2024-04-06T01:37:48Z</time>
      </trkpt>
      <trkpt lat="43.40055" lon="-0.583">
        <ele>109</ele>
        <time>2024-04-06T01:38:49Z</time>
      </trkpt>
      <trkpt lat="43.39976" lon="-0.58083">
        <ele>110</ele>
        <time>2024-04-06T01:39:20Z</time>
      </trkpt>
      <trkpt lat="43.39911" lon="-0.5791">
        <ele>113</ele>
        <time>2024-04-06T01:39:45Z</time>
      </trkpt>
      <trkpt lat="43.39903" lon="-0.57908">
        <ele>112</ele>
        <time>2024-04-06T01:39:47Z</time>
      </trkpt>
      <trkpt lat="43.39872" lon="-0.57856">
        <ele>111</ele>
        <time>2024-04-06T01:39:55Z</time>
      </trkpt>
      <trkpt lat="43.39865" lon="-0.57847">
        <ele>111</ele>
        <time>2024-04-06T01:39:57Z</time>
      </trkpt>
      <trkpt lat="43.39845" lon="-0.57832">
        <ele>111</ele>
        <time>2024-04-06T01:40:01Z</time>
      </trkpt>
      <trkpt lat="43.39839" lon="-0.57828">
        <ele>111</ele>
        <time>2024-04-06T01:40:02Z</time>
      </trkpt>
      <trkpt lat="43.3983" lon="-0.57814">
        <ele>111</ele>
        <time>2024-04-06T01:40:05Z</time>
      </trkpt>
      <trkpt lat="43.39829" lon="-0.57798">
        <ele>112</ele>
        <time>2024-04-06T01:40:07Z</time>
      </trkpt>
      <trkpt lat="43.39834" lon="-0.57785">
        <ele>112</ele>
        <time>2024-04-06T01:40:09Z</time>
      </trkpt>
      <trkpt lat="43.3984" lon="-0.57778">
        <ele>112</ele>
        <time>2024-04-06T01:40:10Z</time>
      </trkpt>
      <trkpt lat="43.39846" lon="-0.57757">
        <ele>113</ele>
        <time>2024-04-06T01:40:13Z</time>
      </trkpt>
      <trkpt lat="43.39853" lon="-0.57749">
        <ele>113</ele>
        <time>2024-04-06T01:40:15Z</time>
      </trkpt>
      <trkpt lat="43.39845" lon="-0.57733">
        <ele>113</ele>
        <time>2024-04-06T01:40:17Z</time>
      </trkpt>
      <trkpt lat="43.3974" lon="-0.57441">
        <ele>112</ele>
        <time>2024-04-06T01:40:59Z</time>
      </trkpt>
      <trkpt lat="43.39692" lon="-0.57314">
        <ele>112</ele>
        <time>2024-04-06T01:41:18Z</time>
      </trkpt>
      <trkpt lat="43.39594" lon="-0.57043">
        <ele>112</ele>
        <time>2024-04-06T01:41:57Z</time>
      </trkpt>
      <trkpt lat="43.39424" lon="-0.56582">
        <ele>114</ele>
        <time>2024-04-06T01:43:04Z</time>
      </trkpt>
      <trkpt lat="43.39402" lon="-0.56533">
        <ele>114</ele>
        <time>2024-04-06T01:43:11Z</time>
      </trkpt>
      <trkpt lat="43.3933" lon="-0.56399">
        <ele>114</ele>
        <time>2024-04-06T01:43:33Z</time>
      </trkpt>
      <trkpt lat="43.39319" lon="-0.56392">
        <ele>114</ele>
        <time>2024-04-06T01:43:35Z</time>
      </trkpt>
      <trkpt lat="43.39308" lon="-0.56391">
        <ele>114</ele>
        <time>2024-04-06T01:43:37Z</time>
      </trkpt>
      <trkpt lat="43.39301" lon="-0.56401">
        <ele>113</ele>
        <time>2024-04-06T01:43:39Z</time>
      </trkpt>
      <trkpt lat="43.39296" lon="-0.56404">
        <ele>113</ele>
        <time>2024-04-06T01:43:40Z</time>
      </trkpt>
      <trkpt lat="43.39284" lon="-0.56404">
        <ele>113</ele>
        <time>2024-04-06T01:43:42Z</time>
      </trkpt>
      <trkpt lat="43.39278" lon="-0.56399">
        <ele>113</ele>
        <time>2024-04-06T01:43:43Z</time>
      </trkpt>
      <trkpt lat="43.39273" lon="-0.56391">
        <ele>113</ele>
        <time>2024-04-06T01:43:44Z</time>
      </trkpt>
      <trkpt lat="43.39271" lon="-0.56381">
        <ele>113</ele>
        <time>2024-04-06T01:43:46Z</time>
      </trkpt>
      <trkpt lat="43.39271" lon="-0.56371">
        <ele>113</ele>
        <time>2024-04-06T01:43:47Z</time>
      </trkpt>
      <trkpt lat="43.39274" lon="-0.56361">
        <ele>114</ele>
        <time>2024-04-06T01:43:49Z</time>
      </trkpt>
      <trkpt lat="43.39274" lon="-0.5633">
        <ele>114</ele>
        <time>2024-04-06T01:43:53Z</time>
      </trkpt>
      <trkpt lat="43.39261" lon="-0.56291">
        <ele>114</ele>
        <time>2024-04-06T01:43:58Z</time>
      </trkpt>
      <trkpt lat="43.39236" lon="-0.56236">
        <ele>114</ele>
        <time>2024-04-06T01:44:06Z</time>
      </trkpt>
      <trkpt lat="43.39048" lon="-0.55886">
        <ele>116</ele>
        <time>2024-04-06T01:45:03Z</time>
      </trkpt>
      <trkpt lat="43.39035" lon="-0.55871">
        <ele>116</ele>
        <time>2024-04-06T01:45:06Z</time>
      </trkpt>
      <trkpt lat="43.39025" lon="-0.55864">
        <ele>115</ele>
        <time>2024-04-06T01:45:08Z</time>
      </trkpt>
      <trkpt lat="43.39016" lon="-0.55853">
        <ele>115</ele>
        <time>2024-04-06T01:45:10Z</time>
      </trkpt>
      <trkpt lat="43.3901" lon="-0.55839">
        <ele>115</ele>
        <time>2024-04-06T01:45:12Z</time>
      </trkpt>
      <trkpt lat="43.39009" lon="-0.55829">
        <ele>115</ele>
        <time>2024-04-06T01:45:13Z</time>
      </trkpt>
      <trkpt lat="43.39011" lon="-0.55819">
        <ele>115</ele>
        <time>2024-04-06T01:45:15Z</time>
      </trkpt>
      <trkpt lat="43.38984" lon="-0.55763">
        <ele>116</ele>
        <time>2024-04-06T01:45:23Z</time>
      </trkpt>
      <trkpt lat="43.38957" lon="-0.55716">
        <ele>117</ele>
        <time>2024-04-06T01:45:31Z</time>
      </trkpt>
      <trkpt lat="43.38835" lon="-0.55489">
        <ele>118</ele>
        <time>2024-04-06T01:46:08Z</time>
      </trkpt>
      <trkpt lat="43.38826" lon="-0.55472">
        <ele>118</ele>
        <time>2024-04-06T01:46:10Z</time>
      </trkpt>
      <trkpt lat="43.3872" lon="-0.55275">
        <ele>118</ele>
        <time>2024-04-06T01:46:42Z</time>
      </trkpt>
      <trkpt lat="43.38678" lon="-0.55199">
        <ele>118</ele>
        <time>2024-04-06T01:46:54Z</time>
      </trkpt>
      <trkpt lat="43.38672" lon="-0.55198">
        <ele>118</ele>
        <time>2024-04-06T01:46:55Z</time>
      </trkpt>
      <trkpt lat="43.38666" lon="-0.55194">
        <ele>118</ele>
        <time>2024-04-06T01:46:57Z</time>
      </trkpt>
      <trkpt lat="43.38661" lon="-0.55185">
        <ele>119</ele>
        <time>2024-04-06T01:46:58Z</time>
      </trkpt>
      <trkpt lat="43.3866" lon="-0.55174">
        <ele>119</ele>
        <time>2024-04-06T01:47:00Z</time>
      </trkpt>
      <trkpt lat="43.38661" lon="-0.55166">
        <ele>119</ele>
        <time>2024-04-06T01:47:01Z</time>
      </trkpt>
      <trkpt lat="43.38664" lon="-0.55159">
        <ele>119</ele>
        <time>2024-04-06T01:47:02Z</time>
      </trkpt>
      <trkpt lat="43.38661" lon="-0.55141">
        <ele>119</ele>
        <time>2024-04-06T01:47:04Z</time>
      </trkpt>
      <trkpt lat="43.38647" lon="-0.55089">
        <ele>119</ele>
        <time>2024-04-06T01:47:11Z</time>
      </trkpt>
      <trkpt lat="43.38618" lon="-0.54973">
        <ele>119</ele>
        <time>2024-04-06T01:47:27Z</time>
      </trkpt>
      <trkpt lat="43.38602" lon="-0.54924">
        <ele>120</ele>
        <time>2024-04-06T01:47:34Z</time>
      </trkpt>
      <trkpt lat="43.3858" lon="-0.54867">
        <ele>120</ele>
        <time>2024-04-06T01:47:42Z</time>
      </trkpt>
      <trkpt lat="43.38552" lon="-0.54811">
        <ele>120</ele>
        <time>2024-04-06T01:47:51Z</time>
      </trkpt>
      <trkpt lat="43.38519" lon="-0.54762">
        <ele>120</ele>
        <time>2024-04-06T01:48:00Z</time>
      </trkpt>
      <trkpt lat="43.38476" lon="-0.54711">
        <ele>120</ele>
        <time>2024-04-06T01:48:10Z</time>
      </trkpt>
      <trkpt lat="43.38427" lon="-0.54665">
        <ele>120</ele>
        <time>2024-04-06T01:48:20Z</time>
      </trkpt>
      <trkpt lat="43.38372" lon="-0.54612">
        <ele>119</ele>
        <time>2024-04-06T01:48:32Z</time>
      </trkpt>
      <trkpt lat="43.38343" lon="-0.54577">
        <ele>119</ele>
        <time>2024-04-06T01:48:39Z</time>
      </trkpt>
      <trkpt lat="43.38316" lon="-0.54537">
        <ele>120</ele>
        <time>2024-04-06T01:48:46Z</time>
      </trkpt>
      <trkpt lat="43.38285" lon="-0.54475">
        <ele>121</ele>
        <time>2024-04-06T01:48:56Z</time>
      </trkpt>
      <trkpt lat="43.38158" lon="-0.54244">
        <ele>121</ele>
        <time>2024-04-06T01:49:33Z</time>
      </trkpt>
      <trkpt lat="43.37867" lon="-0.537">
        <ele>123</ele>
        <time>2024-04-06T01:51:01Z</time>
      </trkpt>
      <trkpt lat="43.37852" lon="-0.5364">
        <ele>123</ele>
        <time>2024-04-06T01:51:09Z</time>
      </trkpt>
      <trkpt lat="43.37843" lon="-0.5364">
        <ele>123</ele>
        <time>2024-04-06T01:51:11Z</time>
      </trkpt>
      <trkpt lat="43.37838" lon="-0.53636">
        <ele>123</ele>
        <time>2024-04-06T01:51:12Z</time>
      </trkpt>
      <trkpt lat="43.37835" lon="-0.53632">
        <ele>123</ele>
        <time>2024-04-06T01:51:12Z</time>
      </trkpt>
      <trkpt lat="43.37832" lon="-0.53621">
        <ele>123</ele>
        <time>2024-04-06T01:51:14Z</time>
      </trkpt>
      <trkpt lat="43.37834" lon="-0.5361">
        <ele>123</ele>
        <time>2024-04-06T01:51:15Z</time>
      </trkpt>
      <trkpt lat="43.37836" lon="-0.53605">
        <ele>123</ele>
        <time>2024-04-06T01:51:16Z</time>
      </trkpt>
      <trkpt lat="43.37791" lon="-0.5356">
        <ele>124</ele>
        <time>2024-04-06T01:51:26Z</time>
      </trkpt>
      <trkpt lat="43.37782" lon="-0.53545">
        <ele>124</ele>
        <time>2024-04-06T01:51:29Z</time>
      </trkpt>
      <trkpt lat="43.37612" lon="-0.53239">
        <ele>123</ele>
        <time>2024-04-06T01:52:18Z</time>
      </trkpt>
      <trkpt lat="43.36984" lon="-0.5208">
        <ele>127</ele>
        <time>2024-04-06T01:55:25Z</time>
      </trkpt>
      <trkpt lat="43.36347" lon="-0.50906">
        <ele>133</ele>
        <time>2024-04-06T01:58:35Z</time>
      </trkpt>
      <trkpt lat="43.36309" lon="-0.50837">
        <ele>133</ele>
        <time>2024-04-06T01:58:46Z</time>
      </trkpt>
      <trkpt lat="43.34866" lon="-0.48182">
        <ele>140</ele>
        <time>2024-04-06T02:05:55Z</time>
      </trkpt>
      <trkpt lat="43.34736" lon="-0.47942">
        <ele>141</ele>
        <time>2024-04-06T02:06:34Z</time>
      </trkpt>
      <trkpt lat="43.34723" lon="-0.47922">
        <ele>142</ele>
        <time>2024-04-06T02:06:37Z</time>
      </trkpt>
      <trkpt lat="43.34696" lon="-0.47873">
        <ele>142</ele>
        <time>2024-04-06T02:06:45Z</time>
      </trkpt>
      <trkpt lat="43.34675" lon="-0.4784">
        <ele>142</ele>
        <time>2024-04-06T02:06:51Z</time>
      </trkpt>
      <trkpt lat="43.34667" lon="-0.47831">
        <ele>142</ele>
        <time>2024-04-06T02:06:52Z</time>
      </trkpt>
      <trkpt lat="43.34658" lon="-0.47832">
        <ele>142</ele>
        <time>2024-04-06T02:06:54Z</time>
      </trkpt>
      <trkpt lat="43.34654" lon="-0.4783">
        <ele>142</ele>
        <time>2024-04-06T02:06:55Z</time>
      </trkpt>
      <trkpt lat="43.34647" lon="-0.47823">
        <ele>142</ele>
        <time>2024-04-06T02:06:56Z</time>
      </trkpt>
      <trkpt lat="43.34644" lon="-0.4781">
        <ele>142</ele>
        <time>2024-04-06T02:06:58Z</time>
      </trkpt>
      <trkpt lat="43.34647" lon="-0.47796">
        <ele>142</ele>
        <time>2024-04-06T02:07:00Z</time>
      </trkpt>
      <trkpt lat="43.34644" lon="-0.47781">
        <ele>142</ele>
        <time>2024-04-06T02:07:02Z</time>
      </trkpt>
      <trkpt lat="43.3463" lon="-0.4775">
        <ele>143</ele>
        <time>2024-04-06T02:07:07Z</time>
      </trkpt>
      <trkpt lat="43.34595" lon="-0.47682">
        <ele>143</ele>
        <time>2024-04-06T02:07:18Z</time>
      </trkpt>
      <trkpt lat="43.34409" lon="-0.47341">
        <ele>144</ele>
        <time>2024-04-06T02:08:13Z</time>
      </trkpt>
      <trkpt lat="43.3424" lon="-0.47019">
        <ele>146</ele>
        <time>2024-04-06T02:09:04Z</time>
      </trkpt>
      <trkpt lat="43.34162" lon="-0.46878">
        <ele>146</ele>
        <time>2024-04-06T02:09:27Z</time>
      </trkpt>
      <trkpt lat="43.34093" lon="-0.46756">
        <ele>147</ele>
        <time>2024-04-06T02:09:47Z</time>
      </trkpt>
      <trkpt lat="43.33784" lon="-0.46192">
        <ele>146</ele>
        <time>2024-04-06T02:11:18Z</time>
      </trkpt>
      <trkpt lat="43.33755" lon="-0.46151">
        <ele>146</ele>
        <time>2024-04-06T02:11:26Z</time>
      </trkpt>
      <trkpt lat="43.33709" lon="-0.46117">
        <ele>146</ele>
        <time>2024-04-06T02:11:35Z</time>
      </trkpt>
      <trkpt lat="43.33685" lon="-0.46089">
        <ele>146</ele>
        <time>2024-04-06T02:11:41Z</time>
      </trkpt>
      <trkpt lat="43.33676" lon="-0.4609">
        <ele>145</ele>
        <time>2024-04-06T02:11:42Z</time>
      </trkpt>
      <trkpt lat="43.33667" lon="-0.46088">
        <ele>145</ele>
        <time>2024-04-06T02:11:44Z</time>
      </trkpt>
      <trkpt lat="43.33658" lon="-0.46081">
        <ele>145</ele>
        <time>2024-04-06T02:11:46Z</time>
      </trkpt>
      <trkpt lat="43.33652" lon="-0.46071">
        <ele>145</ele>
        <time>2024-04-06T02:11:47Z</time>
      </trkpt>
      <trkpt lat="43.33648" lon="-0.46059">
        <ele>145</ele>
        <time>2024-04-06T02:11:49Z</time>
      </trkpt>
      <trkpt lat="43.33646" lon="-0.46046">
        <ele>145</ele>
        <time>2024-04-06T02:11:51Z</time>
      </trkpt>
      <trkpt lat="43.33652" lon="-0.46024">
        <ele>145</ele>
        <time>2024-04-06T02:11:54Z</time>
      </trkpt>
      <trkpt lat="43.3365" lon="-0.46002">
        <ele>145</ele>
        <time>2024-04-06T02:11:57Z</time>
      </trkpt>
      <trkpt lat="43.3364" lon="-0.45972">
        <ele>145</ele>
        <time>2024-04-06T02:12:01Z</time>
      </trkpt>
      <trkpt lat="43.33631" lon="-0.45928">
        <ele>144</ele>
        <time>2024-04-06T02:12:07Z</time>
      </trkpt>
      <trkpt lat="43.33624" lon="-0.45904">
        <ele>144</ele>
        <time>2024-04-06T02:12:10Z</time>
      </trkpt>
      <trkpt lat="43.33617" lon="-0.45886">
        <ele>144</ele>
        <time>2024-04-06T02:12:13Z</time>
      </trkpt>
      <trkpt lat="43.33314" lon="-0.45325">
        <ele>154</ele>
        <time>2024-04-06T02:13:43Z</time>
      </trkpt>
      <trkpt lat="43.33181" lon="-0.45083">
        <ele>151</ele>
        <time>2024-04-06T02:14:23Z</time>
      </trkpt>
      <trkpt lat="43.3273" lon="-0.44253">
        <ele>155</ele>
        <time>2024-04-06T02:16:37Z</time>
      </trkpt>
      <trkpt lat="43.32662" lon="-0.44135">
        <ele>155</ele>
        <time>2024-04-06T02:16:56Z</time>
      </trkpt>
      <trkpt lat="43.32624" lon="-0.44076">
        <ele>155</ele>
        <time>2024-04-06T02:17:06Z</time>
      </trkpt>
      <trkpt lat="43.32619" lon="-0.44077">
        <ele>154</ele>
        <time>2024-04-06T02:17:07Z</time>
      </trkpt>
      <trkpt lat="43.32613" lon="-0.44075">
        <ele>154</ele>
        <time>2024-04-06T02:17:08Z</time>
      </trkpt>
      <trkpt lat="43.32606" lon="-0.44067">
        <ele>154</ele>
        <time>2024-04-06T02:17:10Z</time>
      </trkpt>
      <trkpt lat="43.32604" lon="-0.44061">
        <ele>154</ele>
        <time>2024-04-06T02:17:11Z</time>
      </trkpt>
      <trkpt lat="43.32604" lon="-0.44047">
        <ele>155</ele>
        <time>2024-04-06T02:17:13Z</time>
      </trkpt>
      <trkpt lat="43.32577" lon="-0.43975">
        <ele>155</ele>
        <time>2024-04-06T02:17:23Z</time>
      </trkpt>
      <trkpt lat="43.32502" lon="-0.43835">
        <ele>154</ele>
        <time>2024-04-06T02:17:46Z</time>
      </trkpt>
      <trkpt lat="43.32486" lon="-0.43805">
        <ele>154</ele>
        <time>2024-04-06T02:17:51Z</time>
      </trkpt>
      <trkpt lat="43.32438" lon="-0.43718">
        <ele>154</ele>
        <time>2024-04-06T02:18:05Z</time>
      </trkpt>
      <trkpt lat="43.32417" lon="-0.43684">
        <ele>155</ele>
        <time>2024-04-06T02:18:10Z</time>
      </trkpt>
      <trkpt lat="43.32383" lon="-0.43637">
        <ele>155</ele>
        <time>2024-04-06T02:18:19Z</time>
      </trkpt>
      <trkpt lat="43.3237" lon="-0.4362">
        <ele>155</ele>
        <time>2024-04-06T02:18:22Z</time>
      </trkpt>
      <trkpt lat="43.32321" lon="-0.43564">
        <ele>155</ele>
        <time>2024-04-06T02:18:34Z</time>
      </trkpt>
      <trkpt lat="43.3224" lon="-0.43506">
        <ele>158</ele>
        <time>2024-04-06T02:18:50Z</time>
      </trkpt>
      <trkpt lat="43.32071" lon="-0.43418">
        <ele>157</ele>
        <time>2024-04-06T02:19:22Z</time>
      </trkpt>
      <trkpt lat="43.32057" lon="-0.43414">
        <ele>157</ele>
        <time>2024-04-06T02:19:24Z</time>
      </trkpt>
      <trkpt lat="43.32044" lon="-0.43413">
        <ele>157</ele>
        <time>2024-04-06T02:19:27Z</time>
      </trkpt>
      <trkpt lat="43.32036" lon="-0.43419">
        <ele>157</ele>
        <time>2024-04-06T02:19:28Z</time>
      </trkpt>
      <trkpt lat="43.32025" lon="-0.4342">
        <ele>158</ele>
        <time>2024-04-06T02:19:30Z</time>
      </trkpt>
      <trkpt lat="43.32016" lon="-0.43412">
        <ele>158</ele>
        <time>2024-04-06T02:19:32Z</time>
      </trkpt>
      <trkpt lat="43.32011" lon="-0.43399">
        <ele>158</ele>
        <time>2024-04-06T02:19:34Z</time>
      </trkpt>
      <trkpt lat="43.31998" lon="-0.43391">
        <ele>158</ele>
        <time>2024-04-06T02:19:37Z</time>
      </trkpt>
      <trkpt lat="43.3197" lon="-0.43379">
        <ele>157</ele>
        <time>2024-04-06T02:19:42Z</time>
      </trkpt>
      <trkpt lat="43.3196" lon="-0.43374">
        <ele>157</ele>
        <time>2024-04-06T02:19:44Z</time>
      </trkpt>
      <trkpt lat="43.31921" lon="-0.43333">
        <ele>156</ele>
        <time>2024-04-06T02:19:53Z</time>
      </trkpt>
      <trkpt lat="43.31889" lon="-0.43288">
        <ele>156</ele>
        <time>2024-04-06T02:20:01Z</time>
      </trkpt>
      <trkpt lat="43.31858" lon="-0.43225">
        <ele>156</ele>
        <time>2024-04-06T02:20:11Z</time>
      </trkpt>
      <trkpt lat="43.31847" lon="-0.43223">
        <ele>156</ele>
        <time>2024-04-06T02:20:13Z</time>
      </trkpt>
      <trkpt lat="43.31838" lon="-0.43213">
        <ele>156</ele>
        <time>2024-04-06T02:20:15Z</time>
      </trkpt>
      <trkpt lat="43.31835" lon="-0.43205">
        <ele>157</ele>
        <time>2024-04-06T02:20:16Z</time>
      </trkpt>
      <trkpt lat="43.31835" lon="-0.43196">
        <ele>157</ele>
        <time>2024-04-06T02:20:17Z</time>
      </trkpt>
      <trkpt lat="43.31839" lon="-0.4318">
        <ele>157</ele>
        <time>2024-04-06T02:20:19Z</time>
      </trkpt>
      <trkpt lat="43.31836" lon="-0.43161">
        <ele>158</ele>
        <time>2024-04-06T02:20:22Z</time>
      </trkpt>
      <trkpt lat="43.31816" lon="-0.43107">
        <ele>159</ele>
        <time>2024-04-06T02:20:29Z</time>
      </trkpt>
      <trkpt lat="43.31796" lon="-0.43041">
        <ele>159</ele>
        <time>2024-04-06T02:20:39Z</time>
      </trkpt>
      <trkpt lat="43.31787" lon="-0.43003">
        <ele>160</ele>
        <time>2024-04-06T02:20:44Z</time>
      </trkpt>
      <trkpt lat="43.31783" lon="-0.42974">
        <ele>159</ele>
        <time>2024-04-06T02:20:48Z</time>
      </trkpt>
      <trkpt lat="43.31779" lon="-0.42927">
        <ele>158</ele>
        <time>2024-04-06T02:20:54Z</time>
      </trkpt>
      <trkpt lat="43.31776" lon="-0.42898">
        <ele>158</ele>
        <time>2024-04-06T02:20:58Z</time>
      </trkpt>
      <trkpt lat="43.31773" lon="-0.42849">
        <ele>157</ele>
        <time>2024-04-06T02:21:04Z</time>
      </trkpt>
      <trkpt lat="43.31775" lon="-0.4275">
        <ele>159</ele>
        <time>2024-04-06T02:21:17Z</time>
      </trkpt>
      <trkpt lat="43.31776" lon="-0.42679">
        <ele>160</ele>
        <time>2024-04-06T02:21:26Z</time>
      </trkpt>
      <trkpt lat="43.31774" lon="-0.42597">
        <ele>159</ele>
        <time>2024-04-06T02:21:37Z</time>
      </trkpt>
      <trkpt lat="43.31769" lon="-0.42555">
        <ele>159</ele>
        <time>2024-04-06T02:21:42Z</time>
      </trkpt>
      <trkpt lat="43.31759" lon="-0.42506">
        <ele>160</ele>
        <time>2024-04-06T02:21:49Z</time>
      </trkpt>
      <trkpt lat="43.31748" lon="-0.42473">
        <ele>159</ele>
        <time>2024-04-06T02:21:53Z</time>
      </trkpt>
      <trkpt lat="43.31724" lon="-0.42418">
        <ele>158</ele>
        <time>2024-04-06T02:22:02Z</time>
      </trkpt>
      <trkpt lat="43.31698" lon="-0.42367">
        <ele>160</ele>
        <time>2024-04-06T02:22:10Z</time>
      </trkpt>
      <trkpt lat="43.31669" lon="-0.42315">
        <ele>162</ele>
        <time>2024-04-06T02:22:18Z</time>
      </trkpt>
      <trkpt lat="43.31668" lon="-0.42308">
        <ele>162</ele>
        <time>2024-04-06T02:22:19Z</time>
      </trkpt>
      <trkpt lat="43.31628" lon="-0.42228">
        <ele>162</ele>
        <time>2024-04-06T02:22:32Z</time>
      </trkpt>
      <trkpt lat="43.31233" lon="-0.41499">
        <ele>163</ele>
        <time>2024-04-06T02:24:29Z</time>
      </trkpt>
      <trkpt lat="43.31092" lon="-0.41245">
        <ele>164</ele>
        <time>2024-04-06T02:25:11Z</time>
      </trkpt>
      <trkpt lat="43.30723" lon="-0.40563">
        <ele>167</ele>
        <time>2024-04-06T02:27:01Z</time>
      </trkpt>
      <trkpt lat="43.30613" lon="-0.40367">
        <ele>167</ele>
        <time>2024-04-06T02:27:33Z</time>
      </trkpt>
      <trkpt lat="43.30532" lon="-0.40217">
        <ele>168</ele>
        <time>2024-04-06T02:27:57Z</time>
      </trkpt>
      <trkpt lat="43.30516" lon="-0.402">
        <ele>168</ele>
        <time>2024-04-06T02:28:01Z</time>
      </trkpt>
      <trkpt lat="43.30501" lon="-0.40187">
        <ele>168</ele>
        <time>2024-04-06T02:28:04Z</time>
      </trkpt>
      <trkpt lat="43.30493" lon="-0.40187">
        <ele>168</ele>
        <time>2024-04-06T02:28:05Z</time>
      </trkpt>
      <trkpt lat="43.30484" lon="-0.40181">
        <ele>168</ele>
        <time>2024-04-06T02:28:07Z</time>
      </trkpt>
      <trkpt lat="43.30478" lon="-0.40174">
        <ele>168</ele>
        <time>2024-04-06T02:28:08Z</time>
      </trkpt>
      <trkpt lat="43.30475" lon="-0.40165">
        <ele>168</ele>
        <time>2024-04-06T02:28:10Z</time>
      </trkpt>
      <trkpt lat="43.30473" lon="-0.40155">
        <ele>168</ele>
        <time>2024-04-06T02:28:11Z</time>
      </trkpt>
      <trkpt lat="43.30476" lon="-0.40138">
        <ele>168</ele>
        <time>2024-04-06T02:28:13Z</time>
      </trkpt>
      <trkpt lat="43.30464" lon="-0.40094">
        <ele>169</ele>
        <time>2024-04-06T02:28:19Z</time>
      </trkpt>
      <trkpt lat="43.30408" lon="-0.39989">
        <ele>171</ele>
        <time>2024-04-06T02:28:36Z</time>
      </trkpt>
      <trkpt lat="43.29923" lon="-0.391">
        <ele>179</ele>
        <time>2024-04-06T02:31:00Z</time>
      </trkpt>
      <trkpt lat="43.29847" lon="-0.38963">
        <ele>177</ele>
        <time>2024-04-06T02:31:22Z</time>
      </trkpt>
      <trkpt lat="43.29791" lon="-0.38881">
        <ele>180</ele>
        <time>2024-04-06T02:31:37Z</time>
      </trkpt>
      <trkpt lat="43.29735" lon="-0.38792">
        <ele>181</ele>
        <time>2024-04-06T02:31:52Z</time>
      </trkpt>
      <trkpt lat="43.29715" lon="-0.38753">
        <ele>183</ele>
        <time>2024-04-06T02:31:58Z</time>
      </trkpt>
      <trkpt lat="43.29702" lon="-0.3872">
        <ele>184</ele>
        <time>2024-04-06T02:32:03Z</time>
      </trkpt>
      <trkpt lat="43.29681" lon="-0.38654">
        <ele>185</ele>
        <time>2024-04-06T02:32:13Z</time>
      </trkpt>
      <trkpt lat="43.2967" lon="-0.38601">
        <ele>185</ele>
        <time>2024-04-06T02:32:20Z</time>
      </trkpt>
      <trkpt lat="43.29653" lon="-0.38493">
        <ele>185</ele>
        <time>2024-04-06T02:32:34Z</time>
      </trkpt>
      <trkpt lat="43.2964" lon="-0.3842">
        <ele>186</ele>
        <time>2024-04-06T02:32:44Z</time>
      </trkpt>
      <trkpt lat="43.29583" lon="-0.38132">
        <ele>192</ele>
        <time>2024-04-06T02:33:22Z</time>
      </trkpt>
      <trkpt lat="43.29579" lon="-0.38097">
        <ele>191</ele>
        <time>2024-04-06T02:33:27Z</time>
      </trkpt>
      <trkpt lat="43.29581" lon="-0.38065">
        <ele>191</ele>
        <time>2024-04-06T02:33:31Z</time>
      </trkpt>
      <trkpt lat="43.29585" lon="-0.38023">
        <ele>191</ele>
        <time>2024-04-06T02:33:37Z</time>
      </trkpt>
      <trkpt lat="43.29617" lon="-0.37694">
        <ele>198</ele>
        <time>2024-04-06T02:34:20Z</time>
      </trkpt>
      <trkpt lat="43.29614" lon="-0.37682">
        <ele>198</ele>
        <time>2024-04-06T02:34:21Z</time>
      </trkpt>
      <trkpt lat="43.29608" lon="-0.37674">
        <ele>197</ele>
        <time>2024-04-06T02:34:23Z</time>
      </trkpt>
      <trkpt lat="43.29599" lon="-0.37664">
        <ele>197</ele>
        <time>2024-04-06T02:34:25Z</time>
      </trkpt>
      <trkpt lat="43.29594" lon="-0.37651">
        <ele>197</ele>
        <time>2024-04-06T02:34:27Z</time>
      </trkpt>
      <trkpt lat="43.29591" lon="-0.37639">
        <ele>197</ele>
        <time>2024-04-06T02:34:28Z</time>
      </trkpt>
      <trkpt lat="43.29592" lon="-0.37624">
        <ele>198</ele>
        <time>2024-04-06T02:34:30Z</time>
      </trkpt>
      <trkpt lat="43.29621" lon="-0.37515">
        <ele>201</ele>
        <time>2024-04-06T02:34:45Z</time>
      </trkpt>
      <trkpt lat="43.29637" lon="-0.37426">
        <ele>203</ele>
        <time>2024-04-06T02:34:57Z</time>
      </trkpt>
      <trkpt lat="43.29574" lon="-0.37403">
        <ele>202</ele>
        <time>2024-04-06T02:35:09Z</time>
      </trkpt>
      <trkpt lat="43.29538" lon="-0.3739">
        <ele>208</ele>
        <time>2024-04-06T02:35:15Z</time>
      </trkpt>
      <trkpt lat="43.29526" lon="-0.37386">
        <ele>210</ele>
        <time>2024-04-06T02:35:18Z</time>
      </trkpt>
      <trkpt lat="43.29494" lon="-0.37316">
        <ele>217</ele>
        <time>2024-04-06T02:35:28Z</time>
      </trkpt>
      <trkpt lat="43.29486" lon="-0.37308">
        <ele>216</ele>
        <time>2024-04-06T02:35:30Z</time>
      </trkpt>
      <trkpt lat="43.29464" lon="-0.37298">
        <ele>215</ele>
        <time>2024-04-06T02:35:34Z</time>
      </trkpt>
      <trkpt lat="43.29457" lon="-0.37293">
        <ele>214</ele>
        <time>2024-04-06T02:35:36Z</time>
      </trkpt>
      <trkpt lat="43.29461" lon="-0.37203">
        <ele>216</ele>
        <time>2024-04-06T02:35:47Z</time>
      </trkpt>
      <trkpt lat="43.29451" lon="-0.37108">
        <ele>214</ele>
        <time>2024-04-06T02:36:00Z</time>
      </trkpt>
      <trkpt lat="43.29448" lon="-0.37056">
        <ele>214</ele>
        <time>2024-04-06T02:36:07Z</time>
      </trkpt>
      <trkpt lat="43.29441" lon="-0.36896">
        <ele>217</ele>
        <time>2024-04-06T02:36:27Z</time>
      </trkpt>
      <trkpt lat="43.2944" lon="-0.36737">
        <ele>217</ele>
        <time>2024-04-06T02:36:48Z</time>
      </trkpt>
      <trkpt lat="43.29464" lon="-0.36565">
        <ele>215</ele>
        <time>2024-04-06T02:37:11Z</time>
      </trkpt>
      <trkpt lat="43.29459" lon="-0.36521">
        <ele>216</ele>
        <time>2024-04-06T02:37:16Z</time>
      </trkpt>
      <trkpt lat="43.29434" lon="-0.36445">
        <ele>218</ele>
        <time>2024-04-06T02:37:27Z</time>
      </trkpt>
      <trkpt lat="43.29429" lon="-0.36418">
        <ele>218</ele>
        <time>2024-04-06T02:37:31Z</time>
      </trkpt>
      <trkpt lat="43.29426" lon="-0.36372">
        <ele>215</ele>
        <time>2024-04-06T02:37:37Z</time>
      </trkpt>
      <trkpt lat="43.29425" lon="-0.36367">
        <ele>214</ele>
        <time>2024-04-06T02:37:37Z</time>
      </trkpt>
      <trkpt lat="43.29413" lon="-0.3635">
        <ele>212</ele>
        <time>2024-04-06T02:37:40Z</time>
      </trkpt>
      <trkpt lat="43.29405" lon="-0.36346">
        <ele>210</ele>
        <time>2024-04-06T02:37:42Z</time>
      </trkpt>
      <trkpt lat="43.29396" lon="-0.36334">
        <ele>207</ele>
        <time>2024-04-06T02:37:44Z</time>
      </trkpt>
      <trkpt lat="43.29382" lon="-0.36308">
        <ele>204</ele>
        <time>2024-04-06T02:37:48Z</time>
      </trkpt>
      <trkpt lat="43.29372" lon="-0.36283">
        <ele>202</ele>
        <time>2024-04-06T02:37:52Z</time>
      </trkpt>
      <trkpt lat="43.29355" lon="-0.36225">
        <ele>197</ele>
        <time>2024-04-06T02:38:00Z</time>
      </trkpt>
      <trkpt lat="43.2935" lon="-0.36136">
        <ele>191</ele>
        <time>2024-04-06T02:38:12Z</time>
      </trkpt>
      <trkpt lat="43.29347" lon="-0.36121">
        <ele>190</ele>
        <time>2024-04-06T02:38:14Z</time>
      </trkpt>
      <trkpt lat="43.29335" lon="-0.36106">
        <ele>186</ele>
        <time>2024-04-06T02:38:17Z</time>
      </trkpt>
      <trkpt lat="43.29324" lon="-0.36121">
        <ele>186</ele>
        <time>2024-04-06T02:38:19Z</time>
      </trkpt>
      <trkpt lat="43.2932" lon="-0.36114">
        <ele>185</ele>
        <time>2024-04-06T02:38:21Z</time>
      </trkpt>
      <trkpt lat="43.29316" lon="-0.36103">
        <ele>185</ele>
        <time>2024-04-06T02:38:22Z</time>
      </trkpt>
      <trkpt lat="43.2931" lon="-0.36076">
        <ele>183</ele>
        <time>2024-04-06T02:38:26Z</time>
      </trkpt>
      <trkpt lat="43.29271" lon="-0.36024">
        <ele>182</ele>
        <time>2024-04-06T02:38:35Z</time>
      </trkpt>
      <trkpt lat="43.29232" lon="-0.35979">
        <ele>182</ele>
        <time>2024-04-06T02:38:45Z</time>
      </trkpt>
      <trkpt lat="43.29212" lon="-0.35951">
        <ele>183</ele>
        <time>2024-04-06T02:38:50Z</time>
      </trkpt>
      <trkpt lat="43.29185" lon="-0.35892">
        <ele>184</ele>
        <time>2024-04-06T02:38:59Z</time>
      </trkpt>
      <trkpt lat="43.29173" lon="-0.35864">
        <ele>186</ele>
        <time>2024-04-06T02:39:03Z</time>
      </trkpt>
      <trkpt lat="43.29136" lon="-0.35805">
        <ele>187</ele>
        <time>2024-04-06T02:39:13Z</time>
      </trkpt>
      <trkpt lat="43.29129" lon="-0.35795">
        <ele>187</ele>
        <time>2024-04-06T02:39:15Z</time>
      </trkpt>
      <trkpt lat="43.29121" lon="-0.35776">
        <ele>188</ele>
        <time>2024-04-06T02:39:18Z</time>
      </trkpt>
      <trkpt lat="43.29008" lon="-0.35591">
        <ele>189</ele>
        <time>2024-04-06T02:39:49Z</time>
      </trkpt>
      <trkpt lat="43.28823" lon="-0.35282">
        <ele>190</ele>
        <time>2024-04-06T02:40:41Z</time>
      </trkpt>
      <trkpt lat="43.28817" lon="-0.35282">
        <ele>190</ele>
        <time>2024-04-06T02:40:42Z</time>
      </trkpt>
      <trkpt lat="43.28793" lon="-0.35229">
        <ele>190</ele>
        <time>2024-04-06T02:40:50Z</time>
      </trkpt>
      <trkpt lat="43.28736" lon="-0.35136">
        <ele>191</ele>
        <time>2024-04-06T02:41:06Z</time>
      </trkpt>
      <trkpt lat="43.28754" lon="-0.35068">
        <ele>192</ele>
        <time>2024-04-06T02:41:15Z</time>
      </trkpt>
      <trkpt lat="43.28755" lon="-0.35058">
        <ele>192</ele>
        <time>2024-04-06T02:41:16Z</time>
      </trkpt>
      <trkpt lat="43.28753" lon="-0.35018">
        <ele>191</ele>
        <time>2024-04-06T02:41:21Z</time>
      </trkpt>
      <trkpt lat="43.2875" lon="-0.34998">
        <ele>191</ele>
        <time>2024-04-06T02:41:24Z</time>
      </trkpt>
      <trkpt lat="43.28748" lon="-0.34976">
        <ele>191</ele>
        <time>2024-04-06T02:41:27Z</time>
      </trkpt>
      <trkpt lat="43.28748" lon="-0.34939">
        <ele>191</ele>
        <time>2024-04-06T02:41:32Z</time>
      </trkpt>
      <trkpt lat="43.28748" lon="-0.34903">
        <ele>192</ele>
        <time>2024-04-06T02:41:36Z</time>
      </trkpt>
      <trkpt lat="43.28763" lon="-0.34807">
        <ele>193</ele>
        <time>2024-04-06T02:41:49Z</time>
      </trkpt>
      <trkpt lat="43.28765" lon="-0.34724">
        <ele>195</ele>
        <time>2024-04-06T02:42:00Z</time>
      </trkpt>
      <trkpt lat="43.28769" lon="-0.34662">
        <ele>196</ele>
        <time>2024-04-06T02:42:08Z</time>
      </trkpt>
      <trkpt lat="43.28782" lon="-0.34554">
        <ele>196</ele>
        <time>2024-04-06T02:42:22Z</time>
      </trkpt>
      <trkpt lat="43.28794" lon="-0.34486">
        <ele>196</ele>
        <time>2024-04-06T02:42:31Z</time>
      </trkpt>
      <trkpt lat="43.288" lon="-0.34464">
        <ele>195</ele>
        <time>2024-04-06T02:42:34Z</time>
      </trkpt>
      <trkpt lat="43.28828" lon="-0.34427">
        <ele>193</ele>
        <time>2024-04-06T02:42:41Z</time>
      </trkpt>
      <trkpt lat="43.28862" lon="-0.34395">
        <ele>193</ele>
        <time>2024-04-06T02:42:48Z</time>
      </trkpt>
      <trkpt lat="43.28892" lon="-0.3437">
        <ele>194</ele>
        <time>2024-04-06T02:42:55Z</time>
      </trkpt>
      <trkpt lat="43.28904" lon="-0.34354">
        <ele>194</ele>
        <time>2024-04-06T02:42:58Z</time>
      </trkpt>
      <trkpt lat="43.28915" lon="-0.34323">
        <ele>194</ele>
        <time>2024-04-06T02:43:02Z</time>
      </trkpt>
      <trkpt lat="43.28927" lon="-0.34238">
        <ele>194</ele>
        <time>2024-04-06T02:43:13Z</time>
      </trkpt>
      <trkpt lat="43.28933" lon="-0.34168">
        <ele>195</ele>
        <time>2024-04-06T02:43:22Z</time>
      </trkpt>
      <trkpt lat="43.28932" lon="-0.34114">
        <ele>196</ele>
        <time>2024-04-06T02:43:29Z</time>
      </trkpt>
      <trkpt lat="43.28935" lon="-0.34087">
        <ele>197</ele>
        <time>2024-04-06T02:43:33Z</time>
      </trkpt>
      <trkpt lat="43.28947" lon="-0.34046">
        <ele>197</ele>
        <time>2024-04-06T02:43:39Z</time>
      </trkpt>
      <trkpt lat="43.28959" lon="-0.34014">
        <ele>196</ele>
        <time>2024-04-06T02:43:43Z</time>
      </trkpt>
      <trkpt lat="43.28968" lon="-0.33989">
        <ele>197</ele>
        <time>2024-04-06T02:43:47Z</time>
      </trkpt>
      <trkpt lat="43.28969" lon="-0.33983">
        <ele>197</ele>
        <time>2024-04-06T02:43:48Z</time>
      </trkpt>
      <trkpt lat="43.28963" lon="-0.33821">
        <ele>197</ele>
        <time>2024-04-06T02:44:09Z</time>
      </trkpt>
      <trkpt lat="43.28966" lon="-0.33779">
        <ele>197</ele>
        <time>2024-04-06T02:44:14Z</time>
      </trkpt>
      <trkpt lat="43.28987" lon="-0.3371">
        <ele>197</ele>
        <time>2024-04-06T02:44:24Z</time>
      </trkpt>
      <trkpt lat="43.28998" lon="-0.33695">
        <ele>197</ele>
        <time>2024-04-06T02:44:27Z</time>
      </trkpt>
      <trkpt lat="43.29013" lon="-0.33687">
        <ele>197</ele>
        <time>2024-04-06T02:44:30Z</time>
      </trkpt>
      <trkpt lat="43.29022" lon="-0.33684">
        <ele>197</ele>
        <time>2024-04-06T02:44:31Z</time>
      </trkpt>
      <trkpt lat="43.29102" lon="-0.33688">
        <ele>197</ele>
        <time>2024-04-06T02:44:45Z</time>
      </trkpt>
      <trkpt lat="43.29111" lon="-0.33685">
        <ele>197</ele>
        <time>2024-04-06T02:44:47Z</time>
      </trkpt>
      <trkpt lat="43.29119" lon="-0.33676">
        <ele>197</ele>
        <time>2024-04-06T02:44:49Z</time>
      </trkpt>
      <trkpt lat="43.29127" lon="-0.3366">
        <ele>197</ele>
        <time>2024-04-06T02:44:51Z</time>
      </trkpt>
      <trkpt lat="43.29129" lon="-0.33637">
        <ele>197</ele>
        <time>2024-04-06T02:44:54Z</time>
      </trkpt>
      <trkpt lat="43.29116" lon="-0.33497">
        <ele>198</ele>
        <time>2024-04-06T02:45:13Z</time>
      </trkpt>
      <trkpt lat="43.29116" lon="-0.33463">
        <ele>198</ele>
        <time>2024-04-06T02:45:17Z</time>
      </trkpt>
      <trkpt lat="43.29133" lon="-0.33299">
        <ele>198</ele>
        <time>2024-04-06T02:45:39Z</time>
      </trkpt>
      <trkpt lat="43.29129" lon="-0.33186">
        <ele>198</ele>
        <time>2024-04-06T02:45:53Z</time>
      </trkpt>
      <trkpt lat="43.29122" lon="-0.33171">
        <ele>198</ele>
        <time>2024-04-06T02:45:56Z</time>
      </trkpt>
      <trkpt lat="43.29116" lon="-0.33166">
        <ele>198</ele>
        <time>2024-04-06T02:45:57Z</time>
      </trkpt>
      <trkpt lat="43.29107" lon="-0.33159">
        <ele>198</ele>
        <time>2024-04-06T02:45:59Z</time>
      </trkpt>
      <trkpt lat="43.29104" lon="-0.33147">
        <ele>198</ele>
        <time>2024-04-06T02:46:00Z</time>
      </trkpt>
      <trkpt lat="43.29106" lon="-0.33135">
        <ele>198</ele>
        <time>2024-04-06T02:46:02Z</time>
      </trkpt>
      <trkpt lat="43.2911" lon="-0.3313">
        <ele>198</ele>
        <time>2024-04-06T02:46:03Z</time>
      </trkpt>
      <trkpt lat="43.29113" lon="-0.33122">
        <ele>199</ele>
        <time>2024-04-06T02:46:04Z</time>
      </trkpt>
      <trkpt lat="43.29115" lon="-0.33105">
        <ele>199</ele>
        <time>2024-04-06T02:46:06Z</time>
      </trkpt>
      <trkpt lat="43.29081" lon="-0.32918">
        <ele>202</ele>
        <time>2024-04-06T02:46:31Z</time>
      </trkpt>
      <trkpt lat="43.29046" lon="-0.32755">
        <ele>203</ele>
        <time>2024-04-06T02:46:53Z</time>
      </trkpt>
      <trkpt lat="43.29039" lon="-0.3271">
        <ele>203</ele>
        <time>2024-04-06T02:46:59Z</time>
      </trkpt>
      <trkpt lat="43.29038" lon="-0.32661">
        <ele>203</ele>
        <time>2024-04-06T02:47:06Z</time>
      </trkpt>
      <trkpt lat="43.29063" lon="-0.3249">
        <ele>205</ele>
        <time>2024-04-06T02:47:28Z</time>
      </trkpt>
      <trkpt lat="43.29063" lon="-0.32468">
        <ele>205</ele>
        <time>2024-04-06T02:47:31Z</time>
      </trkpt>
      <trkpt lat="43.29047" lon="-0.32376">
        <ele>204</ele>
        <time>2024-04-06T02:47:43Z</time>
      </trkpt>
      <trkpt lat="43.29036" lon="-0.32345">
        <ele>204</ele>
        <time>2024-04-06T02:47:48Z</time>
      </trkpt>
      <trkpt lat="43.29023" lon="-0.32317">
        <ele>204</ele>
        <time>2024-04-06T02:47:52Z</time>
      </trkpt>
      <trkpt lat="43.29016" lon="-0.32311">
        <ele>204</ele>
        <time>2024-04-06T02:47:53Z</time>
      </trkpt>
      <trkpt lat="43.2901" lon="-0.32313">
        <ele>204</ele>
        <time>2024-04-06T02:47:55Z</time>
      </trkpt>
      <trkpt lat="43.29004" lon="-0.32309">
        <ele>204</ele>
        <time>2024-04-06T02:47:56Z</time>
      </trkpt>
      <trkpt lat="43.29002" lon="-0.32303">
        <ele>204</ele>
        <time>2024-04-06T02:47:57Z</time>
      </trkpt>
      <trkpt lat="43.29003" lon="-0.32294">
        <ele>204</ele>
        <time>2024-04-06T02:47:58Z</time>
      </trkpt>
      <trkpt lat="43.29008" lon="-0.32288">
        <ele>204</ele>
        <time>2024-04-06T02:47:59Z</time>
      </trkpt>
      <trkpt lat="43.29003" lon="-0.32263">
        <ele>204</ele>
        <time>2024-04-06T02:48:02Z</time>
      </trkpt>
      <trkpt lat="43.29" lon="-0.32235">
        <ele>204</ele>
        <time>2024-04-06T02:48:06Z</time>
      </trkpt>
      <trkpt lat="43.29" lon="-0.32213">
        <ele>204</ele>
        <time>2024-04-06T02:48:09Z</time>
      </trkpt>
      <trkpt lat="43.29007" lon="-0.3214">
        <ele>205</ele>
        <time>2024-04-06T02:48:18Z</time>
      </trkpt>
      <trkpt lat="43.29007" lon="-0.32121">
        <ele>205</ele>
        <time>2024-04-06T02:48:21Z</time>
      </trkpt>
      <trkpt lat="43.28997" lon="-0.31921">
        <ele>205</ele>
        <time>2024-04-06T02:48:47Z</time>
      </trkpt>
      <trkpt lat="43.28997" lon="-0.31865">
        <ele>206</ele>
        <time>2024-04-06T02:48:54Z</time>
      </trkpt>
      <trkpt lat="43.2903" lon="-0.31586">
        <ele>208</ele>
        <time>2024-04-06T02:49:31Z</time>
      </trkpt>
      <trkpt lat="43.29051" lon="-0.31465">
        <ele>208</ele>
        <time>2024-04-06T02:49:47Z</time>
      </trkpt>
      <trkpt lat="43.29052" lon="-0.31444">
        <ele>208</ele>
        <time>2024-04-06T02:49:49Z</time>
      </trkpt>
      <trkpt lat="43.2905" lon="-0.31423">
        <ele>208</ele>
        <time>2024-04-06T02:49:52Z</time>
      </trkpt>
      <trkpt lat="43.29038" lon="-0.31351">
        <ele>209</ele>
        <time>2024-04-06T02:50:02Z</time>
      </trkpt>
      <trkpt lat="43.29026" lon="-0.31307">
        <ele>210</ele>
        <time>2024-04-06T02:50:08Z</time>
      </trkpt>
      <trkpt lat="43.29003" lon="-0.31268">
        <ele>211</ele>
        <time>2024-04-06T02:50:14Z</time>
      </trkpt>
      <trkpt lat="43.2897" lon="-0.31193">
        <ele>211</ele>
        <time>2024-04-06T02:50:26Z</time>
      </trkpt>
      <trkpt lat="43.28964" lon="-0.31187">
        <ele>211</ele>
        <time>2024-04-06T02:50:27Z</time>
      </trkpt>
      <trkpt lat="43.2895" lon="-0.31187">
        <ele>212</ele>
        <time>2024-04-06T02:50:30Z</time>
      </trkpt>
      <trkpt lat="43.28943" lon="-0.31191">
        <ele>212</ele>
        <time>2024-04-06T02:50:31Z</time>
      </trkpt>
      <trkpt lat="43.28931" lon="-0.31205">
        <ele>212</ele>
        <time>2024-04-06T02:50:34Z</time>
      </trkpt>
      <trkpt lat="43.28913" lon="-0.31214">
        <ele>212</ele>
        <time>2024-04-06T02:50:37Z</time>
      </trkpt>
      <trkpt lat="43.28892" lon="-0.31217">
        <ele>212</ele>
        <time>2024-04-06T02:50:41Z</time>
      </trkpt>
      <trkpt lat="43.28877" lon="-0.3121">
        <ele>212</ele>
        <time>2024-04-06T02:50:44Z</time>
      </trkpt>
      <trkpt lat="43.28868" lon="-0.31199">
        <ele>211</ele>
        <time>2024-04-06T02:50:46Z</time>
      </trkpt>
      <trkpt lat="43.28842" lon="-0.31145">
        <ele>211</ele>
        <time>2024-04-06T02:50:54Z</time>
      </trkpt>
      <trkpt lat="43.28808" lon="-0.31098">
        <ele>211</ele>
        <time>2024-04-06T02:51:03Z</time>
      </trkpt>
      <trkpt lat="43.28803" lon="-0.31087">
        <ele>211</ele>
        <time>2024-04-06T02:51:04Z</time>
      </trkpt>
      <trkpt lat="43.28797" lon="-0.31061">
        <ele>211</ele>
        <time>2024-04-06T02:51:08Z</time>
      </trkpt>
      <trkpt lat="43.28786" lon="-0.31025">
        <ele>211</ele>
        <time>2024-04-06T02:51:13Z</time>
      </trkpt>
      <trkpt lat="43.28773" lon="-0.30991">
        <ele>211</ele>
        <time>2024-04-06T02:51:18Z</time>
      </trkpt>
      <trkpt lat="43.28735" lon="-0.30941">
        <ele>212</ele>
        <time>2024-04-06T02:51:27Z</time>
      </trkpt>
      <trkpt lat="43.28723" lon="-0.30919">
        <ele>212</ele>
        <time>2024-04-06T02:51:31Z</time>
      </trkpt>
      <trkpt lat="43.28719" lon="-0.30898">
        <ele>212</ele>
        <time>2024-04-06T02:51:34Z</time>
      </trkpt>
      <trkpt lat="43.28729" lon="-0.30882">
        <ele>212</ele>
        <time>2024-04-06T02:51:37Z</time>
      </trkpt>
      <trkpt lat="43.28748" lon="-0.30862">
        <ele>212</ele>
        <time>2024-04-06T02:51:41Z</time>
      </trkpt>
      <trkpt lat="43.28759" lon="-0.30842">
        <ele>212</ele>
        <time>2024-04-06T02:51:44Z</time>
      </trkpt>
      <trkpt lat="43.28761" lon="-0.30831">
        <ele>212</ele>
        <time>2024-04-06T02:51:45Z</time>
      </trkpt>
      <trkpt lat="43.28757" lon="-0.30731">
        <ele>213</ele>
        <time>2024-04-06T02:51:58Z</time>
      </trkpt>
      <trkpt lat="43.28744" lon="-0.3063">
        <ele>213</ele>
        <time>2024-04-06T02:52:12Z</time>
      </trkpt>
      <trkpt lat="43.28743" lon="-0.30604">
        <ele>213</ele>
        <time>2024-04-06T02:52:15Z</time>
      </trkpt>
      <trkpt lat="43.28747" lon="-0.30547">
        <ele>214</ele>
        <time>2024-04-06T02:52:23Z</time>
      </trkpt>
      <trkpt lat="43.28749" lon="-0.30503">
        <ele>214</ele>
        <time>2024-04-06T02:52:28Z</time>
      </trkpt>
      <trkpt lat="43.28747" lon="-0.30481">
        <ele>214</ele>
        <time>2024-04-06T02:52:31Z</time>
      </trkpt>
      <trkpt lat="43.28726" lon="-0.30397">
        <ele>214</ele>
        <time>2024-04-06T02:52:43Z</time>
      </trkpt>
      <trkpt lat="43.28719" lon="-0.30363">
        <ele>214</ele>
        <time>2024-04-06T02:52:47Z</time>
      </trkpt>
      <trkpt lat="43.287" lon="-0.30244">
        <ele>214</ele>
        <time>2024-04-06T02:53:03Z</time>
      </trkpt>
      <trkpt lat="43.28689" lon="-0.30191">
        <ele>214</ele>
        <time>2024-04-06T02:53:10Z</time>
      </trkpt>
      <trkpt lat="43.28676" lon="-0.30099">
        <ele>214</ele>
        <time>2024-04-06T02:53:22Z</time>
      </trkpt>
      <trkpt lat="43.28653" lon="-0.29991">
        <ele>217</ele>
        <time>2024-04-06T02:53:37Z</time>
      </trkpt>
      <trkpt lat="43.2865" lon="-0.29903">
        <ele>216</ele>
        <time>2024-04-06T02:53:48Z</time>
      </trkpt>
      <trkpt lat="43.28635" lon="-0.29829">
        <ele>215</ele>
        <time>2024-04-06T02:53:58Z</time>
      </trkpt>
      <trkpt lat="43.28624" lon="-0.29731">
        <ele>215</ele>
        <time>2024-04-06T02:54:11Z</time>
      </trkpt>
      <trkpt lat="43.28619" lon="-0.29704">
        <ele>216</ele>
        <time>2024-04-06T02:54:15Z</time>
      </trkpt>
      <trkpt lat="43.28597" lon="-0.29631">
        <ele>216</ele>
        <time>2024-04-06T02:54:25Z</time>
      </trkpt>
      <trkpt lat="43.28593" lon="-0.29609">
        <ele>217</ele>
        <time>2024-04-06T02:54:28Z</time>
      </trkpt>
      <trkpt lat="43.28593" lon="-0.29574">
        <ele>217</ele>
        <time>2024-04-06T02:54:32Z</time>
      </trkpt>
      <trkpt lat="43.28603" lon="-0.29511">
        <ele>219</ele>
        <time>2024-04-06T02:54:41Z</time>
      </trkpt>
      <trkpt lat="43.28604" lon="-0.29489">
        <ele>220</ele>
        <time>2024-04-06T02:54:44Z</time>
      </trkpt>
      <trkpt lat="43.28602" lon="-0.29469">
        <ele>220</ele>
        <time>2024-04-06T02:54:46Z</time>
      </trkpt>
      <trkpt lat="43.28593" lon="-0.29429">
        <ele>220</ele>
        <time>2024-04-06T02:54:52Z</time>
      </trkpt>
      <trkpt lat="43.2859" lon="-0.29409">
        <ele>220</ele>
        <time>2024-04-06T02:54:54Z</time>
      </trkpt>
      <trkpt lat="43.2859" lon="-0.29397">
        <ele>220</ele>
        <time>2024-04-06T02:54:56Z</time>
      </trkpt>
      <trkpt lat="43.28596" lon="-0.29385">
        <ele>220</ele>
        <time>2024-04-06T02:54:58Z</time>
      </trkpt>
      <trkpt lat="43.28603" lon="-0.29375">
        <ele>220</ele>
        <time>2024-04-06T02:54:59Z</time>
      </trkpt>
      <trkpt lat="43.28618" lon="-0.29359">
        <ele>220</ele>
        <time>2024-04-06T02:55:03Z</time>
      </trkpt>
      <trkpt lat="43.28625" lon="-0.29348">
        <ele>220</ele>
        <time>2024-04-06T02:55:05Z</time>
      </trkpt>
      <trkpt lat="43.28644" lon="-0.29301">
        <ele>220</ele>
        <time>2024-04-06T02:55:12Z</time>
      </trkpt>
      <trkpt lat="43.2865" lon="-0.29291">
        <ele>220</ele>
        <time>2024-04-06T02:55:13Z</time>
      </trkpt>
      <trkpt lat="43.28666" lon="-0.29272">
        <ele>220</ele>
        <time>2024-04-06T02:55:17Z</time>
      </trkpt>
      <trkpt lat="43.28685" lon="-0.29257">
        <ele>219</ele>
        <time>2024-04-06T02:55:21Z</time>
      </trkpt>
      <trkpt lat="43.28735" lon="-0.29225">
        <ele>220</ele>
        <time>2024-04-06T02:55:31Z</time>
      </trkpt>
      <trkpt lat="43.2874" lon="-0.29216">
        <ele>220</ele>
        <time>2024-04-06T02:55:32Z</time>
      </trkpt>
      <trkpt lat="43.2874" lon="-0.29193">
        <ele>220</ele>
        <time>2024-04-06T02:55:35Z</time>
      </trkpt>
      <trkpt lat="43.28745" lon="-0.29177">
        <ele>220</ele>
        <time>2024-04-06T02:55:38Z</time>
      </trkpt>
      <trkpt lat="43.2875" lon="-0.29169">
        <ele>220</ele>
        <time>2024-04-06T02:55:39Z</time>
      </trkpt>
      <trkpt lat="43.28761" lon="-0.29159">
        <ele>220</ele>
        <time>2024-04-06T02:55:41Z</time>
      </trkpt>
      <trkpt lat="43.28761" lon="-0.29152">
        <ele>220</ele>
        <time>2024-04-06T02:55:42Z</time>
      </trkpt>
      <trkpt lat="43.28764" lon="-0.29149">
        <ele>220</ele>
        <time>2024-04-06T02:55:43Z</time>
      </trkpt>
      <trkpt lat="43.28757" lon="-0.29136">
        <ele>220</ele>
        <time>2024-04-06T02:55:45Z</time>
      </trkpt>
      <trkpt lat="43.28748" lon="-0.29125">
        <ele>220</ele>
        <time>2024-04-06T02:55:47Z</time>
      </trkpt>
      <trkpt lat="43.28723" lon="-0.29095">
        <ele>221</ele>
        <time>2024-04-06T02:55:53Z</time>
      </trkpt>
      <trkpt lat="43.28712" lon="-0.29077">
        <ele>221</ele>
        <time>2024-04-06T02:55:56Z</time>
      </trkpt>
      <trkpt lat="43.28707" lon="-0.29064">
        <ele>221</ele>
        <time>2024-04-06T02:55:58Z</time>
      </trkpt>
      <trkpt lat="43.28674" lon="-0.28962">
        <ele>222</ele>
        <time>2024-04-06T02:56:12Z</time>
      </trkpt>
      <trkpt lat="43.28668" lon="-0.28932">
        <ele>222</ele>
        <time>2024-04-06T02:56:16Z</time>
      </trkpt>
      <trkpt lat="43.28665" lon="-0.28902">
        <ele>222</ele>
        <time>2024-04-06T02:56:20Z</time>
      </trkpt>
      <trkpt lat="43.28659" lon="-0.28883">
        <ele>222</ele>
        <time>2024-04-06T02:56:23Z</time>
      </trkpt>
      <trkpt lat="43.28627" lon="-0.28812">
        <ele>222</ele>
        <time>2024-04-06T02:56:34Z</time>
      </trkpt>
      <trkpt lat="43.2862" lon="-0.28791">
        <ele>222</ele>
        <time>2024-04-06T02:56:37Z</time>
      </trkpt>
      <trkpt lat="43.28608" lon="-0.28736">
        <ele>223</ele>
        <time>2024-04-06T02:56:44Z</time>
      </trkpt>
      <trkpt lat="43.28592" lon="-0.28691">
        <ele>224</ele>
        <time>2024-04-06T02:56:51Z</time>
      </trkpt>
      <trkpt lat="43.28577" lon="-0.28644">
        <ele>224</ele>
        <time>2024-04-06T02:56:57Z</time>
      </trkpt>
      <trkpt lat="43.28564" lon="-0.28617">
        <ele>224</ele>
        <time>2024-04-06T02:57:02Z</time>
      </trkpt>
      <trkpt lat="43.28519" lon="-0.2857">
        <ele>225</ele>
        <time>2024-04-06T02:57:12Z</time>
      </trkpt>
      <trkpt lat="43.28485" lon="-0.28521">
        <ele>225</ele>
        <time>2024-04-06T02:57:20Z</time>
      </trkpt>
      <trkpt lat="43.28463" lon="-0.28474">
        <ele>224</ele>
        <time>2024-04-06T02:57:28Z</time>
      </trkpt>
      <trkpt lat="43.28459" lon="-0.28463">
        <ele>224</ele>
        <time>2024-04-06T02:57:29Z</time>
      </trkpt>
      <trkpt lat="43.2846" lon="-0.2845">
        <ele>224</ele>
        <time>2024-04-06T02:57:31Z</time>
      </trkpt>
      <trkpt lat="43.28469" lon="-0.28406">
        <ele>224</ele>
        <time>2024-04-06T02:57:37Z</time>
      </trkpt>
      <trkpt lat="43.28476" lon="-0.28376">
        <ele>225</ele>
        <time>2024-04-06T02:57:41Z</time>
      </trkpt>
      <trkpt lat="43.28499" lon="-0.28284">
        <ele>225</ele>
        <time>2024-04-06T02:57:54Z</time>
      </trkpt>
      <trkpt lat="43.28517" lon="-0.28138">
        <ele>226</ele>
        <time>2024-04-06T02:58:13Z</time>
      </trkpt>
      <trkpt lat="43.28513" lon="-0.28093">
        <ele>227</ele>
        <time>2024-04-06T02:58:19Z</time>
      </trkpt>
      <trkpt lat="43.28502" lon="-0.28063">
        <ele>227</ele>
        <time>2024-04-06T02:58:23Z</time>
      </trkpt>
      <trkpt lat="43.28471" lon="-0.27999">
        <ele>229</ele>
        <time>2024-04-06T02:58:33Z</time>
      </trkpt>
      <trkpt lat="43.28462" lon="-0.27967">
        <ele>229</ele>
        <time>2024-04-06T02:58:37Z</time>
      </trkpt>
      <trkpt lat="43.28457" lon="-0.27924">
        <ele>229</ele>
        <time>2024-04-06T02:58:43Z</time>
      </trkpt>
      <trkpt lat="43.28462" lon="-0.27854">
        <ele>229</ele>
        <time>2024-04-06T02:58:52Z</time>
      </trkpt>
      <trkpt lat="43.28469" lon="-0.27819">
        <ele>228</ele>
        <time>2024-04-06T02:58:57Z</time>
      </trkpt>
      <trkpt lat="43.28478" lon="-0.27785">
        <ele>228</ele>
        <time>2024-04-06T02:59:01Z</time>
      </trkpt>
      <trkpt lat="43.28483" lon="-0.27736">
        <ele>228</ele>
        <time>2024-04-06T02:59:08Z</time>
      </trkpt>
      <trkpt lat="43.28485" lon="-0.27662">
        <ele>229</ele>
        <time>2024-04-06T02:59:17Z</time>
      </trkpt>
      <trkpt lat="43.28476" lon="-0.27624">
        <ele>228</ele>
        <time>2024-04-06T02:59:23Z</time>
      </trkpt>
      <trkpt lat="43.28469" lon="-0.27584">
        <ele>228</ele>
        <time>2024-04-06T02:59:28Z</time>
      </trkpt>
      <trkpt lat="43.28469" lon="-0.27559">
        <ele>228</ele>
        <time>2024-04-06T02:59:31Z</time>
      </trkpt>
      <trkpt lat="43.28472" lon="-0.27491">
        <ele>228</ele>
        <time>2024-04-06T02:59:40Z</time>
      </trkpt>
      <trkpt lat="43.28453" lon="-0.27351">
        <ele>229</ele>
        <time>2024-04-06T02:59:58Z</time>
      </trkpt>
      <trkpt lat="43.28424" lon="-0.27237">
        <ele>231</ele>
        <time>2024-04-06T03:00:14Z</time>
      </trkpt>
      <trkpt lat="43.2842" lon="-0.27189">
        <ele>232</ele>
        <time>2024-04-06T03:00:20Z</time>
      </trkpt>
      <trkpt lat="43.28411" lon="-0.27095">
        <ele>233</ele>
        <time>2024-04-06T03:00:33Z</time>
      </trkpt>
      <trkpt lat="43.28405" lon="-0.27072">
        <ele>233</ele>
        <time>2024-04-06T03:00:36Z</time>
      </trkpt>
      <trkpt lat="43.28364" lon="-0.26987">
        <ele>233</ele>
        <time>2024-04-06T03:00:49Z</time>
      </trkpt>
      <trkpt lat="43.28348" lon="-0.26931">
        <ele>235</ele>
        <time>2024-04-06T03:00:57Z</time>
      </trkpt>
      <trkpt lat="43.28342" lon="-0.26898">
        <ele>234</ele>
        <time>2024-04-06T03:01:01Z</time>
      </trkpt>
      <trkpt lat="43.28329" lon="-0.26865">
        <ele>234</ele>
        <time>2024-04-06T03:01:06Z</time>
      </trkpt>
      <trkpt lat="43.28302" lon="-0.26819">
        <ele>234</ele>
        <time>2024-04-06T03:01:14Z</time>
      </trkpt>
      <trkpt lat="43.28278" lon="-0.26785">
        <ele>235</ele>
        <time>2024-04-06T03:01:20Z</time>
      </trkpt>
      <trkpt lat="43.28269" lon="-0.2677">
        <ele>235</ele>
        <time>2024-04-06T03:01:22Z</time>
      </trkpt>
      <trkpt lat="43.28261" lon="-0.26707">
        <ele>235</ele>
        <time>2024-04-06T03:01:31Z</time>
      </trkpt>
      <trkpt lat="43.2826" lon="-0.2664">
        <ele>235</ele>
        <time>2024-04-06T03:01:39Z</time>
      </trkpt>
      <trkpt lat="43.28251" lon="-0.26559">
        <ele>236</ele>
        <time>2024-04-06T03:01:50Z</time>
      </trkpt>
      <trkpt lat="43.28251" lon="-0.26523">
        <ele>236</ele>
        <time>2024-04-06T03:01:55Z</time>
      </trkpt>
      <trkpt lat="43.28237" lon="-0.26435">
        <ele>236</ele>
        <time>2024-04-06T03:02:06Z</time>
      </trkpt>
      <trkpt lat="43.28226" lon="-0.26383">
        <ele>236</ele>
        <time>2024-04-06T03:02:13Z</time>
      </trkpt>
      <trkpt lat="43.28196" lon="-0.26295">
        <ele>237</ele>
        <time>2024-04-06T03:02:26Z</time>
      </trkpt>
      <trkpt lat="43.28185" lon="-0.26258">
        <ele>237</ele>
        <time>2024-04-06T03:02:31Z</time>
      </trkpt>
      <trkpt lat="43.28173" lon="-0.26209">
        <ele>238</ele>
        <time>2024-04-06T03:02:38Z</time>
      </trkpt>
      <trkpt lat="43.28159" lon="-0.26175">
        <ele>238</ele>
        <time>2024-04-06T03:02:43Z</time>
      </trkpt>
      <trkpt lat="43.28144" lon="-0.26151">
        <ele>238</ele>
        <time>2024-04-06T03:02:47Z</time>
      </trkpt>
      <trkpt lat="43.28134" lon="-0.26128">
        <ele>238</ele>
        <time>2024-04-06T03:02:50Z</time>
      </trkpt>
      <trkpt lat="43.28106" lon="-0.26046">
        <ele>239</ele>
        <time>2024-04-06T03:03:02Z</time>
      </trkpt>
      <trkpt lat="43.2808" lon="-0.2598">
        <ele>239</ele>
        <time>2024-04-06T03:03:12Z</time>
      </trkpt>
      <trkpt lat="43.2806" lon="-0.25889">
        <ele>239</ele>
        <time>2024-04-06T03:03:24Z</time>
      </trkpt>
      <trkpt lat="43.28052" lon="-0.25865">
        <ele>239</ele>
        <time>2024-04-06T03:03:28Z</time>
      </trkpt>
      <trkpt lat="43.28043" lon="-0.25845">
        <ele>239</ele>
        <time>2024-04-06T03:03:31Z</time>
      </trkpt>
      <trkpt lat="43.28024" lon="-0.25822">
        <ele>239</ele>
        <time>2024-04-06T03:03:35Z</time>
      </trkpt>
      <trkpt lat="43.27993" lon="-0.25798">
        <ele>239</ele>
        <time>2024-04-06T03:03:41Z</time>
      </trkpt>
      <trkpt lat="43.2798" lon="-0.25781">
        <ele>240</ele>
        <time>2024-04-06T03:03:45Z</time>
      </trkpt>
      <trkpt lat="43.27968" lon="-0.2575">
        <ele>240</ele>
        <time>2024-04-06T03:03:49Z</time>
      </trkpt>
      <trkpt lat="43.2795" lon="-0.25564">
        <ele>240</ele>
        <time>2024-04-06T03:04:14Z</time>
      </trkpt>
      <trkpt lat="43.27935" lon="-0.25494">
        <ele>240</ele>
        <time>2024-04-06T03:04:23Z</time>
      </trkpt>
      <trkpt lat="43.27916" lon="-0.25425">
        <ele>242</ele>
        <time>2024-04-06T03:04:33Z</time>
      </trkpt>
      <trkpt lat="43.2789" lon="-0.25345">
        <ele>242</ele>
        <time>2024-04-06T03:04:44Z</time>
      </trkpt>
      <trkpt lat="43.27809" lon="-0.25218">
        <ele>242</ele>
        <time>2024-04-06T03:05:06Z</time>
      </trkpt>
      <trkpt lat="43.27791" lon="-0.252">
        <ele>243</ele>
        <time>2024-04-06T03:05:10Z</time>
      </trkpt>
      <trkpt lat="43.27771" lon="-0.25185">
        <ele>243</ele>
        <time>2024-04-06T03:05:14Z</time>
      </trkpt>
      <trkpt lat="43.27758" lon="-0.2517">
        <ele>243</ele>
        <time>2024-04-06T03:05:17Z</time>
      </trkpt>
      <trkpt lat="43.27734" lon="-0.2512">
        <ele>243</ele>
        <time>2024-04-06T03:05:25Z</time>
      </trkpt>
      <trkpt lat="43.27665" lon="-0.2496">
        <ele>244</ele>
        <time>2024-04-06T03:05:49Z</time>
      </trkpt>
      <trkpt lat="43.27656" lon="-0.2495">
        <ele>245</ele>
        <time>2024-04-06T03:05:51Z</time>
      </trkpt>
      <trkpt lat="43.27644" lon="-0.24947">
        <ele>245</ele>
        <time>2024-04-06T03:05:53Z</time>
      </trkpt>
      <trkpt lat="43.27622" lon="-0.2495">
        <ele>245</ele>
        <time>2024-04-06T03:05:57Z</time>
      </trkpt>
      <trkpt lat="43.27609" lon="-0.24948">
        <ele>245</ele>
        <time>2024-04-06T03:05:59Z</time>
      </trkpt>
      <trkpt lat="43.27583" lon="-0.24927">
        <ele>245</ele>
        <time>2024-04-06T03:06:04Z</time>
      </trkpt>
      <trkpt lat="43.27587" lon="-0.24911">
        <ele>245</ele>
        <time>2024-04-06T03:06:07Z</time>
      </trkpt>
      <trkpt lat="43.27586" lon="-0.24893">
        <ele>245</ele>
        <time>2024-04-06T03:06:09Z</time>
      </trkpt>
      <trkpt lat="43.27572" lon="-0.2483">
        <ele>244</ele>
        <time>2024-04-06T03:06:18Z</time>
      </trkpt>
      <trkpt lat="43.27572" lon="-0.24797">
        <ele>245</ele>
        <time>2024-04-06T03:06:22Z</time>
      </trkpt>
      <trkpt lat="43.27566" lon="-0.24763">
        <ele>246</ele>
        <time>2024-04-06T03:06:26Z</time>
      </trkpt>
      <trkpt lat="43.2756" lon="-0.24741">
        <ele>246</ele>
        <time>2024-04-06T03:06:29Z</time>
      </trkpt>
      <trkpt lat="43.27536" lon="-0.24691">
        <ele>246</ele>
        <time>2024-04-06T03:06:37Z</time>
      </trkpt>
      <trkpt lat="43.27529" lon="-0.24673">
        <ele>246</ele>
        <time>2024-04-06T03:06:40Z</time>
      </trkpt>
      <trkpt lat="43.27517" lon="-0.24601">
        <ele>247</ele>
        <time>2024-04-06T03:06:49Z</time>
      </trkpt>
      <trkpt lat="43.27491" lon="-0.24616">
        <ele>247</ele>
        <time>2024-04-06T03:06:54Z</time>
      </trkpt>
      <trkpt lat="43.27471" lon="-0.24623">
        <ele>247</ele>
        <time>2024-04-06T03:06:58Z</time>
      </trkpt>
      <trkpt lat="43.27453" lon="-0.24626">
        <ele>247</ele>
        <time>2024-04-06T03:07:01Z</time>
      </trkpt>
      <trkpt lat="43.27444" lon="-0.24622">
        <ele>247</ele>
        <time>2024-04-06T03:07:03Z</time>
      </trkpt>
      <trkpt lat="43.27426" lon="-0.24602">
        <ele>247</ele>
        <time>2024-04-06T03:07:07Z</time>
      </trkpt>
      <trkpt lat="43.27432" lon="-0.24525">
        <ele>247</ele>
        <time>2024-04-06T03:07:17Z</time>
      </trkpt>
      <trkpt lat="43.27428" lon="-0.2449">
        <ele>247</ele>
        <time>2024-04-06T03:07:22Z</time>
      </trkpt>
      <trkpt lat="43.27451" lon="-0.24453">
        <ele>248</ele>
        <time>2024-04-06T03:07:28Z</time>
      </trkpt>
      <trkpt lat="43.27466" lon="-0.24424">
        <ele>249</ele>
        <time>2024-04-06T03:07:33Z</time>
      </trkpt>
      <trkpt lat="43.27474" lon="-0.24403">
        <ele>249</ele>
        <time>2024-04-06T03:07:36Z</time>
      </trkpt>
      <trkpt lat="43.27436" lon="-0.2436">
        <ele>250</ele>
        <time>2024-04-06T03:07:44Z</time>
      </trkpt>
      <trkpt lat="43.2741" lon="-0.24336">
        <ele>250</ele>
        <time>2024-04-06T03:07:50Z</time>
      </trkpt>
      <trkpt lat="43.27366" lon="-0.24282">
        <ele>250</ele>
        <time>2024-04-06T03:08:01Z</time>
      </trkpt>
      <trkpt lat="43.27296" lon="-0.2416">
        <ele>251</ele>
        <time>2024-04-06T03:08:21Z</time>
      </trkpt>
      <trkpt lat="43.27266" lon="-0.24127">
        <ele>251</ele>
        <time>2024-04-06T03:08:27Z</time>
      </trkpt>
      <trkpt lat="43.27196" lon="-0.24056">
        <ele>251</ele>
        <time>2024-04-06T03:08:43Z</time>
      </trkpt>
      <trkpt lat="43.27139" lon="-0.23985">
        <ele>252</ele>
        <time>2024-04-06T03:08:57Z</time>
      </trkpt>
      <trkpt lat="43.27081" lon="-0.23917">
        <ele>253</ele>
        <time>2024-04-06T03:09:10Z</time>
      </trkpt>
      <trkpt lat="43.27053" lon="-0.23869">
        <ele>254</ele>
        <time>2024-04-06T03:09:18Z</time>
      </trkpt>
      <trkpt lat="43.27031" lon="-0.2384">
        <ele>254</ele>
        <time>2024-04-06T03:09:24Z</time>
      </trkpt>
      <trkpt lat="43.26999" lon="-0.23807">
        <ele>254</ele>
        <time>2024-04-06T03:09:31Z</time>
      </trkpt>
      <trkpt lat="43.26988" lon="-0.23784">
        <ele>254</ele>
        <time>2024-04-06T03:09:34Z</time>
      </trkpt>
      <trkpt lat="43.26966" lon="-0.23707">
        <ele>254</ele>
        <time>2024-04-06T03:09:45Z</time>
      </trkpt>
      <trkpt lat="43.26957" lon="-0.23699">
        <ele>254</ele>
        <time>2024-04-06T03:09:47Z</time>
      </trkpt>
      <trkpt lat="43.26975" lon="-0.23619">
        <ele>254</ele>
        <time>2024-04-06T03:09:58Z</time>
      </trkpt>
      <trkpt lat="43.26982" lon="-0.2355">
        <ele>255</ele>
        <time>2024-04-06T03:10:07Z</time>
      </trkpt>
      <trkpt lat="43.2697" lon="-0.2337">
        <ele>257</ele>
        <time>2024-04-06T03:10:30Z</time>
      </trkpt>
      <trkpt lat="43.26952" lon="-0.23256">
        <ele>257</ele>
        <time>2024-04-06T03:10:45Z</time>
      </trkpt>
      <trkpt lat="43.26942" lon="-0.23066">
        <ele>258</ele>
        <time>2024-04-06T03:11:10Z</time>
      </trkpt>
      <trkpt lat="43.26945" lon="-0.23017">
        <ele>258</ele>
        <time>2024-04-06T03:11:16Z</time>
      </trkpt>
      <trkpt lat="43.26965" lon="-0.22891">
        <ele>260</ele>
        <time>2024-04-06T03:11:33Z</time>
      </trkpt>
      <trkpt lat="43.26975" lon="-0.22801">
        <ele>265</ele>
        <time>2024-04-06T03:11:45Z</time>
      </trkpt>
      <trkpt lat="43.2698" lon="-0.22745">
        <ele>267</ele>
        <time>2024-04-06T03:11:52Z</time>
      </trkpt>
      <trkpt lat="43.26986" lon="-0.22551">
        <ele>262</ele>
        <time>2024-04-06T03:12:17Z</time>
      </trkpt>
      <trkpt lat="43.26989" lon="-0.22526">
        <ele>262</ele>
        <time>2024-04-06T03:12:21Z</time>
      </trkpt>
      <trkpt lat="43.27" lon="-0.22478">
        <ele>262</ele>
        <time>2024-04-06T03:12:27Z</time>
      </trkpt>
      <trkpt lat="43.27001" lon="-0.22455">
        <ele>262</ele>
        <time>2024-04-06T03:12:30Z</time>
      </trkpt>
      <trkpt lat="43.26994" lon="-0.22427">
        <ele>262</ele>
        <time>2024-04-06T03:12:34Z</time>
      </trkpt>
      <trkpt lat="43.26977" lon="-0.22374">
        <ele>261</ele>
        <time>2024-04-06T03:12:41Z</time>
      </trkpt>
      <trkpt lat="43.26961" lon="-0.22347">
        <ele>261</ele>
        <time>2024-04-06T03:12:46Z</time>
      </trkpt>
      <trkpt lat="43.26906" lon="-0.22266">
        <ele>260</ele>
        <time>2024-04-06T03:13:00Z</time>
      </trkpt>
      <trkpt lat="43.26877" lon="-0.22218">
        <ele>261</ele>
        <time>2024-04-06T03:13:08Z</time>
      </trkpt>
      <trkpt lat="43.26849" lon="-0.22163">
        <ele>261</ele>
        <time>2024-04-06T03:13:17Z</time>
      </trkpt>
      <trkpt lat="43.26827" lon="-0.22109">
        <ele>262</ele>
        <time>2024-04-06T03:13:25Z</time>
      </trkpt>
      <trkpt lat="43.26789" lon="-0.21975">
        <ele>264</ele>
        <time>2024-04-06T03:13:44Z</time>
      </trkpt>
      <trkpt lat="43.26775" lon="-0.21919">
        <ele>264</ele>
        <time>2024-04-06T03:13:51Z</time>
      </trkpt>
      <trkpt lat="43.26763" lon="-0.21857">
        <ele>265</ele>
        <time>2024-04-06T03:14:00Z</time>
      </trkpt>
      <trkpt lat="43.26764" lon="-0.21681">
        <ele>266</ele>
        <time>2024-04-06T03:14:23Z</time>
      </trkpt>
      <trkpt lat="43.26761" lon="-0.21659">
        <ele>266</ele>
        <time>2024-04-06T03:14:25Z</time>
      </trkpt>
      <trkpt lat="43.26754" lon="-0.21634">
        <ele>266</ele>
        <time>2024-04-06T03:14:29Z</time>
      </trkpt>
      <trkpt lat="43.26731" lon="-0.21567">
        <ele>266</ele>
        <time>2024-04-06T03:14:39Z</time>
      </trkpt>
      <trkpt lat="43.26715" lon="-0.21492">
        <ele>266</ele>
        <time>2024-04-06T03:14:49Z</time>
      </trkpt>
      <trkpt lat="43.26703" lon="-0.21448">
        <ele>267</ele>
        <time>2024-04-06T03:14:55Z</time>
      </trkpt>
      <trkpt lat="43.267" lon="-0.2145">
        <ele>267</ele>
        <time>2024-04-06T03:14:55Z</time>
      </trkpt>
      <trkpt lat="43.26696" lon="-0.21449">
        <ele>267</ele>
        <time>2024-04-06T03:14:56Z</time>
      </trkpt>
      <trkpt lat="43.26693" lon="-0.21446">
        <ele>267</ele>
        <time>2024-04-06T03:14:57Z</time>
      </trkpt>
      <trkpt lat="43.26692" lon="-0.21436">
        <ele>267</ele>
        <time>2024-04-06T03:14:58Z</time>
      </trkpt>
      <trkpt lat="43.26697" lon="-0.2143">
        <ele>267</ele>
        <time>2024-04-06T03:14:59Z</time>
      </trkpt>
      <trkpt lat="43.26664" lon="-0.2128">
        <ele>268</ele>
        <time>2024-04-06T03:15:19Z</time>
      </trkpt>
      <trkpt lat="43.26654" lon="-0.21215">
        <ele>269</ele>
        <time>2024-04-06T03:15:28Z</time>
      </trkpt>
      <trkpt lat="43.2665" lon="-0.21198">
        <ele>269</ele>
        <time>2024-04-06T03:15:30Z</time>
      </trkpt>
      <trkpt lat="43.26632" lon="-0.21145">
        <ele>270</ele>
        <time>2024-04-06T03:15:38Z</time>
      </trkpt>
      <trkpt lat="43.26632" lon="-0.21138">
        <ele>270</ele>
        <time>2024-04-06T03:15:39Z</time>
      </trkpt>
      <trkpt lat="43.26639" lon="-0.21125">
        <ele>270</ele>
        <time>2024-04-06T03:15:41Z</time>
      </trkpt>
      <trkpt lat="43.2668" lon="-0.21093">
        <ele>270</ele>
        <time>2024-04-06T03:15:49Z</time>
      </trkpt>
      <trkpt lat="43.26715" lon="-0.21061">
        <ele>270</ele>
        <time>2024-04-06T03:15:57Z</time>
      </trkpt>
      <trkpt lat="43.26756" lon="-0.21038">
        <ele>271</ele>
        <time>2024-04-06T03:16:05Z</time>
      </trkpt>
      <trkpt lat="43.2679" lon="-0.21033">
        <ele>270</ele>
        <time>2024-04-06T03:16:11Z</time>
      </trkpt>
      <trkpt lat="43.26809" lon="-0.21033">
        <ele>269</ele>
        <time>2024-04-06T03:16:14Z</time>
      </trkpt>
      <trkpt lat="43.2681" lon="-0.21029">
        <ele>269</ele>
        <time>2024-04-06T03:16:15Z</time>
      </trkpt>
      <trkpt lat="43.26815" lon="-0.21025">
        <ele>269</ele>
        <time>2024-04-06T03:16:16Z</time>
      </trkpt>
      <trkpt lat="43.26818" lon="-0.21027">
        <ele>269</ele>
        <time>2024-04-06T03:16:16Z</time>
      </trkpt>
      <trkpt lat="43.2682" lon="-0.2103">
        <ele>269</ele>
        <time>2024-04-06T03:16:17Z</time>
      </trkpt>
      <trkpt lat="43.26828" lon="-0.21026">
        <ele>269</ele>
        <time>2024-04-06T03:16:18Z</time>
      </trkpt>
      <trkpt lat="43.26845" lon="-0.21005">
        <ele>268</ele>
        <time>2024-04-06T03:16:22Z</time>
      </trkpt>
      <trkpt lat="43.26847" lon="-0.20995">
        <ele>268</ele>
        <time>2024-04-06T03:16:24Z</time>
      </trkpt>
      <trkpt lat="43.26848" lon="-0.2098">
        <ele>268</ele>
        <time>2024-04-06T03:16:26Z</time>
      </trkpt>
      <trkpt lat="43.26845" lon="-0.20956">
        <ele>269</ele>
        <time>2024-04-06T03:16:29Z</time>
      </trkpt>
      <trkpt lat="43.26836" lon="-0.20932">
        <ele>269</ele>
        <time>2024-04-06T03:16:32Z</time>
      </trkpt>
      <trkpt lat="43.26774" lon="-0.20835">
        <ele>271</ele>
        <time>2024-04-06T03:16:49Z</time>
      </trkpt>
      <trkpt lat="43.26752" lon="-0.20811">
        <ele>271</ele>
        <time>2024-04-06T03:16:54Z</time>
      </trkpt>
      <trkpt lat="43.26684" lon="-0.20758">
        <ele>272</ele>
        <time>2024-04-06T03:17:08Z</time>
      </trkpt>
      <trkpt lat="43.26614" lon="-0.20668">
        <ele>272</ele>
        <time>2024-04-06T03:17:25Z</time>
      </trkpt>
      <trkpt lat="43.26606" lon="-0.20644">
        <ele>272</ele>
        <time>2024-04-06T03:17:29Z</time>
      </trkpt>
      <trkpt lat="43.26591" lon="-0.20572">
        <ele>272</ele>
        <time>2024-04-06T03:17:38Z</time>
      </trkpt>
      <trkpt lat="43.2652" lon="-0.20274">
        <ele>272</ele>
        <time>2024-04-06T03:18:19Z</time>
      </trkpt>
      <trkpt lat="43.26517" lon="-0.2024">
        <ele>273</ele>
        <time>2024-04-06T03:18:23Z</time>
      </trkpt>
      <trkpt lat="43.26518" lon="-0.20132">
        <ele>275</ele>
        <time>2024-04-06T03:18:37Z</time>
      </trkpt>
      <trkpt lat="43.26516" lon="-0.20113">
        <ele>275</ele>
        <time>2024-04-06T03:18:40Z</time>
      </trkpt>
      <trkpt lat="43.26501" lon="-0.20029">
        <ele>276</ele>
        <time>2024-04-06T03:18:51Z</time>
      </trkpt>
      <trkpt lat="43.26491" lon="-0.19966">
        <ele>276</ele>
        <time>2024-04-06T03:18:59Z</time>
      </trkpt>
      <trkpt lat="43.2648" lon="-0.19937">
        <ele>277</ele>
        <time>2024-04-06T03:19:04Z</time>
      </trkpt>
      <trkpt lat="43.26476" lon="-0.1993">
        <ele>277</ele>
        <time>2024-04-06T03:19:05Z</time>
      </trkpt>
      <trkpt lat="43.26483" lon="-0.19919">
        <ele>277</ele>
        <time>2024-04-06T03:19:07Z</time>
      </trkpt>
      <trkpt lat="43.26512" lon="-0.1989">
        <ele>277</ele>
        <time>2024-04-06T03:19:13Z</time>
      </trkpt>
      <trkpt lat="43.26542" lon="-0.19868">
        <ele>277</ele>
        <time>2024-04-06T03:19:19Z</time>
      </trkpt>
      <trkpt lat="43.26568" lon="-0.19853">
        <ele>277</ele>
        <time>2024-04-06T03:19:24Z</time>
      </trkpt>
      <trkpt lat="43.26643" lon="-0.19798">
        <ele>279</ele>
        <time>2024-04-06T03:19:39Z</time>
      </trkpt>
      <trkpt lat="43.26655" lon="-0.19791">
        <ele>279</ele>
        <time>2024-04-06T03:19:42Z</time>
      </trkpt>
      <trkpt lat="43.26667" lon="-0.19783">
        <ele>280</ele>
        <time>2024-04-06T03:19:44Z</time>
      </trkpt>
      <trkpt lat="43.26679" lon="-0.19772">
        <ele>282</ele>
        <time>2024-04-06T03:19:46Z</time>
      </trkpt>
      <trkpt lat="43.26682" lon="-0.19766">
        <ele>282</ele>
        <time>2024-04-06T03:19:47Z</time>
      </trkpt>
      <trkpt lat="43.26699" lon="-0.19648">
        <ele>289</ele>
        <time>2024-04-06T03:20:03Z</time>
      </trkpt>
      <trkpt lat="43.26708" lon="-0.19604">
        <ele>291</ele>
        <time>2024-04-06T03:20:09Z</time>
      </trkpt>
      <trkpt lat="43.26717" lon="-0.19516">
        <ele>295</ele>
        <time>2024-04-06T03:20:20Z</time>
      </trkpt>
      <trkpt lat="43.26721" lon="-0.19506">
        <ele>295</ele>
        <time>2024-04-06T03:20:22Z</time>
      </trkpt>
      <trkpt lat="43.26803" lon="-0.19426">
        <ele>296</ele>
        <time>2024-04-06T03:20:40Z</time>
      </trkpt>
      <trkpt lat="43.26626" lon="-0.18882">
        <ele>299</ele>
        <time>2024-04-06T03:21:57Z</time>
      </trkpt>
      <trkpt lat="43.26612" lon="-0.18838">
        <ele>299</ele>
        <time>2024-04-06T03:22:03Z</time>
      </trkpt>
      <trkpt lat="43.266" lon="-0.18809">
        <ele>299</ele>
        <time>2024-04-06T03:22:08Z</time>
      </trkpt>
      <trkpt lat="43.26596" lon="-0.18805">
        <ele>299</ele>
        <time>2024-04-06T03:22:08Z</time>
      </trkpt>
      <trkpt lat="43.26592" lon="-0.18802">
        <ele>299</ele>
        <time>2024-04-06T03:22:09Z</time>
      </trkpt>
      <trkpt lat="43.26589" lon="-0.18796">
        <ele>299</ele>
        <time>2024-04-06T03:22:10Z</time>
      </trkpt>
      <trkpt lat="43.26588" lon="-0.1879">
        <ele>299</ele>
        <time>2024-04-06T03:22:11Z</time>
      </trkpt>
      <trkpt lat="43.2659" lon="-0.18784">
        <ele>299</ele>
        <time>2024-04-06T03:22:12Z</time>
      </trkpt>
      <trkpt lat="43.26581" lon="-0.18741">
        <ele>299</ele>
        <time>2024-04-06T03:22:18Z</time>
      </trkpt>
      <trkpt lat="43.2646" lon="-0.18364">
        <ele>302</ele>
        <time>2024-04-06T03:23:11Z</time>
      </trkpt>
      <trkpt lat="43.26437" lon="-0.18296">
        <ele>302</ele>
        <time>2024-04-06T03:23:21Z</time>
      </trkpt>
      <trkpt lat="43.26417" lon="-0.18269">
        <ele>301</ele>
        <time>2024-04-06T03:23:26Z</time>
      </trkpt>
      <trkpt lat="43.26408" lon="-0.18253">
        <ele>301</ele>
        <time>2024-04-06T03:23:28Z</time>
      </trkpt>
      <trkpt lat="43.26401" lon="-0.18249">
        <ele>301</ele>
        <time>2024-04-06T03:23:30Z</time>
      </trkpt>
      <trkpt lat="43.26398" lon="-0.1824">
        <ele>301</ele>
        <time>2024-04-06T03:23:31Z</time>
      </trkpt>
      <trkpt lat="43.264" lon="-0.18231">
        <ele>301</ele>
        <time>2024-04-06T03:23:32Z</time>
      </trkpt>
      <trkpt lat="43.26406" lon="-0.18225">
        <ele>301</ele>
        <time>2024-04-06T03:23:34Z</time>
      </trkpt>
      <trkpt lat="43.26406" lon="-0.18196">
        <ele>301</ele>
        <time>2024-04-06T03:23:37Z</time>
      </trkpt>
      <trkpt lat="43.26239" lon="-0.17521">
        <ele>320</ele>
        <time>2024-04-06T03:25:10Z</time>
      </trkpt>
      <trkpt lat="43.26223" lon="-0.17468">
        <ele>325</ele>
        <time>2024-04-06T03:25:17Z</time>
      </trkpt>
      <trkpt lat="43.26194" lon="-0.174">
        <ele>331</ele>
        <time>2024-04-06T03:25:27Z</time>
      </trkpt>
      <trkpt lat="43.2616" lon="-0.17332">
        <ele>336</ele>
        <time>2024-04-06T03:25:38Z</time>
      </trkpt>
      <trkpt lat="43.26032" lon="-0.17167">
        <ele>345</ele>
        <time>2024-04-06T03:26:09Z</time>
      </trkpt>
      <trkpt lat="43.2599" lon="-0.17103">
        <ele>348</ele>
        <time>2024-04-06T03:26:20Z</time>
      </trkpt>
      <trkpt lat="43.25963" lon="-0.17026">
        <ele>349</ele>
        <time>2024-04-06T03:26:31Z</time>
      </trkpt>
      <trkpt lat="43.25954" lon="-0.16963">
        <ele>350</ele>
        <time>2024-04-06T03:26:40Z</time>
      </trkpt>
      <trkpt lat="43.25958" lon="-0.16889">
        <ele>353</ele>
        <time>2024-04-06T03:26:49Z</time>
      </trkpt>
      <trkpt lat="43.25993" lon="-0.16761">
        <ele>362</ele>
        <time>2024-04-06T03:27:07Z</time>
      </trkpt>
      <trkpt lat="43.25997" lon="-0.16711">
        <ele>364</ele>
        <time>2024-04-06T03:27:14Z</time>
      </trkpt>
      <trkpt lat="43.25993" lon="-0.16665">
        <ele>365</ele>
        <time>2024-04-06T03:27:20Z</time>
      </trkpt>
      <trkpt lat="43.25979" lon="-0.16611">
        <ele>368</ele>
        <time>2024-04-06T03:27:27Z</time>
      </trkpt>
      <trkpt lat="43.25937" lon="-0.16488">
        <ele>374</ele>
        <time>2024-04-06T03:27:45Z</time>
      </trkpt>
      <trkpt lat="43.25923" lon="-0.16421">
        <ele>376</ele>
        <time>2024-04-06T03:27:54Z</time>
      </trkpt>
      <trkpt lat="43.25913" lon="-0.1635">
        <ele>378</ele>
        <time>2024-04-06T03:28:03Z</time>
      </trkpt>
      <trkpt lat="43.25908" lon="-0.16337">
        <ele>379</ele>
        <time>2024-04-06T03:28:05Z</time>
      </trkpt>
      <trkpt lat="43.25899" lon="-0.16273">
        <ele>380</ele>
        <time>2024-04-06T03:28:13Z</time>
      </trkpt>
      <trkpt lat="43.25897" lon="-0.16233">
        <ele>381</ele>
        <time>2024-04-06T03:28:19Z</time>
      </trkpt>
      <trkpt lat="43.259" lon="-0.16199">
        <ele>382</ele>
        <time>2024-04-06T03:28:23Z</time>
      </trkpt>
      <trkpt lat="43.25906" lon="-0.16172">
        <ele>383</ele>
        <time>2024-04-06T03:28:27Z</time>
      </trkpt>
      <trkpt lat="43.25919" lon="-0.16142">
        <ele>384</ele>
        <time>2024-04-06T03:28:31Z</time>
      </trkpt>
      <trkpt lat="43.25926" lon="-0.16137">
        <ele>384</ele>
        <time>2024-04-06T03:28:33Z</time>
      </trkpt>
      <trkpt lat="43.25991" lon="-0.16004">
        <ele>388</ele>
        <time>2024-04-06T03:28:53Z</time>
      </trkpt>
      <trkpt lat="43.25998" lon="-0.1598">
        <ele>388</ele>
        <time>2024-04-06T03:28:57Z</time>
      </trkpt>
      <trkpt lat="43.25999" lon="-0.15957">
        <ele>388</ele>
        <time>2024-04-06T03:29:00Z</time>
      </trkpt>
      <trkpt lat="43.25999" lon="-0.15939">
        <ele>388</ele>
        <time>2024-04-06T03:29:02Z</time>
      </trkpt>
      <trkpt lat="43.25972" lon="-0.15822">
        <ele>388</ele>
        <time>2024-04-06T03:29:18Z</time>
      </trkpt>
      <trkpt lat="43.25463" lon="-0.13724">
        <ele>393</ele>
        <time>2024-04-06T03:34:05Z</time>
      </trkpt>
      <trkpt lat="43.25419" lon="-0.13553">
        <ele>395</ele>
        <time>2024-04-06T03:34:28Z</time>
      </trkpt>
      <trkpt lat="43.25405" lon="-0.13507">
        <ele>395</ele>
        <time>2024-04-06T03:34:34Z</time>
      </trkpt>
      <trkpt lat="43.25388" lon="-0.13466">
        <ele>394</ele>
        <time>2024-04-06T03:34:41Z</time>
      </trkpt>
      <trkpt lat="43.2533" lon="-0.13335">
        <ele>397</ele>
        <time>2024-04-06T03:35:00Z</time>
      </trkpt>
      <trkpt lat="43.25316" lon="-0.13299">
        <ele>398</ele>
        <time>2024-04-06T03:35:06Z</time>
      </trkpt>
      <trkpt lat="43.253" lon="-0.1325">
        <ele>399</ele>
        <time>2024-04-06T03:35:13Z</time>
      </trkpt>
      <trkpt lat="43.25285" lon="-0.13182">
        <ele>399</ele>
        <time>2024-04-06T03:35:22Z</time>
      </trkpt>
      <trkpt lat="43.25272" lon="-0.13104">
        <ele>399</ele>
        <time>2024-04-06T03:35:32Z</time>
      </trkpt>
      <trkpt lat="43.25261" lon="-0.13021">
        <ele>399</ele>
        <time>2024-04-06T03:35:43Z</time>
      </trkpt>
      <trkpt lat="43.25226" lon="-0.12794">
        <ele>397</ele>
        <time>2024-04-06T03:36:13Z</time>
      </trkpt>
      <trkpt lat="43.25205" lon="-0.12669">
        <ele>396</ele>
        <time>2024-04-06T03:36:30Z</time>
      </trkpt>
      <trkpt lat="43.25194" lon="-0.12618">
        <ele>396</ele>
        <time>2024-04-06T03:36:37Z</time>
      </trkpt>
      <trkpt lat="43.24933" lon="-0.11532">
        <ele>400</ele>
        <time>2024-04-06T03:39:05Z</time>
      </trkpt>
      <trkpt lat="43.24922" lon="-0.11484">
        <ele>400</ele>
        <time>2024-04-06T03:39:12Z</time>
      </trkpt>
      <trkpt lat="43.24793" lon="-0.10948">
        <ele>401</ele>
        <time>2024-04-06T03:40:25Z</time>
      </trkpt>
      <trkpt lat="43.24777" lon="-0.10823">
        <ele>403</ele>
        <time>2024-04-06T03:40:41Z</time>
      </trkpt>
      <trkpt lat="43.24777" lon="-0.10706">
        <ele>405</ele>
        <time>2024-04-06T03:40:56Z</time>
      </trkpt>
      <trkpt lat="43.24785" lon="-0.10398">
        <ele>402</ele>
        <time>2024-04-06T03:41:36Z</time>
      </trkpt>
      <trkpt lat="43.24806" lon="-0.09614">
        <ele>408</ele>
        <time>2024-04-06T03:43:18Z</time>
      </trkpt>
      <trkpt lat="43.2483" lon="-0.0851">
        <ele>410</ele>
        <time>2024-04-06T03:45:41Z</time>
      </trkpt>
      <trkpt lat="43.24833" lon="-0.08276">
        <ele>415</ele>
        <time>2024-04-06T03:46:11Z</time>
      </trkpt>
      <trkpt lat="43.24852" lon="-0.07497">
        <ele>415</ele>
        <time>2024-04-06T03:47:52Z</time>
      </trkpt>
      <trkpt lat="43.24875" lon="-0.06413">
        <ele>414</ele>
        <time>2024-04-06T03:50:13Z</time>
      </trkpt>
      <trkpt lat="43.2485" lon="-0.06145">
        <ele>406</ele>
        <time>2024-04-06T03:50:48Z</time>
      </trkpt>
      <trkpt lat="43.24819" lon="-0.05845">
        <ele>410</ele>
        <time>2024-04-06T03:51:27Z</time>
      </trkpt>
      <trkpt lat="43.24803" lon="-0.05765">
        <ele>412</ele>
        <time>2024-04-06T03:51:38Z</time>
      </trkpt>
      <trkpt lat="43.24796" lon="-0.05741">
        <ele>413</ele>
        <time>2024-04-06T03:51:41Z</time>
      </trkpt>
      <trkpt lat="43.24788" lon="-0.05733">
        <ele>413</ele>
        <time>2024-04-06T03:51:43Z</time>
      </trkpt>
      <trkpt lat="43.24784" lon="-0.05717">
        <ele>413</ele>
        <time>2024-04-06T03:51:45Z</time>
      </trkpt>
      <trkpt lat="43.24786" lon="-0.05701">
        <ele>414</ele>
        <time>2024-04-06T03:51:47Z</time>
      </trkpt>
      <trkpt lat="43.24793" lon="-0.0569">
        <ele>414</ele>
        <time>2024-04-06T03:51:49Z</time>
      </trkpt>
      <trkpt lat="43.24796" lon="-0.05668">
        <ele>415</ele>
        <time>2024-04-06T03:51:52Z</time>
      </trkpt>
      <trkpt lat="43.24793" lon="-0.0559">
        <ele>414</ele>
        <time>2024-04-06T03:52:02Z</time>
      </trkpt>
      <trkpt lat="43.24775" lon="-0.05392">
        <ele>413</ele>
        <time>2024-04-06T03:52:28Z</time>
      </trkpt>
      <trkpt lat="43.24499" lon="-0.0268">
        <ele>403</ele>
        <time>2024-04-06T03:58:23Z</time>
      </trkpt>
      <trkpt lat="43.24459" lon="-0.02263">
        <ele>403</ele>
        <time>2024-04-06T03:59:18Z</time>
      </trkpt>
      <trkpt lat="43.24443" lon="-0.02221">
        <ele>401</ele>
        <time>2024-04-06T03:59:24Z</time>
      </trkpt>
      <trkpt lat="43.24432" lon="-0.022">
        <ele>399</ele>
        <time>2024-04-06T03:59:27Z</time>
      </trkpt>
      <trkpt lat="43.24401" lon="-0.02173">
        <ele>397</ele>
        <time>2024-04-06T03:59:34Z</time>
      </trkpt>
      <trkpt lat="43.24385" lon="-0.02163">
        <ele>395</ele>
        <time>2024-04-06T03:59:37Z</time>
      </trkpt>
      <trkpt lat="43.24362" lon="-0.02155">
        <ele>394</ele>
        <time>2024-04-06T03:59:41Z</time>
      </trkpt>
      <trkpt lat="43.24341" lon="-0.02156">
        <ele>393</ele>
        <time>2024-04-06T03:59:45Z</time>
      </trkpt>
      <trkpt lat="43.24312" lon="-0.02163">
        <ele>391</ele>
        <time>2024-04-06T03:59:50Z</time>
      </trkpt>
      <trkpt lat="43.24301" lon="-0.0217">
        <ele>390</ele>
        <time>2024-04-06T03:59:52Z</time>
      </trkpt>
      <trkpt lat="43.24211" lon="-0.02245">
        <ele>390</ele>
        <time>2024-04-06T04:00:11Z</time>
      </trkpt>
      <trkpt lat="43.24103" lon="-0.02326">
        <ele>383</ele>
        <time>2024-04-06T04:00:33Z</time>
      </trkpt>
      <trkpt lat="43.24055" lon="-0.02365">
        <ele>379</ele>
        <time>2024-04-06T04:00:43Z</time>
      </trkpt>
      <trkpt lat="43.24043" lon="-0.0238">
        <ele>379</ele>
        <time>2024-04-06T04:00:46Z</time>
      </trkpt>
      <trkpt lat="43.24033" lon="-0.02395">
        <ele>379</ele>
        <time>2024-04-06T04:00:48Z</time>
      </trkpt>
      <trkpt lat="43.24018" lon="-0.02428">
        <ele>379</ele>
        <time>2024-04-06T04:00:53Z</time>
      </trkpt>
      <trkpt lat="43.23991" lon="-0.02523">
        <ele>383</ele>
        <time>2024-04-06T04:01:06Z</time>
      </trkpt>
      <trkpt lat="43.23981" lon="-0.02547">
        <ele>382</ele>
        <time>2024-04-06T04:01:10Z</time>
      </trkpt>
      <trkpt lat="43.23974" lon="-0.02555">
        <ele>381</ele>
        <time>2024-04-06T04:01:12Z</time>
      </trkpt>
      <trkpt lat="43.23966" lon="-0.02559">
        <ele>380</ele>
        <time>2024-04-06T04:01:13Z</time>
      </trkpt>
      <trkpt lat="43.23958" lon="-0.0256">
        <ele>379</ele>
        <time>2024-04-06T04:01:15Z</time>
      </trkpt>
      <trkpt lat="43.23947" lon="-0.02558">
        <ele>377</ele>
        <time>2024-04-06T04:01:17Z</time>
      </trkpt>
      <trkpt lat="43.23937" lon="-0.02548">
        <ele>374</ele>
        <time>2024-04-06T04:01:19Z</time>
      </trkpt>
      <trkpt lat="43.2393" lon="-0.02538">
        <ele>373</ele>
        <time>2024-04-06T04:01:21Z</time>
      </trkpt>
      <trkpt lat="43.23927" lon="-0.02524">
        <ele>371</ele>
        <time>2024-04-06T04:01:22Z</time>
      </trkpt>
      <trkpt lat="43.23927" lon="-0.02509">
        <ele>370</ele>
        <time>2024-04-06T04:01:24Z</time>
      </trkpt>
      <trkpt lat="43.2393" lon="-0.02489">
        <ele>370</ele>
        <time>2024-04-06T04:01:27Z</time>
      </trkpt>
      <trkpt lat="43.23978" lon="-0.02416">
        <ele>371</ele>
        <time>2024-04-06T04:01:40Z</time>
      </trkpt>
      <trkpt lat="43.23993" lon="-0.02387">
        <ele>369</ele>
        <time>2024-04-06T04:01:44Z</time>
      </trkpt>
      <trkpt lat="43.24091" lon="-0.02158">
        <ele>360</ele>
        <time>2024-04-06T04:02:19Z</time>
      </trkpt>
      <trkpt lat="43.24104" lon="-0.0213">
        <ele>358</ele>
        <time>2024-04-06T04:02:23Z</time>
      </trkpt>
      <trkpt lat="43.24117" lon="-0.02109">
        <ele>357</ele>
        <time>2024-04-06T04:02:27Z</time>
      </trkpt>
      <trkpt lat="43.24239" lon="-0.01922">
        <ele>343</ele>
        <time>2024-04-06T04:02:59Z</time>
      </trkpt>
      <trkpt lat="43.24278" lon="-0.01871">
        <ele>340</ele>
        <time>2024-04-06T04:03:09Z</time>
      </trkpt>
      <trkpt lat="43.24356" lon="-0.01768">
        <ele>332</ele>
        <time>2024-04-06T04:03:28Z</time>
      </trkpt>
      <trkpt lat="43.24365" lon="-0.01752">
        <ele>331</ele>
        <time>2024-04-06T04:03:31Z</time>
      </trkpt>
      <trkpt lat="43.24382" lon="-0.01713">
        <ele>329</ele>
        <time>2024-04-06T04:03:37Z</time>
      </trkpt>
      <trkpt lat="43.24388" lon="-0.01692">
        <ele>327</ele>
        <time>2024-04-06T04:03:40Z</time>
      </trkpt>
      <trkpt lat="43.24391" lon="-0.01663">
        <ele>325</ele>
        <time>2024-04-06T04:03:43Z</time>
      </trkpt>
      <trkpt lat="43.24392" lon="-0.01611">
        <ele>321</ele>
        <time>2024-04-06T04:03:50Z</time>
      </trkpt>
      <trkpt lat="43.24324" lon="-0.00954">
        <ele>316</ele>
        <time>2024-04-06T04:05:16Z</time>
      </trkpt>
      <trkpt lat="43.24322" lon="-0.00935">
        <ele>316</ele>
        <time>2024-04-06T04:05:19Z</time>
      </trkpt>
      <trkpt lat="43.24214" lon="0.00135">
        <ele>313</ele>
        <time>2024-04-06T04:07:39Z</time>
      </trkpt>
      <trkpt lat="43.24212" lon="0.00153">
        <ele>313</ele>
        <time>2024-04-06T04:07:41Z</time>
      </trkpt>
      <trkpt lat="43.24188" lon="0.00382">
        <ele>311</ele>
        <time>2024-04-06T04:08:11Z</time>
      </trkpt>
      <trkpt lat="43.24182" lon="0.00422">
        <ele>312</ele>
        <time>2024-04-06T04:08:16Z</time>
      </trkpt>
      <trkpt lat="43.24171" lon="0.0053">
        <ele>314</ele>
        <time>2024-04-06T04:08:30Z</time>
      </trkpt>
      <trkpt lat="43.24153" lon="0.00729">
        <ele>314</ele>
        <time>2024-04-06T04:08:56Z</time>
      </trkpt>
      <trkpt lat="43.24126" lon="0.01007">
        <ele>314</ele>
        <time>2024-04-06T04:09:33Z</time>
      </trkpt>
      <trkpt lat="43.24114" lon="0.01039">
        <ele>314</ele>
        <time>2024-04-06T04:09:37Z</time>
      </trkpt>
      <trkpt lat="43.24108" lon="0.01043">
        <ele>314</ele>
        <time>2024-04-06T04:09:39Z</time>
      </trkpt>
      <trkpt lat="43.24103" lon="0.01049">
        <ele>314</ele>
        <time>2024-04-06T04:09:40Z</time>
      </trkpt>
      <trkpt lat="43.241" lon="0.01058">
        <ele>314</ele>
        <time>2024-04-06T04:09:41Z</time>
      </trkpt>
      <trkpt lat="43.241" lon="0.01067">
        <ele>314</ele>
        <time>2024-04-06T04:09:42Z</time>
      </trkpt>
      <trkpt lat="43.24102" lon="0.01076">
        <ele>314</ele>
        <time>2024-04-06T04:09:43Z</time>
      </trkpt>
      <trkpt lat="43.24109" lon="0.01085">
        <ele>314</ele>
        <time>2024-04-06T04:09:45Z</time>
      </trkpt>
      <trkpt lat="43.24111" lon="0.011">
        <ele>314</ele>
        <time>2024-04-06T04:09:47Z</time>
      </trkpt>
      <trkpt lat="43.24111" lon="0.01119">
        <ele>314</ele>
        <time>2024-04-06T04:09:50Z</time>
      </trkpt>
      <trkpt lat="43.24071" lon="0.01541">
        <ele>313</ele>
        <time>2024-04-06T04:10:45Z</time>
      </trkpt>
      <trkpt lat="43.24066" lon="0.01559">
        <ele>314</ele>
        <time>2024-04-06T04:10:47Z</time>
      </trkpt>
      <trkpt lat="43.24048" lon="0.01682">
        <ele>314</ele>
        <time>2024-04-06T04:11:03Z</time>
      </trkpt>
      <trkpt lat="43.24036" lon="0.01751">
        <ele>313</ele>
        <time>2024-04-06T04:11:13Z</time>
      </trkpt>
      <trkpt lat="43.2403" lon="0.01771">
        <ele>313</ele>
        <time>2024-04-06T04:11:15Z</time>
      </trkpt>
      <trkpt lat="43.24018" lon="0.01785">
        <ele>314</ele>
        <time>2024-04-06T04:11:18Z</time>
      </trkpt>
      <trkpt lat="43.24011" lon="0.01784">
        <ele>314</ele>
        <time>2024-04-06T04:11:20Z</time>
      </trkpt>
      <trkpt lat="43.24004" lon="0.01789">
        <ele>314</ele>
        <time>2024-04-06T04:11:21Z</time>
      </trkpt>
      <trkpt lat="43.24001" lon="0.01795">
        <ele>314</ele>
        <time>2024-04-06T04:11:22Z</time>
      </trkpt>
      <trkpt lat="43.24" lon="0.01801">
        <ele>314</ele>
        <time>2024-04-06T04:11:23Z</time>
      </trkpt>
      <trkpt lat="43.24" lon="0.01811">
        <ele>314</ele>
        <time>2024-04-06T04:11:24Z</time>
      </trkpt>
      <trkpt lat="43.24005" lon="0.01819">
        <ele>314</ele>
        <time>2024-04-06T04:11:25Z</time>
      </trkpt>
      <trkpt lat="43.2402" lon="0.01861">
        <ele>314</ele>
        <time>2024-04-06T04:11:31Z</time>
      </trkpt>
      <trkpt lat="43.24025" lon="0.01882">
        <ele>314</ele>
        <time>2024-04-06T04:11:34Z</time>
      </trkpt>
      <trkpt lat="43.24025" lon="0.01938">
        <ele>314</ele>
        <time>2024-04-06T04:11:42Z</time>
      </trkpt>
      <trkpt lat="43.24016" lon="0.02033">
        <ele>314</ele>
        <time>2024-04-06T04:11:54Z</time>
      </trkpt>
      <trkpt lat="43.24017" lon="0.02063">
        <ele>314</ele>
        <time>2024-04-06T04:11:58Z</time>
      </trkpt>
      <trkpt lat="43.23989" lon="0.0236">
        <ele>311</ele>
        <time>2024-04-06T04:12:37Z</time>
      </trkpt>
      <trkpt lat="43.23934" lon="0.02877">
        <ele>310</ele>
        <time>2024-04-06T04:13:44Z</time>
      </trkpt>
      <trkpt lat="43.23906" lon="0.03165">
        <ele>312</ele>
        <time>2024-04-06T04:14:22Z</time>
      </trkpt>
      <trkpt lat="43.23799" lon="0.0413">
        <ele>303</ele>
        <time>2024-04-06T04:16:29Z</time>
      </trkpt>
      <trkpt lat="43.23798" lon="0.04141">
        <ele>303</ele>
        <time>2024-04-06T04:16:30Z</time>
      </trkpt>
      <trkpt lat="43.23787" lon="0.04168">
        <ele>303</ele>
        <time>2024-04-06T04:16:34Z</time>
      </trkpt>
      <trkpt lat="43.23782" lon="0.04172">
        <ele>303</ele>
        <time>2024-04-06T04:16:35Z</time>
      </trkpt>
      <trkpt lat="43.23774" lon="0.04185">
        <ele>303</ele>
        <time>2024-04-06T04:16:37Z</time>
      </trkpt>
      <trkpt lat="43.23772" lon="0.042">
        <ele>303</ele>
        <time>2024-04-06T04:16:39Z</time>
      </trkpt>
      <trkpt lat="43.23776" lon="0.04215">
        <ele>303</ele>
        <time>2024-04-06T04:16:41Z</time>
      </trkpt>
      <trkpt lat="43.23781" lon="0.04222">
        <ele>303</ele>
        <time>2024-04-06T04:16:43Z</time>
      </trkpt>
      <trkpt lat="43.23787" lon="0.04226">
        <ele>303</ele>
        <time>2024-04-06T04:16:44Z</time>
      </trkpt>
      <trkpt lat="43.2379" lon="0.04236">
        <ele>303</ele>
        <time>2024-04-06T04:16:45Z</time>
      </trkpt>
      <trkpt lat="43.23793" lon="0.04254">
        <ele>302</ele>
        <time>2024-04-06T04:16:48Z</time>
      </trkpt>
      <trkpt lat="43.23781" lon="0.04319">
        <ele>302</ele>
        <time>2024-04-06T04:16:56Z</time>
      </trkpt>
      <trkpt lat="43.23754" lon="0.04559">
        <ele>299</ele>
        <time>2024-04-06T04:17:28Z</time>
      </trkpt>
      <trkpt lat="43.23749" lon="0.04559">
        <ele>299</ele>
        <time>2024-04-06T04:17:29Z</time>
      </trkpt>
      <trkpt lat="43.23741" lon="0.04565">
        <ele>300</ele>
        <time>2024-04-06T04:17:30Z</time>
      </trkpt>
      <trkpt lat="43.23738" lon="0.04577">
        <ele>299</ele>
        <time>2024-04-06T04:17:32Z</time>
      </trkpt>
      <trkpt lat="43.2374" lon="0.04588">
        <ele>299</ele>
        <time>2024-04-06T04:17:33Z</time>
      </trkpt>
      <trkpt lat="43.23743" lon="0.04593">
        <ele>299</ele>
        <time>2024-04-06T04:17:34Z</time>
      </trkpt>
      <trkpt lat="43.23747" lon="0.04617">
        <ele>299</ele>
        <time>2024-04-06T04:17:37Z</time>
      </trkpt>
      <trkpt lat="43.23725" lon="0.04834">
        <ele>300</ele>
        <time>2024-04-06T04:18:06Z</time>
      </trkpt>
      <trkpt lat="43.2372" lon="0.04872">
        <ele>300</ele>
        <time>2024-04-06T04:18:11Z</time>
      </trkpt>
      <trkpt lat="43.23675" lon="0.05334">
        <ele>303</ele>
        <time>2024-04-06T04:19:11Z</time>
      </trkpt>
      <trkpt lat="43.23659" lon="0.05473">
        <ele>304</ele>
        <time>2024-04-06T04:19:29Z</time>
      </trkpt>
      <trkpt lat="43.23652" lon="0.05508">
        <ele>304</ele>
        <time>2024-04-06T04:19:34Z</time>
      </trkpt>
      <trkpt lat="43.23655" lon="0.05524">
        <ele>304</ele>
        <time>2024-04-06T04:19:36Z</time>
      </trkpt>
      <trkpt lat="43.23653" lon="0.05535">
        <ele>304</ele>
        <time>2024-04-06T04:19:38Z</time>
      </trkpt>
      <trkpt lat="43.23647" lon="0.05602">
        <ele>305</ele>
        <time>2024-04-06T04:19:46Z</time>
      </trkpt>
      <trkpt lat="43.23649" lon="0.05619">
        <ele>305</ele>
        <time>2024-04-06T04:19:49Z</time>
      </trkpt>
      <trkpt lat="43.23645" lon="0.05659">
        <ele>306</ele>
        <time>2024-04-06T04:19:54Z</time>
      </trkpt>
      <trkpt lat="43.23624" lon="0.0586">
        <ele>304</ele>
        <time>2024-04-06T04:20:20Z</time>
      </trkpt>
      <trkpt lat="43.2357" lon="0.06404">
        <ele>307</ele>
        <time>2024-04-06T04:21:31Z</time>
      </trkpt>
      <trkpt lat="43.23565" lon="0.06417">
        <ele>307</ele>
        <time>2024-04-06T04:21:33Z</time>
      </trkpt>
      <trkpt lat="43.23558" lon="0.06525">
        <ele>308</ele>
        <time>2024-04-06T04:21:47Z</time>
      </trkpt>
      <trkpt lat="43.23531" lon="0.06732">
        <ele>311</ele>
        <time>2024-04-06T04:22:15Z</time>
      </trkpt>
      <trkpt lat="43.23525" lon="0.06785">
        <ele>312</ele>
        <time>2024-04-06T04:22:22Z</time>
      </trkpt>
      <trkpt lat="43.23518" lon="0.06872">
        <ele>313</ele>
        <time>2024-04-06T04:22:33Z</time>
      </trkpt>
      <trkpt lat="43.23506" lon="0.06937">
        <ele>313</ele>
        <time>2024-04-06T04:22:42Z</time>
      </trkpt>
      <trkpt lat="43.23492" lon="0.07118">
        <ele>312</ele>
        <time>2024-04-06T04:23:05Z</time>
      </trkpt>
      <trkpt lat="43.23486" lon="0.07153">
        <ele>312</ele>
        <time>2024-04-06T04:23:10Z</time>
      </trkpt>
      <trkpt lat="43.2348" lon="0.07175">
        <ele>312</ele>
        <time>2024-04-06T04:23:13Z</time>
      </trkpt>
      <trkpt lat="43.23456" lon="0.07221">
        <ele>313</ele>
        <time>2024-04-06T04:23:20Z</time>
      </trkpt>
      <trkpt lat="43.23411" lon="0.07275">
        <ele>316</ele>
        <time>2024-04-06T04:23:31Z</time>
      </trkpt>
      <trkpt lat="43.23408" lon="0.07282">
        <ele>316</ele>
        <time>2024-04-06T04:23:32Z</time>
      </trkpt>
      <trkpt lat="43.23383" lon="0.07306">
        <ele>316</ele>
        <time>2024-04-06T04:23:37Z</time>
      </trkpt>
      <trkpt lat="43.23367" lon="0.07318">
        <ele>317</ele>
        <time>2024-04-06T04:23:41Z</time>
      </trkpt>
      <trkpt lat="43.23335" lon="0.07313">
        <ele>317</ele>
        <time>2024-04-06T04:23:46Z</time>
      </trkpt>
      <trkpt lat="43.23314" lon="0.07312">
        <ele>317</ele>
        <time>2024-04-06T04:23:50Z</time>
      </trkpt>
      <trkpt lat="43.23299" lon="0.07316">
        <ele>318</ele>
        <time>2024-04-06T04:23:53Z</time>
      </trkpt>
      <trkpt lat="43.23286" lon="0.07324">
        <ele>318</ele>
        <time>2024-04-06T04:23:55Z</time>
      </trkpt>
      <trkpt lat="43.23274" lon="0.07337">
        <ele>318</ele>
        <time>2024-04-06T04:23:58Z</time>
      </trkpt>
      <trkpt lat="43.23264" lon="0.07373">
        <ele>318</ele>
        <time>2024-04-06T04:24:03Z</time>
      </trkpt>
      <trkpt lat="43.23262" lon="0.07388">
        <ele>317</ele>
        <time>2024-04-06T04:24:05Z</time>
      </trkpt>
      <trkpt lat="43.23246" lon="0.0742">
        <ele>317</ele>
        <time>2024-04-06T04:24:10Z</time>
      </trkpt>
      <trkpt lat="43.2321" lon="0.07519">
        <ele>317</ele>
        <time>2024-04-06T04:24:24Z</time>
      </trkpt>
      <trkpt lat="43.23199" lon="0.07559">
        <ele>317</ele>
        <time>2024-04-06T04:24:30Z</time>
      </trkpt>
      <trkpt lat="43.23192" lon="0.07592">
        <ele>318</ele>
        <time>2024-04-06T04:24:34Z</time>
      </trkpt>
      <trkpt lat="43.23186" lon="0.07628">
        <ele>318</ele>
        <time>2024-04-06T04:24:39Z</time>
      </trkpt>
      <trkpt lat="43.23184" lon="0.07659">
        <ele>318</ele>
        <time>2024-04-06T04:24:43Z</time>
      </trkpt>
      <trkpt lat="43.23185" lon="0.07678">
        <ele>318</ele>
        <time>2024-04-06T04:24:46Z</time>
      </trkpt>
      <trkpt lat="43.2319" lon="0.07707">
        <ele>318</ele>
        <time>2024-04-06T04:24:50Z</time>
      </trkpt>
      <trkpt lat="43.23204" lon="0.07757">
        <ele>317</ele>
        <time>2024-04-06T04:24:57Z</time>
      </trkpt>
      <trkpt lat="43.23208" lon="0.07784">
        <ele>317</ele>
        <time>2024-04-06T04:25:00Z</time>
      </trkpt>
      <trkpt lat="43.2321" lon="0.07829">
        <ele>317</ele>
        <time>2024-04-06T04:25:06Z</time>
      </trkpt>
      <trkpt lat="43.23212" lon="0.07836">
        <ele>317</ele>
        <time>2024-04-06T04:25:07Z</time>
      </trkpt>
      <trkpt lat="43.2321" lon="0.07843">
        <ele>317</ele>
        <time>2024-04-06T04:25:08Z</time>
      </trkpt>
      <trkpt lat="43.2319" lon="0.08075">
        <ele>318</ele>
        <time>2024-04-06T04:25:38Z</time>
      </trkpt>
      <trkpt lat="43.23187" lon="0.08084">
        <ele>318</ele>
        <time>2024-04-06T04:25:39Z</time>
      </trkpt>
      <trkpt lat="43.23182" lon="0.08112">
        <ele>318</ele>
        <time>2024-04-06T04:25:43Z</time>
      </trkpt>
      <trkpt lat="43.23178" lon="0.0816">
        <ele>317</ele>
        <time>2024-04-06T04:25:49Z</time>
      </trkpt>
      <trkpt lat="43.23159" lon="0.0827">
        <ele>317</ele>
        <time>2024-04-06T04:26:04Z</time>
      </trkpt>
      <trkpt lat="43.23142" lon="0.08367">
        <ele>315</ele>
        <time>2024-04-06T04:26:17Z</time>
      </trkpt>
      <trkpt lat="43.23138" lon="0.08403">
        <ele>315</ele>
        <time>2024-04-06T04:26:22Z</time>
      </trkpt>
      <trkpt lat="43.23154" lon="0.08474">
        <ele>317</ele>
        <time>2024-04-06T04:26:31Z</time>
      </trkpt>
      <trkpt lat="43.23219" lon="0.08755">
        <ele>315</ele>
        <time>2024-04-06T04:27:10Z</time>
      </trkpt>
      <trkpt lat="43.2322" lon="0.08759">
        <ele>315</ele>
        <time>2024-04-06T04:27:10Z</time>
      </trkpt>
      <trkpt lat="43.23262" lon="0.08941">
        <ele>316</ele>
        <time>2024-04-06T04:27:35Z</time>
      </trkpt>
      <trkpt lat="43.2328" lon="0.09016">
        <ele>316</ele>
        <time>2024-04-06T04:27:45Z</time>
      </trkpt>
      <trkpt lat="43.23288" lon="0.09051">
        <ele>316</ele>
        <time>2024-04-06T04:27:50Z</time>
      </trkpt>
      <trkpt lat="43.23286" lon="0.09052">
        <ele>316</ele>
        <time>2024-04-06T04:27:50Z</time>
      </trkpt>
      <trkpt lat="43.23281" lon="0.0906">
        <ele>316</ele>
        <time>2024-04-06T04:27:52Z</time>
      </trkpt>
      <trkpt lat="43.23265" lon="0.09072">
        <ele>315</ele>
        <time>2024-04-06T04:27:55Z</time>
      </trkpt>
      <trkpt lat="43.23239" lon="0.09085">
        <ele>315</ele>
        <time>2024-04-06T04:28:00Z</time>
      </trkpt>
      <trkpt lat="43.23231" lon="0.09094">
        <ele>315</ele>
        <time>2024-04-06T04:28:02Z</time>
      </trkpt>
      <trkpt lat="43.2322" lon="0.09096">
        <ele>314</ele>
        <time>2024-04-06T04:28:04Z</time>
      </trkpt>
      <trkpt lat="43.23191" lon="0.09117">
        <ele>314</ele>
        <time>2024-04-06T04:28:09Z</time>
      </trkpt>
      <trkpt lat="43.23046" lon="0.09204">
        <ele>317</ele>
        <time>2024-04-06T04:28:38Z</time>
      </trkpt>
      <trkpt lat="43.23002" lon="0.09232">
        <ele>317</ele>
        <time>2024-04-06T04:28:46Z</time>
      </trkpt>
      <trkpt lat="43.22878" lon="0.09305">
        <ele>319</ele>
        <time>2024-04-06T04:29:10Z</time>
      </trkpt>
      <trkpt lat="43.2277" lon="0.09344">
        <ele>319</ele>
        <time>2024-04-06T04:29:30Z</time>
      </trkpt>
      <trkpt lat="43.22698" lon="0.09373">
        <ele>320</ele>
        <time>2024-04-06T04:29:44Z</time>
      </trkpt>
      <trkpt lat="43.22658" lon="0.09384">
        <ele>320</ele>
        <time>2024-04-06T04:29:51Z</time>
      </trkpt>
      <trkpt lat="43.2242" lon="0.09413">
        <ele>323</ele>
        <time>2024-04-06T04:30:33Z</time>
      </trkpt>
      <trkpt lat="43.224" lon="0.09422">
        <ele>323</ele>
        <time>2024-04-06T04:30:37Z</time>
      </trkpt>
      <trkpt lat="43.22397" lon="0.09415">
        <ele>323</ele>
        <time>2024-04-06T04:30:38Z</time>
      </trkpt>
      <trkpt lat="43.22394" lon="0.09411">
        <ele>323</ele>
        <time>2024-04-06T04:30:39Z</time>
      </trkpt>
      <trkpt lat="43.22387" lon="0.09409">
        <ele>323</ele>
        <time>2024-04-06T04:30:40Z</time>
      </trkpt>
      <trkpt lat="43.2238" lon="0.09412">
        <ele>323</ele>
        <time>2024-04-06T04:30:41Z</time>
      </trkpt>
      <trkpt lat="43.22375" lon="0.09422">
        <ele>323</ele>
        <time>2024-04-06T04:30:43Z</time>
      </trkpt>
      <trkpt lat="43.22375" lon="0.0943">
        <ele>323</ele>
        <time>2024-04-06T04:30:44Z</time>
      </trkpt>
      <trkpt lat="43.22377" lon="0.09437">
        <ele>323</ele>
        <time>2024-04-06T04:30:45Z</time>
      </trkpt>
      <trkpt lat="43.22382" lon="0.09443">
        <ele>324</ele>
        <time>2024-04-06T04:30:46Z</time>
      </trkpt>
      <trkpt lat="43.22389" lon="0.09461">
        <ele>324</ele>
        <time>2024-04-06T04:30:49Z</time>
      </trkpt>
      <trkpt lat="43.22394" lon="0.0948">
        <ele>324</ele>
        <time>2024-04-06T04:30:51Z</time>
      </trkpt>
      <trkpt lat="43.22398" lon="0.09874">
        <ele>326</ele>
        <time>2024-04-06T04:31:43Z</time>
      </trkpt>
      <trkpt lat="43.22397" lon="0.10169">
        <ele>327</ele>
        <time>2024-04-06T04:32:21Z</time>
      </trkpt>
      <trkpt lat="43.22398" lon="0.1018">
        <ele>327</ele>
        <time>2024-04-06T04:32:22Z</time>
      </trkpt>
      <trkpt lat="43.22401" lon="0.1019">
        <ele>327</ele>
        <time>2024-04-06T04:32:24Z</time>
      </trkpt>
      <trkpt lat="43.22392" lon="0.10194">
        <ele>327</ele>
        <time>2024-04-06T04:32:25Z</time>
      </trkpt>
      <trkpt lat="43.22388" lon="0.10199">
        <ele>327</ele>
        <time>2024-04-06T04:32:26Z</time>
      </trkpt>
      <trkpt lat="43.22385" lon="0.10197">
        <ele>327</ele>
        <time>2024-04-06T04:32:27Z</time>
      </trkpt>
      <trkpt lat="43.22349" lon="0.10234">
        <ele>326</ele>
        <time>2024-04-06T04:32:35Z</time>
      </trkpt>
      <trkpt lat="43.22036" lon="0.10575">
        <ele>329</ele>
        <time>2024-04-06T04:33:46Z</time>
      </trkpt>
      <trkpt lat="43.22013" lon="0.10573">
        <ele>329</ele>
        <time>2024-04-06T04:33:50Z</time>
      </trkpt>
      <trkpt lat="43.21997" lon="0.10575">
        <ele>329</ele>
        <time>2024-04-06T04:33:53Z</time>
      </trkpt>
      <trkpt lat="43.21992" lon="0.10585">
        <ele>329</ele>
        <time>2024-04-06T04:33:54Z</time>
      </trkpt>
      <trkpt lat="43.21998" lon="0.10591">
        <ele>329</ele>
        <time>2024-04-06T04:33:56Z</time>
      </trkpt>
      <trkpt lat="43.21994" lon="0.10601">
        <ele>329</ele>
        <time>2024-04-06T04:33:57Z</time>
      </trkpt>
      <trkpt lat="43.21992" lon="0.10609">
        <ele>329</ele>
        <time>2024-04-06T04:33:58Z</time>
      </trkpt>
      <trkpt lat="43.21993" lon="0.10625">
        <ele>330</ele>
        <time>2024-04-06T04:34:00Z</time>
      </trkpt>
      <trkpt lat="43.21983" lon="0.10649">
        <ele>330</ele>
        <time>2024-04-06T04:34:04Z</time>
      </trkpt>
      <trkpt lat="43.21964" lon="0.10685">
        <ele>330</ele>
        <time>2024-04-06T04:34:10Z</time>
      </trkpt>
      <trkpt lat="43.21905" lon="0.10768">
        <ele>331</ele>
        <time>2024-04-06T04:34:25Z</time>
      </trkpt>
      <trkpt lat="43.21836" lon="0.10846">
        <ele>332</ele>
        <time>2024-04-06T04:34:41Z</time>
      </trkpt>
      <trkpt lat="43.21805" lon="0.10882">
        <ele>333</ele>
        <time>2024-04-06T04:34:48Z</time>
      </trkpt>
      <trkpt lat="43.21691" lon="0.11005">
        <ele>335</ele>
        <time>2024-04-06T04:35:14Z</time>
      </trkpt>
      <trkpt lat="43.2163" lon="0.11071">
        <ele>336</ele>
        <time>2024-04-06T04:35:28Z</time>
      </trkpt>
      <trkpt lat="43.21572" lon="0.11129">
        <ele>336</ele>
        <time>2024-04-06T04:35:40Z</time>
      </trkpt>
      <trkpt lat="43.2148" lon="0.112">
        <ele>336</ele>
        <time>2024-04-06T04:35:59Z</time>
      </trkpt>
      <trkpt lat="43.21453" lon="0.11226">
        <ele>337</ele>
        <time>2024-04-06T04:36:05Z</time>
      </trkpt>
      <trkpt lat="43.21405" lon="0.11276">
        <ele>338</ele>
        <time>2024-04-06T04:36:16Z</time>
      </trkpt>
      <trkpt lat="43.21355" lon="0.11316">
        <ele>339</ele>
        <time>2024-04-06T04:36:26Z</time>
      </trkpt>
      <trkpt lat="43.21344" lon="0.11308">
        <ele>339</ele>
        <time>2024-04-06T04:36:28Z</time>
      </trkpt>
      <trkpt lat="43.2133" lon="0.11307">
        <ele>339</ele>
        <time>2024-04-06T04:36:31Z</time>
      </trkpt>
      <trkpt lat="43.21323" lon="0.11311">
        <ele>339</ele>
        <time>2024-04-06T04:36:32Z</time>
      </trkpt>
      <trkpt lat="43.21317" lon="0.11318">
        <ele>339</ele>
        <time>2024-04-06T04:36:34Z</time>
      </trkpt>
      <trkpt lat="43.21312" lon="0.11328">
        <ele>339</ele>
        <time>2024-04-06T04:36:35Z</time>
      </trkpt>
      <trkpt lat="43.2131" lon="0.11344">
        <ele>339</ele>
        <time>2024-04-06T04:36:37Z</time>
      </trkpt>
      <trkpt lat="43.21312" lon="0.11357">
        <ele>339</ele>
        <time>2024-04-06T04:36:39Z</time>
      </trkpt>
      <trkpt lat="43.21276" lon="0.11417">
        <ele>338</ele>
        <time>2024-04-06T04:36:49Z</time>
      </trkpt>
      <trkpt lat="43.21137" lon="0.11564">
        <ele>341</ele>
        <time>2024-04-06T04:37:20Z</time>
      </trkpt>
      <trkpt lat="43.20927" lon="0.11796">
        <ele>345</ele>
        <time>2024-04-06T04:38:08Z</time>
      </trkpt>
      <trkpt lat="43.2072" lon="0.12019">
        <ele>348</ele>
        <time>2024-04-06T04:38:55Z</time>
      </trkpt>
      <trkpt lat="43.20456" lon="0.12308">
        <ele>359</ele>
        <time>2024-04-06T04:39:55Z</time>
      </trkpt>
      <trkpt lat="43.20418" lon="0.12353">
        <ele>363</ele>
        <time>2024-04-06T04:40:04Z</time>
      </trkpt>
      <trkpt lat="43.20403" lon="0.12385">
        <ele>365</ele>
        <time>2024-04-06T04:40:09Z</time>
      </trkpt>
      <trkpt lat="43.20394" lon="0.12413">
        <ele>366</ele>
        <time>2024-04-06T04:40:13Z</time>
      </trkpt>
      <trkpt lat="43.2038" lon="0.125">
        <ele>374</ele>
        <time>2024-04-06T04:40:24Z</time>
      </trkpt>
      <trkpt lat="43.20358" lon="0.12643">
        <ele>380</ele>
        <time>2024-04-06T04:40:43Z</time>
      </trkpt>
      <trkpt lat="43.20355" lon="0.12669">
        <ele>381</ele>
        <time>2024-04-06T04:40:47Z</time>
      </trkpt>
      <trkpt lat="43.2036" lon="0.12757">
        <ele>390</ele>
        <time>2024-04-06T04:40:58Z</time>
      </trkpt>
      <trkpt lat="43.20355" lon="0.12788">
        <ele>394</ele>
        <time>2024-04-06T04:41:02Z</time>
      </trkpt>
      <trkpt lat="43.20348" lon="0.12794">
        <ele>394</ele>
        <time>2024-04-06T04:41:04Z</time>
      </trkpt>
      <trkpt lat="43.20341" lon="0.12797">
        <ele>393</ele>
        <time>2024-04-06T04:41:05Z</time>
      </trkpt>
      <trkpt lat="43.20332" lon="0.12795">
        <ele>392</ele>
        <time>2024-04-06T04:41:07Z</time>
      </trkpt>
      <trkpt lat="43.20325" lon="0.12791">
        <ele>392</ele>
        <time>2024-04-06T04:41:08Z</time>
      </trkpt>
      <trkpt lat="43.20307" lon="0.12769">
        <ele>390</ele>
        <time>2024-04-06T04:41:12Z</time>
      </trkpt>
      <trkpt lat="43.20287" lon="0.1275">
        <ele>388</ele>
        <time>2024-04-06T04:41:17Z</time>
      </trkpt>
      <trkpt lat="43.20272" lon="0.12743">
        <ele>388</ele>
        <time>2024-04-06T04:41:20Z</time>
      </trkpt>
      <trkpt lat="43.20254" lon="0.12745">
        <ele>390</ele>
        <time>2024-04-06T04:41:23Z</time>
      </trkpt>
      <trkpt lat="43.20227" lon="0.12765">
        <ele>395</ele>
        <time>2024-04-06T04:41:28Z</time>
      </trkpt>
      <trkpt lat="43.20207" lon="0.12786">
        <ele>399</ele>
        <time>2024-04-06T04:41:33Z</time>
      </trkpt>
      <trkpt lat="43.20161" lon="0.12859">
        <ele>407</ele>
        <time>2024-04-06T04:41:45Z</time>
      </trkpt>
      <trkpt lat="43.20146" lon="0.12868">
        <ele>410</ele>
        <time>2024-04-06T04:41:48Z</time>
      </trkpt>
      <trkpt lat="43.20132" lon="0.12869">
        <ele>412</ele>
        <time>2024-04-06T04:41:51Z</time>
      </trkpt>
      <trkpt lat="43.20119" lon="0.12864">
        <ele>413</ele>
        <time>2024-04-06T04:41:53Z</time>
      </trkpt>
      <trkpt lat="43.20109" lon="0.12854">
        <ele>413</ele>
        <time>2024-04-06T04:41:55Z</time>
      </trkpt>
      <trkpt lat="43.20102" lon="0.12835">
        <ele>411</ele>
        <time>2024-04-06T04:41:58Z</time>
      </trkpt>
      <trkpt lat="43.20101" lon="0.12814">
        <ele>412</ele>
        <time>2024-04-06T04:42:01Z</time>
      </trkpt>
      <trkpt lat="43.20106" lon="0.12795">
        <ele>412</ele>
        <time>2024-04-06T04:42:03Z</time>
      </trkpt>
      <trkpt lat="43.20136" lon="0.12717">
        <ele>409</ele>
        <time>2024-04-06T04:42:15Z</time>
      </trkpt>
      <trkpt lat="43.20143" lon="0.12684">
        <ele>409</ele>
        <time>2024-04-06T04:42:19Z</time>
      </trkpt>
      <trkpt lat="43.20144" lon="0.12668">
        <ele>409</ele>
        <time>2024-04-06T04:42:21Z</time>
      </trkpt>
      <trkpt lat="43.20142" lon="0.1265">
        <ele>409</ele>
        <time>2024-04-06T04:42:24Z</time>
      </trkpt>
      <trkpt lat="43.20139" lon="0.1264">
        <ele>408</ele>
        <time>2024-04-06T04:42:25Z</time>
      </trkpt>
      <trkpt lat="43.2013" lon="0.12621">
        <ele>408</ele>
        <time>2024-04-06T04:42:28Z</time>
      </trkpt>
      <trkpt lat="43.20121" lon="0.12611">
        <ele>408</ele>
        <time>2024-04-06T04:42:30Z</time>
      </trkpt>
      <trkpt lat="43.20111" lon="0.12603">
        <ele>408</ele>
        <time>2024-04-06T04:42:32Z</time>
      </trkpt>
      <trkpt lat="43.20087" lon="0.12594">
        <ele>409</ele>
        <time>2024-04-06T04:42:37Z</time>
      </trkpt>
      <trkpt lat="43.20054" lon="0.12597">
        <ele>410</ele>
        <time>2024-04-06T04:42:43Z</time>
      </trkpt>
      <trkpt lat="43.20011" lon="0.12609">
        <ele>413</ele>
        <time>2024-04-06T04:42:50Z</time>
      </trkpt>
      <trkpt lat="43.19999" lon="0.12617">
        <ele>414</ele>
        <time>2024-04-06T04:42:53Z</time>
      </trkpt>
      <trkpt lat="43.19977" lon="0.12643">
        <ele>412</ele>
        <time>2024-04-06T04:42:58Z</time>
      </trkpt>
      <trkpt lat="43.19971" lon="0.12658">
        <ele>412</ele>
        <time>2024-04-06T04:43:00Z</time>
      </trkpt>
      <trkpt lat="43.19966" lon="0.12676">
        <ele>412</ele>
        <time>2024-04-06T04:43:03Z</time>
      </trkpt>
      <trkpt lat="43.19964" lon="0.1271">
        <ele>413</ele>
        <time>2024-04-06T04:43:07Z</time>
      </trkpt>
      <trkpt lat="43.19966" lon="0.12727">
        <ele>415</ele>
        <time>2024-04-06T04:43:09Z</time>
      </trkpt>
      <trkpt lat="43.19969" lon="0.12745">
        <ele>416</ele>
        <time>2024-04-06T04:43:12Z</time>
      </trkpt>
      <trkpt lat="43.20006" lon="0.12832">
        <ele>423</ele>
        <time>2024-04-06T04:43:25Z</time>
      </trkpt>
      <trkpt lat="43.20061" lon="0.13092">
        <ele>437</ele>
        <time>2024-04-06T04:44:00Z</time>
      </trkpt>
      <trkpt lat="43.20066" lon="0.13147">
        <ele>433</ele>
        <time>2024-04-06T04:44:07Z</time>
      </trkpt>
      <trkpt lat="43.20067" lon="0.13201">
        <ele>430</ele>
        <time>2024-04-06T04:44:14Z</time>
      </trkpt>
      <trkpt lat="43.2006" lon="0.1325">
        <ele>428</ele>
        <time>2024-04-06T04:44:20Z</time>
      </trkpt>
      <trkpt lat="43.19873" lon="0.14233">
        <ele>396</ele>
        <time>2024-04-06T04:46:32Z</time>
      </trkpt>
      <trkpt lat="43.19857" lon="0.1432">
        <ele>401</ele>
        <time>2024-04-06T04:46:44Z</time>
      </trkpt>
      <trkpt lat="43.19831" lon="0.14447">
        <ele>408</ele>
        <time>2024-04-06T04:47:01Z</time>
      </trkpt>
      <trkpt lat="43.19814" lon="0.1457">
        <ele>411</ele>
        <time>2024-04-06T04:47:17Z</time>
      </trkpt>
      <trkpt lat="43.19803" lon="0.14666">
        <ele>409</ele>
        <time>2024-04-06T04:47:30Z</time>
      </trkpt>
      <trkpt lat="43.19726" lon="0.15429">
        <ele>370</ele>
        <time>2024-04-06T04:49:10Z</time>
      </trkpt>
      <trkpt lat="43.19637" lon="0.16332">
        <ele>353</ele>
        <time>2024-04-06T04:51:08Z</time>
      </trkpt>
      <trkpt lat="43.1964" lon="0.16404">
        <ele>355</ele>
        <time>2024-04-06T04:51:17Z</time>
      </trkpt>
      <trkpt lat="43.19652" lon="0.16559">
        <ele>359</ele>
        <time>2024-04-06T04:51:38Z</time>
      </trkpt>
      <trkpt lat="43.19651" lon="0.166">
        <ele>359</ele>
        <time>2024-04-06T04:51:43Z</time>
      </trkpt>
      <trkpt lat="43.19647" lon="0.1664">
        <ele>357</ele>
        <time>2024-04-06T04:51:48Z</time>
      </trkpt>
      <trkpt lat="43.19585" lon="0.16885">
        <ele>357</ele>
        <time>2024-04-06T04:52:22Z</time>
      </trkpt>
      <trkpt lat="43.19573" lon="0.16958">
        <ele>355</ele>
        <time>2024-04-06T04:52:31Z</time>
      </trkpt>
      <trkpt lat="43.19513" lon="0.17575">
        <ele>343</ele>
        <time>2024-04-06T04:53:52Z</time>
      </trkpt>
      <trkpt lat="43.19429" lon="0.18396">
        <ele>327</ele>
        <time>2024-04-06T04:55:40Z</time>
      </trkpt>
      <trkpt lat="43.19413" lon="0.18465">
        <ele>324</ele>
        <time>2024-04-06T04:55:49Z</time>
      </trkpt>
      <trkpt lat="43.19396" lon="0.18525">
        <ele>322</ele>
        <time>2024-04-06T04:55:57Z</time>
      </trkpt>
      <trkpt lat="43.19382" lon="0.18583">
        <ele>318</ele>
        <time>2024-04-06T04:56:05Z</time>
      </trkpt>
      <trkpt lat="43.1938" lon="0.18626">
        <ele>313</ele>
        <time>2024-04-06T04:56:11Z</time>
      </trkpt>
      <trkpt lat="43.19383" lon="0.18659">
        <ele>309</ele>
        <time>2024-04-06T04:56:15Z</time>
      </trkpt>
      <trkpt lat="43.19418" lon="0.18838">
        <ele>297</ele>
        <time>2024-04-06T04:56:39Z</time>
      </trkpt>
      <trkpt lat="43.19425" lon="0.18873">
        <ele>299</ele>
        <time>2024-04-06T04:56:44Z</time>
      </trkpt>
      <trkpt lat="43.19441" lon="0.18948">
        <ele>304</ele>
        <time>2024-04-06T04:56:54Z</time>
      </trkpt>
      <trkpt lat="43.19458" lon="0.19018">
        <ele>311</ele>
        <time>2024-04-06T04:57:04Z</time>
      </trkpt>
      <trkpt lat="43.19467" lon="0.19048">
        <ele>314</ele>
        <time>2024-04-06T04:57:08Z</time>
      </trkpt>
      <trkpt lat="43.1948" lon="0.19074">
        <ele>316</ele>
        <time>2024-04-06T04:57:12Z</time>
      </trkpt>
      <trkpt lat="43.19497" lon="0.19099">
        <ele>318</ele>
        <time>2024-04-06T04:57:16Z</time>
      </trkpt>
      <trkpt lat="43.19515" lon="0.1912">
        <ele>321</ele>
        <time>2024-04-06T04:57:21Z</time>
      </trkpt>
      <trkpt lat="43.19617" lon="0.19195">
        <ele>322</ele>
        <time>2024-04-06T04:57:41Z</time>
      </trkpt>
      <trkpt lat="43.19642" lon="0.1922">
        <ele>324</ele>
        <time>2024-04-06T04:57:47Z</time>
      </trkpt>
      <trkpt lat="43.19667" lon="0.19253">
        <ele>328</ele>
        <time>2024-04-06T04:57:53Z</time>
      </trkpt>
      <trkpt lat="43.19721" lon="0.19313">
        <ele>333</ele>
        <time>2024-04-06T04:58:05Z</time>
      </trkpt>
      <trkpt lat="43.1974" lon="0.19327">
        <ele>334</ele>
        <time>2024-04-06T04:58:09Z</time>
      </trkpt>
      <trkpt lat="43.19816" lon="0.19365">
        <ele>335</ele>
        <time>2024-04-06T04:58:24Z</time>
      </trkpt>
      <trkpt lat="43.19839" lon="0.1938">
        <ele>337</ele>
        <time>2024-04-06T04:58:28Z</time>
      </trkpt>
      <trkpt lat="43.19857" lon="0.19396">
        <ele>338</ele>
        <time>2024-04-06T04:58:32Z</time>
      </trkpt>
      <trkpt lat="43.19906" lon="0.19453">
        <ele>342</ele>
        <time>2024-04-06T04:58:43Z</time>
      </trkpt>
      <trkpt lat="43.19935" lon="0.19478">
        <ele>343</ele>
        <time>2024-04-06T04:58:49Z</time>
      </trkpt>
      <trkpt lat="43.19981" lon="0.1951">
        <ele>345</ele>
        <time>2024-04-06T04:58:59Z</time>
      </trkpt>
      <trkpt lat="43.20006" lon="0.19535">
        <ele>346</ele>
        <time>2024-04-06T04:59:04Z</time>
      </trkpt>
      <trkpt lat="43.20025" lon="0.1956">
        <ele>347</ele>
        <time>2024-04-06T04:59:09Z</time>
      </trkpt>
      <trkpt lat="43.20103" lon="0.19687">
        <ele>346</ele>
        <time>2024-04-06T04:59:30Z</time>
      </trkpt>
      <trkpt lat="43.20139" lon="0.19717">
        <ele>346</ele>
        <time>2024-04-06T04:59:38Z</time>
      </trkpt>
      <trkpt lat="43.20375" lon="0.19864">
        <ele>336</ele>
        <time>2024-04-06T05:00:24Z</time>
      </trkpt>
      <trkpt lat="43.20386" lon="0.19871">
        <ele>335</ele>
        <time>2024-04-06T05:00:26Z</time>
      </trkpt>
      <trkpt lat="43.20538" lon="0.19987">
        <ele>327</ele>
        <time>2024-04-06T05:00:57Z</time>
      </trkpt>
      <trkpt lat="43.20555" lon="0.20005">
        <ele>326</ele>
        <time>2024-04-06T05:01:01Z</time>
      </trkpt>
      <trkpt lat="43.20656" lon="0.20159">
        <ele>318</ele>
        <time>2024-04-06T05:01:28Z</time>
      </trkpt>
      <trkpt lat="43.20712" lon="0.20236">
        <ele>316</ele>
        <time>2024-04-06T05:01:42Z</time>
      </trkpt>
      <trkpt lat="43.20724" lon="0.20249">
        <ele>316</ele>
        <time>2024-04-06T05:01:45Z</time>
      </trkpt>
      <trkpt lat="43.20737" lon="0.2026">
        <ele>316</ele>
        <time>2024-04-06T05:01:47Z</time>
      </trkpt>
      <trkpt lat="43.20773" lon="0.20281">
        <ele>316</ele>
        <time>2024-04-06T05:01:54Z</time>
      </trkpt>
      <trkpt lat="43.20786" lon="0.20294">
        <ele>316</ele>
        <time>2024-04-06T05:01:57Z</time>
      </trkpt>
      <trkpt lat="43.20795" lon="0.20313">
        <ele>316</ele>
        <time>2024-04-06T05:02:00Z</time>
      </trkpt>
      <trkpt lat="43.20797" lon="0.20327">
        <ele>315</ele>
        <time>2024-04-06T05:02:02Z</time>
      </trkpt>
      <trkpt lat="43.208" lon="0.20536">
        <ele>309</ele>
        <time>2024-04-06T05:02:29Z</time>
      </trkpt>
      <trkpt lat="43.20803" lon="0.20703">
        <ele>304</ele>
        <time>2024-04-06T05:02:51Z</time>
      </trkpt>
      <trkpt lat="43.20816" lon="0.21328">
        <ele>295</ele>
        <time>2024-04-06T05:04:12Z</time>
      </trkpt>
      <trkpt lat="43.20814" lon="0.21363">
        <ele>293</ele>
        <time>2024-04-06T05:04:16Z</time>
      </trkpt>
      <trkpt lat="43.20807" lon="0.21428">
        <ele>287</ele>
        <time>2024-04-06T05:04:25Z</time>
      </trkpt>
      <trkpt lat="43.20786" lon="0.21506">
        <ele>283</ele>
        <time>2024-04-06T05:04:36Z</time>
      </trkpt>
      <trkpt lat="43.20773" lon="0.21544">
        <ele>280</ele>
        <time>2024-04-06T05:04:41Z</time>
      </trkpt>
      <trkpt lat="43.20757" lon="0.21583">
        <ele>278</ele>
        <time>2024-04-06T05:04:47Z</time>
      </trkpt>
      <trkpt lat="43.20724" lon="0.21644">
        <ele>280</ele>
        <time>2024-04-06T05:04:57Z</time>
      </trkpt>
      <trkpt lat="43.20701" lon="0.21677">
        <ele>281</ele>
        <time>2024-04-06T05:05:03Z</time>
      </trkpt>
      <trkpt lat="43.20675" lon="0.21709">
        <ele>282</ele>
        <time>2024-04-06T05:05:09Z</time>
      </trkpt>
      <trkpt lat="43.20637" lon="0.21745">
        <ele>284</ele>
        <time>2024-04-06T05:05:17Z</time>
      </trkpt>
      <trkpt lat="43.20466" lon="0.21881">
        <ele>279</ele>
        <time>2024-04-06T05:05:52Z</time>
      </trkpt>
      <trkpt lat="43.2043" lon="0.21907">
        <ele>278</ele>
        <time>2024-04-06T05:05:59Z</time>
      </trkpt>
      <trkpt lat="43.20394" lon="0.21927">
        <ele>278</ele>
        <time>2024-04-06T05:06:06Z</time>
      </trkpt>
      <trkpt lat="43.20304" lon="0.21969">
        <ele>279</ele>
        <time>2024-04-06T05:06:23Z</time>
      </trkpt>
      <trkpt lat="43.2018" lon="0.22027">
        <ele>277</ele>
        <time>2024-04-06T05:06:47Z</time>
      </trkpt>
      <trkpt lat="43.20095" lon="0.2208">
        <ele>278</ele>
        <time>2024-04-06T05:07:03Z</time>
      </trkpt>
      <trkpt lat="43.19744" lon="0.22309">
        <ele>272</ele>
        <time>2024-04-06T05:08:12Z</time>
      </trkpt>
      <trkpt lat="43.19721" lon="0.22327">
        <ele>271</ele>
        <time>2024-04-06T05:08:17Z</time>
      </trkpt>
      <trkpt lat="43.19694" lon="0.22355">
        <ele>270</ele>
        <time>2024-04-06T05:08:23Z</time>
      </trkpt>
      <trkpt lat="43.19585" lon="0.22497">
        <ele>268</ele>
        <time>2024-04-06T05:08:50Z</time>
      </trkpt>
      <trkpt lat="43.19468" lon="0.22654">
        <ele>262</ele>
        <time>2024-04-06T05:09:19Z</time>
      </trkpt>
      <trkpt lat="43.19226" lon="0.22976">
        <ele>260</ele>
        <time>2024-04-06T05:10:19Z</time>
      </trkpt>
      <trkpt lat="43.18988" lon="0.2329">
        <ele>259</ele>
        <time>2024-04-06T05:11:18Z</time>
      </trkpt>
      <trkpt lat="43.18977" lon="0.23304">
        <ele>259</ele>
        <time>2024-04-06T05:11:20Z</time>
      </trkpt>
      <trkpt lat="43.18492" lon="0.23944">
        <ele>262</ele>
        <time>2024-04-06T05:13:20Z</time>
      </trkpt>
      <trkpt lat="43.1841" lon="0.24051">
        <ele>262</ele>
        <time>2024-04-06T05:13:40Z</time>
      </trkpt>
      <trkpt lat="43.18399" lon="0.24068">
        <ele>262</ele>
        <time>2024-04-06T05:13:43Z</time>
      </trkpt>
      <trkpt lat="43.18397" lon="0.24066">
        <ele>262</ele>
        <time>2024-04-06T05:13:44Z</time>
      </trkpt>
      <trkpt lat="43.18392" lon="0.24066">
        <ele>262</ele>
        <time>2024-04-06T05:13:45Z</time>
      </trkpt>
      <trkpt lat="43.18388" lon="0.24071">
        <ele>262</ele>
        <time>2024-04-06T05:13:46Z</time>
      </trkpt>
      <trkpt lat="43.18388" lon="0.24076">
        <ele>262</ele>
        <time>2024-04-06T05:13:46Z</time>
      </trkpt>
      <trkpt lat="43.18391" lon="0.24082">
        <ele>262</ele>
        <time>2024-04-06T05:13:47Z</time>
      </trkpt>
      <trkpt lat="43.18397" lon="0.24083">
        <ele>262</ele>
        <time>2024-04-06T05:13:48Z</time>
      </trkpt>
      <trkpt lat="43.18399" lon="0.24097">
        <ele>262</ele>
        <time>2024-04-06T05:13:50Z</time>
      </trkpt>
      <trkpt lat="43.18409" lon="0.2414">
        <ele>263</ele>
        <time>2024-04-06T05:13:56Z</time>
      </trkpt>
      <trkpt lat="43.18494" lon="0.24518">
        <ele>268</ele>
        <time>2024-04-06T05:14:47Z</time>
      </trkpt>
      <trkpt lat="43.18494" lon="0.24524">
        <ele>268</ele>
        <time>2024-04-06T05:14:48Z</time>
      </trkpt>
      <trkpt lat="43.18489" lon="0.24531">
        <ele>268</ele>
        <time>2024-04-06T05:14:49Z</time>
      </trkpt>
      <trkpt lat="43.18358" lon="0.24627">
        <ele>271</ele>
        <time>2024-04-06T05:15:16Z</time>
      </trkpt>
      <trkpt lat="43.18349" lon="0.24634">
        <ele>271</ele>
        <time>2024-04-06T05:15:18Z</time>
      </trkpt>
      <trkpt lat="43.17127" lon="0.25528">
        <ele>309</ele>
        <time>2024-04-06T05:19:24Z</time>
      </trkpt>
      <trkpt lat="43.17109" lon="0.25545">
        <ele>311</ele>
        <time>2024-04-06T05:19:28Z</time>
      </trkpt>
      <trkpt lat="43.17096" lon="0.25564">
        <ele>313</ele>
        <time>2024-04-06T05:19:31Z</time>
      </trkpt>
      <trkpt lat="43.17088" lon="0.2558">
        <ele>315</ele>
        <time>2024-04-06T05:19:34Z</time>
      </trkpt>
      <trkpt lat="43.16909" lon="0.26091">
        <ele>318</ele>
        <time>2024-04-06T05:20:47Z</time>
      </trkpt>
      <trkpt lat="43.16962" lon="0.26119">
        <ele>320</ele>
        <time>2024-04-06T05:20:57Z</time>
      </trkpt>
      <trkpt lat="43.16993" lon="0.26138">
        <ele>322</ele>
        <time>2024-04-06T05:21:03Z</time>
      </trkpt>
      <trkpt lat="43.17003" lon="0.26139">
        <ele>323</ele>
        <time>2024-04-06T05:21:05Z</time>
      </trkpt>
      <trkpt lat="43.16993" lon="0.26138">
        <ele>322</ele>
        <time>2024-04-06T05:21:07Z</time>
      </trkpt>
      <trkpt lat="43.16962" lon="0.26119">
        <ele>320</ele>
        <time>2024-04-06T05:21:13Z</time>
      </trkpt>
      <trkpt lat="43.16909" lon="0.26091">
        <ele>318</ele>
        <time>2024-04-06T05:21:23Z</time>
      </trkpt>
      <trkpt lat="43.16699" lon="0.26693">
        <ele>319</ele>
        <time>2024-04-06T05:22:50Z</time>
      </trkpt>
      <trkpt lat="43.16665" lon="0.26806">
        <ele>321</ele>
        <time>2024-04-06T05:23:06Z</time>
      </trkpt>
      <trkpt lat="43.16646" lon="0.26858">
        <ele>320</ele>
        <time>2024-04-06T05:23:13Z</time>
      </trkpt>
      <trkpt lat="43.16591" lon="0.27043">
        <ele>328</ele>
        <time>2024-04-06T05:23:39Z</time>
      </trkpt>
      <trkpt lat="43.16576" lon="0.27089">
        <ele>330</ele>
        <time>2024-04-06T05:23:46Z</time>
      </trkpt>
      <trkpt lat="43.16567" lon="0.27107">
        <ele>331</ele>
        <time>2024-04-06T05:23:48Z</time>
      </trkpt>
      <trkpt lat="43.1656" lon="0.27117">
        <ele>332</ele>
        <time>2024-04-06T05:23:50Z</time>
      </trkpt>
      <trkpt lat="43.16553" lon="0.27123">
        <ele>331</ele>
        <time>2024-04-06T05:23:52Z</time>
      </trkpt>
      <trkpt lat="43.16525" lon="0.27137">
        <ele>328</ele>
        <time>2024-04-06T05:23:57Z</time>
      </trkpt>
      <trkpt lat="43.16504" lon="0.27172">
        <ele>326</ele>
        <time>2024-04-06T05:24:03Z</time>
      </trkpt>
      <trkpt lat="43.16464" lon="0.27249">
        <ele>328</ele>
        <time>2024-04-06T05:24:15Z</time>
      </trkpt>
      <trkpt lat="43.16314" lon="0.27573">
        <ele>328</ele>
        <time>2024-04-06T05:25:05Z</time>
      </trkpt>
      <trkpt lat="43.16249" lon="0.27705">
        <ele>325</ele>
        <time>2024-04-06T05:25:26Z</time>
      </trkpt>
      <trkpt lat="43.16185" lon="0.27801">
        <ele>329</ele>
        <time>2024-04-06T05:25:43Z</time>
      </trkpt>
      <trkpt lat="43.16161" lon="0.27849">
        <ele>332</ele>
        <time>2024-04-06T05:25:50Z</time>
      </trkpt>
      <trkpt lat="43.1613" lon="0.27916">
        <ele>341</ele>
        <time>2024-04-06T05:26:00Z</time>
      </trkpt>
      <trkpt lat="43.16121" lon="0.27931">
        <ele>342</ele>
        <time>2024-04-06T05:26:03Z</time>
      </trkpt>
      <trkpt lat="43.16083" lon="0.2802">
        <ele>346</ele>
        <time>2024-04-06T05:26:16Z</time>
      </trkpt>
      <trkpt lat="43.16071" lon="0.28059">
        <ele>348</ele>
        <time>2024-04-06T05:26:22Z</time>
      </trkpt>
      <trkpt lat="43.1607" lon="0.28068">
        <ele>348</ele>
        <time>2024-04-06T05:26:23Z</time>
      </trkpt>
      <trkpt lat="43.16074" lon="0.28107">
        <ele>345</ele>
        <time>2024-04-06T05:26:28Z</time>
      </trkpt>
      <trkpt lat="43.16073" lon="0.28126">
        <ele>344</ele>
        <time>2024-04-06T05:26:31Z</time>
      </trkpt>
      <trkpt lat="43.16071" lon="0.28143">
        <ele>344</ele>
        <time>2024-04-06T05:26:33Z</time>
      </trkpt>
      <trkpt lat="43.16065" lon="0.28162">
        <ele>344</ele>
        <time>2024-04-06T05:26:36Z</time>
      </trkpt>
      <trkpt lat="43.16055" lon="0.28177">
        <ele>345</ele>
        <time>2024-04-06T05:26:38Z</time>
      </trkpt>
      <trkpt lat="43.16037" lon="0.28192">
        <ele>348</ele>
        <time>2024-04-06T05:26:42Z</time>
      </trkpt>
      <trkpt lat="43.16012" lon="0.28219">
        <ele>350</ele>
        <time>2024-04-06T05:26:48Z</time>
      </trkpt>
      <trkpt lat="43.15985" lon="0.28271">
        <ele>351</ele>
        <time>2024-04-06T05:26:56Z</time>
      </trkpt>
      <trkpt lat="43.15946" lon="0.28356">
        <ele>354</ele>
        <time>2024-04-06T05:27:09Z</time>
      </trkpt>
      <trkpt lat="43.15737" lon="0.28694">
        <ele>363</ele>
        <time>2024-04-06T05:28:06Z</time>
      </trkpt>
      <trkpt lat="43.15664" lon="0.28797">
        <ele>366</ele>
        <time>2024-04-06T05:28:25Z</time>
      </trkpt>
      <trkpt lat="43.1548" lon="0.28996">
        <ele>366</ele>
        <time>2024-04-06T05:29:07Z</time>
      </trkpt>
      <trkpt lat="43.15282" lon="0.29201">
        <ele>375</ele>
        <time>2024-04-06T05:29:51Z</time>
      </trkpt>
      <trkpt lat="43.15046" lon="0.29453">
        <ele>384</ele>
        <time>2024-04-06T05:30:44Z</time>
      </trkpt>
      <trkpt lat="43.14993" lon="0.29517">
        <ele>386</ele>
        <time>2024-04-06T05:30:57Z</time>
      </trkpt>
      <trkpt lat="43.14717" lon="0.29913">
        <ele>404</ele>
        <time>2024-04-06T05:32:08Z</time>
      </trkpt>
      <trkpt lat="43.14695" lon="0.29958">
        <ele>406</ele>
        <time>2024-04-06T05:32:15Z</time>
      </trkpt>
      <trkpt lat="43.14675" lon="0.30025">
        <ele>403</ele>
        <time>2024-04-06T05:32:24Z</time>
      </trkpt>
      <trkpt lat="43.14667" lon="0.30047">
        <ele>402</ele>
        <time>2024-04-06T05:32:27Z</time>
      </trkpt>
      <trkpt lat="43.1465" lon="0.30074">
        <ele>404</ele>
        <time>2024-04-06T05:32:32Z</time>
      </trkpt>
      <trkpt lat="43.14545" lon="0.30206">
        <ele>413</ele>
        <time>2024-04-06T05:32:57Z</time>
      </trkpt>
      <trkpt lat="43.14508" lon="0.30255">
        <ele>416</ele>
        <time>2024-04-06T05:33:07Z</time>
      </trkpt>
      <trkpt lat="43.14467" lon="0.30313">
        <ele>418</ele>
        <time>2024-04-06T05:33:17Z</time>
      </trkpt>
      <trkpt lat="43.14429" lon="0.3037">
        <ele>420</ele>
        <time>2024-04-06T05:33:27Z</time>
      </trkpt>
      <trkpt lat="43.14396" lon="0.30425">
        <ele>419</ele>
        <time>2024-04-06T05:33:36Z</time>
      </trkpt>
      <trkpt lat="43.14338" lon="0.30514">
        <ele>422</ele>
        <time>2024-04-06T05:33:52Z</time>
      </trkpt>
      <trkpt lat="43.1429" lon="0.30596">
        <ele>427</ele>
        <time>2024-04-06T05:34:05Z</time>
      </trkpt>
      <trkpt lat="43.14233" lon="0.30721">
        <ele>432</ele>
        <time>2024-04-06T05:34:25Z</time>
      </trkpt>
      <trkpt lat="43.14223" lon="0.3074">
        <ele>431</ele>
        <time>2024-04-06T05:34:28Z</time>
      </trkpt>
      <trkpt lat="43.14189" lon="0.30773">
        <ele>432</ele>
        <time>2024-04-06T05:34:35Z</time>
      </trkpt>
      <trkpt lat="43.14172" lon="0.30781">
        <ele>433</ele>
        <time>2024-04-06T05:34:38Z</time>
      </trkpt>
      <trkpt lat="43.14071" lon="0.30805">
        <ele>440</ele>
        <time>2024-04-06T05:34:56Z</time>
      </trkpt>
      <trkpt lat="43.14051" lon="0.30817">
        <ele>441</ele>
        <time>2024-04-06T05:35:00Z</time>
      </trkpt>
      <trkpt lat="43.13899" lon="0.30976">
        <ele>448</ele>
        <time>2024-04-06T05:35:34Z</time>
      </trkpt>
      <trkpt lat="43.13809" lon="0.31065">
        <ele>450</ele>
        <time>2024-04-06T05:35:54Z</time>
      </trkpt>
      <trkpt lat="43.13707" lon="0.31133">
        <ele>458</ele>
        <time>2024-04-06T05:36:14Z</time>
      </trkpt>
      <trkpt lat="43.13598" lon="0.31227">
        <ele>460</ele>
        <time>2024-04-06T05:36:37Z</time>
      </trkpt>
      <trkpt lat="43.13561" lon="0.31251">
        <ele>461</ele>
        <time>2024-04-06T05:36:44Z</time>
      </trkpt>
      <trkpt lat="43.1354" lon="0.31259">
        <ele>462</ele>
        <time>2024-04-06T05:36:48Z</time>
      </trkpt>
      <trkpt lat="43.13375" lon="0.31297">
        <ele>473</ele>
        <time>2024-04-06T05:37:18Z</time>
      </trkpt>
      <trkpt lat="43.13341" lon="0.31309">
        <ele>475</ele>
        <time>2024-04-06T05:37:24Z</time>
      </trkpt>
      <trkpt lat="43.13281" lon="0.31336">
        <ele>481</ele>
        <time>2024-04-06T05:37:36Z</time>
      </trkpt>
      <trkpt lat="43.13253" lon="0.31354">
        <ele>483</ele>
        <time>2024-04-06T05:37:41Z</time>
      </trkpt>
      <trkpt lat="43.13219" lon="0.31385">
        <ele>481</ele>
        <time>2024-04-06T05:37:48Z</time>
      </trkpt>
      <trkpt lat="43.13207" lon="0.31394">
        <ele>480</ele>
        <time>2024-04-06T05:37:51Z</time>
      </trkpt>
      <trkpt lat="43.13164" lon="0.31404">
        <ele>483</ele>
        <time>2024-04-06T05:37:59Z</time>
      </trkpt>
      <trkpt lat="43.13133" lon="0.31409">
        <ele>486</ele>
        <time>2024-04-06T05:38:04Z</time>
      </trkpt>
      <trkpt lat="43.12913" lon="0.31481">
        <ele>497</ele>
        <time>2024-04-06T05:38:44Z</time>
      </trkpt>
      <trkpt lat="43.12774" lon="0.3155">
        <ele>503</ele>
        <time>2024-04-06T05:39:11Z</time>
      </trkpt>
      <trkpt lat="43.12716" lon="0.31591">
        <ele>504</ele>
        <time>2024-04-06T05:39:22Z</time>
      </trkpt>
      <trkpt lat="43.12614" lon="0.31665">
        <ele>507</ele>
        <time>2024-04-06T05:39:43Z</time>
      </trkpt>
      <trkpt lat="43.12548" lon="0.31737">
        <ele>506</ele>
        <time>2024-04-06T05:39:58Z</time>
      </trkpt>
      <trkpt lat="43.1254" lon="0.31742">
        <ele>506</ele>
        <time>2024-04-06T05:39:59Z</time>
      </trkpt>
      <trkpt lat="43.12497" lon="0.31752">
        <ele>510</ele>
        <time>2024-04-06T05:40:07Z</time>
      </trkpt>
      <trkpt lat="43.12438" lon="0.31776">
        <ele>516</ele>
        <time>2024-04-06T05:40:18Z</time>
      </trkpt>
      <trkpt lat="43.1238" lon="0.31793">
        <ele>520</ele>
        <time>2024-04-06T05:40:29Z</time>
      </trkpt>
      <trkpt lat="43.12363" lon="0.31802">
        <ele>519</ele>
        <time>2024-04-06T05:40:32Z</time>
      </trkpt>
      <trkpt lat="43.12333" lon="0.31826">
        <ele>518</ele>
        <time>2024-04-06T05:40:38Z</time>
      </trkpt>
      <trkpt lat="43.12323" lon="0.31831">
        <ele>518</ele>
        <time>2024-04-06T05:40:40Z</time>
      </trkpt>
      <trkpt lat="43.12306" lon="0.31832">
        <ele>520</ele>
        <time>2024-04-06T05:40:43Z</time>
      </trkpt>
      <trkpt lat="43.12273" lon="0.31831">
        <ele>523</ele>
        <time>2024-04-06T05:40:49Z</time>
      </trkpt>
      <trkpt lat="43.12238" lon="0.31841">
        <ele>525</ele>
        <time>2024-04-06T05:40:55Z</time>
      </trkpt>
      <trkpt lat="43.12223" lon="0.3185">
        <ele>526</ele>
        <time>2024-04-06T05:40:58Z</time>
      </trkpt>
      <trkpt lat="43.12195" lon="0.31873">
        <ele>527</ele>
        <time>2024-04-06T05:41:04Z</time>
      </trkpt>
      <trkpt lat="43.12186" lon="0.31879">
        <ele>527</ele>
        <time>2024-04-06T05:41:06Z</time>
      </trkpt>
      <trkpt lat="43.12121" lon="0.31899">
        <ele>531</ele>
        <time>2024-04-06T05:41:18Z</time>
      </trkpt>
      <trkpt lat="43.12002" lon="0.31945">
        <ele>534</ele>
        <time>2024-04-06T05:41:40Z</time>
      </trkpt>
      <trkpt lat="43.11975" lon="0.31958">
        <ele>534</ele>
        <time>2024-04-06T05:41:45Z</time>
      </trkpt>
      <trkpt lat="43.11877" lon="0.31987">
        <ele>537</ele>
        <time>2024-04-06T05:42:03Z</time>
      </trkpt>
      <trkpt lat="43.11853" lon="0.31993">
        <ele>537</ele>
        <time>2024-04-06T05:42:07Z</time>
      </trkpt>
      <trkpt lat="43.1184" lon="0.31993">
        <ele>537</ele>
        <time>2024-04-06T05:42:09Z</time>
      </trkpt>
      <trkpt lat="43.11795" lon="0.31988">
        <ele>539</ele>
        <time>2024-04-06T05:42:17Z</time>
      </trkpt>
      <trkpt lat="43.11737" lon="0.31978">
        <ele>543</ele>
        <time>2024-04-06T05:42:28Z</time>
      </trkpt>
      <trkpt lat="43.11667" lon="0.31978">
        <ele>544</ele>
        <time>2024-04-06T05:42:40Z</time>
      </trkpt>
      <trkpt lat="43.11625" lon="0.31987">
        <ele>546</ele>
        <time>2024-04-06T05:42:48Z</time>
      </trkpt>
      <trkpt lat="43.11552" lon="0.32014">
        <ele>550</ele>
        <time>2024-04-06T05:43:01Z</time>
      </trkpt>
      <trkpt lat="43.11508" lon="0.32039">
        <ele>553</ele>
        <time>2024-04-06T05:43:10Z</time>
      </trkpt>
      <trkpt lat="43.11438" lon="0.32061">
        <ele>555</ele>
        <time>2024-04-06T05:43:22Z</time>
      </trkpt>
      <trkpt lat="43.11403" lon="0.32074">
        <ele>556</ele>
        <time>2024-04-06T05:43:29Z</time>
      </trkpt>
      <trkpt lat="43.11336" lon="0.32125">
        <ele>556</ele>
        <time>2024-04-06T05:43:42Z</time>
      </trkpt>
      <trkpt lat="43.11303" lon="0.32139">
        <ele>557</ele>
        <time>2024-04-06T05:43:49Z</time>
      </trkpt>
      <trkpt lat="43.11295" lon="0.32139">
        <ele>557</ele>
        <time>2024-04-06T05:43:50Z</time>
      </trkpt>
      <trkpt lat="43.11287" lon="0.32136">
        <ele>558</ele>
        <time>2024-04-06T05:43:51Z</time>
      </trkpt>
      <trkpt lat="43.11254" lon="0.32114">
        <ele>563</ele>
        <time>2024-04-06T05:43:58Z</time>
      </trkpt>
      <trkpt lat="43.11238" lon="0.32105">
        <ele>564</ele>
        <time>2024-04-06T05:44:01Z</time>
      </trkpt>
      <trkpt lat="43.11217" lon="0.32096">
        <ele>565</ele>
        <time>2024-04-06T05:44:05Z</time>
      </trkpt>
      <trkpt lat="43.11187" lon="0.32087">
        <ele>565</ele>
        <time>2024-04-06T05:44:10Z</time>
      </trkpt>
      <trkpt lat="43.11173" lon="0.32079">
        <ele>565</ele>
        <time>2024-04-06T05:44:13Z</time>
      </trkpt>
      <trkpt lat="43.11163" lon="0.32068">
        <ele>566</ele>
        <time>2024-04-06T05:44:15Z</time>
      </trkpt>
      <trkpt lat="43.11157" lon="0.32056">
        <ele>567</ele>
        <time>2024-04-06T05:44:17Z</time>
      </trkpt>
      <trkpt lat="43.11149" lon="0.32032">
        <ele>569</ele>
        <time>2024-04-06T05:44:21Z</time>
      </trkpt>
      <trkpt lat="43.11138" lon="0.32014">
        <ele>570</ele>
        <time>2024-04-06T05:44:24Z</time>
      </trkpt>
      <trkpt lat="43.11121" lon="0.32003">
        <ele>571</ele>
        <time>2024-04-06T05:44:27Z</time>
      </trkpt>
      <trkpt lat="43.11077" lon="0.31997">
        <ele>569</ele>
        <time>2024-04-06T05:44:35Z</time>
      </trkpt>
      <trkpt lat="43.11045" lon="0.31995">
        <ele>571</ele>
        <time>2024-04-06T05:44:41Z</time>
      </trkpt>
      <trkpt lat="43.11011" lon="0.31999">
        <ele>572</ele>
        <time>2024-04-06T05:44:47Z</time>
      </trkpt>
      <trkpt lat="43.10975" lon="0.32009">
        <ele>572</ele>
        <time>2024-04-06T05:44:53Z</time>
      </trkpt>
      <trkpt lat="43.10953" lon="0.32011">
        <ele>572</ele>
        <time>2024-04-06T05:44:57Z</time>
      </trkpt>
      <trkpt lat="43.10798" lon="0.31971">
        <ele>577</ele>
        <time>2024-04-06T05:45:25Z</time>
      </trkpt>
      <trkpt lat="43.10765" lon="0.31964">
        <ele>578</ele>
        <time>2024-04-06T05:45:31Z</time>
      </trkpt>
      <trkpt lat="43.10738" lon="0.31961">
        <ele>579</ele>
        <time>2024-04-06T05:45:36Z</time>
      </trkpt>
      <trkpt lat="43.10709" lon="0.31968">
        <ele>581</ele>
        <time>2024-04-06T05:45:41Z</time>
      </trkpt>
      <trkpt lat="43.10674" lon="0.3198">
        <ele>583</ele>
        <time>2024-04-06T05:45:48Z</time>
      </trkpt>
      <trkpt lat="43.10657" lon="0.31993">
        <ele>584</ele>
        <time>2024-04-06T05:45:51Z</time>
      </trkpt>
      <trkpt lat="43.10638" lon="0.32017">
        <ele>587</ele>
        <time>2024-04-06T05:45:56Z</time>
      </trkpt>
      <trkpt lat="43.10633" lon="0.32031">
        <ele>588</ele>
        <time>2024-04-06T05:45:58Z</time>
      </trkpt>
      <trkpt lat="43.10631" lon="0.32046">
        <ele>589</ele>
        <time>2024-04-06T05:46:00Z</time>
      </trkpt>
      <trkpt lat="43.1063" lon="0.32059">
        <ele>589</ele>
        <time>2024-04-06T05:46:02Z</time>
      </trkpt>
      <trkpt lat="43.10634" lon="0.32081">
        <ele>590</ele>
        <time>2024-04-06T05:46:04Z</time>
      </trkpt>
      <trkpt lat="43.10642" lon="0.32119">
        <ele>590</ele>
        <time>2024-04-06T05:46:10Z</time>
      </trkpt>
      <trkpt lat="43.10659" lon="0.32181">
        <ele>591</ele>
        <time>2024-04-06T05:46:18Z</time>
      </trkpt>
      <trkpt lat="43.10664" lon="0.32212">
        <ele>591</ele>
        <time>2024-04-06T05:46:22Z</time>
      </trkpt>
      <trkpt lat="43.10663" lon="0.32244">
        <ele>592</ele>
        <time>2024-04-06T05:46:26Z</time>
      </trkpt>
      <trkpt lat="43.10656" lon="0.32273">
        <ele>592</ele>
        <time>2024-04-06T05:46:30Z</time>
      </trkpt>
      <trkpt lat="43.10631" lon="0.32314">
        <ele>592</ele>
        <time>2024-04-06T05:46:37Z</time>
      </trkpt>
      <trkpt lat="43.1057" lon="0.32395">
        <ele>595</ele>
        <time>2024-04-06T05:46:53Z</time>
      </trkpt>
      <trkpt lat="43.10565" lon="0.32391">
        <ele>596</ele>
        <time>2024-04-06T05:46:54Z</time>
      </trkpt>
      <trkpt lat="43.10559" lon="0.32389">
        <ele>596</ele>
        <time>2024-04-06T05:46:55Z</time>
      </trkpt>
      <trkpt lat="43.10555" lon="0.3239">
        <ele>597</ele>
        <time>2024-04-06T05:46:55Z</time>
      </trkpt>
      <trkpt lat="43.10549" lon="0.32395">
        <ele>597</ele>
        <time>2024-04-06T05:46:57Z</time>
      </trkpt>
      <trkpt lat="43.10546" lon="0.324">
        <ele>597</ele>
        <time>2024-04-06T05:46:57Z</time>
      </trkpt>
      <trkpt lat="43.10544" lon="0.32409">
        <ele>597</ele>
        <time>2024-04-06T05:46:59Z</time>
      </trkpt>
      <trkpt lat="43.10545" lon="0.32418">
        <ele>597</ele>
        <time>2024-04-06T05:47:00Z</time>
      </trkpt>
      <trkpt lat="43.10549" lon="0.32425">
        <ele>596</ele>
        <time>2024-04-06T05:47:01Z</time>
      </trkpt>
      <trkpt lat="43.10553" lon="0.32429">
        <ele>596</ele>
        <time>2024-04-06T05:47:02Z</time>
      </trkpt>
      <trkpt lat="43.1056" lon="0.32431">
        <ele>595</ele>
        <time>2024-04-06T05:47:03Z</time>
      </trkpt>
      <trkpt lat="43.10565" lon="0.32429">
        <ele>595</ele>
        <time>2024-04-06T05:47:04Z</time>
      </trkpt>
      <trkpt lat="43.10582" lon="0.32441">
        <ele>593</ele>
        <time>2024-04-06T05:47:07Z</time>
      </trkpt>
      <trkpt lat="43.10605" lon="0.32463">
        <ele>593</ele>
        <time>2024-04-06T05:47:12Z</time>
      </trkpt>
      <trkpt lat="43.10612" lon="0.32473">
        <ele>593</ele>
        <time>2024-04-06T05:47:14Z</time>
      </trkpt>
      <trkpt lat="43.10615" lon="0.32484">
        <ele>593</ele>
        <time>2024-04-06T05:47:16Z</time>
      </trkpt>
      <trkpt lat="43.10618" lon="0.325">
        <ele>594</ele>
        <time>2024-04-06T05:47:18Z</time>
      </trkpt>
      <trkpt lat="43.10612" lon="0.32539">
        <ele>594</ele>
        <time>2024-04-06T05:47:23Z</time>
      </trkpt>
      <trkpt lat="43.10547" lon="0.32832">
        <ele>596</ele>
        <time>2024-04-06T05:48:03Z</time>
      </trkpt>
      <trkpt lat="43.10478" lon="0.33159">
        <ele>588</ele>
        <time>2024-04-06T05:48:47Z</time>
      </trkpt>
      <trkpt lat="43.10452" lon="0.33364">
        <ele>584</ele>
        <time>2024-04-06T05:49:14Z</time>
      </trkpt>
      <trkpt lat="43.10442" lon="0.33456">
        <ele>581</ele>
        <time>2024-04-06T05:49:26Z</time>
      </trkpt>
      <trkpt lat="43.10438" lon="0.33525">
        <ele>578</ele>
        <time>2024-04-06T05:49:35Z</time>
      </trkpt>
      <trkpt lat="43.10435" lon="0.3362">
        <ele>576</ele>
        <time>2024-04-06T05:49:48Z</time>
      </trkpt>
      <trkpt lat="43.10433" lon="0.33669">
        <ele>574</ele>
        <time>2024-04-06T05:49:54Z</time>
      </trkpt>
      <trkpt lat="43.10419" lon="0.33812">
        <ele>571</ele>
        <time>2024-04-06T05:50:13Z</time>
      </trkpt>
      <trkpt lat="43.10386" lon="0.3421">
        <ele>581</ele>
        <time>2024-04-06T05:51:05Z</time>
      </trkpt>
      <trkpt lat="43.10385" lon="0.34282">
        <ele>582</ele>
        <time>2024-04-06T05:51:14Z</time>
      </trkpt>
      <trkpt lat="43.10397" lon="0.34366">
        <ele>583</ele>
        <time>2024-04-06T05:51:25Z</time>
      </trkpt>
      <trkpt lat="43.10409" lon="0.3443">
        <ele>584</ele>
        <time>2024-04-06T05:51:34Z</time>
      </trkpt>
      <trkpt lat="43.10408" lon="0.34454">
        <ele>585</ele>
        <time>2024-04-06T05:51:37Z</time>
      </trkpt>
      <trkpt lat="43.10403" lon="0.34468">
        <ele>585</ele>
        <time>2024-04-06T05:51:39Z</time>
      </trkpt>
      <trkpt lat="43.10401" lon="0.34477">
        <ele>586</ele>
        <time>2024-04-06T05:51:40Z</time>
      </trkpt>
      <trkpt lat="43.10402" lon="0.34487">
        <ele>586</ele>
        <time>2024-04-06T05:51:41Z</time>
      </trkpt>
      <trkpt lat="43.10405" lon="0.34497">
        <ele>586</ele>
        <time>2024-04-06T05:51:43Z</time>
      </trkpt>
      <trkpt lat="43.1041" lon="0.34505">
        <ele>586</ele>
        <time>2024-04-06T05:51:44Z</time>
      </trkpt>
      <trkpt lat="43.10416" lon="0.34511">
        <ele>586</ele>
        <time>2024-04-06T05:51:46Z</time>
      </trkpt>
      <trkpt lat="43.10423" lon="0.34515">
        <ele>586</ele>
        <time>2024-04-06T05:51:47Z</time>
      </trkpt>
      <trkpt lat="43.1043" lon="0.34516">
        <ele>586</ele>
        <time>2024-04-06T05:51:48Z</time>
      </trkpt>
      <trkpt lat="43.10453" lon="0.34544">
        <ele>585</ele>
        <time>2024-04-06T05:51:54Z</time>
      </trkpt>
      <trkpt lat="43.10469" lon="0.34574">
        <ele>585</ele>
        <time>2024-04-06T05:51:58Z</time>
      </trkpt>
      <trkpt lat="43.10499" lon="0.34623">
        <ele>586</ele>
        <time>2024-04-06T05:52:07Z</time>
      </trkpt>
      <trkpt lat="43.10591" lon="0.34753">
        <ele>589</ele>
        <time>2024-04-06T05:52:30Z</time>
      </trkpt>
      <trkpt lat="43.1064" lon="0.34841">
        <ele>588</ele>
        <time>2024-04-06T05:52:45Z</time>
      </trkpt>
      <trkpt lat="43.10684" lon="0.34926">
        <ele>590</ele>
        <time>2024-04-06T05:52:58Z</time>
      </trkpt>
      <trkpt lat="43.1076" lon="0.35113">
        <ele>592</ele>
        <time>2024-04-06T05:53:26Z</time>
      </trkpt>
      <trkpt lat="43.10781" lon="0.35147">
        <ele>593</ele>
        <time>2024-04-06T05:53:32Z</time>
      </trkpt>
      <trkpt lat="43.10822" lon="0.35182">
        <ele>595</ele>
        <time>2024-04-06T05:53:40Z</time>
      </trkpt>
      <trkpt lat="43.10843" lon="0.35192">
        <ele>596</ele>
        <time>2024-04-06T05:53:44Z</time>
      </trkpt>
      <trkpt lat="43.1087" lon="0.35199">
        <ele>598</ele>
        <time>2024-04-06T05:53:49Z</time>
      </trkpt>
      <trkpt lat="43.11014" lon="0.35202">
        <ele>603</ele>
        <time>2024-04-06T05:54:15Z</time>
      </trkpt>
      <trkpt lat="43.11085" lon="0.35216">
        <ele>602</ele>
        <time>2024-04-06T05:54:28Z</time>
      </trkpt>
      <trkpt lat="43.11116" lon="0.35226">
        <ele>603</ele>
        <time>2024-04-06T05:54:33Z</time>
      </trkpt>
      <trkpt lat="43.11144" lon="0.35242">
        <ele>603</ele>
        <time>2024-04-06T05:54:39Z</time>
      </trkpt>
      <trkpt lat="43.11172" lon="0.35266">
        <ele>605</ele>
        <time>2024-04-06T05:54:45Z</time>
      </trkpt>
      <trkpt lat="43.11197" lon="0.35296">
        <ele>608</ele>
        <time>2024-04-06T05:54:50Z</time>
      </trkpt>
      <trkpt lat="43.11217" lon="0.35337">
        <ele>611</ele>
        <time>2024-04-06T05:54:57Z</time>
      </trkpt>
      <trkpt lat="43.11228" lon="0.35377">
        <ele>612</ele>
        <time>2024-04-06T05:55:02Z</time>
      </trkpt>
      <trkpt lat="43.11244" lon="0.35521">
        <ele>614</ele>
        <time>2024-04-06T05:55:21Z</time>
      </trkpt>
      <trkpt lat="43.11243" lon="0.35557">
        <ele>614</ele>
        <time>2024-04-06T05:55:26Z</time>
      </trkpt>
      <trkpt lat="43.1124" lon="0.35571">
        <ele>614</ele>
        <time>2024-04-06T05:55:28Z</time>
      </trkpt>
      <trkpt lat="43.11237" lon="0.35576">
        <ele>614</ele>
        <time>2024-04-06T05:55:29Z</time>
      </trkpt>
      <trkpt lat="43.11235" lon="0.35584">
        <ele>614</ele>
        <time>2024-04-06T05:55:30Z</time>
      </trkpt>
      <trkpt lat="43.11238" lon="0.35598">
        <ele>614</ele>
        <time>2024-04-06T05:55:32Z</time>
      </trkpt>
      <trkpt lat="43.11244" lon="0.35603">
        <ele>614</ele>
        <time>2024-04-06T05:55:33Z</time>
      </trkpt>
      <trkpt lat="43.11248" lon="0.35616">
        <ele>614</ele>
        <time>2024-04-06T05:55:35Z</time>
      </trkpt>
      <trkpt lat="43.11252" lon="0.35651">
        <ele>615</ele>
        <time>2024-04-06T05:55:39Z</time>
      </trkpt>
      <trkpt lat="43.11255" lon="0.35662">
        <ele>615</ele>
        <time>2024-04-06T05:55:41Z</time>
      </trkpt>
      <trkpt lat="43.11271" lon="0.35871">
        <ele>617</ele>
        <time>2024-04-06T05:56:08Z</time>
      </trkpt>
      <trkpt lat="43.1128" lon="0.35914">
        <ele>618</ele>
        <time>2024-04-06T05:56:14Z</time>
      </trkpt>
      <trkpt lat="43.11301" lon="0.35972">
        <ele>618</ele>
        <time>2024-04-06T05:56:22Z</time>
      </trkpt>
      <trkpt lat="43.11781" lon="0.37215">
        <ele>595</ele>
        <time>2024-04-06T05:59:25Z</time>
      </trkpt>
      <trkpt lat="43.11852" lon="0.37395">
        <ele>590</ele>
        <time>2024-04-06T05:59:52Z</time>
      </trkpt>
      <trkpt lat="43.11902" lon="0.37515">
        <ele>594</ele>
        <time>2024-04-06T06:00:10Z</time>
      </trkpt>
      <trkpt lat="43.1193" lon="0.37576">
        <ele>596</ele>
        <time>2024-04-06T06:00:19Z</time>
      </trkpt>
      <trkpt lat="43.11936" lon="0.37598">
        <ele>596</ele>
        <time>2024-04-06T06:00:22Z</time>
      </trkpt>
      <trkpt lat="43.1195" lon="0.3762">
        <ele>595</ele>
        <time>2024-04-06T06:00:26Z</time>
      </trkpt>
      <trkpt lat="43.11959" lon="0.37641">
        <ele>595</ele>
        <time>2024-04-06T06:00:29Z</time>
      </trkpt>
      <trkpt lat="43.11958" lon="0.37656">
        <ele>595</ele>
        <time>2024-04-06T06:00:31Z</time>
      </trkpt>
      <trkpt lat="43.11961" lon="0.37665">
        <ele>595</ele>
        <time>2024-04-06T06:00:32Z</time>
      </trkpt>
      <trkpt lat="43.11967" lon="0.37672">
        <ele>595</ele>
        <time>2024-04-06T06:00:34Z</time>
      </trkpt>
      <trkpt lat="43.1197" lon="0.37691">
        <ele>596</ele>
        <time>2024-04-06T06:00:36Z</time>
      </trkpt>
      <trkpt lat="43.11971" lon="0.37721">
        <ele>598</ele>
        <time>2024-04-06T06:00:40Z</time>
      </trkpt>
      <trkpt lat="43.11974" lon="0.37747">
        <ele>599</ele>
        <time>2024-04-06T06:00:44Z</time>
      </trkpt>
      <trkpt lat="43.11985" lon="0.37806">
        <ele>601</ele>
        <time>2024-04-06T06:00:51Z</time>
      </trkpt>
      <trkpt lat="43.11988" lon="0.37816">
        <ele>601</ele>
        <time>2024-04-06T06:00:53Z</time>
      </trkpt>
      <trkpt lat="43.11994" lon="0.37839">
        <ele>602</ele>
        <time>2024-04-06T06:00:56Z</time>
      </trkpt>
      <trkpt lat="43.12034" lon="0.37957">
        <ele>602</ele>
        <time>2024-04-06T06:01:13Z</time>
      </trkpt>
      <trkpt lat="43.1208" lon="0.38073">
        <ele>600</ele>
        <time>2024-04-06T06:01:30Z</time>
      </trkpt>
      <trkpt lat="43.12107" lon="0.38129">
        <ele>598</ele>
        <time>2024-04-06T06:01:39Z</time>
      </trkpt>
      <trkpt lat="43.12116" lon="0.38152">
        <ele>597</ele>
        <time>2024-04-06T06:01:42Z</time>
      </trkpt>
      <trkpt lat="43.12122" lon="0.38176">
        <ele>596</ele>
        <time>2024-04-06T06:01:45Z</time>
      </trkpt>
      <trkpt lat="43.12124" lon="0.38197">
        <ele>596</ele>
        <time>2024-04-06T06:01:48Z</time>
      </trkpt>
      <trkpt lat="43.12126" lon="0.383">
        <ele>594</ele>
        <time>2024-04-06T06:02:02Z</time>
      </trkpt>
      <trkpt lat="43.12131" lon="0.3832">
        <ele>594</ele>
        <time>2024-04-06T06:02:04Z</time>
      </trkpt>
      <trkpt lat="43.12125" lon="0.38324">
        <ele>594</ele>
        <time>2024-04-06T06:02:05Z</time>
      </trkpt>
      <trkpt lat="43.12122" lon="0.38332">
        <ele>593</ele>
        <time>2024-04-06T06:02:07Z</time>
      </trkpt>
      <trkpt lat="43.12122" lon="0.38338">
        <ele>593</ele>
        <time>2024-04-06T06:02:07Z</time>
      </trkpt>
      <trkpt lat="43.12125" lon="0.38343">
        <ele>593</ele>
        <time>2024-04-06T06:02:08Z</time>
      </trkpt>
      <trkpt lat="43.12129" lon="0.38345">
        <ele>593</ele>
        <time>2024-04-06T06:02:09Z</time>
      </trkpt>
      <trkpt lat="43.12133" lon="0.38345">
        <ele>593</ele>
        <time>2024-04-06T06:02:10Z</time>
      </trkpt>
      <trkpt lat="43.12152" lon="0.38495">
        <ele>590</ele>
        <time>2024-04-06T06:02:30Z</time>
      </trkpt>
      <trkpt lat="43.12161" lon="0.3856">
        <ele>588</ele>
        <time>2024-04-06T06:02:38Z</time>
      </trkpt>
      <trkpt lat="43.12166" lon="0.38583">
        <ele>587</ele>
        <time>2024-04-06T06:02:41Z</time>
      </trkpt>
      <trkpt lat="43.1219" lon="0.38633">
        <ele>586</ele>
        <time>2024-04-06T06:02:49Z</time>
      </trkpt>
      <trkpt lat="43.1223" lon="0.38726">
        <ele>585</ele>
        <time>2024-04-06T06:03:03Z</time>
      </trkpt>
      <trkpt lat="43.12235" lon="0.38743">
        <ele>585</ele>
        <time>2024-04-06T06:03:05Z</time>
      </trkpt>
      <trkpt lat="43.12237" lon="0.38759">
        <ele>584</ele>
        <time>2024-04-06T06:03:08Z</time>
      </trkpt>
      <trkpt lat="43.12232" lon="0.38767">
        <ele>585</ele>
        <time>2024-04-06T06:03:09Z</time>
      </trkpt>
      <trkpt lat="43.12232" lon="0.38777">
        <ele>584</ele>
        <time>2024-04-06T06:03:10Z</time>
      </trkpt>
      <trkpt lat="43.12236" lon="0.38785">
        <ele>584</ele>
        <time>2024-04-06T06:03:11Z</time>
      </trkpt>
      <trkpt lat="43.12242" lon="0.38788">
        <ele>584</ele>
        <time>2024-04-06T06:03:13Z</time>
      </trkpt>
      <trkpt lat="43.12244" lon="0.38813">
        <ele>583</ele>
        <time>2024-04-06T06:03:16Z</time>
      </trkpt>
      <trkpt lat="43.12239" lon="0.38859">
        <ele>583</ele>
        <time>2024-04-06T06:03:22Z</time>
      </trkpt>
      <trkpt lat="43.12076" lon="0.40086">
        <ele>602</ele>
        <time>2024-04-06T06:06:04Z</time>
      </trkpt>
      <trkpt lat="43.12068" lon="0.40087">
        <ele>602</ele>
        <time>2024-04-06T06:06:05Z</time>
      </trkpt>
      <trkpt lat="43.12063" lon="0.40094">
        <ele>602</ele>
        <time>2024-04-06T06:06:07Z</time>
      </trkpt>
      <trkpt lat="43.12061" lon="0.401">
        <ele>602</ele>
        <time>2024-04-06T06:06:07Z</time>
      </trkpt>
      <trkpt lat="43.12062" lon="0.40111">
        <ele>601</ele>
        <time>2024-04-06T06:06:09Z</time>
      </trkpt>
      <trkpt lat="43.12068" lon="0.4012">
        <ele>601</ele>
        <time>2024-04-06T06:06:10Z</time>
      </trkpt>
      <trkpt lat="43.12072" lon="0.40121">
        <ele>601</ele>
        <time>2024-04-06T06:06:11Z</time>
      </trkpt>
      <trkpt lat="43.1208" lon="0.40119">
        <ele>601</ele>
        <time>2024-04-06T06:06:13Z</time>
      </trkpt>
      <trkpt lat="43.12086" lon="0.4011">
        <ele>601</ele>
        <time>2024-04-06T06:06:14Z</time>
      </trkpt>
      <trkpt lat="43.12101" lon="0.40124">
        <ele>600</ele>
        <time>2024-04-06T06:06:17Z</time>
      </trkpt>
      <trkpt lat="43.12185" lon="0.40188">
        <ele>597</ele>
        <time>2024-04-06T06:06:35Z</time>
      </trkpt>
      <trkpt lat="43.12101" lon="0.40124">
        <ele>600</ele>
        <time>2024-04-06T06:06:52Z</time>
      </trkpt>
      <trkpt lat="43.12086" lon="0.4011">
        <ele>601</ele>
        <time>2024-04-06T06:06:55Z</time>
      </trkpt>
      <trkpt lat="43.12087" lon="0.40105">
        <ele>601</ele>
        <time>2024-04-06T06:06:56Z</time>
      </trkpt>
      <trkpt lat="43.12086" lon="0.40095">
        <ele>602</ele>
        <time>2024-04-06T06:06:57Z</time>
      </trkpt>
      <trkpt lat="43.12083" lon="0.40091">
        <ele>602</ele>
        <time>2024-04-06T06:06:58Z</time>
      </trkpt>
      <trkpt lat="43.12076" lon="0.40086">
        <ele>602</ele>
        <time>2024-04-06T06:06:59Z</time>
      </trkpt>
      <trkpt lat="43.12068" lon="0.40087">
        <ele>602</ele>
        <time>2024-04-06T06:07:00Z</time>
      </trkpt>
      <trkpt lat="43.12063" lon="0.40094">
        <ele>602</ele>
        <time>2024-04-06T06:07:02Z</time>
      </trkpt>
      <trkpt lat="43.12061" lon="0.401">
        <ele>602</ele>
        <time>2024-04-06T06:07:03Z</time>
      </trkpt>
      <trkpt lat="43.12062" lon="0.40111">
        <ele>601</ele>
        <time>2024-04-06T06:07:04Z</time>
      </trkpt>
      <trkpt lat="43.12068" lon="0.4012">
        <ele>601</ele>
        <time>2024-04-06T06:07:06Z</time>
      </trkpt>
      <trkpt lat="43.12072" lon="0.40121">
        <ele>601</ele>
        <time>2024-04-06T06:07:06Z</time>
      </trkpt>
      <trkpt lat="43.12014" lon="0.40559">
        <ele>602</ele>
        <time>2024-04-06T06:08:04Z</time>
      </trkpt>
      <trkpt lat="43.11954" lon="0.40996">
        <ele>606</ele>
        <time>2024-04-06T06:09:02Z</time>
      </trkpt>
      <trkpt lat="43.11934" lon="0.41154">
        <ele>605</ele>
        <time>2024-04-06T06:09:23Z</time>
      </trkpt>
      <trkpt lat="43.11927" lon="0.4118">
        <ele>605</ele>
        <time>2024-04-06T06:09:26Z</time>
      </trkpt>
      <trkpt lat="43.11921" lon="0.41197">
        <ele>605</ele>
        <time>2024-04-06T06:09:29Z</time>
      </trkpt>
      <trkpt lat="43.11915" lon="0.41199">
        <ele>605</ele>
        <time>2024-04-06T06:09:30Z</time>
      </trkpt>
      <trkpt lat="43.1191" lon="0.41203">
        <ele>604</ele>
        <time>2024-04-06T06:09:31Z</time>
      </trkpt>
      <trkpt lat="43.11905" lon="0.41211">
        <ele>604</ele>
        <time>2024-04-06T06:09:32Z</time>
      </trkpt>
      <trkpt lat="43.11903" lon="0.41222">
        <ele>604</ele>
        <time>2024-04-06T06:09:34Z</time>
      </trkpt>
      <trkpt lat="43.11904" lon="0.4123">
        <ele>604</ele>
        <time>2024-04-06T06:09:35Z</time>
      </trkpt>
      <trkpt lat="43.11907" lon="0.41238">
        <ele>604</ele>
        <time>2024-04-06T06:09:36Z</time>
      </trkpt>
      <trkpt lat="43.11912" lon="0.41244">
        <ele>604</ele>
        <time>2024-04-06T06:09:37Z</time>
      </trkpt>
      <trkpt lat="43.11915" lon="0.41261">
        <ele>604</ele>
        <time>2024-04-06T06:09:39Z</time>
      </trkpt>
      <trkpt lat="43.11916" lon="0.41286">
        <ele>604</ele>
        <time>2024-04-06T06:09:43Z</time>
      </trkpt>
      <trkpt lat="43.11823" lon="0.42003">
        <ele>599</ele>
        <time>2024-04-06T06:11:17Z</time>
      </trkpt>
      <trkpt lat="43.11819" lon="0.42022">
        <ele>600</ele>
        <time>2024-04-06T06:11:20Z</time>
      </trkpt>
      <trkpt lat="43.1173" lon="0.42696">
        <ele>600</ele>
        <time>2024-04-06T06:12:49Z</time>
      </trkpt>
      <trkpt lat="43.12757" lon="0.438">
        <ele>586</ele>
        <time>2024-04-06T06:16:41Z</time>
      </trkpt>
      <trkpt lat="43.13073" lon="0.44143">
        <ele>578</ele>
        <time>2024-04-06T06:17:53Z</time>
      </trkpt>
      <trkpt lat="43.13124" lon="0.44194">
        <ele>577</ele>
        <time>2024-04-06T06:18:04Z</time>
      </trkpt>
      <trkpt lat="43.14257" lon="0.45454">
        <ele>564</ele>
        <time>2024-04-06T06:22:24Z</time>
      </trkpt>
      <trkpt lat="43.14345" lon="0.4554">
        <ele>562</ele>
        <time>2024-04-06T06:22:43Z</time>
      </trkpt>
      <trkpt lat="43.14428" lon="0.45604">
        <ele>565</ele>
        <time>2024-04-06T06:23:00Z</time>
      </trkpt>
      <trkpt lat="43.14448" lon="0.45625">
        <ele>565</ele>
        <time>2024-04-06T06:23:04Z</time>
      </trkpt>
      <trkpt lat="43.14462" lon="0.45649">
        <ele>565</ele>
        <time>2024-04-06T06:23:08Z</time>
      </trkpt>
      <trkpt lat="43.14546" lon="0.45824">
        <ele>561</ele>
        <time>2024-04-06T06:23:35Z</time>
      </trkpt>
      <trkpt lat="43.14676" lon="0.46082">
        <ele>557</ele>
        <time>2024-04-06T06:24:16Z</time>
      </trkpt>
      <trkpt lat="43.14725" lon="0.46178">
        <ele>557</ele>
        <time>2024-04-06T06:24:31Z</time>
      </trkpt>
      <trkpt lat="43.14876" lon="0.46435">
        <ele>557</ele>
        <time>2024-04-06T06:25:14Z</time>
      </trkpt>
      <trkpt lat="43.14896" lon="0.46472">
        <ele>557</ele>
        <time>2024-04-06T06:25:20Z</time>
      </trkpt>
      <trkpt lat="43.14959" lon="0.46604">
        <ele>556</ele>
        <time>2024-04-06T06:25:41Z</time>
      </trkpt>
      <trkpt lat="43.14975" lon="0.46646">
        <ele>555</ele>
        <time>2024-04-06T06:25:47Z</time>
      </trkpt>
      <trkpt lat="43.15046" lon="0.46863">
        <ele>553</ele>
        <time>2024-04-06T06:26:18Z</time>
      </trkpt>
      <trkpt lat="43.15278" lon="0.47581">
        <ele>553</ele>
        <time>2024-04-06T06:28:00Z</time>
      </trkpt>
      <trkpt lat="43.15372" lon="0.47861">
        <ele>554</ele>
        <time>2024-04-06T06:28:40Z</time>
      </trkpt>
      <trkpt lat="43.15388" lon="0.47898">
        <ele>553</ele>
        <time>2024-04-06T06:28:45Z</time>
      </trkpt>
      <trkpt lat="43.15417" lon="0.47943">
        <ele>552</ele>
        <time>2024-04-06T06:28:53Z</time>
      </trkpt>
      <trkpt lat="43.15752" lon="0.48403">
        <ele>547</ele>
        <time>2024-04-06T06:30:17Z</time>
      </trkpt>
      <trkpt lat="43.15983" lon="0.48692">
        <ele>543</ele>
        <time>2024-04-06T06:31:13Z</time>
      </trkpt>
      <trkpt lat="43.16081" lon="0.48834">
        <ele>544</ele>
        <time>2024-04-06T06:31:38Z</time>
      </trkpt>
      <trkpt lat="43.16291" lon="0.49152">
        <ele>541</ele>
        <time>2024-04-06T06:32:34Z</time>
      </trkpt>
      <trkpt lat="43.16498" lon="0.4946">
        <ele>535</ele>
        <time>2024-04-06T06:33:28Z</time>
      </trkpt>
      <trkpt lat="43.16559" lon="0.49603">
        <ele>534</ele>
        <time>2024-04-06T06:33:50Z</time>
      </trkpt>
      <trkpt lat="43.16663" lon="0.49867">
        <ele>534</ele>
        <time>2024-04-06T06:34:29Z</time>
      </trkpt>
      <trkpt lat="43.16725" lon="0.49992">
        <ele>532</ele>
        <time>2024-04-06T06:34:48Z</time>
      </trkpt>
      <trkpt lat="43.16907" lon="0.50353">
        <ele>528</ele>
        <time>2024-04-06T06:35:45Z</time>
      </trkpt>
      <trkpt lat="43.16956" lon="0.50433">
        <ele>527</ele>
        <time>2024-04-06T06:35:59Z</time>
      </trkpt>
      <trkpt lat="43.16999" lon="0.50497">
        <ele>527</ele>
        <time>2024-04-06T06:36:10Z</time>
      </trkpt>
      <trkpt lat="43.17052" lon="0.50562">
        <ele>526</ele>
        <time>2024-04-06T06:36:23Z</time>
      </trkpt>
      <trkpt lat="43.1706" lon="0.50554">
        <ele>525</ele>
        <time>2024-04-06T06:36:25Z</time>
      </trkpt>
      <trkpt lat="43.17146" lon="0.50574">
        <ele>527</ele>
        <time>2024-04-06T06:36:40Z</time>
      </trkpt>
      <trkpt lat="43.17205" lon="0.50591">
        <ele>526</ele>
        <time>2024-04-06T06:36:51Z</time>
      </trkpt>
      <trkpt lat="43.17228" lon="0.50606">
        <ele>525</ele>
        <time>2024-04-06T06:36:55Z</time>
      </trkpt>
      <trkpt lat="43.17621" lon="0.50981">
        <ele>520</ele>
        <time>2024-04-06T06:38:21Z</time>
      </trkpt>
      <trkpt lat="43.17669" lon="0.51022">
        <ele>519</ele>
        <time>2024-04-06T06:38:31Z</time>
      </trkpt>
      <trkpt lat="43.17778" lon="0.51102">
        <ele>520</ele>
        <time>2024-04-06T06:38:53Z</time>
      </trkpt>
      <trkpt lat="43.17863" lon="0.51188">
        <ele>519</ele>
        <time>2024-04-06T06:39:11Z</time>
      </trkpt>
      <trkpt lat="43.1789" lon="0.5121">
        <ele>519</ele>
        <time>2024-04-06T06:39:17Z</time>
      </trkpt>
      <trkpt lat="43.17917" lon="0.51229">
        <ele>520</ele>
        <time>2024-04-06T06:39:22Z</time>
      </trkpt>
      <trkpt lat="43.1794" lon="0.5124">
        <ele>519</ele>
        <time>2024-04-06T06:39:27Z</time>
      </trkpt>
      <trkpt lat="43.18032" lon="0.51307">
        <ele>517</ele>
        <time>2024-04-06T06:39:45Z</time>
      </trkpt>
      <trkpt lat="43.18064" lon="0.51335">
        <ele>517</ele>
        <time>2024-04-06T06:39:52Z</time>
      </trkpt>
      <trkpt lat="43.18293" lon="0.51561">
        <ele>515</ele>
        <time>2024-04-06T06:40:42Z</time>
      </trkpt>
      <trkpt lat="43.18373" lon="0.51644">
        <ele>514</ele>
        <time>2024-04-06T06:41:00Z</time>
      </trkpt>
      <trkpt lat="43.1839" lon="0.51664">
        <ele>515</ele>
        <time>2024-04-06T06:41:04Z</time>
      </trkpt>
      <trkpt lat="43.18408" lon="0.51697">
        <ele>515</ele>
        <time>2024-04-06T06:41:09Z</time>
      </trkpt>
      <trkpt lat="43.18453" lon="0.51793">
        <ele>513</ele>
        <time>2024-04-06T06:41:24Z</time>
      </trkpt>
      <trkpt lat="43.18496" lon="0.51866">
        <ele>513</ele>
        <time>2024-04-06T06:41:36Z</time>
      </trkpt>
      <trkpt lat="43.1856" lon="0.51966">
        <ele>513</ele>
        <time>2024-04-06T06:41:54Z</time>
      </trkpt>
      <trkpt lat="43.18599" lon="0.52019">
        <ele>512</ele>
        <time>2024-04-06T06:42:03Z</time>
      </trkpt>
      <trkpt lat="43.18641" lon="0.52069">
        <ele>509</ele>
        <time>2024-04-06T06:42:13Z</time>
      </trkpt>
      <trkpt lat="43.18697" lon="0.52126">
        <ele>506</ele>
        <time>2024-04-06T06:42:26Z</time>
      </trkpt>
      <trkpt lat="43.18834" lon="0.52297">
        <ele>502</ele>
        <time>2024-04-06T06:42:59Z</time>
      </trkpt>
      <trkpt lat="43.1889" lon="0.52363">
        <ele>499</ele>
        <time>2024-04-06T06:43:12Z</time>
      </trkpt>
      <trkpt lat="43.18965" lon="0.52481">
        <ele>498</ele>
        <time>2024-04-06T06:43:32Z</time>
      </trkpt>
      <trkpt lat="43.1902" lon="0.52546">
        <ele>498</ele>
        <time>2024-04-06T06:43:45Z</time>
      </trkpt>
      <trkpt lat="43.19248" lon="0.52765">
        <ele>502</ele>
        <time>2024-04-06T06:44:35Z</time>
      </trkpt>
      <trkpt lat="43.1931" lon="0.52834">
        <ele>506</ele>
        <time>2024-04-06T06:44:49Z</time>
      </trkpt>
      <trkpt lat="43.19346" lon="0.52896">
        <ele>506</ele>
        <time>2024-04-06T06:44:59Z</time>
      </trkpt>
      <trkpt lat="43.19404" lon="0.53058">
        <ele>507</ele>
        <time>2024-04-06T06:45:23Z</time>
      </trkpt>
      <trkpt lat="43.19423" lon="0.53126">
        <ele>505</ele>
        <time>2024-04-06T06:45:32Z</time>
      </trkpt>
      <trkpt lat="43.19434" lon="0.53178">
        <ele>504</ele>
        <time>2024-04-06T06:45:39Z</time>
      </trkpt>
      <trkpt lat="43.19519" lon="0.53418">
        <ele>505</ele>
        <time>2024-04-06T06:46:14Z</time>
      </trkpt>
      <trkpt lat="43.19539" lon="0.53483">
        <ele>502</ele>
        <time>2024-04-06T06:46:23Z</time>
      </trkpt>
      <trkpt lat="43.1956" lon="0.5354">
        <ele>501</ele>
        <time>2024-04-06T06:46:31Z</time>
      </trkpt>
      <trkpt lat="43.19607" lon="0.53657">
        <ele>500</ele>
        <time>2024-04-06T06:46:48Z</time>
      </trkpt>
      <trkpt lat="43.19656" lon="0.53774">
        <ele>501</ele>
        <time>2024-04-06T06:47:06Z</time>
      </trkpt>
      <trkpt lat="43.1972" lon="0.53905">
        <ele>503</ele>
        <time>2024-04-06T06:47:26Z</time>
      </trkpt>
      <trkpt lat="43.19747" lon="0.53947">
        <ele>502</ele>
        <time>2024-04-06T06:47:34Z</time>
      </trkpt>
      <trkpt lat="43.19815" lon="0.54023">
        <ele>502</ele>
        <time>2024-04-06T06:47:49Z</time>
      </trkpt>
      <trkpt lat="43.19886" lon="0.54117">
        <ele>497</ele>
        <time>2024-04-06T06:48:07Z</time>
      </trkpt>
      <trkpt lat="43.19971" lon="0.54189">
        <ele>495</ele>
        <time>2024-04-06T06:48:25Z</time>
      </trkpt>
      <trkpt lat="43.20038" lon="0.54238">
        <ele>494</ele>
        <time>2024-04-06T06:48:38Z</time>
      </trkpt>
      <trkpt lat="43.20098" lon="0.54279">
        <ele>494</ele>
        <time>2024-04-06T06:48:50Z</time>
      </trkpt>
      <trkpt lat="43.20151" lon="0.54305">
        <ele>492</ele>
        <time>2024-04-06T06:49:00Z</time>
      </trkpt>
      <trkpt lat="43.20205" lon="0.54339">
        <ele>491</ele>
        <time>2024-04-06T06:49:11Z</time>
      </trkpt>
      <trkpt lat="43.20259" lon="0.54379">
        <ele>491</ele>
        <time>2024-04-06T06:49:21Z</time>
      </trkpt>
      <trkpt lat="43.2035" lon="0.54439">
        <ele>487</ele>
        <time>2024-04-06T06:49:39Z</time>
      </trkpt>
      <trkpt lat="43.20398" lon="0.54462">
        <ele>485</ele>
        <time>2024-04-06T06:49:48Z</time>
      </trkpt>
      <trkpt lat="43.2044" lon="0.5449">
        <ele>482</ele>
        <time>2024-04-06T06:49:57Z</time>
      </trkpt>
      <trkpt lat="43.20462" lon="0.54519">
        <ele>481</ele>
        <time>2024-04-06T06:50:02Z</time>
      </trkpt>
      <trkpt lat="43.20586" lon="0.54706">
        <ele>475</ele>
        <time>2024-04-06T06:50:35Z</time>
      </trkpt>
      <trkpt lat="43.20603" lon="0.54738">
        <ele>474</ele>
        <time>2024-04-06T06:50:40Z</time>
      </trkpt>
      <trkpt lat="43.20611" lon="0.54761">
        <ele>474</ele>
        <time>2024-04-06T06:50:43Z</time>
      </trkpt>
      <trkpt lat="43.20691" lon="0.55248">
        <ele>464</ele>
        <time>2024-04-06T06:51:48Z</time>
      </trkpt>
      <trkpt lat="43.20738" lon="0.55472">
        <ele>466</ele>
        <time>2024-04-06T06:52:18Z</time>
      </trkpt>
      <trkpt lat="43.20758" lon="0.55556">
        <ele>467</ele>
        <time>2024-04-06T06:52:30Z</time>
      </trkpt>
      <trkpt lat="43.20819" lon="0.55685">
        <ele>462</ele>
        <time>2024-04-06T06:52:50Z</time>
      </trkpt>
      <trkpt lat="43.2082" lon="0.55694">
        <ele>462</ele>
        <time>2024-04-06T06:52:51Z</time>
      </trkpt>
      <trkpt lat="43.20816" lon="0.55706">
        <ele>461</ele>
        <time>2024-04-06T06:52:53Z</time>
      </trkpt>
      <trkpt lat="43.20647" lon="0.56006">
        <ele>445</ele>
        <time>2024-04-06T06:53:42Z</time>
      </trkpt>
      <trkpt lat="43.20654" lon="0.56023">
        <ele>445</ele>
        <time>2024-04-06T06:53:44Z</time>
      </trkpt>
      <trkpt lat="43.20685" lon="0.56148">
        <ele>443</ele>
        <time>2024-04-06T06:54:02Z</time>
      </trkpt>
      <trkpt lat="43.20729" lon="0.56256">
        <ele>442</ele>
        <time>2024-04-06T06:54:18Z</time>
      </trkpt>
      <trkpt lat="43.20772" lon="0.56329">
        <ele>441</ele>
        <time>2024-04-06T06:54:30Z</time>
      </trkpt>
      <trkpt lat="43.20809" lon="0.56386">
        <ele>439</ele>
        <time>2024-04-06T06:54:40Z</time>
      </trkpt>
      <trkpt lat="43.20884" lon="0.56488">
        <ele>438</ele>
        <time>2024-04-06T06:54:58Z</time>
      </trkpt>
      <trkpt lat="43.20981" lon="0.56595">
        <ele>436</ele>
        <time>2024-04-06T06:55:21Z</time>
      </trkpt>
      <trkpt lat="43.21043" lon="0.56668">
        <ele>435</ele>
        <time>2024-04-06T06:55:35Z</time>
      </trkpt>
      <trkpt lat="43.21109" lon="0.56756">
        <ele>434</ele>
        <time>2024-04-06T06:55:52Z</time>
      </trkpt>
      <trkpt lat="43.21172" lon="0.5685">
        <ele>432</ele>
        <time>2024-04-06T06:56:08Z</time>
      </trkpt>
      <trkpt lat="43.21213" lon="0.56917">
        <ele>431</ele>
        <time>2024-04-06T06:56:19Z</time>
      </trkpt>
      <trkpt lat="43.21245" lon="0.56978">
        <ele>430</ele>
        <time>2024-04-06T06:56:29Z</time>
      </trkpt>
      <trkpt lat="43.21289" lon="0.57103">
        <ele>429</ele>
        <time>2024-04-06T06:56:47Z</time>
      </trkpt>
      <trkpt lat="43.2131" lon="0.57148">
        <ele>427</ele>
        <time>2024-04-06T06:56:54Z</time>
      </trkpt>
      <trkpt lat="43.21367" lon="0.57255">
        <ele>426</ele>
        <time>2024-04-06T06:57:11Z</time>
      </trkpt>
      <trkpt lat="43.21401" lon="0.57309">
        <ele>427</ele>
        <time>2024-04-06T06:57:21Z</time>
      </trkpt>
      <trkpt lat="43.21419" lon="0.57334">
        <ele>427</ele>
        <time>2024-04-06T06:57:25Z</time>
      </trkpt>
      <trkpt lat="43.21434" lon="0.57344">
        <ele>426</ele>
        <time>2024-04-06T06:57:28Z</time>
      </trkpt>
      <trkpt lat="43.21458" lon="0.57341">
        <ele>427</ele>
        <time>2024-04-06T06:57:32Z</time>
      </trkpt>
      <trkpt lat="43.2147" lon="0.57345">
        <ele>426</ele>
        <time>2024-04-06T06:57:35Z</time>
      </trkpt>
      <trkpt lat="43.2149" lon="0.5736">
        <ele>426</ele>
        <time>2024-04-06T06:57:39Z</time>
      </trkpt>
      <trkpt lat="43.21507" lon="0.57383">
        <ele>425</ele>
        <time>2024-04-06T06:57:43Z</time>
      </trkpt>
      <trkpt lat="43.21548" lon="0.57461">
        <ele>423</ele>
        <time>2024-04-06T06:57:55Z</time>
      </trkpt>
      <trkpt lat="43.21607" lon="0.57558">
        <ele>423</ele>
        <time>2024-04-06T06:58:12Z</time>
      </trkpt>
      <trkpt lat="43.21632" lon="0.57592">
        <ele>422</ele>
        <time>2024-04-06T06:58:18Z</time>
      </trkpt>
      <trkpt lat="43.21657" lon="0.57622">
        <ele>422</ele>
        <time>2024-04-06T06:58:24Z</time>
      </trkpt>
      <trkpt lat="43.21704" lon="0.57655">
        <ele>422</ele>
        <time>2024-04-06T06:58:33Z</time>
      </trkpt>
      <trkpt lat="43.21708" lon="0.57663">
        <ele>422</ele>
        <time>2024-04-06T06:58:35Z</time>
      </trkpt>
      <trkpt lat="43.21745" lon="0.57669">
        <ele>422</ele>
        <time>2024-04-06T06:58:41Z</time>
      </trkpt>
      <trkpt lat="43.21783" lon="0.57691">
        <ele>422</ele>
        <time>2024-04-06T06:58:48Z</time>
      </trkpt>
      <trkpt lat="43.22041" lon="0.57865">
        <ele>414</ele>
        <time>2024-04-06T06:59:40Z</time>
      </trkpt>
      <trkpt lat="43.22251" lon="0.5801">
        <ele>405</ele>
        <time>2024-04-06T07:00:21Z</time>
      </trkpt>
      <trkpt lat="43.22287" lon="0.58041">
        <ele>406</ele>
        <time>2024-04-06T07:00:29Z</time>
      </trkpt>
      <trkpt lat="43.22335" lon="0.58088">
        <ele>407</ele>
        <time>2024-04-06T07:00:40Z</time>
      </trkpt>
      <trkpt lat="43.22379" lon="0.58147">
        <ele>404</ele>
        <time>2024-04-06T07:00:50Z</time>
      </trkpt>
      <trkpt lat="43.22405" lon="0.58195">
        <ele>401</ele>
        <time>2024-04-06T07:00:58Z</time>
      </trkpt>
      <trkpt lat="43.22498" lon="0.5841">
        <ele>397</ele>
        <time>2024-04-06T07:01:31Z</time>
      </trkpt>
      <trkpt lat="43.22623" lon="0.58692">
        <ele>393</ele>
        <time>2024-04-06T07:02:13Z</time>
      </trkpt>
      <trkpt lat="43.22641" lon="0.5872">
        <ele>392</ele>
        <time>2024-04-06T07:02:18Z</time>
      </trkpt>
      <trkpt lat="43.22669" lon="0.58755">
        <ele>392</ele>
        <time>2024-04-06T07:02:25Z</time>
      </trkpt>
      <trkpt lat="43.2285" lon="0.58962">
        <ele>385</ele>
        <time>2024-04-06T07:03:07Z</time>
      </trkpt>
      <trkpt lat="43.22875" lon="0.58998">
        <ele>384</ele>
        <time>2024-04-06T07:03:13Z</time>
      </trkpt>
      <trkpt lat="43.22907" lon="0.59054">
        <ele>382</ele>
        <time>2024-04-06T07:03:23Z</time>
      </trkpt>
      <trkpt lat="43.23154" lon="0.59515">
        <ele>376</ele>
        <time>2024-04-06T07:04:37Z</time>
      </trkpt>
      <trkpt lat="43.23168" lon="0.59532">
        <ele>376</ele>
        <time>2024-04-06T07:04:40Z</time>
      </trkpt>
      <trkpt lat="43.23182" lon="0.59543">
        <ele>376</ele>
        <time>2024-04-06T07:04:43Z</time>
      </trkpt>
      <trkpt lat="43.23261" lon="0.59597">
        <ele>375</ele>
        <time>2024-04-06T07:04:59Z</time>
      </trkpt>
      <trkpt lat="43.23296" lon="0.59626">
        <ele>374</ele>
        <time>2024-04-06T07:05:06Z</time>
      </trkpt>
      <trkpt lat="43.2333" lon="0.5967">
        <ele>373</ele>
        <time>2024-04-06T07:05:14Z</time>
      </trkpt>
      <trkpt lat="43.23365" lon="0.59743">
        <ele>372</ele>
        <time>2024-04-06T07:05:26Z</time>
      </trkpt>
      <trkpt lat="43.23453" lon="0.59946">
        <ele>370</ele>
        <time>2024-04-06T07:05:56Z</time>
      </trkpt>
      <trkpt lat="43.23842" lon="0.60626">
        <ele>361</ele>
        <time>2024-04-06T07:07:48Z</time>
      </trkpt>
      <trkpt lat="43.23888" lon="0.60709">
        <ele>360</ele>
        <time>2024-04-06T07:08:02Z</time>
      </trkpt>
      <trkpt lat="43.23938" lon="0.60855">
        <ele>356</ele>
        <time>2024-04-06T07:08:23Z</time>
      </trkpt>
      <trkpt lat="43.23959" lon="0.60899">
        <ele>358</ele>
        <time>2024-04-06T07:08:30Z</time>
      </trkpt>
      <trkpt lat="43.23988" lon="0.60941">
        <ele>359</ele>
        <time>2024-04-06T07:08:37Z</time>
      </trkpt>
      <trkpt lat="43.24019" lon="0.60977">
        <ele>359</ele>
        <time>2024-04-06T07:08:44Z</time>
      </trkpt>
      <trkpt lat="43.24262" lon="0.61229">
        <ele>355</ele>
        <time>2024-04-06T07:09:38Z</time>
      </trkpt>
      <trkpt lat="43.24665" lon="0.61568">
        <ele>342</ele>
        <time>2024-04-06T07:11:03Z</time>
      </trkpt>
      <trkpt lat="43.24694" lon="0.616">
        <ele>342</ele>
        <time>2024-04-06T07:11:09Z</time>
      </trkpt>
      <trkpt lat="43.24757" lon="0.6168">
        <ele>342</ele>
        <time>2024-04-06T07:11:24Z</time>
      </trkpt>
      <trkpt lat="43.24782" lon="0.61721">
        <ele>341</ele>
        <time>2024-04-06T07:11:31Z</time>
      </trkpt>
      <trkpt lat="43.24803" lon="0.61761">
        <ele>341</ele>
        <time>2024-04-06T07:11:38Z</time>
      </trkpt>
      <trkpt lat="43.24817" lon="0.61797">
        <ele>343</ele>
        <time>2024-04-06T07:11:43Z</time>
      </trkpt>
      <trkpt lat="43.24853" lon="0.61914">
        <ele>341</ele>
        <time>2024-04-06T07:12:00Z</time>
      </trkpt>
      <trkpt lat="43.2487" lon="0.61949">
        <ele>342</ele>
        <time>2024-04-06T07:12:05Z</time>
      </trkpt>
      <trkpt lat="43.24887" lon="0.61976">
        <ele>342</ele>
        <time>2024-04-06T07:12:10Z</time>
      </trkpt>
      <trkpt lat="43.24976" lon="0.62088">
        <ele>346</ele>
        <time>2024-04-06T07:12:31Z</time>
      </trkpt>
      <trkpt lat="43.25246" lon="0.62522">
        <ele>345</ele>
        <time>2024-04-06T07:13:45Z</time>
      </trkpt>
      <trkpt lat="43.25272" lon="0.62568">
        <ele>344</ele>
        <time>2024-04-06T07:13:53Z</time>
      </trkpt>
      <trkpt lat="43.25291" lon="0.62607">
        <ele>343</ele>
        <time>2024-04-06T07:13:59Z</time>
      </trkpt>
      <trkpt lat="43.25305" lon="0.6265">
        <ele>343</ele>
        <time>2024-04-06T07:14:05Z</time>
      </trkpt>
      <trkpt lat="43.25339" lon="0.62794">
        <ele>341</ele>
        <time>2024-04-06T07:14:24Z</time>
      </trkpt>
      <trkpt lat="43.25374" lon="0.63">
        <ele>336</ele>
        <time>2024-04-06T07:14:52Z</time>
      </trkpt>
      <trkpt lat="43.25413" lon="0.63151">
        <ele>333</ele>
        <time>2024-04-06T07:15:13Z</time>
      </trkpt>
      <trkpt lat="43.2543" lon="0.63226">
        <ele>332</ele>
        <time>2024-04-06T07:15:23Z</time>
      </trkpt>
      <trkpt lat="43.25441" lon="0.63314">
        <ele>332</ele>
        <time>2024-04-06T07:15:34Z</time>
      </trkpt>
      <trkpt lat="43.25457" lon="0.63416">
        <ele>330</ele>
        <time>2024-04-06T07:15:48Z</time>
      </trkpt>
      <trkpt lat="43.25477" lon="0.63503">
        <ele>330</ele>
        <time>2024-04-06T07:16:00Z</time>
      </trkpt>
      <trkpt lat="43.25489" lon="0.63536">
        <ele>329</ele>
        <time>2024-04-06T07:16:04Z</time>
      </trkpt>
      <trkpt lat="43.25527" lon="0.63605">
        <ele>329</ele>
        <time>2024-04-06T07:16:16Z</time>
      </trkpt>
      <trkpt lat="43.25589" lon="0.63709">
        <ele>332</ele>
        <time>2024-04-06T07:16:33Z</time>
      </trkpt>
      <trkpt lat="43.25627" lon="0.63764">
        <ele>334</ele>
        <time>2024-04-06T07:16:43Z</time>
      </trkpt>
      <trkpt lat="43.25765" lon="0.63958">
        <ele>339</ele>
        <time>2024-04-06T07:17:18Z</time>
      </trkpt>
      <trkpt lat="43.25793" lon="0.64">
        <ele>341</ele>
        <time>2024-04-06T07:17:25Z</time>
      </trkpt>
      <trkpt lat="43.25826" lon="0.64062">
        <ele>346</ele>
        <time>2024-04-06T07:17:35Z</time>
      </trkpt>
      <trkpt lat="43.25885" lon="0.64181">
        <ele>351</ele>
        <time>2024-04-06T07:17:54Z</time>
      </trkpt>
      <trkpt lat="43.26001" lon="0.64557">
        <ele>353</ele>
        <time>2024-04-06T07:18:47Z</time>
      </trkpt>
      <trkpt lat="43.26053" lon="0.64687">
        <ele>347</ele>
        <time>2024-04-06T07:19:06Z</time>
      </trkpt>
      <trkpt lat="43.26058" lon="0.64714">
        <ele>346</ele>
        <time>2024-04-06T07:19:10Z</time>
      </trkpt>
      <trkpt lat="43.26058" lon="0.64742">
        <ele>343</ele>
        <time>2024-04-06T07:19:13Z</time>
      </trkpt>
      <trkpt lat="43.26056" lon="0.64776">
        <ele>343</ele>
        <time>2024-04-06T07:19:18Z</time>
      </trkpt>
      <trkpt lat="43.26045" lon="0.64811">
        <ele>342</ele>
        <time>2024-04-06T07:19:23Z</time>
      </trkpt>
      <trkpt lat="43.26015" lon="0.64888">
        <ele>342</ele>
        <time>2024-04-06T07:19:34Z</time>
      </trkpt>
      <trkpt lat="43.25984" lon="0.64986">
        <ele>344</ele>
        <time>2024-04-06T07:19:48Z</time>
      </trkpt>
      <trkpt lat="43.25954" lon="0.65185">
        <ele>339</ele>
        <time>2024-04-06T07:20:14Z</time>
      </trkpt>
      <trkpt lat="43.25948" lon="0.65242">
        <ele>340</ele>
        <time>2024-04-06T07:20:22Z</time>
      </trkpt>
      <trkpt lat="43.2594" lon="0.65529">
        <ele>333</ele>
        <time>2024-04-06T07:20:59Z</time>
      </trkpt>
      <trkpt lat="43.25944" lon="0.65593">
        <ele>332</ele>
        <time>2024-04-06T07:21:07Z</time>
      </trkpt>
      <trkpt lat="43.2603" lon="0.66544">
        <ele>317</ele>
        <time>2024-04-06T07:23:11Z</time>
      </trkpt>
      <trkpt lat="43.2603" lon="0.66641">
        <ele>317</ele>
        <time>2024-04-06T07:23:24Z</time>
      </trkpt>
      <trkpt lat="43.26011" lon="0.67836">
        <ele>303</ele>
        <time>2024-04-06T07:25:59Z</time>
      </trkpt>
      <trkpt lat="43.26005" lon="0.67948">
        <ele>304</ele>
        <time>2024-04-06T07:26:13Z</time>
      </trkpt>
      <trkpt lat="43.2598" lon="0.68025">
        <ele>302</ele>
        <time>2024-04-06T07:26:24Z</time>
      </trkpt>
      <trkpt lat="43.2594" lon="0.68102">
        <ele>298</ele>
        <time>2024-04-06T07:26:37Z</time>
      </trkpt>
      <trkpt lat="43.25886" lon="0.68188">
        <ele>292</ele>
        <time>2024-04-06T07:26:51Z</time>
      </trkpt>
      <trkpt lat="43.25852" lon="0.68274">
        <ele>288</ele>
        <time>2024-04-06T07:27:04Z</time>
      </trkpt>
      <trkpt lat="43.2584" lon="0.68364">
        <ele>286</ele>
        <time>2024-04-06T07:27:16Z</time>
      </trkpt>
      <trkpt lat="43.25836" lon="0.68454">
        <ele>284</ele>
        <time>2024-04-06T07:27:28Z</time>
      </trkpt>
      <trkpt lat="43.25852" lon="0.68549">
        <ele>284</ele>
        <time>2024-04-06T07:27:40Z</time>
      </trkpt>
      <trkpt lat="43.259" lon="0.68752">
        <ele>279</ele>
        <time>2024-04-06T07:28:08Z</time>
      </trkpt>
      <trkpt lat="43.25973" lon="0.69082">
        <ele>277</ele>
        <time>2024-04-06T07:28:53Z</time>
      </trkpt>
      <trkpt lat="43.26068" lon="0.69534">
        <ele>275</ele>
        <time>2024-04-06T07:29:53Z</time>
      </trkpt>
      <trkpt lat="43.26439" lon="0.71228">
        <ele>266</ele>
        <time>2024-04-06T07:33:43Z</time>
      </trkpt>
      <trkpt lat="43.26444" lon="0.71239">
        <ele>266</ele>
        <time>2024-04-06T07:33:44Z</time>
      </trkpt>
      <trkpt lat="43.26449" lon="0.71246">
        <ele>266</ele>
        <time>2024-04-06T07:33:46Z</time>
      </trkpt>
      <trkpt lat="43.26451" lon="0.71253">
        <ele>266</ele>
        <time>2024-04-06T07:33:47Z</time>
      </trkpt>
      <trkpt lat="43.26302" lon="0.71675">
        <ele>264</ele>
        <time>2024-04-06T07:34:47Z</time>
      </trkpt>
      <trkpt lat="43.26289" lon="0.71711">
        <ele>264</ele>
        <time>2024-04-06T07:34:53Z</time>
      </trkpt>
      <trkpt lat="43.26232" lon="0.71871">
        <ele>264</ele>
        <time>2024-04-06T07:35:16Z</time>
      </trkpt>
      <trkpt lat="43.2621" lon="0.71921">
        <ele>265</ele>
        <time>2024-04-06T07:35:23Z</time>
      </trkpt>
      <trkpt lat="43.26197" lon="0.71938">
        <ele>266</ele>
        <time>2024-04-06T07:35:26Z</time>
      </trkpt>
      <trkpt lat="43.26178" lon="0.71953">
        <ele>268</ele>
        <time>2024-04-06T07:35:30Z</time>
      </trkpt>
      <trkpt lat="43.26173" lon="0.71965">
        <ele>269</ele>
        <time>2024-04-06T07:35:32Z</time>
      </trkpt>
      <trkpt lat="43.26177" lon="0.71972">
        <ele>269</ele>
        <time>2024-04-06T07:35:33Z</time>
      </trkpt>
      <trkpt lat="43.26179" lon="0.71983">
        <ele>270</ele>
        <time>2024-04-06T07:35:35Z</time>
      </trkpt>
      <trkpt lat="43.2618" lon="0.72003">
        <ele>271</ele>
        <time>2024-04-06T07:35:37Z</time>
      </trkpt>
      <trkpt lat="43.26172" lon="0.72038">
        <ele>273</ele>
        <time>2024-04-06T07:35:42Z</time>
      </trkpt>
      <trkpt lat="43.26168" lon="0.72065">
        <ele>276</ele>
        <time>2024-04-06T07:35:46Z</time>
      </trkpt>
      <trkpt lat="43.26166" lon="0.72092">
        <ele>277</ele>
        <time>2024-04-06T07:35:49Z</time>
      </trkpt>
      <trkpt lat="43.26167" lon="0.72121">
        <ele>276</ele>
        <time>2024-04-06T07:35:53Z</time>
      </trkpt>
      <trkpt lat="43.26171" lon="0.72152">
        <ele>275</ele>
        <time>2024-04-06T07:35:57Z</time>
      </trkpt>
      <trkpt lat="43.26178" lon="0.72184">
        <ele>273</ele>
        <time>2024-04-06T07:36:01Z</time>
      </trkpt>
      <trkpt lat="43.26188" lon="0.72219">
        <ele>271</ele>
        <time>2024-04-06T07:36:06Z</time>
      </trkpt>
      <trkpt lat="43.26244" lon="0.72393">
        <ele>281</ele>
        <time>2024-04-06T07:36:31Z</time>
      </trkpt>
      <trkpt lat="43.2625" lon="0.72419">
        <ele>283</ele>
        <time>2024-04-06T07:36:34Z</time>
      </trkpt>
      <trkpt lat="43.26255" lon="0.7246">
        <ele>287</ele>
        <time>2024-04-06T07:36:40Z</time>
      </trkpt>
      <trkpt lat="43.2628" lon="0.72761">
        <ele>310</ele>
        <time>2024-04-06T07:37:19Z</time>
      </trkpt>
      <trkpt lat="43.26278" lon="0.72889">
        <ele>314</ele>
        <time>2024-04-06T07:37:36Z</time>
      </trkpt>
      <trkpt lat="43.26266" lon="0.73096">
        <ele>324</ele>
        <time>2024-04-06T07:38:03Z</time>
      </trkpt>
      <trkpt lat="43.26254" lon="0.7315">
        <ele>329</ele>
        <time>2024-04-06T07:38:10Z</time>
      </trkpt>
      <trkpt lat="43.26228" lon="0.73232">
        <ele>338</ele>
        <time>2024-04-06T07:38:21Z</time>
      </trkpt>
      <trkpt lat="43.2621" lon="0.73265">
        <ele>339</ele>
        <time>2024-04-06T07:38:27Z</time>
      </trkpt>
      <trkpt lat="43.2618" lon="0.73303">
        <ele>339</ele>
        <time>2024-04-06T07:38:34Z</time>
      </trkpt>
      <trkpt lat="43.26162" lon="0.73339">
        <ele>342</ele>
        <time>2024-04-06T07:38:40Z</time>
      </trkpt>
      <trkpt lat="43.26143" lon="0.73437">
        <ele>351</ele>
        <time>2024-04-06T07:38:53Z</time>
      </trkpt>
      <trkpt lat="43.26135" lon="0.73464">
        <ele>353</ele>
        <time>2024-04-06T07:38:57Z</time>
      </trkpt>
      <trkpt lat="43.26117" lon="0.73499">
        <ele>355</ele>
        <time>2024-04-06T07:39:02Z</time>
      </trkpt>
      <trkpt lat="43.26088" lon="0.73539">
        <ele>358</ele>
        <time>2024-04-06T07:39:09Z</time>
      </trkpt>
      <trkpt lat="43.2607" lon="0.73556">
        <ele>359</ele>
        <time>2024-04-06T07:39:13Z</time>
      </trkpt>
      <trkpt lat="43.25949" lon="0.73622">
        <ele>359</ele>
        <time>2024-04-06T07:39:37Z</time>
      </trkpt>
      <trkpt lat="43.25926" lon="0.73643">
        <ele>360</ele>
        <time>2024-04-06T07:39:41Z</time>
      </trkpt>
      <trkpt lat="43.25899" lon="0.73677">
        <ele>360</ele>
        <time>2024-04-06T07:39:48Z</time>
      </trkpt>
      <trkpt lat="43.25988" lon="0.73807">
        <ele>359</ele>
        <time>2024-04-06T07:40:11Z</time>
      </trkpt>
      <trkpt lat="43.26005" lon="0.73844">
        <ele>358</ele>
        <time>2024-04-06T07:40:17Z</time>
      </trkpt>
      <trkpt lat="43.26021" lon="0.73899">
        <ele>358</ele>
        <time>2024-04-06T07:40:24Z</time>
      </trkpt>
      <trkpt lat="43.26127" lon="0.74738">
        <ele>366</ele>
        <time>2024-04-06T07:42:15Z</time>
      </trkpt>
      <trkpt lat="43.26138" lon="0.74775">
        <ele>365</ele>
        <time>2024-04-06T07:42:20Z</time>
      </trkpt>
      <trkpt lat="43.26159" lon="0.74824">
        <ele>363</ele>
        <time>2024-04-06T07:42:27Z</time>
      </trkpt>
      <trkpt lat="43.26186" lon="0.74862">
        <ele>361</ele>
        <time>2024-04-06T07:42:34Z</time>
      </trkpt>
      <trkpt lat="43.26208" lon="0.74886">
        <ele>361</ele>
        <time>2024-04-06T07:42:39Z</time>
      </trkpt>
      <trkpt lat="43.26233" lon="0.74904">
        <ele>361</ele>
        <time>2024-04-06T07:42:44Z</time>
      </trkpt>
      <trkpt lat="43.26257" lon="0.74916">
        <ele>362</ele>
        <time>2024-04-06T07:42:49Z</time>
      </trkpt>
      <trkpt lat="43.26285" lon="0.74921">
        <ele>360</ele>
        <time>2024-04-06T07:42:54Z</time>
      </trkpt>
      <trkpt lat="43.26304" lon="0.7492">
        <ele>359</ele>
        <time>2024-04-06T07:42:57Z</time>
      </trkpt>
      <trkpt lat="43.26322" lon="0.74914">
        <ele>358</ele>
        <time>2024-04-06T07:43:00Z</time>
      </trkpt>
      <trkpt lat="43.26417" lon="0.7484">
        <ele>354</ele>
        <time>2024-04-06T07:43:20Z</time>
      </trkpt>
      <trkpt lat="43.26456" lon="0.7483">
        <ele>353</ele>
        <time>2024-04-06T07:43:27Z</time>
      </trkpt>
      <trkpt lat="43.2649" lon="0.74834">
        <ele>352</ele>
        <time>2024-04-06T07:43:33Z</time>
      </trkpt>
      <trkpt lat="43.26526" lon="0.7485">
        <ele>351</ele>
        <time>2024-04-06T07:43:40Z</time>
      </trkpt>
      <trkpt lat="43.26566" lon="0.74878">
        <ele>351</ele>
        <time>2024-04-06T07:43:48Z</time>
      </trkpt>
      <trkpt lat="43.26597" lon="0.74913">
        <ele>350</ele>
        <time>2024-04-06T07:43:55Z</time>
      </trkpt>
      <trkpt lat="43.26625" lon="0.74958">
        <ele>350</ele>
        <time>2024-04-06T07:44:03Z</time>
      </trkpt>
      <trkpt lat="43.267" lon="0.7511">
        <ele>353</ele>
        <time>2024-04-06T07:44:26Z</time>
      </trkpt>
      <trkpt lat="43.26729" lon="0.75151">
        <ele>354</ele>
        <time>2024-04-06T07:44:34Z</time>
      </trkpt>
      <trkpt lat="43.26762" lon="0.75184">
        <ele>355</ele>
        <time>2024-04-06T07:44:41Z</time>
      </trkpt>
      <trkpt lat="43.27015" lon="0.75413">
        <ele>358</ele>
        <time>2024-04-06T07:45:35Z</time>
      </trkpt>
      <trkpt lat="43.27057" lon="0.75458">
        <ele>358</ele>
        <time>2024-04-06T07:45:44Z</time>
      </trkpt>
      <trkpt lat="43.27088" lon="0.75507">
        <ele>359</ele>
        <time>2024-04-06T07:45:53Z</time>
      </trkpt>
      <trkpt lat="43.27112" lon="0.75551">
        <ele>360</ele>
        <time>2024-04-06T07:46:00Z</time>
      </trkpt>
      <trkpt lat="43.2713" lon="0.756">
        <ele>362</ele>
        <time>2024-04-06T07:46:07Z</time>
      </trkpt>
      <trkpt lat="43.27141" lon="0.75638">
        <ele>364</ele>
        <time>2024-04-06T07:46:12Z</time>
      </trkpt>
      <trkpt lat="43.27149" lon="0.75684">
        <ele>366</ele>
        <time>2024-04-06T07:46:18Z</time>
      </trkpt>
      <trkpt lat="43.27151" lon="0.75742">
        <ele>367</ele>
        <time>2024-04-06T07:46:26Z</time>
      </trkpt>
      <trkpt lat="43.27115" lon="0.76338">
        <ele>372</ele>
        <time>2024-04-06T07:47:43Z</time>
      </trkpt>
      <trkpt lat="43.27104" lon="0.76396">
        <ele>371</ele>
        <time>2024-04-06T07:47:51Z</time>
      </trkpt>
      <trkpt lat="43.27073" lon="0.76494">
        <ele>374</ele>
        <time>2024-04-06T07:48:05Z</time>
      </trkpt>
      <trkpt lat="43.27065" lon="0.76594">
        <ele>373</ele>
        <time>2024-04-06T07:48:18Z</time>
      </trkpt>
      <trkpt lat="43.27049" lon="0.77308">
        <ele>365</ele>
        <time>2024-04-06T07:49:51Z</time>
      </trkpt>
      <trkpt lat="43.2705" lon="0.77331">
        <ele>365</ele>
        <time>2024-04-06T07:49:54Z</time>
      </trkpt>
      <trkpt lat="43.27055" lon="0.7737">
        <ele>366</ele>
        <time>2024-04-06T07:49:59Z</time>
      </trkpt>
      <trkpt lat="43.27065" lon="0.77411">
        <ele>368</ele>
        <time>2024-04-06T07:50:04Z</time>
      </trkpt>
      <trkpt lat="43.27172" lon="0.77628">
        <ele>368</ele>
        <time>2024-04-06T07:50:38Z</time>
      </trkpt>
      <trkpt lat="43.27201" lon="0.77671">
        <ele>367</ele>
        <time>2024-04-06T07:50:46Z</time>
      </trkpt>
      <trkpt lat="43.27312" lon="0.778">
        <ele>369</ele>
        <time>2024-04-06T07:51:12Z</time>
      </trkpt>
      <trkpt lat="43.2734" lon="0.77828">
        <ele>370</ele>
        <time>2024-04-06T07:51:18Z</time>
      </trkpt>
      <trkpt lat="43.27381" lon="0.77849">
        <ele>368</ele>
        <time>2024-04-06T07:51:26Z</time>
      </trkpt>
      <trkpt lat="43.27565" lon="0.77935">
        <ele>361</ele>
        <time>2024-04-06T07:52:00Z</time>
      </trkpt>
      <trkpt lat="43.27583" lon="0.77948">
        <ele>361</ele>
        <time>2024-04-06T07:52:04Z</time>
      </trkpt>
      <trkpt lat="43.27603" lon="0.77973">
        <ele>361</ele>
        <time>2024-04-06T07:52:09Z</time>
      </trkpt>
      <trkpt lat="43.27625" lon="0.78015">
        <ele>363</ele>
        <time>2024-04-06T07:52:15Z</time>
      </trkpt>
      <trkpt lat="43.2765" lon="0.781">
        <ele>365</ele>
        <time>2024-04-06T07:52:27Z</time>
      </trkpt>
      <trkpt lat="43.27662" lon="0.78154">
        <ele>366</ele>
        <time>2024-04-06T07:52:35Z</time>
      </trkpt>
      <trkpt lat="43.27666" lon="0.78207">
        <ele>366</ele>
        <time>2024-04-06T07:52:42Z</time>
      </trkpt>
      <trkpt lat="43.27661" lon="0.7826">
        <ele>367</ele>
        <time>2024-04-06T07:52:48Z</time>
      </trkpt>
      <trkpt lat="43.27663" lon="0.78299">
        <ele>368</ele>
        <time>2024-04-06T07:52:54Z</time>
      </trkpt>
      <trkpt lat="43.27673" lon="0.78336">
        <ele>368</ele>
        <time>2024-04-06T07:52:59Z</time>
      </trkpt>
      <trkpt lat="43.27688" lon="0.78378">
        <ele>369</ele>
        <time>2024-04-06T07:53:05Z</time>
      </trkpt>
      <trkpt lat="43.27696" lon="0.7841">
        <ele>369</ele>
        <time>2024-04-06T07:53:09Z</time>
      </trkpt>
      <trkpt lat="43.27698" lon="0.78443">
        <ele>369</ele>
        <time>2024-04-06T07:53:13Z</time>
      </trkpt>
      <trkpt lat="43.27698" lon="0.78519">
        <ele>367</ele>
        <time>2024-04-06T07:53:23Z</time>
      </trkpt>
      <trkpt lat="43.27764" lon="0.78991">
        <ele>366</ele>
        <time>2024-04-06T07:54:25Z</time>
      </trkpt>
      <trkpt lat="43.27775" lon="0.79038">
        <ele>368</ele>
        <time>2024-04-06T07:54:32Z</time>
      </trkpt>
      <trkpt lat="43.27788" lon="0.79064">
        <ele>368</ele>
        <time>2024-04-06T07:54:36Z</time>
      </trkpt>
      <trkpt lat="43.27799" lon="0.79081">
        <ele>369</ele>
        <time>2024-04-06T07:54:39Z</time>
      </trkpt>
      <trkpt lat="43.27828" lon="0.79104">
        <ele>369</ele>
        <time>2024-04-06T07:54:45Z</time>
      </trkpt>
      <trkpt lat="43.27863" lon="0.79117">
        <ele>368</ele>
        <time>2024-04-06T07:54:51Z</time>
      </trkpt>
      <trkpt lat="43.27884" lon="0.79129">
        <ele>368</ele>
        <time>2024-04-06T07:54:55Z</time>
      </trkpt>
      <trkpt lat="43.28038" lon="0.7927">
        <ele>368</ele>
        <time>2024-04-06T07:55:28Z</time>
      </trkpt>
      <trkpt lat="43.28083" lon="0.79315">
        <ele>369</ele>
        <time>2024-04-06T07:55:38Z</time>
      </trkpt>
      <trkpt lat="43.28098" lon="0.79336">
        <ele>370</ele>
        <time>2024-04-06T07:55:42Z</time>
      </trkpt>
      <trkpt lat="43.28106" lon="0.79356">
        <ele>371</ele>
        <time>2024-04-06T07:55:45Z</time>
      </trkpt>
      <trkpt lat="43.28111" lon="0.79389">
        <ele>373</ele>
        <time>2024-04-06T07:55:49Z</time>
      </trkpt>
      <trkpt lat="43.281" lon="0.79669">
        <ele>373</ele>
        <time>2024-04-06T07:56:26Z</time>
      </trkpt>
      <trkpt lat="43.281" lon="0.79716">
        <ele>372</ele>
        <time>2024-04-06T07:56:32Z</time>
      </trkpt>
      <trkpt lat="43.28107" lon="0.79746">
        <ele>372</ele>
        <time>2024-04-06T07:56:36Z</time>
      </trkpt>
      <trkpt lat="43.28124" lon="0.79774">
        <ele>371</ele>
        <time>2024-04-06T07:56:41Z</time>
      </trkpt>
      <trkpt lat="43.28147" lon="0.79796">
        <ele>372</ele>
        <time>2024-04-06T07:56:46Z</time>
      </trkpt>
      <trkpt lat="43.28158" lon="0.7981">
        <ele>372</ele>
        <time>2024-04-06T07:56:48Z</time>
      </trkpt>
      <trkpt lat="43.28169" lon="0.79835">
        <ele>371</ele>
        <time>2024-04-06T07:56:52Z</time>
      </trkpt>
      <trkpt lat="43.28177" lon="0.79871">
        <ele>369</ele>
        <time>2024-04-06T07:56:57Z</time>
      </trkpt>
      <trkpt lat="43.28225" lon="0.80447">
        <ele>369</ele>
        <time>2024-04-06T07:58:12Z</time>
      </trkpt>
      <trkpt lat="43.28229" lon="0.80495">
        <ele>370</ele>
        <time>2024-04-06T07:58:18Z</time>
      </trkpt>
      <trkpt lat="43.2823" lon="0.80537">
        <ele>371</ele>
        <time>2024-04-06T07:58:24Z</time>
      </trkpt>
      <trkpt lat="43.28225" lon="0.80539">
        <ele>371</ele>
        <time>2024-04-06T07:58:25Z</time>
      </trkpt>
      <trkpt lat="43.2822" lon="0.80545">
        <ele>371</ele>
        <time>2024-04-06T07:58:26Z</time>
      </trkpt>
      <trkpt lat="43.28198" lon="0.80613">
        <ele>373</ele>
        <time>2024-04-06T07:58:35Z</time>
      </trkpt>
      <trkpt lat="43.28179" lon="0.80657">
        <ele>375</ele>
        <time>2024-04-06T07:58:42Z</time>
      </trkpt>
      <trkpt lat="43.28162" lon="0.80691">
        <ele>375</ele>
        <time>2024-04-06T07:58:47Z</time>
      </trkpt>
      <trkpt lat="43.2807" lon="0.80944">
        <ele>377</ele>
        <time>2024-04-06T07:59:24Z</time>
      </trkpt>
      <trkpt lat="43.28043" lon="0.80993">
        <ele>377</ele>
        <time>2024-04-06T07:59:32Z</time>
      </trkpt>
      <trkpt lat="43.28035" lon="0.81011">
        <ele>377</ele>
        <time>2024-04-06T07:59:35Z</time>
      </trkpt>
      <trkpt lat="43.27977" lon="0.81205">
        <ele>375</ele>
        <time>2024-04-06T08:00:02Z</time>
      </trkpt>
      <trkpt lat="43.27971" lon="0.81236">
        <ele>374</ele>
        <time>2024-04-06T08:00:06Z</time>
      </trkpt>
      <trkpt lat="43.2797" lon="0.81264">
        <ele>374</ele>
        <time>2024-04-06T08:00:10Z</time>
      </trkpt>
      <trkpt lat="43.27972" lon="0.81359">
        <ele>370</ele>
        <time>2024-04-06T08:00:22Z</time>
      </trkpt>
      <trkpt lat="43.27976" lon="0.81397">
        <ele>369</ele>
        <time>2024-04-06T08:00:27Z</time>
      </trkpt>
      <trkpt lat="43.28" lon="0.81506">
        <ele>372</ele>
        <time>2024-04-06T08:00:42Z</time>
      </trkpt>
      <trkpt lat="43.28006" lon="0.81543">
        <ele>372</ele>
        <time>2024-04-06T08:00:47Z</time>
      </trkpt>
      <trkpt lat="43.28011" lon="0.81656">
        <ele>371</ele>
        <time>2024-04-06T08:01:01Z</time>
      </trkpt>
      <trkpt lat="43.28029" lon="0.8186">
        <ele>368</ele>
        <time>2024-04-06T08:01:28Z</time>
      </trkpt>
      <trkpt lat="43.28028" lon="0.81884">
        <ele>369</ele>
        <time>2024-04-06T08:01:31Z</time>
      </trkpt>
      <trkpt lat="43.28016" lon="0.81955">
        <ele>370</ele>
        <time>2024-04-06T08:01:40Z</time>
      </trkpt>
      <trkpt lat="43.28008" lon="0.82027">
        <ele>371</ele>
        <time>2024-04-06T08:01:50Z</time>
      </trkpt>
      <trkpt lat="43.28003" lon="0.82051">
        <ele>371</ele>
        <time>2024-04-06T08:01:53Z</time>
      </trkpt>
      <trkpt lat="43.27993" lon="0.82078">
        <ele>370</ele>
        <time>2024-04-06T08:01:57Z</time>
      </trkpt>
      <trkpt lat="43.27953" lon="0.82156">
        <ele>367</ele>
        <time>2024-04-06T08:02:09Z</time>
      </trkpt>
      <trkpt lat="43.27936" lon="0.82198">
        <ele>368</ele>
        <time>2024-04-06T08:02:16Z</time>
      </trkpt>
      <trkpt lat="43.27917" lon="0.82285">
        <ele>368</ele>
        <time>2024-04-06T08:02:27Z</time>
      </trkpt>
      <trkpt lat="43.27907" lon="0.82354">
        <ele>366</ele>
        <time>2024-04-06T08:02:36Z</time>
      </trkpt>
      <trkpt lat="43.27904" lon="0.82408">
        <ele>367</ele>
        <time>2024-04-06T08:02:44Z</time>
      </trkpt>
      <trkpt lat="43.27911" lon="0.82543">
        <ele>370</ele>
        <time>2024-04-06T08:03:01Z</time>
      </trkpt>
      <trkpt lat="43.27913" lon="0.82853">
        <ele>370</ele>
        <time>2024-04-06T08:03:41Z</time>
      </trkpt>
      <trkpt lat="43.27915" lon="0.82869">
        <ele>369</ele>
        <time>2024-04-06T08:03:43Z</time>
      </trkpt>
      <trkpt lat="43.27934" lon="0.82929">
        <ele>367</ele>
        <time>2024-04-06T08:03:52Z</time>
      </trkpt>
      <trkpt lat="43.27991" lon="0.8309">
        <ele>365</ele>
        <time>2024-04-06T08:04:15Z</time>
      </trkpt>
      <trkpt lat="43.28004" lon="0.83137">
        <ele>365</ele>
        <time>2024-04-06T08:04:21Z</time>
      </trkpt>
      <trkpt lat="43.28014" lon="0.83201">
        <ele>364</ele>
        <time>2024-04-06T08:04:30Z</time>
      </trkpt>
      <trkpt lat="43.28025" lon="0.83371">
        <ele>367</ele>
        <time>2024-04-06T08:04:52Z</time>
      </trkpt>
      <trkpt lat="43.28035" lon="0.83448">
        <ele>368</ele>
        <time>2024-04-06T08:05:02Z</time>
      </trkpt>
      <trkpt lat="43.28064" lon="0.83592">
        <ele>368</ele>
        <time>2024-04-06T08:05:22Z</time>
      </trkpt>
      <trkpt lat="43.28068" lon="0.83617">
        <ele>368</ele>
        <time>2024-04-06T08:05:25Z</time>
      </trkpt>
      <trkpt lat="43.28069" lon="0.83675">
        <ele>367</ele>
        <time>2024-04-06T08:05:32Z</time>
      </trkpt>
      <trkpt lat="43.28072" lon="0.83729">
        <ele>366</ele>
        <time>2024-04-06T08:05:39Z</time>
      </trkpt>
      <trkpt lat="43.28079" lon="0.83772">
        <ele>367</ele>
        <time>2024-04-06T08:05:45Z</time>
      </trkpt>
      <trkpt lat="43.28087" lon="0.83801">
        <ele>367</ele>
        <time>2024-04-06T08:05:49Z</time>
      </trkpt>
      <trkpt lat="43.28099" lon="0.83833">
        <ele>367</ele>
        <time>2024-04-06T08:05:54Z</time>
      </trkpt>
      <trkpt lat="43.28258" lon="0.84198">
        <ele>368</ele>
        <time>2024-04-06T08:06:49Z</time>
      </trkpt>
      <trkpt lat="43.28309" lon="0.84342">
        <ele>370</ele>
        <time>2024-04-06T08:07:10Z</time>
      </trkpt>
      <trkpt lat="43.28327" lon="0.8441">
        <ele>373</ele>
        <time>2024-04-06T08:07:19Z</time>
      </trkpt>
      <trkpt lat="43.28338" lon="0.84466">
        <ele>372</ele>
        <time>2024-04-06T08:07:27Z</time>
      </trkpt>
      <trkpt lat="43.28348" lon="0.84587">
        <ele>370</ele>
        <time>2024-04-06T08:07:42Z</time>
      </trkpt>
      <trkpt lat="43.28375" lon="0.84748">
        <ele>371</ele>
        <time>2024-04-06T08:08:04Z</time>
      </trkpt>
      <trkpt lat="43.28372" lon="0.84776">
        <ele>372</ele>
        <time>2024-04-06T08:08:07Z</time>
      </trkpt>
      <trkpt lat="43.28367" lon="0.84805">
        <ele>373</ele>
        <time>2024-04-06T08:08:11Z</time>
      </trkpt>
      <trkpt lat="43.28355" lon="0.84839">
        <ele>374</ele>
        <time>2024-04-06T08:08:16Z</time>
      </trkpt>
      <trkpt lat="43.28353" lon="0.84869">
        <ele>374</ele>
        <time>2024-04-06T08:08:20Z</time>
      </trkpt>
      <trkpt lat="43.28355" lon="0.84894">
        <ele>375</ele>
        <time>2024-04-06T08:08:23Z</time>
      </trkpt>
      <trkpt lat="43.28363" lon="0.84916">
        <ele>377</ele>
        <time>2024-04-06T08:08:26Z</time>
      </trkpt>
      <trkpt lat="43.28375" lon="0.84936">
        <ele>377</ele>
        <time>2024-04-06T08:08:30Z</time>
      </trkpt>
      <trkpt lat="43.2839" lon="0.84952">
        <ele>377</ele>
        <time>2024-04-06T08:08:33Z</time>
      </trkpt>
      <trkpt lat="43.28433" lon="0.84991">
        <ele>377</ele>
        <time>2024-04-06T08:08:42Z</time>
      </trkpt>
      <trkpt lat="43.28448" lon="0.85012">
        <ele>376</ele>
        <time>2024-04-06T08:08:46Z</time>
      </trkpt>
      <trkpt lat="43.28464" lon="0.85044">
        <ele>374</ele>
        <time>2024-04-06T08:08:51Z</time>
      </trkpt>
      <trkpt lat="43.28471" lon="0.85071">
        <ele>373</ele>
        <time>2024-04-06T08:08:55Z</time>
      </trkpt>
      <trkpt lat="43.28476" lon="0.85098">
        <ele>373</ele>
        <time>2024-04-06T08:08:59Z</time>
      </trkpt>
      <trkpt lat="43.28486" lon="0.85126">
        <ele>373</ele>
        <time>2024-04-06T08:09:03Z</time>
      </trkpt>
      <trkpt lat="43.285" lon="0.85154">
        <ele>374</ele>
        <time>2024-04-06T08:09:07Z</time>
      </trkpt>
      <trkpt lat="43.28508" lon="0.85182">
        <ele>373</ele>
        <time>2024-04-06T08:09:11Z</time>
      </trkpt>
      <trkpt lat="43.28509" lon="0.85208">
        <ele>372</ele>
        <time>2024-04-06T08:09:14Z</time>
      </trkpt>
      <trkpt lat="43.28508" lon="0.85297">
        <ele>370</ele>
        <time>2024-04-06T08:09:26Z</time>
      </trkpt>
      <trkpt lat="43.2851" lon="0.85342">
        <ele>370</ele>
        <time>2024-04-06T08:09:32Z</time>
      </trkpt>
      <trkpt lat="43.28511" lon="0.85359">
        <ele>369</ele>
        <time>2024-04-06T08:09:34Z</time>
      </trkpt>
      <trkpt lat="43.28516" lon="0.85387">
        <ele>368</ele>
        <time>2024-04-06T08:09:38Z</time>
      </trkpt>
      <trkpt lat="43.28529" lon="0.85428">
        <ele>366</ele>
        <time>2024-04-06T08:09:43Z</time>
      </trkpt>
      <trkpt lat="43.28571" lon="0.85537">
        <ele>365</ele>
        <time>2024-04-06T08:09:59Z</time>
      </trkpt>
      <trkpt lat="43.28588" lon="0.85599">
        <ele>365</ele>
        <time>2024-04-06T08:10:08Z</time>
      </trkpt>
      <trkpt lat="43.28608" lon="0.85756">
        <ele>367</ele>
        <time>2024-04-06T08:10:29Z</time>
      </trkpt>
      <trkpt lat="43.28632" lon="0.8597">
        <ele>367</ele>
        <time>2024-04-06T08:10:57Z</time>
      </trkpt>
      <trkpt lat="43.28638" lon="0.86029">
        <ele>366</ele>
        <time>2024-04-06T08:11:04Z</time>
      </trkpt>
      <trkpt lat="43.28639" lon="0.8607">
        <ele>366</ele>
        <time>2024-04-06T08:11:10Z</time>
      </trkpt>
      <trkpt lat="43.28636" lon="0.86109">
        <ele>366</ele>
        <time>2024-04-06T08:11:15Z</time>
      </trkpt>
      <trkpt lat="43.2863" lon="0.86138">
        <ele>367</ele>
        <time>2024-04-06T08:11:19Z</time>
      </trkpt>
      <trkpt lat="43.28619" lon="0.8617">
        <ele>368</ele>
        <time>2024-04-06T08:11:23Z</time>
      </trkpt>
      <trkpt lat="43.28603" lon="0.86201">
        <ele>367</ele>
        <time>2024-04-06T08:11:28Z</time>
      </trkpt>
      <trkpt lat="43.28573" lon="0.86243">
        <ele>368</ele>
        <time>2024-04-06T08:11:36Z</time>
      </trkpt>
      <trkpt lat="43.28565" lon="0.86259">
        <ele>368</ele>
        <time>2024-04-06T08:11:38Z</time>
      </trkpt>
      <trkpt lat="43.28561" lon="0.8628">
        <ele>367</ele>
        <time>2024-04-06T08:11:41Z</time>
      </trkpt>
      <trkpt lat="43.28562" lon="0.86312">
        <ele>365</ele>
        <time>2024-04-06T08:11:45Z</time>
      </trkpt>
      <trkpt lat="43.28573" lon="0.86408">
        <ele>359</ele>
        <time>2024-04-06T08:11:58Z</time>
      </trkpt>
      <trkpt lat="43.28598" lon="0.86539">
        <ele>356</ele>
        <time>2024-04-06T08:12:15Z</time>
      </trkpt>
      <trkpt lat="43.28609" lon="0.8659">
        <ele>355</ele>
        <time>2024-04-06T08:12:22Z</time>
      </trkpt>
      <trkpt lat="43.28673" lon="0.86811">
        <ele>358</ele>
        <time>2024-04-06T08:12:53Z</time>
      </trkpt>
      <trkpt lat="43.28722" lon="0.8697">
        <ele>359</ele>
        <time>2024-04-06T08:13:15Z</time>
      </trkpt>
      <trkpt lat="43.28753" lon="0.87079">
        <ele>361</ele>
        <time>2024-04-06T08:13:31Z</time>
      </trkpt>
      <trkpt lat="43.28775" lon="0.87139">
        <ele>361</ele>
        <time>2024-04-06T08:13:39Z</time>
      </trkpt>
      <trkpt lat="43.28797" lon="0.87235">
        <ele>359</ele>
        <time>2024-04-06T08:13:52Z</time>
      </trkpt>
      <trkpt lat="43.28802" lon="0.87277">
        <ele>359</ele>
        <time>2024-04-06T08:13:58Z</time>
      </trkpt>
      <trkpt lat="43.28804" lon="0.87497">
        <ele>366</ele>
        <time>2024-04-06T08:14:26Z</time>
      </trkpt>
      <trkpt lat="43.28809" lon="0.87551">
        <ele>367</ele>
        <time>2024-04-06T08:14:33Z</time>
      </trkpt>
      <trkpt lat="43.28859" lon="0.87745">
        <ele>371</ele>
        <time>2024-04-06T08:15:00Z</time>
      </trkpt>
      <trkpt lat="43.28864" lon="0.87804">
        <ele>373</ele>
        <time>2024-04-06T08:15:08Z</time>
      </trkpt>
      <trkpt lat="43.28855" lon="0.87903">
        <ele>374</ele>
        <time>2024-04-06T08:15:21Z</time>
      </trkpt>
      <trkpt lat="43.28858" lon="0.88012">
        <ele>370</ele>
        <time>2024-04-06T08:15:35Z</time>
      </trkpt>
      <trkpt lat="43.28866" lon="0.88164">
        <ele>367</ele>
        <time>2024-04-06T08:15:54Z</time>
      </trkpt>
      <trkpt lat="43.28874" lon="0.88285">
        <ele>366</ele>
        <time>2024-04-06T08:16:10Z</time>
      </trkpt>
      <trkpt lat="43.28873" lon="0.8833">
        <ele>364</ele>
        <time>2024-04-06T08:16:16Z</time>
      </trkpt>
      <trkpt lat="43.28865" lon="0.88399">
        <ele>363</ele>
        <time>2024-04-06T08:16:25Z</time>
      </trkpt>
      <trkpt lat="43.28867" lon="0.88427">
        <ele>362</ele>
        <time>2024-04-06T08:16:29Z</time>
      </trkpt>
      <trkpt lat="43.28887" lon="0.88509">
        <ele>361</ele>
        <time>2024-04-06T08:16:40Z</time>
      </trkpt>
      <trkpt lat="43.28893" lon="0.88548">
        <ele>363</ele>
        <time>2024-04-06T08:16:45Z</time>
      </trkpt>
      <trkpt lat="43.28897" lon="0.88584">
        <ele>364</ele>
        <time>2024-04-06T08:16:50Z</time>
      </trkpt>
      <trkpt lat="43.28895" lon="0.88666">
        <ele>366</ele>
        <time>2024-04-06T08:17:00Z</time>
      </trkpt>
      <trkpt lat="43.28882" lon="0.88732">
        <ele>369</ele>
        <time>2024-04-06T08:17:09Z</time>
      </trkpt>
      <trkpt lat="43.28872" lon="0.88764">
        <ele>371</ele>
        <time>2024-04-06T08:17:14Z</time>
      </trkpt>
      <trkpt lat="43.28859" lon="0.88793">
        <ele>373</ele>
        <time>2024-04-06T08:17:18Z</time>
      </trkpt>
      <trkpt lat="43.28849" lon="0.88818">
        <ele>375</ele>
        <time>2024-04-06T08:17:22Z</time>
      </trkpt>
      <trkpt lat="43.28805" lon="0.88896">
        <ele>377</ele>
        <time>2024-04-06T08:17:35Z</time>
      </trkpt>
      <trkpt lat="43.28783" lon="0.88967">
        <ele>377</ele>
        <time>2024-04-06T08:17:45Z</time>
      </trkpt>
      <trkpt lat="43.28775" lon="0.89039">
        <ele>374</ele>
        <time>2024-04-06T08:17:54Z</time>
      </trkpt>
      <trkpt lat="43.28773" lon="0.89082">
        <ele>371</ele>
        <time>2024-04-06T08:18:00Z</time>
      </trkpt>
      <trkpt lat="43.28776" lon="0.89191">
        <ele>366</ele>
        <time>2024-04-06T08:18:14Z</time>
      </trkpt>
      <trkpt lat="43.28785" lon="0.89316">
        <ele>360</ele>
        <time>2024-04-06T08:18:30Z</time>
      </trkpt>
      <trkpt lat="43.28794" lon="0.89497">
        <ele>363</ele>
        <time>2024-04-06T08:18:54Z</time>
      </trkpt>
      <trkpt lat="43.28804" lon="0.89601">
        <ele>362</ele>
        <time>2024-04-06T08:19:07Z</time>
      </trkpt>
      <trkpt lat="43.28832" lon="0.89788">
        <ele>363</ele>
        <time>2024-04-06T08:19:32Z</time>
      </trkpt>
      <trkpt lat="43.2885" lon="0.89865">
        <ele>361</ele>
        <time>2024-04-06T08:19:42Z</time>
      </trkpt>
      <trkpt lat="43.28866" lon="0.89917">
        <ele>358</ele>
        <time>2024-04-06T08:19:50Z</time>
      </trkpt>
      <trkpt lat="43.28879" lon="0.89948">
        <ele>359</ele>
        <time>2024-04-06T08:19:54Z</time>
      </trkpt>
      <trkpt lat="43.28921" lon="0.90067">
        <ele>363</ele>
        <time>2024-04-06T08:20:11Z</time>
      </trkpt>
      <trkpt lat="43.28988" lon="0.90192">
        <ele>352</ele>
        <time>2024-04-06T08:20:32Z</time>
      </trkpt>
      <trkpt lat="43.2906" lon="0.90312">
        <ele>346</ele>
        <time>2024-04-06T08:20:52Z</time>
      </trkpt>
      <trkpt lat="43.29186" lon="0.90466">
        <ele>350</ele>
        <time>2024-04-06T08:21:22Z</time>
      </trkpt>
      <trkpt lat="43.29206" lon="0.90494">
        <ele>352</ele>
        <time>2024-04-06T08:21:27Z</time>
      </trkpt>
      <trkpt lat="43.29249" lon="0.90588">
        <ele>355</ele>
        <time>2024-04-06T08:21:41Z</time>
      </trkpt>
      <trkpt lat="43.2927" lon="0.90622">
        <ele>353</ele>
        <time>2024-04-06T08:21:47Z</time>
      </trkpt>
      <trkpt lat="43.29296" lon="0.90647">
        <ele>353</ele>
        <time>2024-04-06T08:21:53Z</time>
      </trkpt>
      <trkpt lat="43.29324" lon="0.90665">
        <ele>352</ele>
        <time>2024-04-06T08:21:58Z</time>
      </trkpt>
      <trkpt lat="43.29415" lon="0.90703">
        <ele>349</ele>
        <time>2024-04-06T08:22:15Z</time>
      </trkpt>
      <trkpt lat="43.29439" lon="0.90725">
        <ele>350</ele>
        <time>2024-04-06T08:22:20Z</time>
      </trkpt>
      <trkpt lat="43.29459" lon="0.9075">
        <ele>352</ele>
        <time>2024-04-06T08:22:25Z</time>
      </trkpt>
      <trkpt lat="43.29527" lon="0.90851">
        <ele>355</ele>
        <time>2024-04-06T08:22:43Z</time>
      </trkpt>
      <trkpt lat="43.29565" lon="0.90929">
        <ele>354</ele>
        <time>2024-04-06T08:22:55Z</time>
      </trkpt>
      <trkpt lat="43.29601" lon="0.91009">
        <ele>352</ele>
        <time>2024-04-06T08:23:07Z</time>
      </trkpt>
      <trkpt lat="43.29613" lon="0.91046">
        <ele>352</ele>
        <time>2024-04-06T08:23:12Z</time>
      </trkpt>
      <trkpt lat="43.29632" lon="0.91111">
        <ele>352</ele>
        <time>2024-04-06T08:23:21Z</time>
      </trkpt>
      <trkpt lat="43.29649" lon="0.91153">
        <ele>353</ele>
        <time>2024-04-06T08:23:28Z</time>
      </trkpt>
      <trkpt lat="43.29723" lon="0.91302">
        <ele>345</ele>
        <time>2024-04-06T08:23:51Z</time>
      </trkpt>
      <trkpt lat="43.29759" lon="0.91376">
        <ele>346</ele>
        <time>2024-04-06T08:24:03Z</time>
      </trkpt>
      <trkpt lat="43.2979" lon="0.91483">
        <ele>350</ele>
        <time>2024-04-06T08:24:17Z</time>
      </trkpt>
      <trkpt lat="43.29798" lon="0.91579">
        <ele>352</ele>
        <time>2024-04-06T08:24:30Z</time>
      </trkpt>
      <trkpt lat="43.29798" lon="0.9162">
        <ele>352</ele>
        <time>2024-04-06T08:24:35Z</time>
      </trkpt>
      <trkpt lat="43.29793" lon="0.91654">
        <ele>351</ele>
        <time>2024-04-06T08:24:40Z</time>
      </trkpt>
      <trkpt lat="43.29783" lon="0.91693">
        <ele>351</ele>
        <time>2024-04-06T08:24:45Z</time>
      </trkpt>
      <trkpt lat="43.29759" lon="0.91753">
        <ele>355</ele>
        <time>2024-04-06T08:24:54Z</time>
      </trkpt>
      <trkpt lat="43.29703" lon="0.91877">
        <ele>355</ele>
        <time>2024-04-06T08:25:13Z</time>
      </trkpt>
      <trkpt lat="43.29688" lon="0.91922">
        <ele>355</ele>
        <time>2024-04-06T08:25:19Z</time>
      </trkpt>
      <trkpt lat="43.29665" lon="0.92071">
        <ele>358</ele>
        <time>2024-04-06T08:25:39Z</time>
      </trkpt>
      <trkpt lat="43.29636" lon="0.92276">
        <ele>360</ele>
        <time>2024-04-06T08:26:06Z</time>
      </trkpt>
      <trkpt lat="43.29637" lon="0.92323">
        <ele>361</ele>
        <time>2024-04-06T08:26:12Z</time>
      </trkpt>
      <trkpt lat="43.29627" lon="0.92397">
        <ele>362</ele>
        <time>2024-04-06T08:26:22Z</time>
      </trkpt>
      <trkpt lat="43.29626" lon="0.92469">
        <ele>362</ele>
        <time>2024-04-06T08:26:31Z</time>
      </trkpt>
      <trkpt lat="43.29627" lon="0.92533">
        <ele>362</ele>
        <time>2024-04-06T08:26:39Z</time>
      </trkpt>
      <trkpt lat="43.29637" lon="0.9258">
        <ele>361</ele>
        <time>2024-04-06T08:26:46Z</time>
      </trkpt>
      <trkpt lat="43.29653" lon="0.92641">
        <ele>360</ele>
        <time>2024-04-06T08:26:54Z</time>
      </trkpt>
      <trkpt lat="43.2967" lon="0.92729">
        <ele>360</ele>
        <time>2024-04-06T08:27:06Z</time>
      </trkpt>
      <trkpt lat="43.29677" lon="0.92812">
        <ele>357</ele>
        <time>2024-04-06T08:27:17Z</time>
      </trkpt>
      <trkpt lat="43.29684" lon="0.93044">
        <ele>357</ele>
        <time>2024-04-06T08:27:47Z</time>
      </trkpt>
      <trkpt lat="43.29697" lon="0.93102">
        <ele>357</ele>
        <time>2024-04-06T08:27:55Z</time>
      </trkpt>
      <trkpt lat="43.29718" lon="0.93184">
        <ele>355</ele>
        <time>2024-04-06T08:28:06Z</time>
      </trkpt>
      <trkpt lat="43.29724" lon="0.93226">
        <ele>354</ele>
        <time>2024-04-06T08:28:12Z</time>
      </trkpt>
      <trkpt lat="43.29724" lon="0.93255">
        <ele>353</ele>
        <time>2024-04-06T08:28:15Z</time>
      </trkpt>
      <trkpt lat="43.29698" lon="0.93495">
        <ele>365</ele>
        <time>2024-04-06T08:28:47Z</time>
      </trkpt>
      <trkpt lat="43.29701" lon="0.93542">
        <ele>367</ele>
        <time>2024-04-06T08:28:53Z</time>
      </trkpt>
      <trkpt lat="43.29709" lon="0.93594">
        <ele>368</ele>
        <time>2024-04-06T08:29:00Z</time>
      </trkpt>
      <trkpt lat="43.29756" lon="0.93771">
        <ele>369</ele>
        <time>2024-04-06T08:29:24Z</time>
      </trkpt>
      <trkpt lat="43.29762" lon="0.93804">
        <ele>368</ele>
        <time>2024-04-06T08:29:29Z</time>
      </trkpt>
      <trkpt lat="43.29768" lon="0.93954">
        <ele>369</ele>
        <time>2024-04-06T08:29:48Z</time>
      </trkpt>
      <trkpt lat="43.29778" lon="0.93997">
        <ele>368</ele>
        <time>2024-04-06T08:29:54Z</time>
      </trkpt>
      <trkpt lat="43.29813" lon="0.94034">
        <ele>367</ele>
        <time>2024-04-06T08:30:02Z</time>
      </trkpt>
      <trkpt lat="43.29841" lon="0.9407">
        <ele>367</ele>
        <time>2024-04-06T08:30:09Z</time>
      </trkpt>
      <trkpt lat="43.29863" lon="0.94108">
        <ele>365</ele>
        <time>2024-04-06T08:30:15Z</time>
      </trkpt>
      <trkpt lat="43.29891" lon="0.94171">
        <ele>365</ele>
        <time>2024-04-06T08:30:24Z</time>
      </trkpt>
      <trkpt lat="43.29895" lon="0.94191">
        <ele>365</ele>
        <time>2024-04-06T08:30:27Z</time>
      </trkpt>
      <trkpt lat="43.29898" lon="0.94213">
        <ele>365</ele>
        <time>2024-04-06T08:30:30Z</time>
      </trkpt>
      <trkpt lat="43.29892" lon="0.94304">
        <ele>366</ele>
        <time>2024-04-06T08:30:42Z</time>
      </trkpt>
      <trkpt lat="43.29893" lon="0.94362">
        <ele>367</ele>
        <time>2024-04-06T08:30:49Z</time>
      </trkpt>
      <trkpt lat="43.29905" lon="0.94444">
        <ele>369</ele>
        <time>2024-04-06T08:31:00Z</time>
      </trkpt>
      <trkpt lat="43.29907" lon="0.94471">
        <ele>368</ele>
        <time>2024-04-06T08:31:04Z</time>
      </trkpt>
      <trkpt lat="43.2991" lon="0.94668">
        <ele>357</ele>
        <time>2024-04-06T08:31:29Z</time>
      </trkpt>
      <trkpt lat="43.29931" lon="0.94837">
        <ele>357</ele>
        <time>2024-04-06T08:31:51Z</time>
      </trkpt>
      <trkpt lat="43.29939" lon="0.94875">
        <ele>359</ele>
        <time>2024-04-06T08:31:56Z</time>
      </trkpt>
      <trkpt lat="43.29946" lon="0.94898">
        <ele>360</ele>
        <time>2024-04-06T08:32:00Z</time>
      </trkpt>
      <trkpt lat="43.29971" lon="0.94959">
        <ele>362</ele>
        <time>2024-04-06T08:32:09Z</time>
      </trkpt>
      <trkpt lat="43.30048" lon="0.95095">
        <ele>362</ele>
        <time>2024-04-06T08:32:31Z</time>
      </trkpt>
      <trkpt lat="43.30064" lon="0.95132">
        <ele>362</ele>
        <time>2024-04-06T08:32:37Z</time>
      </trkpt>
      <trkpt lat="43.30079" lon="0.95176">
        <ele>363</ele>
        <time>2024-04-06T08:32:43Z</time>
      </trkpt>
      <trkpt lat="43.30085" lon="0.95232">
        <ele>366</ele>
        <time>2024-04-06T08:32:50Z</time>
      </trkpt>
      <trkpt lat="43.30082" lon="0.95291">
        <ele>368</ele>
        <time>2024-04-06T08:32:58Z</time>
      </trkpt>
      <trkpt lat="43.30044" lon="0.95476">
        <ele>360</ele>
        <time>2024-04-06T08:33:23Z</time>
      </trkpt>
      <trkpt lat="43.30029" lon="0.9553">
        <ele>359</ele>
        <time>2024-04-06T08:33:30Z</time>
      </trkpt>
      <trkpt lat="43.30014" lon="0.95561">
        <ele>360</ele>
        <time>2024-04-06T08:33:35Z</time>
      </trkpt>
      <trkpt lat="43.29841" lon="0.95754">
        <ele>360</ele>
        <time>2024-04-06T08:34:15Z</time>
      </trkpt>
      <trkpt lat="43.29821" lon="0.95787">
        <ele>359</ele>
        <time>2024-04-06T08:34:20Z</time>
      </trkpt>
      <trkpt lat="43.29807" lon="0.95819">
        <ele>358</ele>
        <time>2024-04-06T08:34:25Z</time>
      </trkpt>
      <trkpt lat="43.29786" lon="0.95897">
        <ele>358</ele>
        <time>2024-04-06T08:34:36Z</time>
      </trkpt>
      <trkpt lat="43.2978" lon="0.95936">
        <ele>357</ele>
        <time>2024-04-06T08:34:41Z</time>
      </trkpt>
      <trkpt lat="43.2978" lon="0.96064">
        <ele>355</ele>
        <time>2024-04-06T08:34:58Z</time>
      </trkpt>
      <trkpt lat="43.29777" lon="0.9611">
        <ele>355</ele>
        <time>2024-04-06T08:35:04Z</time>
      </trkpt>
      <trkpt lat="43.29766" lon="0.96161">
        <ele>357</ele>
        <time>2024-04-06T08:35:11Z</time>
      </trkpt>
      <trkpt lat="43.29753" lon="0.96212">
        <ele>359</ele>
        <time>2024-04-06T08:35:18Z</time>
      </trkpt>
      <trkpt lat="43.2972" lon="0.96289">
        <ele>362</ele>
        <time>2024-04-06T08:35:29Z</time>
      </trkpt>
      <trkpt lat="43.29697" lon="0.96321">
        <ele>364</ele>
        <time>2024-04-06T08:35:35Z</time>
      </trkpt>
      <trkpt lat="43.29681" lon="0.96339">
        <ele>365</ele>
        <time>2024-04-06T08:35:39Z</time>
      </trkpt>
      <trkpt lat="43.29648" lon="0.96362">
        <ele>364</ele>
        <time>2024-04-06T08:35:45Z</time>
      </trkpt>
      <trkpt lat="43.29596" lon="0.9638">
        <ele>361</ele>
        <time>2024-04-06T08:35:55Z</time>
      </trkpt>
      <trkpt lat="43.29576" lon="0.96393">
        <ele>360</ele>
        <time>2024-04-06T08:35:59Z</time>
      </trkpt>
      <trkpt lat="43.29565" lon="0.96406">
        <ele>359</ele>
        <time>2024-04-06T08:36:01Z</time>
      </trkpt>
      <trkpt lat="43.29547" lon="0.96434">
        <ele>356</ele>
        <time>2024-04-06T08:36:06Z</time>
      </trkpt>
      <trkpt lat="43.29516" lon="0.96502">
        <ele>353</ele>
        <time>2024-04-06T08:36:17Z</time>
      </trkpt>
      <trkpt lat="43.29484" lon="0.96592">
        <ele>351</ele>
        <time>2024-04-06T08:36:29Z</time>
      </trkpt>
      <trkpt lat="43.29455" lon="0.96678">
        <ele>349</ele>
        <time>2024-04-06T08:36:42Z</time>
      </trkpt>
      <trkpt lat="43.29399" lon="0.96871">
        <ele>355</ele>
        <time>2024-04-06T08:37:09Z</time>
      </trkpt>
      <trkpt lat="43.2939" lon="0.96919">
        <ele>355</ele>
        <time>2024-04-06T08:37:15Z</time>
      </trkpt>
      <trkpt lat="43.29386" lon="0.96973">
        <ele>354</ele>
        <time>2024-04-06T08:37:22Z</time>
      </trkpt>
      <trkpt lat="43.29396" lon="0.97095">
        <ele>355</ele>
        <time>2024-04-06T08:37:38Z</time>
      </trkpt>
      <trkpt lat="43.29391" lon="0.9716">
        <ele>357</ele>
        <time>2024-04-06T08:37:46Z</time>
      </trkpt>
      <trkpt lat="43.29381" lon="0.97224">
        <ele>357</ele>
        <time>2024-04-06T08:37:55Z</time>
      </trkpt>
      <trkpt lat="43.29368" lon="0.97287">
        <ele>357</ele>
        <time>2024-04-06T08:38:03Z</time>
      </trkpt>
      <trkpt lat="43.29349" lon="0.97336">
        <ele>360</ele>
        <time>2024-04-06T08:38:11Z</time>
      </trkpt>
      <trkpt lat="43.29312" lon="0.97409">
        <ele>362</ele>
        <time>2024-04-06T08:38:22Z</time>
      </trkpt>
      <trkpt lat="43.29294" lon="0.9745">
        <ele>359</ele>
        <time>2024-04-06T08:38:28Z</time>
      </trkpt>
      <trkpt lat="43.29258" lon="0.97597">
        <ele>357</ele>
        <time>2024-04-06T08:38:48Z</time>
      </trkpt>
      <trkpt lat="43.29252" lon="0.9763">
        <ele>357</ele>
        <time>2024-04-06T08:38:53Z</time>
      </trkpt>
      <trkpt lat="43.29251" lon="0.97656">
        <ele>356</ele>
        <time>2024-04-06T08:38:56Z</time>
      </trkpt>
      <trkpt lat="43.2926" lon="0.97821">
        <ele>355</ele>
        <time>2024-04-06T08:39:18Z</time>
      </trkpt>
      <trkpt lat="43.29268" lon="0.97827">
        <ele>354</ele>
        <time>2024-04-06T08:39:19Z</time>
      </trkpt>
      <trkpt lat="43.29291" lon="0.97876">
        <ele>355</ele>
        <time>2024-04-06T08:39:27Z</time>
      </trkpt>
      <trkpt lat="43.29315" lon="0.97911">
        <ele>356</ele>
        <time>2024-04-06T08:39:33Z</time>
      </trkpt>
      <trkpt lat="43.29338" lon="0.97939">
        <ele>355</ele>
        <time>2024-04-06T08:39:38Z</time>
      </trkpt>
      <trkpt lat="43.29351" lon="0.97961">
        <ele>353</ele>
        <time>2024-04-06T08:39:42Z</time>
      </trkpt>
      <trkpt lat="43.29389" lon="0.98063">
        <ele>348</ele>
        <time>2024-04-06T08:39:57Z</time>
      </trkpt>
      <trkpt lat="43.29422" lon="0.98121">
        <ele>348</ele>
        <time>2024-04-06T08:40:07Z</time>
      </trkpt>
      <trkpt lat="43.29537" lon="0.98238">
        <ele>360</ele>
        <time>2024-04-06T08:40:32Z</time>
      </trkpt>
      <trkpt lat="43.29586" lon="0.98293">
        <ele>363</ele>
        <time>2024-04-06T08:40:43Z</time>
      </trkpt>
      <trkpt lat="43.29601" lon="0.98307">
        <ele>363</ele>
        <time>2024-04-06T08:40:46Z</time>
      </trkpt>
      <trkpt lat="43.29665" lon="0.98333">
        <ele>364</ele>
        <time>2024-04-06T08:40:58Z</time>
      </trkpt>
      <trkpt lat="43.29694" lon="0.98366">
        <ele>361</ele>
        <time>2024-04-06T08:41:05Z</time>
      </trkpt>
      <trkpt lat="43.29707" lon="0.98393">
        <ele>359</ele>
        <time>2024-04-06T08:41:09Z</time>
      </trkpt>
      <trkpt lat="43.29714" lon="0.9843">
        <ele>356</ele>
        <time>2024-04-06T08:41:14Z</time>
      </trkpt>
      <trkpt lat="43.29716" lon="0.98449">
        <ele>356</ele>
        <time>2024-04-06T08:41:17Z</time>
      </trkpt>
      <trkpt lat="43.29713" lon="0.9848">
        <ele>355</ele>
        <time>2024-04-06T08:41:21Z</time>
      </trkpt>
      <trkpt lat="43.297" lon="0.9855">
        <ele>353</ele>
        <time>2024-04-06T08:41:30Z</time>
      </trkpt>
      <trkpt lat="43.29628" lon="0.98739">
        <ele>349</ele>
        <time>2024-04-06T08:41:58Z</time>
      </trkpt>
      <trkpt lat="43.29618" lon="0.98774">
        <ele>349</ele>
        <time>2024-04-06T08:42:03Z</time>
      </trkpt>
      <trkpt lat="43.29559" lon="0.98821">
        <ele>347</ele>
        <time>2024-04-06T08:42:15Z</time>
      </trkpt>
      <trkpt lat="43.29522" lon="0.98862">
        <ele>348</ele>
        <time>2024-04-06T08:42:23Z</time>
      </trkpt>
      <trkpt lat="43.29464" lon="0.98933">
        <ele>348</ele>
        <time>2024-04-06T08:42:37Z</time>
      </trkpt>
      <trkpt lat="43.29428" lon="0.98995">
        <ele>348</ele>
        <time>2024-04-06T08:42:47Z</time>
      </trkpt>
      <trkpt lat="43.29397" lon="0.99058">
        <ele>347</ele>
        <time>2024-04-06T08:42:57Z</time>
      </trkpt>
      <trkpt lat="43.29363" lon="0.99149">
        <ele>349</ele>
        <time>2024-04-06T08:43:10Z</time>
      </trkpt>
      <trkpt lat="43.29314" lon="0.99271">
        <ele>356</ele>
        <time>2024-04-06T08:43:28Z</time>
      </trkpt>
      <trkpt lat="43.29299" lon="0.99342">
        <ele>357</ele>
        <time>2024-04-06T08:43:38Z</time>
      </trkpt>
      <trkpt lat="43.29289" lon="0.99412">
        <ele>356</ele>
        <time>2024-04-06T08:43:47Z</time>
      </trkpt>
      <trkpt lat="43.29289" lon="0.99544">
        <ele>358</ele>
        <time>2024-04-06T08:44:04Z</time>
      </trkpt>
      <trkpt lat="43.29294" lon="0.99651">
        <ele>355</ele>
        <time>2024-04-06T08:44:18Z</time>
      </trkpt>
      <trkpt lat="43.29301" lon="0.9972">
        <ele>354</ele>
        <time>2024-04-06T08:44:27Z</time>
      </trkpt>
      <trkpt lat="43.29312" lon="0.9976">
        <ele>353</ele>
        <time>2024-04-06T08:44:33Z</time>
      </trkpt>
      <trkpt lat="43.29332" lon="0.99797">
        <ele>355</ele>
        <time>2024-04-06T08:44:39Z</time>
      </trkpt>
      <trkpt lat="43.29348" lon="0.99847">
        <ele>356</ele>
        <time>2024-04-06T08:44:46Z</time>
      </trkpt>
      <trkpt lat="43.29363" lon="0.99917">
        <ele>356</ele>
        <time>2024-04-06T08:44:55Z</time>
      </trkpt>
      <trkpt lat="43.29368" lon="0.99958">
        <ele>358</ele>
        <time>2024-04-06T08:45:01Z</time>
      </trkpt>
      <trkpt lat="43.29367" lon="1.0004">
        <ele>360</ele>
        <time>2024-04-06T08:45:11Z</time>
      </trkpt>
      <trkpt lat="43.29364" lon="1.001">
        <ele>360</ele>
        <time>2024-04-06T08:45:19Z</time>
      </trkpt>
      <trkpt lat="43.29357" lon="1.00134">
        <ele>359</ele>
        <time>2024-04-06T08:45:24Z</time>
      </trkpt>
      <trkpt lat="43.29323" lon="1.0021">
        <ele>358</ele>
        <time>2024-04-06T08:45:35Z</time>
      </trkpt>
      <trkpt lat="43.293" lon="1.00247">
        <ele>356</ele>
        <time>2024-04-06T08:45:41Z</time>
      </trkpt>
      <trkpt lat="43.29321" lon="1.00314">
        <ele>353</ele>
        <time>2024-04-06T08:45:51Z</time>
      </trkpt>
      <trkpt lat="43.29333" lon="1.00333">
        <ele>351</ele>
        <time>2024-04-06T08:45:54Z</time>
      </trkpt>
      <trkpt lat="43.29345" lon="1.00344">
        <ele>350</ele>
        <time>2024-04-06T08:45:57Z</time>
      </trkpt>
      <trkpt lat="43.29373" lon="1.00352">
        <ele>348</ele>
        <time>2024-04-06T08:46:02Z</time>
      </trkpt>
      <trkpt lat="43.29453" lon="1.00362">
        <ele>343</ele>
        <time>2024-04-06T08:46:16Z</time>
      </trkpt>
      <trkpt lat="43.29566" lon="1.00458">
        <ele>342</ele>
        <time>2024-04-06T08:46:40Z</time>
      </trkpt>
      <trkpt lat="43.29602" lon="1.00498">
        <ele>344</ele>
        <time>2024-04-06T08:46:48Z</time>
      </trkpt>
      <trkpt lat="43.29637" lon="1.00546">
        <ele>345</ele>
        <time>2024-04-06T08:46:57Z</time>
      </trkpt>
      <trkpt lat="43.29695" lon="1.00678">
        <ele>349</ele>
        <time>2024-04-06T08:47:17Z</time>
      </trkpt>
      <trkpt lat="43.29741" lon="1.00763">
        <ele>353</ele>
        <time>2024-04-06T08:47:30Z</time>
      </trkpt>
      <trkpt lat="43.29824" lon="1.00846">
        <ele>356</ele>
        <time>2024-04-06T08:47:49Z</time>
      </trkpt>
      <trkpt lat="43.29837" lon="1.00875">
        <ele>356</ele>
        <time>2024-04-06T08:47:53Z</time>
      </trkpt>
      <trkpt lat="43.29864" lon="1.0097">
        <ele>360</ele>
        <time>2024-04-06T08:48:06Z</time>
      </trkpt>
      <trkpt lat="43.29878" lon="1.01044">
        <ele>363</ele>
        <time>2024-04-06T08:48:16Z</time>
      </trkpt>
      <trkpt lat="43.29927" lon="1.01109">
        <ele>364</ele>
        <time>2024-04-06T08:48:28Z</time>
      </trkpt>
      <trkpt lat="43.2994" lon="1.0113">
        <ele>363</ele>
        <time>2024-04-06T08:48:32Z</time>
      </trkpt>
      <trkpt lat="43.2995" lon="1.01163">
        <ele>362</ele>
        <time>2024-04-06T08:48:37Z</time>
      </trkpt>
      <trkpt lat="43.29972" lon="1.01218">
        <ele>361</ele>
        <time>2024-04-06T08:48:45Z</time>
      </trkpt>
      <trkpt lat="43.29999" lon="1.01242">
        <ele>362</ele>
        <time>2024-04-06T08:48:50Z</time>
      </trkpt>
      <trkpt lat="43.30046" lon="1.01266">
        <ele>364</ele>
        <time>2024-04-06T08:48:59Z</time>
      </trkpt>
      <trkpt lat="43.30128" lon="1.01286">
        <ele>367</ele>
        <time>2024-04-06T08:49:14Z</time>
      </trkpt>
      <trkpt lat="43.30205" lon="1.01294">
        <ele>367</ele>
        <time>2024-04-06T08:49:28Z</time>
      </trkpt>
      <trkpt lat="43.30221" lon="1.013">
        <ele>366</ele>
        <time>2024-04-06T08:49:31Z</time>
      </trkpt>
      <trkpt lat="43.30317" lon="1.01351">
        <ele>365</ele>
        <time>2024-04-06T08:49:49Z</time>
      </trkpt>
      <trkpt lat="43.30404" lon="1.01427">
        <ele>364</ele>
        <time>2024-04-06T08:50:08Z</time>
      </trkpt>
      <trkpt lat="43.30483" lon="1.01514">
        <ele>366</ele>
        <time>2024-04-06T08:50:26Z</time>
      </trkpt>
      <trkpt lat="43.30523" lon="1.01571">
        <ele>365</ele>
        <time>2024-04-06T08:50:36Z</time>
      </trkpt>
      <trkpt lat="43.30532" lon="1.01591">
        <ele>365</ele>
        <time>2024-04-06T08:50:39Z</time>
      </trkpt>
      <trkpt lat="43.30534" lon="1.016">
        <ele>365</ele>
        <time>2024-04-06T08:50:40Z</time>
      </trkpt>
      <trkpt lat="43.30533" lon="1.01615">
        <ele>366</ele>
        <time>2024-04-06T08:50:42Z</time>
      </trkpt>
      <trkpt lat="43.30543" lon="1.01622">
        <ele>367</ele>
        <time>2024-04-06T08:50:44Z</time>
      </trkpt>
      <trkpt lat="43.30569" lon="1.01653">
        <ele>369</ele>
        <time>2024-04-06T08:50:50Z</time>
      </trkpt>
      <trkpt lat="43.30578" lon="1.01662">
        <ele>370</ele>
        <time>2024-04-06T08:50:52Z</time>
      </trkpt>
      <trkpt lat="43.30578" lon="1.01668">
        <ele>370</ele>
        <time>2024-04-06T08:50:53Z</time>
      </trkpt>
      <trkpt lat="43.3061" lon="1.01782">
        <ele>373</ele>
        <time>2024-04-06T08:51:09Z</time>
      </trkpt>
      <trkpt lat="43.30615" lon="1.01804">
        <ele>373</ele>
        <time>2024-04-06T08:51:12Z</time>
      </trkpt>
      <trkpt lat="43.30614" lon="1.01825">
        <ele>373</ele>
        <time>2024-04-06T08:51:14Z</time>
      </trkpt>
      <trkpt lat="43.30567" lon="1.01997">
        <ele>371</ele>
        <time>2024-04-06T08:51:38Z</time>
      </trkpt>
      <trkpt lat="43.30534" lon="1.02112">
        <ele>366</ele>
        <time>2024-04-06T08:51:54Z</time>
      </trkpt>
      <trkpt lat="43.30528" lon="1.02145">
        <ele>367</ele>
        <time>2024-04-06T08:51:59Z</time>
      </trkpt>
      <trkpt lat="43.30526" lon="1.02165">
        <ele>367</ele>
        <time>2024-04-06T08:52:01Z</time>
      </trkpt>
      <trkpt lat="43.30526" lon="1.02216">
        <ele>367</ele>
        <time>2024-04-06T08:52:08Z</time>
      </trkpt>
      <trkpt lat="43.30524" lon="1.02245">
        <ele>368</ele>
        <time>2024-04-06T08:52:12Z</time>
      </trkpt>
      <trkpt lat="43.30511" lon="1.023">
        <ele>369</ele>
        <time>2024-04-06T08:52:19Z</time>
      </trkpt>
      <trkpt lat="43.30484" lon="1.02378">
        <ele>370</ele>
        <time>2024-04-06T08:52:30Z</time>
      </trkpt>
      <trkpt lat="43.30461" lon="1.02478">
        <ele>373</ele>
        <time>2024-04-06T08:52:44Z</time>
      </trkpt>
      <trkpt lat="43.30461" lon="1.025">
        <ele>373</ele>
        <time>2024-04-06T08:52:47Z</time>
      </trkpt>
      <trkpt lat="43.3047" lon="1.02552">
        <ele>375</ele>
        <time>2024-04-06T08:52:54Z</time>
      </trkpt>
      <trkpt lat="43.30476" lon="1.026">
        <ele>377</ele>
        <time>2024-04-06T08:53:00Z</time>
      </trkpt>
      <trkpt lat="43.30492" lon="1.0263">
        <ele>379</ele>
        <time>2024-04-06T08:53:05Z</time>
      </trkpt>
      <trkpt lat="43.3051" lon="1.02652">
        <ele>379</ele>
        <time>2024-04-06T08:53:09Z</time>
      </trkpt>
      <trkpt lat="43.30528" lon="1.02665">
        <ele>379</ele>
        <time>2024-04-06T08:53:13Z</time>
      </trkpt>
      <trkpt lat="43.30555" lon="1.02673">
        <ele>377</ele>
        <time>2024-04-06T08:53:18Z</time>
      </trkpt>
      <trkpt lat="43.30629" lon="1.02688">
        <ele>376</ele>
        <time>2024-04-06T08:53:31Z</time>
      </trkpt>
      <trkpt lat="43.30681" lon="1.02711">
        <ele>376</ele>
        <time>2024-04-06T08:53:41Z</time>
      </trkpt>
      <trkpt lat="43.30782" lon="1.02772">
        <ele>372</ele>
        <time>2024-04-06T08:54:00Z</time>
      </trkpt>
      <trkpt lat="43.3082" lon="1.02801">
        <ele>370</ele>
        <time>2024-04-06T08:54:08Z</time>
      </trkpt>
      <trkpt lat="43.30853" lon="1.02838">
        <ele>368</ele>
        <time>2024-04-06T08:54:16Z</time>
      </trkpt>
      <trkpt lat="43.30887" lon="1.02888">
        <ele>367</ele>
        <time>2024-04-06T08:54:24Z</time>
      </trkpt>
      <trkpt lat="43.30916" lon="1.02944">
        <ele>368</ele>
        <time>2024-04-06T08:54:33Z</time>
      </trkpt>
      <trkpt lat="43.3103" lon="1.03176">
        <ele>367</ele>
        <time>2024-04-06T08:55:10Z</time>
      </trkpt>
      <trkpt lat="43.31058" lon="1.03226">
        <ele>365</ele>
        <time>2024-04-06T08:55:18Z</time>
      </trkpt>
      <trkpt lat="43.31087" lon="1.03269">
        <ele>362</ele>
        <time>2024-04-06T08:55:25Z</time>
      </trkpt>
      <trkpt lat="43.31126" lon="1.03314">
        <ele>357</ele>
        <time>2024-04-06T08:55:34Z</time>
      </trkpt>
      <trkpt lat="43.3114" lon="1.0334">
        <ele>356</ele>
        <time>2024-04-06T08:55:39Z</time>
      </trkpt>
      <trkpt lat="43.31161" lon="1.03405">
        <ele>355</ele>
        <time>2024-04-06T08:55:48Z</time>
      </trkpt>
      <trkpt lat="43.31176" lon="1.0344">
        <ele>355</ele>
        <time>2024-04-06T08:55:53Z</time>
      </trkpt>
      <trkpt lat="43.31198" lon="1.0346">
        <ele>354</ele>
        <time>2024-04-06T08:55:58Z</time>
      </trkpt>
      <trkpt lat="43.31235" lon="1.03488">
        <ele>352</ele>
        <time>2024-04-06T08:56:05Z</time>
      </trkpt>
      <trkpt lat="43.31267" lon="1.03501">
        <ele>351</ele>
        <time>2024-04-06T08:56:11Z</time>
      </trkpt>
      <trkpt lat="43.31293" lon="1.03504">
        <ele>349</ele>
        <time>2024-04-06T08:56:16Z</time>
      </trkpt>
      <trkpt lat="43.31313" lon="1.03511">
        <ele>348</ele>
        <time>2024-04-06T08:56:19Z</time>
      </trkpt>
      <trkpt lat="43.31369" lon="1.03551">
        <ele>344</ele>
        <time>2024-04-06T08:56:31Z</time>
      </trkpt>
      <trkpt lat="43.3139" lon="1.03573">
        <ele>343</ele>
        <time>2024-04-06T08:56:35Z</time>
      </trkpt>
      <trkpt lat="43.31402" lon="1.03591">
        <ele>342</ele>
        <time>2024-04-06T08:56:39Z</time>
      </trkpt>
      <trkpt lat="43.31413" lon="1.03616">
        <ele>341</ele>
        <time>2024-04-06T08:56:42Z</time>
      </trkpt>
      <trkpt lat="43.31426" lon="1.03656">
        <ele>341</ele>
        <time>2024-04-06T08:56:48Z</time>
      </trkpt>
      <trkpt lat="43.31437" lon="1.03678">
        <ele>342</ele>
        <time>2024-04-06T08:56:51Z</time>
      </trkpt>
      <trkpt lat="43.31449" lon="1.03693">
        <ele>344</ele>
        <time>2024-04-06T08:56:54Z</time>
      </trkpt>
      <trkpt lat="43.31519" lon="1.03756">
        <ele>349</ele>
        <time>2024-04-06T08:57:09Z</time>
      </trkpt>
      <trkpt lat="43.31583" lon="1.03833">
        <ele>354</ele>
        <time>2024-04-06T08:57:24Z</time>
      </trkpt>
      <trkpt lat="43.31607" lon="1.03857">
        <ele>355</ele>
        <time>2024-04-06T08:57:30Z</time>
      </trkpt>
      <trkpt lat="43.31618" lon="1.03859">
        <ele>355</ele>
        <time>2024-04-06T08:57:32Z</time>
      </trkpt>
      <trkpt lat="43.31783" lon="1.03856">
        <ele>349</ele>
        <time>2024-04-06T08:58:01Z</time>
      </trkpt>
      <trkpt lat="43.31801" lon="1.03865">
        <ele>349</ele>
        <time>2024-04-06T08:58:04Z</time>
      </trkpt>
      <trkpt lat="43.31813" lon="1.03883">
        <ele>349</ele>
        <time>2024-04-06T08:58:08Z</time>
      </trkpt>
      <trkpt lat="43.31819" lon="1.03906">
        <ele>349</ele>
        <time>2024-04-06T08:58:11Z</time>
      </trkpt>
      <trkpt lat="43.31829" lon="1.03995">
        <ele>349</ele>
        <time>2024-04-06T08:58:22Z</time>
      </trkpt>
      <trkpt lat="43.31843" lon="1.04082">
        <ele>353</ele>
        <time>2024-04-06T08:58:34Z</time>
      </trkpt>
      <trkpt lat="43.31846" lon="1.04133">
        <ele>355</ele>
        <time>2024-04-06T08:58:41Z</time>
      </trkpt>
      <trkpt lat="43.31842" lon="1.04222">
        <ele>357</ele>
        <time>2024-04-06T08:58:52Z</time>
      </trkpt>
      <trkpt lat="43.31852" lon="1.04366">
        <ele>362</ele>
        <time>2024-04-06T08:59:11Z</time>
      </trkpt>
      <trkpt lat="43.31854" lon="1.04383">
        <ele>362</ele>
        <time>2024-04-06T08:59:13Z</time>
      </trkpt>
      <trkpt lat="43.31859" lon="1.04401">
        <ele>361</ele>
        <time>2024-04-06T08:59:16Z</time>
      </trkpt>
      <trkpt lat="43.31856" lon="1.0443">
        <ele>361</ele>
        <time>2024-04-06T08:59:19Z</time>
      </trkpt>
      <trkpt lat="43.31854" lon="1.04491">
        <ele>360</ele>
        <time>2024-04-06T08:59:27Z</time>
      </trkpt>
      <trkpt lat="43.31856" lon="1.04508">
        <ele>359</ele>
        <time>2024-04-06T08:59:29Z</time>
      </trkpt>
      <trkpt lat="43.31868" lon="1.04553">
        <ele>358</ele>
        <time>2024-04-06T08:59:36Z</time>
      </trkpt>
      <trkpt lat="43.31891" lon="1.04596">
        <ele>354</ele>
        <time>2024-04-06T08:59:43Z</time>
      </trkpt>
      <trkpt lat="43.31927" lon="1.04638">
        <ele>351</ele>
        <time>2024-04-06T08:59:51Z</time>
      </trkpt>
      <trkpt lat="43.31947" lon="1.0465">
        <ele>349</ele>
        <time>2024-04-06T08:59:55Z</time>
      </trkpt>
      <trkpt lat="43.31978" lon="1.04664">
        <ele>346</ele>
        <time>2024-04-06T09:00:01Z</time>
      </trkpt>
      <trkpt lat="43.32002" lon="1.04679">
        <ele>344</ele>
        <time>2024-04-06T09:00:05Z</time>
      </trkpt>
      <trkpt lat="43.32049" lon="1.04716">
        <ele>349</ele>
        <time>2024-04-06T09:00:15Z</time>
      </trkpt>
      <trkpt lat="43.3208" lon="1.04749">
        <ele>355</ele>
        <time>2024-04-06T09:00:22Z</time>
      </trkpt>
      <trkpt lat="43.32143" lon="1.04854">
        <ele>357</ele>
        <time>2024-04-06T09:00:40Z</time>
      </trkpt>
      <trkpt lat="43.32173" lon="1.04912">
        <ele>357</ele>
        <time>2024-04-06T09:00:49Z</time>
      </trkpt>
      <trkpt lat="43.32217" lon="1.05037">
        <ele>361</ele>
        <time>2024-04-06T09:01:07Z</time>
      </trkpt>
      <trkpt lat="43.32234" lon="1.05087">
        <ele>364</ele>
        <time>2024-04-06T09:01:14Z</time>
      </trkpt>
      <trkpt lat="43.32246" lon="1.05132">
        <ele>364</ele>
        <time>2024-04-06T09:01:20Z</time>
      </trkpt>
      <trkpt lat="43.32272" lon="1.05339">
        <ele>360</ele>
        <time>2024-04-06T09:01:47Z</time>
      </trkpt>
      <trkpt lat="43.32277" lon="1.05359">
        <ele>359</ele>
        <time>2024-04-06T09:01:50Z</time>
      </trkpt>
      <trkpt lat="43.32309" lon="1.05465">
        <ele>357</ele>
        <time>2024-04-06T09:02:05Z</time>
      </trkpt>
      <trkpt lat="43.32336" lon="1.05577">
        <ele>356</ele>
        <time>2024-04-06T09:02:20Z</time>
      </trkpt>
      <trkpt lat="43.32347" lon="1.05629">
        <ele>356</ele>
        <time>2024-04-06T09:02:27Z</time>
      </trkpt>
      <trkpt lat="43.32357" lon="1.05701">
        <ele>356</ele>
        <time>2024-04-06T09:02:37Z</time>
      </trkpt>
      <trkpt lat="43.32371" lon="1.05816">
        <ele>357</ele>
        <time>2024-04-06T09:02:52Z</time>
      </trkpt>
      <trkpt lat="43.32375" lon="1.05862">
        <ele>358</ele>
        <time>2024-04-06T09:02:58Z</time>
      </trkpt>
      <trkpt lat="43.32376" lon="1.0589">
        <ele>359</ele>
        <time>2024-04-06T09:03:01Z</time>
      </trkpt>
      <trkpt lat="43.32375" lon="1.05975">
        <ele>361</ele>
        <time>2024-04-06T09:03:12Z</time>
      </trkpt>
      <trkpt lat="43.32373" lon="1.06006">
        <ele>361</ele>
        <time>2024-04-06T09:03:16Z</time>
      </trkpt>
      <trkpt lat="43.32363" lon="1.06095">
        <ele>360</ele>
        <time>2024-04-06T09:03:28Z</time>
      </trkpt>
      <trkpt lat="43.32363" lon="1.06121">
        <ele>359</ele>
        <time>2024-04-06T09:03:31Z</time>
      </trkpt>
      <trkpt lat="43.32367" lon="1.0615">
        <ele>358</ele>
        <time>2024-04-06T09:03:35Z</time>
      </trkpt>
      <trkpt lat="43.32417" lon="1.06427">
        <ele>357</ele>
        <time>2024-04-06T09:04:12Z</time>
      </trkpt>
      <trkpt lat="43.32422" lon="1.06465">
        <ele>356</ele>
        <time>2024-04-06T09:04:17Z</time>
      </trkpt>
      <trkpt lat="43.32425" lon="1.06502">
        <ele>355</ele>
        <time>2024-04-06T09:04:22Z</time>
      </trkpt>
      <trkpt lat="43.32426" lon="1.0653">
        <ele>355</ele>
        <time>2024-04-06T09:04:26Z</time>
      </trkpt>
      <trkpt lat="43.32416" lon="1.06658">
        <ele>353</ele>
        <time>2024-04-06T09:04:42Z</time>
      </trkpt>
      <trkpt lat="43.32418" lon="1.06688">
        <ele>353</ele>
        <time>2024-04-06T09:04:46Z</time>
      </trkpt>
      <trkpt lat="43.32442" lon="1.06916">
        <ele>348</ele>
        <time>2024-04-06T09:05:16Z</time>
      </trkpt>
      <trkpt lat="43.32446" lon="1.06942">
        <ele>348</ele>
        <time>2024-04-06T09:05:19Z</time>
      </trkpt>
      <trkpt lat="43.32454" lon="1.06964">
        <ele>348</ele>
        <time>2024-04-06T09:05:23Z</time>
      </trkpt>
      <trkpt lat="43.32465" lon="1.06991">
        <ele>348</ele>
        <time>2024-04-06T09:05:27Z</time>
      </trkpt>
      <trkpt lat="43.32494" lon="1.07053">
        <ele>345</ele>
        <time>2024-04-06T09:05:36Z</time>
      </trkpt>
      <trkpt lat="43.3233" lon="1.07307">
        <ele>344</ele>
        <time>2024-04-06T09:06:20Z</time>
      </trkpt>
      <trkpt lat="43.32304" lon="1.07356">
        <ele>344</ele>
        <time>2024-04-06T09:06:28Z</time>
      </trkpt>
      <trkpt lat="43.32291" lon="1.07392">
        <ele>344</ele>
        <time>2024-04-06T09:06:33Z</time>
      </trkpt>
      <trkpt lat="43.3228" lon="1.07433">
        <ele>343</ele>
        <time>2024-04-06T09:06:39Z</time>
      </trkpt>
      <trkpt lat="43.32269" lon="1.07488">
        <ele>341</ele>
        <time>2024-04-06T09:06:46Z</time>
      </trkpt>
      <trkpt lat="43.32263" lon="1.07536">
        <ele>340</ele>
        <time>2024-04-06T09:06:53Z</time>
      </trkpt>
      <trkpt lat="43.32242" lon="1.07802">
        <ele>338</ele>
        <time>2024-04-06T09:07:27Z</time>
      </trkpt>
      <trkpt lat="43.32244" lon="1.08">
        <ele>339</ele>
        <time>2024-04-06T09:07:53Z</time>
      </trkpt>
      <trkpt lat="43.32251" lon="1.08102">
        <ele>337</ele>
        <time>2024-04-06T09:08:06Z</time>
      </trkpt>
      <trkpt lat="43.32273" lon="1.08166">
        <ele>334</ele>
        <time>2024-04-06T09:08:15Z</time>
      </trkpt>
      <trkpt lat="43.32303" lon="1.08277">
        <ele>324</ele>
        <time>2024-04-06T09:08:31Z</time>
      </trkpt>
      <trkpt lat="43.32311" lon="1.0832">
        <ele>321</ele>
        <time>2024-04-06T09:08:36Z</time>
      </trkpt>
      <trkpt lat="43.32313" lon="1.08349">
        <ele>319</ele>
        <time>2024-04-06T09:08:40Z</time>
      </trkpt>
      <trkpt lat="43.32311" lon="1.08386">
        <ele>317</ele>
        <time>2024-04-06T09:08:45Z</time>
      </trkpt>
      <trkpt lat="43.32271" lon="1.08592">
        <ele>311</ele>
        <time>2024-04-06T09:09:13Z</time>
      </trkpt>
      <trkpt lat="43.32255" lon="1.08652">
        <ele>311</ele>
        <time>2024-04-06T09:09:21Z</time>
      </trkpt>
      <trkpt lat="43.32156" lon="1.08985">
        <ele>310</ele>
        <time>2024-04-06T09:10:07Z</time>
      </trkpt>
      <trkpt lat="43.32147" lon="1.09023">
        <ele>310</ele>
        <time>2024-04-06T09:10:13Z</time>
      </trkpt>
      <trkpt lat="43.32142" lon="1.09054">
        <ele>311</ele>
        <time>2024-04-06T09:10:17Z</time>
      </trkpt>
      <trkpt lat="43.32136" lon="1.09121">
        <ele>311</ele>
        <time>2024-04-06T09:10:25Z</time>
      </trkpt>
      <trkpt lat="43.32128" lon="1.09229">
        <ele>311</ele>
        <time>2024-04-06T09:10:39Z</time>
      </trkpt>
      <trkpt lat="43.32123" lon="1.09264">
        <ele>311</ele>
        <time>2024-04-06T09:10:44Z</time>
      </trkpt>
      <trkpt lat="43.32113" lon="1.09307">
        <ele>312</ele>
        <time>2024-04-06T09:10:50Z</time>
      </trkpt>
      <trkpt lat="43.32089" lon="1.09391">
        <ele>311</ele>
        <time>2024-04-06T09:11:02Z</time>
      </trkpt>
      <trkpt lat="43.32081" lon="1.09431">
        <ele>310</ele>
        <time>2024-04-06T09:11:07Z</time>
      </trkpt>
      <trkpt lat="43.32073" lon="1.09485">
        <ele>308</ele>
        <time>2024-04-06T09:11:14Z</time>
      </trkpt>
      <trkpt lat="43.32066" lon="1.09539">
        <ele>307</ele>
        <time>2024-04-06T09:11:21Z</time>
      </trkpt>
      <trkpt lat="43.32062" lon="1.09585">
        <ele>306</ele>
        <time>2024-04-06T09:11:27Z</time>
      </trkpt>
      <trkpt lat="43.32057" lon="1.09661">
        <ele>304</ele>
        <time>2024-04-06T09:11:37Z</time>
      </trkpt>
      <trkpt lat="43.32062" lon="1.09872">
        <ele>302</ele>
        <time>2024-04-06T09:12:04Z</time>
      </trkpt>
      <trkpt lat="43.3207" lon="1.09963">
        <ele>299</ele>
        <time>2024-04-06T09:12:16Z</time>
      </trkpt>
      <trkpt lat="43.3209" lon="1.10146">
        <ele>294</ele>
        <time>2024-04-06T09:12:40Z</time>
      </trkpt>
      <trkpt lat="43.32116" lon="1.10357">
        <ele>290</ele>
        <time>2024-04-06T09:13:08Z</time>
      </trkpt>
      <trkpt lat="43.32125" lon="1.10472">
        <ele>289</ele>
        <time>2024-04-06T09:13:23Z</time>
      </trkpt>
      <trkpt lat="43.3212" lon="1.10597">
        <ele>288</ele>
        <time>2024-04-06T09:13:39Z</time>
      </trkpt>
      <trkpt lat="43.32116" lon="1.10637">
        <ele>288</ele>
        <time>2024-04-06T09:13:44Z</time>
      </trkpt>
      <trkpt lat="43.3209" lon="1.10885">
        <ele>287</ele>
        <time>2024-04-06T09:14:17Z</time>
      </trkpt>
      <trkpt lat="43.32089" lon="1.10922">
        <ele>287</ele>
        <time>2024-04-06T09:14:22Z</time>
      </trkpt>
      <trkpt lat="43.32094" lon="1.10948">
        <ele>287</ele>
        <time>2024-04-06T09:14:25Z</time>
      </trkpt>
      <trkpt lat="43.32113" lon="1.11018">
        <ele>288</ele>
        <time>2024-04-06T09:14:35Z</time>
      </trkpt>
      <trkpt lat="43.32135" lon="1.1109">
        <ele>286</ele>
        <time>2024-04-06T09:14:45Z</time>
      </trkpt>
      <trkpt lat="43.3214" lon="1.11101">
        <ele>286</ele>
        <time>2024-04-06T09:14:46Z</time>
      </trkpt>
      <trkpt lat="43.3216" lon="1.11117">
        <ele>286</ele>
        <time>2024-04-06T09:14:51Z</time>
      </trkpt>
      <trkpt lat="43.32164" lon="1.11128">
        <ele>286</ele>
        <time>2024-04-06T09:14:52Z</time>
      </trkpt>
      <trkpt lat="43.32166" lon="1.1114">
        <ele>286</ele>
        <time>2024-04-06T09:14:54Z</time>
      </trkpt>
      <trkpt lat="43.32163" lon="1.11167">
        <ele>286</ele>
        <time>2024-04-06T09:14:57Z</time>
      </trkpt>
      <trkpt lat="43.32165" lon="1.11181">
        <ele>286</ele>
        <time>2024-04-06T09:14:59Z</time>
      </trkpt>
      <trkpt lat="43.32184" lon="1.1124">
        <ele>285</ele>
        <time>2024-04-06T09:15:08Z</time>
      </trkpt>
      <trkpt lat="43.32187" lon="1.11255">
        <ele>284</ele>
        <time>2024-04-06T09:15:10Z</time>
      </trkpt>
      <trkpt lat="43.32185" lon="1.1147">
        <ele>282</ele>
        <time>2024-04-06T09:15:37Z</time>
      </trkpt>
      <trkpt lat="43.32189" lon="1.11642">
        <ele>275</ele>
        <time>2024-04-06T09:16:00Z</time>
      </trkpt>
      <trkpt lat="43.32189" lon="1.11763">
        <ele>272</ele>
        <time>2024-04-06T09:16:15Z</time>
      </trkpt>
      <trkpt lat="43.32183" lon="1.12111">
        <ele>255</ele>
        <time>2024-04-06T09:17:00Z</time>
      </trkpt>
      <trkpt lat="43.32181" lon="1.12163">
        <ele>253</ele>
        <time>2024-04-06T09:17:07Z</time>
      </trkpt>
      <trkpt lat="43.32177" lon="1.12248">
        <ele>248</ele>
        <time>2024-04-06T09:17:18Z</time>
      </trkpt>
      <trkpt lat="43.32174" lon="1.12264">
        <ele>246</ele>
        <time>2024-04-06T09:17:20Z</time>
      </trkpt>
      <trkpt lat="43.32161" lon="1.12312">
        <ele>243</ele>
        <time>2024-04-06T09:17:27Z</time>
      </trkpt>
      <trkpt lat="43.32198" lon="1.1241">
        <ele>240</ele>
        <time>2024-04-06T09:17:41Z</time>
      </trkpt>
      <trkpt lat="43.32206" lon="1.12424">
        <ele>239</ele>
        <time>2024-04-06T09:17:43Z</time>
      </trkpt>
      <trkpt lat="43.32225" lon="1.12498">
        <ele>237</ele>
        <time>2024-04-06T09:17:54Z</time>
      </trkpt>
      <trkpt lat="43.32231" lon="1.12566">
        <ele>239</ele>
        <time>2024-04-06T09:18:03Z</time>
      </trkpt>
      <trkpt lat="43.3223" lon="1.12646">
        <ele>237</ele>
        <time>2024-04-06T09:18:13Z</time>
      </trkpt>
      <trkpt lat="43.32214" lon="1.12736">
        <ele>237</ele>
        <time>2024-04-06T09:18:25Z</time>
      </trkpt>
      <trkpt lat="43.3221" lon="1.12767">
        <ele>237</ele>
        <time>2024-04-06T09:18:29Z</time>
      </trkpt>
      <trkpt lat="43.32208" lon="1.12847">
        <ele>236</ele>
        <time>2024-04-06T09:18:39Z</time>
      </trkpt>
      <trkpt lat="43.32204" lon="1.12896">
        <ele>236</ele>
        <time>2024-04-06T09:18:46Z</time>
      </trkpt>
      <trkpt lat="43.32196" lon="1.12942">
        <ele>236</ele>
        <time>2024-04-06T09:18:52Z</time>
      </trkpt>
      <trkpt lat="43.32192" lon="1.12961">
        <ele>236</ele>
        <time>2024-04-06T09:18:54Z</time>
      </trkpt>
      <trkpt lat="43.32137" lon="1.13253">
        <ele>236</ele>
        <time>2024-04-06T09:19:33Z</time>
      </trkpt>
      <trkpt lat="43.32136" lon="1.13299">
        <ele>235</ele>
        <time>2024-04-06T09:19:39Z</time>
      </trkpt>
      <trkpt lat="43.32138" lon="1.13353">
        <ele>234</ele>
        <time>2024-04-06T09:19:46Z</time>
      </trkpt>
      <trkpt lat="43.32135" lon="1.13382">
        <ele>234</ele>
        <time>2024-04-06T09:19:50Z</time>
      </trkpt>
      <trkpt lat="43.32121" lon="1.1346">
        <ele>233</ele>
        <time>2024-04-06T09:20:01Z</time>
      </trkpt>
      <trkpt lat="43.32119" lon="1.1349">
        <ele>233</ele>
        <time>2024-04-06T09:20:04Z</time>
      </trkpt>
      <trkpt lat="43.32123" lon="1.13568">
        <ele>233</ele>
        <time>2024-04-06T09:20:15Z</time>
      </trkpt>
      <trkpt lat="43.32127" lon="1.13594">
        <ele>233</ele>
        <time>2024-04-06T09:20:18Z</time>
      </trkpt>
      <trkpt lat="43.32131" lon="1.13641">
        <ele>233</ele>
        <time>2024-04-06T09:20:24Z</time>
      </trkpt>
      <trkpt lat="43.32129" lon="1.13672">
        <ele>233</ele>
        <time>2024-04-06T09:20:28Z</time>
      </trkpt>
      <trkpt lat="43.32104" lon="1.13835">
        <ele>231</ele>
        <time>2024-04-06T09:20:50Z</time>
      </trkpt>
      <trkpt lat="43.32101" lon="1.13882">
        <ele>232</ele>
        <time>2024-04-06T09:20:56Z</time>
      </trkpt>
      <trkpt lat="43.32104" lon="1.1398">
        <ele>231</ele>
        <time>2024-04-06T09:21:09Z</time>
      </trkpt>
      <trkpt lat="43.32115" lon="1.14035">
        <ele>231</ele>
        <time>2024-04-06T09:21:16Z</time>
      </trkpt>
      <trkpt lat="43.32133" lon="1.1409">
        <ele>230</ele>
        <time>2024-04-06T09:21:24Z</time>
      </trkpt>
      <trkpt lat="43.3219" lon="1.14236">
        <ele>230</ele>
        <time>2024-04-06T09:21:45Z</time>
      </trkpt>
      <trkpt lat="43.32195" lon="1.14257">
        <ele>230</ele>
        <time>2024-04-06T09:21:48Z</time>
      </trkpt>
      <trkpt lat="43.32198" lon="1.14277">
        <ele>230</ele>
        <time>2024-04-06T09:21:51Z</time>
      </trkpt>
      <trkpt lat="43.32199" lon="1.14379">
        <ele>230</ele>
        <time>2024-04-06T09:22:04Z</time>
      </trkpt>
      <trkpt lat="43.32202" lon="1.14398">
        <ele>230</ele>
        <time>2024-04-06T09:22:06Z</time>
      </trkpt>
      <trkpt lat="43.32255" lon="1.14598">
        <ele>228</ele>
        <time>2024-04-06T09:22:34Z</time>
      </trkpt>
      <trkpt lat="43.32262" lon="1.14629">
        <ele>228</ele>
        <time>2024-04-06T09:22:38Z</time>
      </trkpt>
      <trkpt lat="43.32266" lon="1.14665">
        <ele>229</ele>
        <time>2024-04-06T09:22:43Z</time>
      </trkpt>
      <trkpt lat="43.32273" lon="1.14814">
        <ele>228</ele>
        <time>2024-04-06T09:23:02Z</time>
      </trkpt>
      <trkpt lat="43.32276" lon="1.14845">
        <ele>228</ele>
        <time>2024-04-06T09:23:06Z</time>
      </trkpt>
      <trkpt lat="43.3232" lon="1.15041">
        <ele>228</ele>
        <time>2024-04-06T09:23:33Z</time>
      </trkpt>
      <trkpt lat="43.32364" lon="1.15182">
        <ele>227</ele>
        <time>2024-04-06T09:23:53Z</time>
      </trkpt>
      <trkpt lat="43.32399" lon="1.15307">
        <ele>228</ele>
        <time>2024-04-06T09:24:10Z</time>
      </trkpt>
      <trkpt lat="43.3242" lon="1.15398">
        <ele>227</ele>
        <time>2024-04-06T09:24:22Z</time>
      </trkpt>
      <trkpt lat="43.32434" lon="1.15445">
        <ele>227</ele>
        <time>2024-04-06T09:24:29Z</time>
      </trkpt>
      <trkpt lat="43.3248" lon="1.15565">
        <ele>227</ele>
        <time>2024-04-06T09:24:46Z</time>
      </trkpt>
      <trkpt lat="43.3249" lon="1.15595">
        <ele>227</ele>
        <time>2024-04-06T09:24:51Z</time>
      </trkpt>
      <trkpt lat="43.325" lon="1.15652">
        <ele>226</ele>
        <time>2024-04-06T09:24:58Z</time>
      </trkpt>
      <trkpt lat="43.32509" lon="1.15739">
        <ele>227</ele>
        <time>2024-04-06T09:25:10Z</time>
      </trkpt>
      <trkpt lat="43.32529" lon="1.15991">
        <ele>225</ele>
        <time>2024-04-06T09:25:43Z</time>
      </trkpt>
      <trkpt lat="43.32536" lon="1.1602">
        <ele>225</ele>
        <time>2024-04-06T09:25:46Z</time>
      </trkpt>
      <trkpt lat="43.32546" lon="1.16049">
        <ele>225</ele>
        <time>2024-04-06T09:25:51Z</time>
      </trkpt>
      <trkpt lat="43.32558" lon="1.16073">
        <ele>225</ele>
        <time>2024-04-06T09:25:54Z</time>
      </trkpt>
      <trkpt lat="43.32579" lon="1.16102">
        <ele>225</ele>
        <time>2024-04-06T09:26:00Z</time>
      </trkpt>
      <trkpt lat="43.32626" lon="1.16159">
        <ele>224</ele>
        <time>2024-04-06T09:26:11Z</time>
      </trkpt>
      <trkpt lat="43.3264" lon="1.16183">
        <ele>224</ele>
        <time>2024-04-06T09:26:15Z</time>
      </trkpt>
      <trkpt lat="43.32652" lon="1.1621">
        <ele>225</ele>
        <time>2024-04-06T09:26:19Z</time>
      </trkpt>
      <trkpt lat="43.3266" lon="1.16237">
        <ele>226</ele>
        <time>2024-04-06T09:26:23Z</time>
      </trkpt>
      <trkpt lat="43.32756" lon="1.16629">
        <ele>223</ele>
        <time>2024-04-06T09:27:16Z</time>
      </trkpt>
      <trkpt lat="43.32766" lon="1.16683">
        <ele>223</ele>
        <time>2024-04-06T09:27:23Z</time>
      </trkpt>
      <trkpt lat="43.32769" lon="1.16742">
        <ele>223</ele>
        <time>2024-04-06T09:27:31Z</time>
      </trkpt>
      <trkpt lat="43.32769" lon="1.16805">
        <ele>223</ele>
        <time>2024-04-06T09:27:39Z</time>
      </trkpt>
      <trkpt lat="43.3276" lon="1.16997">
        <ele>224</ele>
        <time>2024-04-06T09:28:04Z</time>
      </trkpt>
      <trkpt lat="43.32761" lon="1.17017">
        <ele>224</ele>
        <time>2024-04-06T09:28:07Z</time>
      </trkpt>
      <trkpt lat="43.32764" lon="1.17023">
        <ele>224</ele>
        <time>2024-04-06T09:28:08Z</time>
      </trkpt>
      <trkpt lat="43.32735" lon="1.17075">
        <ele>225</ele>
        <time>2024-04-06T09:28:16Z</time>
      </trkpt>
      <trkpt lat="43.32728" lon="1.17101">
        <ele>225</ele>
        <time>2024-04-06T09:28:20Z</time>
      </trkpt>
      <trkpt lat="43.32717" lon="1.17153">
        <ele>226</ele>
        <time>2024-04-06T09:28:27Z</time>
      </trkpt>
      <trkpt lat="43.32706" lon="1.17179">
        <ele>226</ele>
        <time>2024-04-06T09:28:31Z</time>
      </trkpt>
      <trkpt lat="43.32693" lon="1.17197">
        <ele>227</ele>
        <time>2024-04-06T09:28:34Z</time>
      </trkpt>
      <trkpt lat="43.32665" lon="1.1723">
        <ele>227</ele>
        <time>2024-04-06T09:28:41Z</time>
      </trkpt>
      <trkpt lat="43.32653" lon="1.17251">
        <ele>226</ele>
        <time>2024-04-06T09:28:44Z</time>
      </trkpt>
      <trkpt lat="43.32615" lon="1.17323">
        <ele>226</ele>
        <time>2024-04-06T09:28:55Z</time>
      </trkpt>
      <trkpt lat="43.32555" lon="1.17453">
        <ele>226</ele>
        <time>2024-04-06T09:29:15Z</time>
      </trkpt>
      <trkpt lat="43.32535" lon="1.17492">
        <ele>226</ele>
        <time>2024-04-06T09:29:22Z</time>
      </trkpt>
      <trkpt lat="43.32528" lon="1.17501">
        <ele>226</ele>
        <time>2024-04-06T09:29:23Z</time>
      </trkpt>
      <trkpt lat="43.32517" lon="1.1751">
        <ele>226</ele>
        <time>2024-04-06T09:29:26Z</time>
      </trkpt>
      <trkpt lat="43.32506" lon="1.17517">
        <ele>226</ele>
        <time>2024-04-06T09:29:28Z</time>
      </trkpt>
      <trkpt lat="43.32503" lon="1.17529">
        <ele>226</ele>
        <time>2024-04-06T09:29:29Z</time>
      </trkpt>
      <trkpt lat="43.32507" lon="1.17565">
        <ele>226</ele>
        <time>2024-04-06T09:29:34Z</time>
      </trkpt>
      <trkpt lat="43.32517" lon="1.17592">
        <ele>226</ele>
        <time>2024-04-06T09:29:38Z</time>
      </trkpt>
      <trkpt lat="43.32549" lon="1.17645">
        <ele>226</ele>
        <time>2024-04-06T09:29:47Z</time>
      </trkpt>
      <trkpt lat="43.32557" lon="1.17664">
        <ele>226</ele>
        <time>2024-04-06T09:29:50Z</time>
      </trkpt>
      <trkpt lat="43.32574" lon="1.1772">
        <ele>225</ele>
        <time>2024-04-06T09:29:58Z</time>
      </trkpt>
      <trkpt lat="43.32602" lon="1.17803">
        <ele>224</ele>
        <time>2024-04-06T09:30:09Z</time>
      </trkpt>
      <trkpt lat="43.32618" lon="1.17858">
        <ele>224</ele>
        <time>2024-04-06T09:30:17Z</time>
      </trkpt>
      <trkpt lat="43.32643" lon="1.17927">
        <ele>224</ele>
        <time>2024-04-06T09:30:27Z</time>
      </trkpt>
      <trkpt lat="43.32644" lon="1.17941">
        <ele>224</ele>
        <time>2024-04-06T09:30:29Z</time>
      </trkpt>
      <trkpt lat="43.32556" lon="1.18487">
        <ele>225</ele>
        <time>2024-04-06T09:31:41Z</time>
      </trkpt>
      <trkpt lat="43.32543" lon="1.18644">
        <ele>226</ele>
        <time>2024-04-06T09:32:02Z</time>
      </trkpt>
      <trkpt lat="43.32541" lon="1.18771">
        <ele>224</ele>
        <time>2024-04-06T09:32:18Z</time>
      </trkpt>
      <trkpt lat="43.32499" lon="1.18978">
        <ele>222</ele>
        <time>2024-04-06T09:32:46Z</time>
      </trkpt>
      <trkpt lat="43.32579" lon="1.1909">
        <ele>222</ele>
        <time>2024-04-06T09:33:06Z</time>
      </trkpt>
      <trkpt lat="43.32628" lon="1.19148">
        <ele>223</ele>
        <time>2024-04-06T09:33:18Z</time>
      </trkpt>
      <trkpt lat="43.32708" lon="1.19238">
        <ele>224</ele>
        <time>2024-04-06T09:33:36Z</time>
      </trkpt>
      <trkpt lat="43.32765" lon="1.19308">
        <ele>224</ele>
        <time>2024-04-06T09:33:50Z</time>
      </trkpt>
      <trkpt lat="43.32828" lon="1.19382">
        <ele>224</ele>
        <time>2024-04-06T09:34:05Z</time>
      </trkpt>
      <trkpt lat="43.32917" lon="1.19478">
        <ele>223</ele>
        <time>2024-04-06T09:34:25Z</time>
      </trkpt>
      <trkpt lat="43.32971" lon="1.1954">
        <ele>223</ele>
        <time>2024-04-06T09:34:37Z</time>
      </trkpt>
      <trkpt lat="43.33051" lon="1.1962">
        <ele>223</ele>
        <time>2024-04-06T09:34:55Z</time>
      </trkpt>
      <trkpt lat="43.33125" lon="1.19725">
        <ele>222</ele>
        <time>2024-04-06T09:35:14Z</time>
      </trkpt>
      <trkpt lat="43.33213" lon="1.19837">
        <ele>222</ele>
        <time>2024-04-06T09:35:35Z</time>
      </trkpt>
      <trkpt lat="43.33362" lon="1.20005">
        <ele>221</ele>
        <time>2024-04-06T09:36:09Z</time>
      </trkpt>
      <trkpt lat="43.33418" lon="1.2005">
        <ele>221</ele>
        <time>2024-04-06T09:36:21Z</time>
      </trkpt>
      <trkpt lat="43.33426" lon="1.20064">
        <ele>221</ele>
        <time>2024-04-06T09:36:23Z</time>
      </trkpt>
      <trkpt lat="43.33427" lon="1.20071">
        <ele>221</ele>
        <time>2024-04-06T09:36:24Z</time>
      </trkpt>
      <trkpt lat="43.33429" lon="1.20077">
        <ele>221</ele>
        <time>2024-04-06T09:36:25Z</time>
      </trkpt>
      <trkpt lat="43.33436" lon="1.20083">
        <ele>221</ele>
        <time>2024-04-06T09:36:26Z</time>
      </trkpt>
      <trkpt lat="43.33444" lon="1.20081">
        <ele>221</ele>
        <time>2024-04-06T09:36:28Z</time>
      </trkpt>
      <trkpt lat="43.33459" lon="1.20083">
        <ele>220</ele>
        <time>2024-04-06T09:36:31Z</time>
      </trkpt>
      <trkpt lat="43.33639" lon="1.20208">
        <ele>219</ele>
        <time>2024-04-06T09:37:06Z</time>
      </trkpt>
      <trkpt lat="43.33747" lon="1.20291">
        <ele>218</ele>
        <time>2024-04-06T09:37:28Z</time>
      </trkpt>
      <trkpt lat="43.33962" lon="1.20484">
        <ele>218</ele>
        <time>2024-04-06T09:38:14Z</time>
      </trkpt>
      <trkpt lat="43.34043" lon="1.20547">
        <ele>218</ele>
        <time>2024-04-06T09:38:31Z</time>
      </trkpt>
      <trkpt lat="43.34089" lon="1.20586">
        <ele>219</ele>
        <time>2024-04-06T09:38:40Z</time>
      </trkpt>
      <trkpt lat="43.34168" lon="1.20648">
        <ele>220</ele>
        <time>2024-04-06T09:38:57Z</time>
      </trkpt>
      <trkpt lat="43.34549" lon="1.20987">
        <ele>216</ele>
        <time>2024-04-06T09:40:17Z</time>
      </trkpt>
      <trkpt lat="43.34839" lon="1.21246">
        <ele>217</ele>
        <time>2024-04-06T09:41:19Z</time>
      </trkpt>
      <trkpt lat="43.34873" lon="1.21272">
        <ele>217</ele>
        <time>2024-04-06T09:41:26Z</time>
      </trkpt>
      <trkpt lat="43.3492" lon="1.21301">
        <ele>217</ele>
        <time>2024-04-06T09:41:35Z</time>
      </trkpt>
      <trkpt lat="43.34965" lon="1.21334">
        <ele>216</ele>
        <time>2024-04-06T09:41:44Z</time>
      </trkpt>
      <trkpt lat="43.34993" lon="1.21352">
        <ele>216</ele>
        <time>2024-04-06T09:41:49Z</time>
      </trkpt>
      <trkpt lat="43.35102" lon="1.21404">
        <ele>216</ele>
        <time>2024-04-06T09:42:10Z</time>
      </trkpt>
      <trkpt lat="43.35148" lon="1.21431">
        <ele>217</ele>
        <time>2024-04-06T09:42:19Z</time>
      </trkpt>
      <trkpt lat="43.35185" lon="1.21463">
        <ele>216</ele>
        <time>2024-04-06T09:42:27Z</time>
      </trkpt>
      <trkpt lat="43.35229" lon="1.21514">
        <ele>215</ele>
        <time>2024-04-06T09:42:37Z</time>
      </trkpt>
      <trkpt lat="43.35422" lon="1.21767">
        <ele>215</ele>
        <time>2024-04-06T09:43:24Z</time>
      </trkpt>
      <trkpt lat="43.3546" lon="1.21806">
        <ele>215</ele>
        <time>2024-04-06T09:43:33Z</time>
      </trkpt>
      <trkpt lat="43.35514" lon="1.21851">
        <ele>215</ele>
        <time>2024-04-06T09:43:44Z</time>
      </trkpt>
      <trkpt lat="43.35583" lon="1.21903">
        <ele>214</ele>
        <time>2024-04-06T09:43:58Z</time>
      </trkpt>
      <trkpt lat="43.35619" lon="1.21934">
        <ele>214</ele>
        <time>2024-04-06T09:44:06Z</time>
      </trkpt>
      <trkpt lat="43.35686" lon="1.22004">
        <ele>212</ele>
        <time>2024-04-06T09:44:21Z</time>
      </trkpt>
      <trkpt lat="43.3572" lon="1.22067">
        <ele>213</ele>
        <time>2024-04-06T09:44:31Z</time>
      </trkpt>
      <trkpt lat="43.35721" lon="1.22074">
        <ele>213</ele>
        <time>2024-04-06T09:44:32Z</time>
      </trkpt>
      <trkpt lat="43.35724" lon="1.2208">
        <ele>213</ele>
        <time>2024-04-06T09:44:33Z</time>
      </trkpt>
      <trkpt lat="43.35733" lon="1.22088">
        <ele>213</ele>
        <time>2024-04-06T09:44:34Z</time>
      </trkpt>
      <trkpt lat="43.35738" lon="1.22111">
        <ele>213</ele>
        <time>2024-04-06T09:44:38Z</time>
      </trkpt>
      <trkpt lat="43.35749" lon="1.22315">
        <ele>213</ele>
        <time>2024-04-06T09:45:04Z</time>
      </trkpt>
      <trkpt lat="43.35772" lon="1.22591">
        <ele>212</ele>
        <time>2024-04-06T09:45:40Z</time>
      </trkpt>
      <trkpt lat="43.35781" lon="1.22732">
        <ele>215</ele>
        <time>2024-04-06T09:45:58Z</time>
      </trkpt>
      <trkpt lat="43.35781" lon="1.22794">
        <ele>214</ele>
        <time>2024-04-06T09:46:06Z</time>
      </trkpt>
      <trkpt lat="43.35778" lon="1.22837">
        <ele>213</ele>
        <time>2024-04-06T09:46:12Z</time>
      </trkpt>
      <trkpt lat="43.35772" lon="1.22876">
        <ele>213</ele>
        <time>2024-04-06T09:46:17Z</time>
      </trkpt>
      <trkpt lat="43.35714" lon="1.23084">
        <ele>212</ele>
        <time>2024-04-06T09:46:46Z</time>
      </trkpt>
      <trkpt lat="43.35685" lon="1.23203">
        <ele>214</ele>
        <time>2024-04-06T09:47:02Z</time>
      </trkpt>
      <trkpt lat="43.35648" lon="1.23366">
        <ele>213</ele>
        <time>2024-04-06T09:47:24Z</time>
      </trkpt>
      <trkpt lat="43.3564" lon="1.23397">
        <ele>212</ele>
        <time>2024-04-06T09:47:28Z</time>
      </trkpt>
      <trkpt lat="43.35599" lon="1.23507">
        <ele>210</ele>
        <time>2024-04-06T09:47:44Z</time>
      </trkpt>
      <trkpt lat="43.35583" lon="1.23543">
        <ele>211</ele>
        <time>2024-04-06T09:47:50Z</time>
      </trkpt>
      <trkpt lat="43.35562" lon="1.23603">
        <ele>212</ele>
        <time>2024-04-06T09:47:59Z</time>
      </trkpt>
      <trkpt lat="43.35557" lon="1.23606">
        <ele>212</ele>
        <time>2024-04-06T09:48:00Z</time>
      </trkpt>
      <trkpt lat="43.35555" lon="1.23612">
        <ele>212</ele>
        <time>2024-04-06T09:48:00Z</time>
      </trkpt>
      <trkpt lat="43.35555" lon="1.23619">
        <ele>212</ele>
        <time>2024-04-06T09:48:01Z</time>
      </trkpt>
      <trkpt lat="43.35558" lon="1.23624">
        <ele>212</ele>
        <time>2024-04-06T09:48:02Z</time>
      </trkpt>
      <trkpt lat="43.35551" lon="1.23648">
        <ele>212</ele>
        <time>2024-04-06T09:48:05Z</time>
      </trkpt>
      <trkpt lat="43.35543" lon="1.23696">
        <ele>211</ele>
        <time>2024-04-06T09:48:12Z</time>
      </trkpt>
      <trkpt lat="43.35532" lon="1.23714">
        <ele>211</ele>
        <time>2024-04-06T09:48:15Z</time>
      </trkpt>
      <trkpt lat="43.35513" lon="1.23735">
        <ele>210</ele>
        <time>2024-04-06T09:48:19Z</time>
      </trkpt>
      <trkpt lat="43.35507" lon="1.23743">
        <ele>209</ele>
        <time>2024-04-06T09:48:21Z</time>
      </trkpt>
      <trkpt lat="43.35496" lon="1.23769">
        <ele>208</ele>
        <time>2024-04-06T09:48:25Z</time>
      </trkpt>
      <trkpt lat="43.35488" lon="1.23798">
        <ele>207</ele>
        <time>2024-04-06T09:48:29Z</time>
      </trkpt>
      <trkpt lat="43.35485" lon="1.23899">
        <ele>204</ele>
        <time>2024-04-06T09:48:42Z</time>
      </trkpt>
      <trkpt lat="43.35486" lon="1.23905">
        <ele>204</ele>
        <time>2024-04-06T09:48:42Z</time>
      </trkpt>
      <trkpt lat="43.35483" lon="1.23948">
        <ele>203</ele>
        <time>2024-04-06T09:48:48Z</time>
      </trkpt>
      <trkpt lat="43.3548" lon="1.23955">
        <ele>203</ele>
        <time>2024-04-06T09:48:49Z</time>
      </trkpt>
      <trkpt lat="43.35476" lon="1.23957">
        <ele>203</ele>
        <time>2024-04-06T09:48:50Z</time>
      </trkpt>
      <trkpt lat="43.3547" lon="1.23958">
        <ele>203</ele>
        <time>2024-04-06T09:48:51Z</time>
      </trkpt>
      <trkpt lat="43.35468" lon="1.23961">
        <ele>203</ele>
        <time>2024-04-06T09:48:51Z</time>
      </trkpt>
      <trkpt lat="43.35468" lon="1.2397">
        <ele>203</ele>
        <time>2024-04-06T09:48:53Z</time>
      </trkpt>
      <trkpt lat="43.35474" lon="1.23976">
        <ele>203</ele>
        <time>2024-04-06T09:48:54Z</time>
      </trkpt>
      <trkpt lat="43.35479" lon="1.23994">
        <ele>203</ele>
        <time>2024-04-06T09:48:56Z</time>
      </trkpt>
      <trkpt lat="43.35479" lon="1.24088">
        <ele>202</ele>
        <time>2024-04-06T09:49:09Z</time>
      </trkpt>
      <trkpt lat="43.35483" lon="1.24235">
        <ele>202</ele>
        <time>2024-04-06T09:49:28Z</time>
      </trkpt>
      <trkpt lat="43.35482" lon="1.24236">
        <ele>202</ele>
        <time>2024-04-06T09:49:28Z</time>
      </trkpt>
      <trkpt lat="43.35482" lon="1.24251">
        <ele>201</ele>
        <time>2024-04-06T09:49:30Z</time>
      </trkpt>
      <trkpt lat="43.35484" lon="1.24254">
        <ele>201</ele>
        <time>2024-04-06T09:49:30Z</time>
      </trkpt>
      <trkpt lat="43.35509" lon="1.24255">
        <ele>201</ele>
        <time>2024-04-06T09:49:35Z</time>
      </trkpt>
      <trkpt lat="43.3551" lon="1.24262">
        <ele>201</ele>
        <time>2024-04-06T09:49:36Z</time>
      </trkpt>
      <trkpt lat="43.35516" lon="1.24278">
        <ele>201</ele>
        <time>2024-04-06T09:49:38Z</time>
      </trkpt>
      <trkpt lat="43.35588" lon="1.24426">
        <ele>201</ele>
        <time>2024-04-06T09:50:01Z</time>
      </trkpt>
      <trkpt lat="43.35637" lon="1.24517">
        <ele>199</ele>
        <time>2024-04-06T09:50:16Z</time>
      </trkpt>
      <trkpt lat="43.35808" lon="1.2486">
        <ele>200</ele>
        <time>2024-04-06T09:51:10Z</time>
      </trkpt>
      <trkpt lat="43.35854" lon="1.24931">
        <ele>199</ele>
        <time>2024-04-06T09:51:22Z</time>
      </trkpt>
      <trkpt lat="43.35934" lon="1.25096">
        <ele>198</ele>
        <time>2024-04-06T09:51:47Z</time>
      </trkpt>
      <trkpt lat="43.35945" lon="1.25114">
        <ele>198</ele>
        <time>2024-04-06T09:51:51Z</time>
      </trkpt>
      <trkpt lat="43.35978" lon="1.25156">
        <ele>197</ele>
        <time>2024-04-06T09:51:59Z</time>
      </trkpt>
      <trkpt lat="43.36004" lon="1.25185">
        <ele>197</ele>
        <time>2024-04-06T09:52:04Z</time>
      </trkpt>
      <trkpt lat="43.36042" lon="1.25241">
        <ele>198</ele>
        <time>2024-04-06T09:52:14Z</time>
      </trkpt>
      <trkpt lat="43.3608" lon="1.25316">
        <ele>197</ele>
        <time>2024-04-06T09:52:26Z</time>
      </trkpt>
      <trkpt lat="43.3609" lon="1.25341">
        <ele>197</ele>
        <time>2024-04-06T09:52:30Z</time>
      </trkpt>
      <trkpt lat="43.36095" lon="1.25358">
        <ele>197</ele>
        <time>2024-04-06T09:52:32Z</time>
      </trkpt>
      <trkpt lat="43.36095" lon="1.25371">
        <ele>197</ele>
        <time>2024-04-06T09:52:34Z</time>
      </trkpt>
      <trkpt lat="43.36093" lon="1.25382">
        <ele>197</ele>
        <time>2024-04-06T09:52:35Z</time>
      </trkpt>
      <trkpt lat="43.36086" lon="1.25405">
        <ele>197</ele>
        <time>2024-04-06T09:52:39Z</time>
      </trkpt>
      <trkpt lat="43.36089" lon="1.25415">
        <ele>197</ele>
        <time>2024-04-06T09:52:40Z</time>
      </trkpt>
      <trkpt lat="43.36096" lon="1.2542">
        <ele>197</ele>
        <time>2024-04-06T09:52:41Z</time>
      </trkpt>
      <trkpt lat="43.36144" lon="1.25445">
        <ele>197</ele>
        <time>2024-04-06T09:52:51Z</time>
      </trkpt>
      <trkpt lat="43.3616" lon="1.25459">
        <ele>197</ele>
        <time>2024-04-06T09:52:54Z</time>
      </trkpt>
      <trkpt lat="43.36173" lon="1.25478">
        <ele>197</ele>
        <time>2024-04-06T09:52:57Z</time>
      </trkpt>
      <trkpt lat="43.362" lon="1.25572">
        <ele>197</ele>
        <time>2024-04-06T09:53:10Z</time>
      </trkpt>
      <trkpt lat="43.36225" lon="1.25683">
        <ele>197</ele>
        <time>2024-04-06T09:53:25Z</time>
      </trkpt>
      <trkpt lat="43.3623" lon="1.25767">
        <ele>198</ele>
        <time>2024-04-06T09:53:36Z</time>
      </trkpt>
      <trkpt lat="43.36201" lon="1.25969">
        <ele>198</ele>
        <time>2024-04-06T09:54:03Z</time>
      </trkpt>
      <trkpt lat="43.36197" lon="1.26033">
        <ele>197</ele>
        <time>2024-04-06T09:54:11Z</time>
      </trkpt>
      <trkpt lat="43.36281" lon="1.26199">
        <ele>198</ele>
        <time>2024-04-06T09:54:37Z</time>
      </trkpt>
      <trkpt lat="43.36315" lon="1.2624">
        <ele>197</ele>
        <time>2024-04-06T09:54:45Z</time>
      </trkpt>
      <trkpt lat="43.36372" lon="1.26318">
        <ele>197</ele>
        <time>2024-04-06T09:55:00Z</time>
      </trkpt>
      <trkpt lat="43.36408" lon="1.26372">
        <ele>196</ele>
        <time>2024-04-06T09:55:09Z</time>
      </trkpt>
      <trkpt lat="43.36468" lon="1.26498">
        <ele>197</ele>
        <time>2024-04-06T09:55:29Z</time>
      </trkpt>
      <trkpt lat="43.36491" lon="1.26565">
        <ele>198</ele>
        <time>2024-04-06T09:55:38Z</time>
      </trkpt>
      <trkpt lat="43.36537" lon="1.26707">
        <ele>196</ele>
        <time>2024-04-06T09:55:58Z</time>
      </trkpt>
      <trkpt lat="43.36564" lon="1.26816">
        <ele>195</ele>
        <time>2024-04-06T09:56:13Z</time>
      </trkpt>
      <trkpt lat="43.36579" lon="1.2686">
        <ele>195</ele>
        <time>2024-04-06T09:56:20Z</time>
      </trkpt>
      <trkpt lat="43.3659" lon="1.26881">
        <ele>195</ele>
        <time>2024-04-06T09:56:23Z</time>
      </trkpt>
      <trkpt lat="43.36619" lon="1.26916">
        <ele>196</ele>
        <time>2024-04-06T09:56:30Z</time>
      </trkpt>
      <trkpt lat="43.36639" lon="1.26944">
        <ele>195</ele>
        <time>2024-04-06T09:56:35Z</time>
      </trkpt>
      <trkpt lat="43.36651" lon="1.26966">
        <ele>194</ele>
        <time>2024-04-06T09:56:38Z</time>
      </trkpt>
      <trkpt lat="43.36684" lon="1.27053">
        <ele>194</ele>
        <time>2024-04-06T09:56:51Z</time>
      </trkpt>
      <trkpt lat="43.36712" lon="1.27111">
        <ele>194</ele>
        <time>2024-04-06T09:57:00Z</time>
      </trkpt>
      <trkpt lat="43.36757" lon="1.27199">
        <ele>196</ele>
        <time>2024-04-06T09:57:14Z</time>
      </trkpt>
      <trkpt lat="43.3683" lon="1.27325">
        <ele>194</ele>
        <time>2024-04-06T09:57:35Z</time>
      </trkpt>
      <trkpt lat="43.36839" lon="1.27343">
        <ele>194</ele>
        <time>2024-04-06T09:57:38Z</time>
      </trkpt>
      <trkpt lat="43.36846" lon="1.27374">
        <ele>194</ele>
        <time>2024-04-06T09:57:42Z</time>
      </trkpt>
      <trkpt lat="43.36848" lon="1.27406">
        <ele>194</ele>
        <time>2024-04-06T09:57:46Z</time>
      </trkpt>
      <trkpt lat="43.36854" lon="1.275">
        <ele>194</ele>
        <time>2024-04-06T09:57:58Z</time>
      </trkpt>
      <trkpt lat="43.36858" lon="1.27523">
        <ele>194</ele>
        <time>2024-04-06T09:58:01Z</time>
      </trkpt>
      <trkpt lat="43.36866" lon="1.2755">
        <ele>194</ele>
        <time>2024-04-06T09:58:05Z</time>
      </trkpt>
      <trkpt lat="43.36882" lon="1.2758">
        <ele>194</ele>
        <time>2024-04-06T09:58:10Z</time>
      </trkpt>
      <trkpt lat="43.36928" lon="1.27639">
        <ele>194</ele>
        <time>2024-04-06T09:58:21Z</time>
      </trkpt>
      <trkpt lat="43.36935" lon="1.27663">
        <ele>194</ele>
        <time>2024-04-06T09:58:24Z</time>
      </trkpt>
      <trkpt lat="43.36935" lon="1.27686">
        <ele>194</ele>
        <time>2024-04-06T09:58:27Z</time>
      </trkpt>
      <trkpt lat="43.37028" lon="1.27705">
        <ele>194</ele>
        <time>2024-04-06T09:58:44Z</time>
      </trkpt>
      <trkpt lat="43.37028" lon="1.27711">
        <ele>194</ele>
        <time>2024-04-06T09:58:45Z</time>
      </trkpt>
      <trkpt lat="43.37015" lon="1.27753">
        <ele>195</ele>
        <time>2024-04-06T09:58:51Z</time>
      </trkpt>
      <trkpt lat="43.37007" lon="1.2777">
        <ele>195</ele>
        <time>2024-04-06T09:58:53Z</time>
      </trkpt>
      <trkpt lat="43.37002" lon="1.27786">
        <ele>195</ele>
        <time>2024-04-06T09:58:56Z</time>
      </trkpt>
      <trkpt lat="43.37001" lon="1.27801">
        <ele>195</ele>
        <time>2024-04-06T09:58:58Z</time>
      </trkpt>
      <trkpt lat="43.37003" lon="1.27816">
        <ele>195</ele>
        <time>2024-04-06T09:59:00Z</time>
      </trkpt>
      <trkpt lat="43.37013" lon="1.27842">
        <ele>195</ele>
        <time>2024-04-06T09:59:03Z</time>
      </trkpt>
      <trkpt lat="43.37023" lon="1.27856">
        <ele>195</ele>
        <time>2024-04-06T09:59:06Z</time>
      </trkpt>
      <trkpt lat="43.37059" lon="1.27896">
        <ele>194</ele>
        <time>2024-04-06T09:59:14Z</time>
      </trkpt>
      <trkpt lat="43.37103" lon="1.27978">
        <ele>193</ele>
        <time>2024-04-06T09:59:27Z</time>
      </trkpt>
      <trkpt lat="43.37138" lon="1.28047">
        <ele>193</ele>
        <time>2024-04-06T09:59:38Z</time>
      </trkpt>
      <trkpt lat="43.37144" lon="1.28065">
        <ele>193</ele>
        <time>2024-04-06T09:59:41Z</time>
      </trkpt>
      <trkpt lat="43.37193" lon="1.28219">
        <ele>194</ele>
        <time>2024-04-06T10:00:03Z</time>
      </trkpt>
      <trkpt lat="43.37202" lon="1.28242">
        <ele>194</ele>
        <time>2024-04-06T10:00:06Z</time>
      </trkpt>
      <trkpt lat="43.37208" lon="1.28253">
        <ele>194</ele>
        <time>2024-04-06T10:00:08Z</time>
      </trkpt>
      <trkpt lat="43.37217" lon="1.28265">
        <ele>194</ele>
        <time>2024-04-06T10:00:10Z</time>
      </trkpt>
      <trkpt lat="43.37234" lon="1.28275">
        <ele>193</ele>
        <time>2024-04-06T10:00:13Z</time>
      </trkpt>
      <trkpt lat="43.37422" lon="1.28365">
        <ele>193</ele>
        <time>2024-04-06T10:00:49Z</time>
      </trkpt>
      <trkpt lat="43.3744" lon="1.28377">
        <ele>192</ele>
        <time>2024-04-06T10:00:52Z</time>
      </trkpt>
      <trkpt lat="43.37468" lon="1.28388">
        <ele>192</ele>
        <time>2024-04-06T10:00:57Z</time>
      </trkpt>
      <trkpt lat="43.37493" lon="1.28414">
        <ele>191</ele>
        <time>2024-04-06T10:01:03Z</time>
      </trkpt>
      <trkpt lat="43.37497" lon="1.28415">
        <ele>191</ele>
        <time>2024-04-06T10:01:04Z</time>
      </trkpt>
      <trkpt lat="43.37547" lon="1.28488">
        <ele>192</ele>
        <time>2024-04-06T10:01:17Z</time>
      </trkpt>
      <trkpt lat="43.37553" lon="1.28502">
        <ele>192</ele>
        <time>2024-04-06T10:01:19Z</time>
      </trkpt>
      <trkpt lat="43.37558" lon="1.28522">
        <ele>192</ele>
        <time>2024-04-06T10:01:22Z</time>
      </trkpt>
      <trkpt lat="43.3757" lon="1.28717">
        <ele>189</ele>
        <time>2024-04-06T10:01:47Z</time>
      </trkpt>
      <trkpt lat="43.37574" lon="1.28739">
        <ele>189</ele>
        <time>2024-04-06T10:01:50Z</time>
      </trkpt>
      <trkpt lat="43.37578" lon="1.2875">
        <ele>189</ele>
        <time>2024-04-06T10:01:51Z</time>
      </trkpt>
      <trkpt lat="43.37586" lon="1.28764">
        <ele>189</ele>
        <time>2024-04-06T10:01:54Z</time>
      </trkpt>
      <trkpt lat="43.37602" lon="1.28777">
        <ele>189</ele>
        <time>2024-04-06T10:01:57Z</time>
      </trkpt>
      <trkpt lat="43.37658" lon="1.28819">
        <ele>187</ele>
        <time>2024-04-06T10:02:08Z</time>
      </trkpt>
      <trkpt lat="43.37745" lon="1.28897">
        <ele>187</ele>
        <time>2024-04-06T10:02:27Z</time>
      </trkpt>
      <trkpt lat="43.37764" lon="1.28912">
        <ele>187</ele>
        <time>2024-04-06T10:02:31Z</time>
      </trkpt>
      <trkpt lat="43.37809" lon="1.28939">
        <ele>187</ele>
        <time>2024-04-06T10:02:39Z</time>
      </trkpt>
      <trkpt lat="43.37801" lon="1.28975">
        <ele>185</ele>
        <time>2024-04-06T10:02:44Z</time>
      </trkpt>
      <trkpt lat="43.37786" lon="1.29001">
        <ele>182</ele>
        <time>2024-04-06T10:02:49Z</time>
      </trkpt>
      <trkpt lat="43.37757" lon="1.29045">
        <ele>177</ele>
        <time>2024-04-06T10:02:56Z</time>
      </trkpt>
      <trkpt lat="43.37705" lon="1.29118">
        <ele>179</ele>
        <time>2024-04-06T10:03:10Z</time>
      </trkpt>
      <trkpt lat="43.37681" lon="1.29148">
        <ele>181</ele>
        <time>2024-04-06T10:03:15Z</time>
      </trkpt>
      <trkpt lat="43.37659" lon="1.2918">
        <ele>184</ele>
        <time>2024-04-06T10:03:21Z</time>
      </trkpt>
      <trkpt lat="43.37647" lon="1.29189">
        <ele>185</ele>
        <time>2024-04-06T10:03:23Z</time>
      </trkpt>
      <trkpt lat="43.37611" lon="1.2919">
        <ele>187</ele>
        <time>2024-04-06T10:03:30Z</time>
      </trkpt>
      <trkpt lat="43.37599" lon="1.29197">
        <ele>187</ele>
        <time>2024-04-06T10:03:32Z</time>
      </trkpt>
      <trkpt lat="43.37585" lon="1.29217">
        <ele>188</ele>
        <time>2024-04-06T10:03:36Z</time>
      </trkpt>
      <trkpt lat="43.37552" lon="1.29336">
        <ele>187</ele>
        <time>2024-04-06T10:03:52Z</time>
      </trkpt>
      <trkpt lat="43.37544" lon="1.29382">
        <ele>187</ele>
        <time>2024-04-06T10:03:58Z</time>
      </trkpt>
      <trkpt lat="43.37541" lon="1.29424">
        <ele>187</ele>
        <time>2024-04-06T10:04:04Z</time>
      </trkpt>
      <trkpt lat="43.37525" lon="1.29515">
        <ele>189</ele>
        <time>2024-04-06T10:04:16Z</time>
      </trkpt>
      <trkpt lat="43.37509" lon="1.29621">
        <ele>194</ele>
        <time>2024-04-06T10:04:30Z</time>
      </trkpt>
      <trkpt lat="43.375" lon="1.29661">
        <ele>197</ele>
        <time>2024-04-06T10:04:35Z</time>
      </trkpt>
      <trkpt lat="43.37493" lon="1.29673">
        <ele>198</ele>
        <time>2024-04-06T10:04:37Z</time>
      </trkpt>
      <trkpt lat="43.37478" lon="1.29688">
        <ele>202</ele>
        <time>2024-04-06T10:04:41Z</time>
      </trkpt>
      <trkpt lat="43.37463" lon="1.29695">
        <ele>204</ele>
        <time>2024-04-06T10:04:43Z</time>
      </trkpt>
      <trkpt lat="43.37445" lon="1.29696">
        <ele>205</ele>
        <time>2024-04-06T10:04:47Z</time>
      </trkpt>
      <trkpt lat="43.37416" lon="1.29694">
        <ele>206</ele>
        <time>2024-04-06T10:04:52Z</time>
      </trkpt>
      <trkpt lat="43.37312" lon="1.29679">
        <ele>214</ele>
        <time>2024-04-06T10:05:10Z</time>
      </trkpt>
      <trkpt lat="43.37302" lon="1.29682">
        <ele>215</ele>
        <time>2024-04-06T10:05:12Z</time>
      </trkpt>
      <trkpt lat="43.37291" lon="1.29692">
        <ele>217</ele>
        <time>2024-04-06T10:05:15Z</time>
      </trkpt>
      <trkpt lat="43.37249" lon="1.29763">
        <ele>223</ele>
        <time>2024-04-06T10:05:26Z</time>
      </trkpt>
      <trkpt lat="43.37213" lon="1.29846">
        <ele>232</ele>
        <time>2024-04-06T10:05:39Z</time>
      </trkpt>
      <trkpt lat="43.37204" lon="1.29879">
        <ele>233</ele>
        <time>2024-04-06T10:05:43Z</time>
      </trkpt>
      <trkpt lat="43.372" lon="1.29903">
        <ele>233</ele>
        <time>2024-04-06T10:05:47Z</time>
      </trkpt>
      <trkpt lat="43.37199" lon="1.29924">
        <ele>233</ele>
        <time>2024-04-06T10:05:49Z</time>
      </trkpt>
      <trkpt lat="43.37201" lon="1.29965">
        <ele>234</ele>
        <time>2024-04-06T10:05:55Z</time>
      </trkpt>
      <trkpt lat="43.37201" lon="1.29996">
        <ele>235</ele>
        <time>2024-04-06T10:05:59Z</time>
      </trkpt>
      <trkpt lat="43.37196" lon="1.30035">
        <ele>234</ele>
        <time>2024-04-06T10:06:04Z</time>
      </trkpt>
      <trkpt lat="43.37188" lon="1.30057">
        <ele>234</ele>
        <time>2024-04-06T10:06:07Z</time>
      </trkpt>
      <trkpt lat="43.37152" lon="1.30136">
        <ele>233</ele>
        <time>2024-04-06T10:06:19Z</time>
      </trkpt>
      <trkpt lat="43.37148" lon="1.30147">
        <ele>233</ele>
        <time>2024-04-06T10:06:21Z</time>
      </trkpt>
      <trkpt lat="43.37137" lon="1.3019">
        <ele>232</ele>
        <time>2024-04-06T10:06:27Z</time>
      </trkpt>
      <trkpt lat="43.37133" lon="1.30223">
        <ele>232</ele>
        <time>2024-04-06T10:06:31Z</time>
      </trkpt>
      <trkpt lat="43.37133" lon="1.30257">
        <ele>231</ele>
        <time>2024-04-06T10:06:35Z</time>
      </trkpt>
      <trkpt lat="43.37136" lon="1.30294">
        <ele>231</ele>
        <time>2024-04-06T10:06:40Z</time>
      </trkpt>
      <trkpt lat="43.37137" lon="1.30335">
        <ele>231</ele>
        <time>2024-04-06T10:06:45Z</time>
      </trkpt>
      <trkpt lat="43.37216" lon="1.30345">
        <ele>234</ele>
        <time>2024-04-06T10:07:00Z</time>
      </trkpt>
      <trkpt lat="43.37231" lon="1.30351">
        <ele>235</ele>
        <time>2024-04-06T10:07:02Z</time>
      </trkpt>
      <trkpt lat="43.3726" lon="1.3035">
        <ele>238</ele>
        <time>2024-04-06T10:07:07Z</time>
      </trkpt>
      <trkpt lat="43.37279" lon="1.30336">
        <ele>240</ele>
        <time>2024-04-06T10:07:11Z</time>
      </trkpt>
      <trkpt lat="43.373" lon="1.30299">
        <ele>244</ele>
        <time>2024-04-06T10:07:17Z</time>
      </trkpt>
      <trkpt lat="43.37317" lon="1.30275">
        <ele>246</ele>
        <time>2024-04-06T10:07:22Z</time>
      </trkpt>
      <trkpt lat="43.37329" lon="1.30264">
        <ele>248</ele>
        <time>2024-04-06T10:07:24Z</time>
      </trkpt>
      <trkpt lat="43.37346" lon="1.30264">
        <ele>250</ele>
        <time>2024-04-06T10:07:27Z</time>
      </trkpt>
      <trkpt lat="43.3736" lon="1.30285">
        <ele>252</ele>
        <time>2024-04-06T10:07:31Z</time>
      </trkpt>
      <trkpt lat="43.37372" lon="1.30315">
        <ele>253</ele>
        <time>2024-04-06T10:07:35Z</time>
      </trkpt>
      <trkpt lat="43.37397" lon="1.30423">
        <ele>259</ele>
        <time>2024-04-06T10:07:50Z</time>
      </trkpt>
      <trkpt lat="43.37405" lon="1.30443">
        <ele>259</ele>
        <time>2024-04-06T10:07:53Z</time>
      </trkpt>
      <trkpt lat="43.37421" lon="1.30469">
        <ele>261</ele>
        <time>2024-04-06T10:07:57Z</time>
      </trkpt>
      <trkpt lat="43.37521" lon="1.30511">
        <ele>269</ele>
        <time>2024-04-06T10:08:16Z</time>
      </trkpt>
      <trkpt lat="43.37528" lon="1.30577">
        <ele>266</ele>
        <time>2024-04-06T10:08:25Z</time>
      </trkpt>
      <trkpt lat="43.37535" lon="1.30699">
        <ele>262</ele>
        <time>2024-04-06T10:08:40Z</time>
      </trkpt>
      <trkpt lat="43.37533" lon="1.30753">
        <ele>261</ele>
        <time>2024-04-06T10:08:47Z</time>
      </trkpt>
      <trkpt lat="43.37518" lon="1.30847">
        <ele>261</ele>
        <time>2024-04-06T10:09:00Z</time>
      </trkpt>
      <trkpt lat="43.37512" lon="1.30904">
        <ele>261</ele>
        <time>2024-04-06T10:09:07Z</time>
      </trkpt>
      <trkpt lat="43.37535" lon="1.31017">
        <ele>258</ele>
        <time>2024-04-06T10:09:23Z</time>
      </trkpt>
      <trkpt lat="43.37537" lon="1.31051">
        <ele>257</ele>
        <time>2024-04-06T10:09:27Z</time>
      </trkpt>
      <trkpt lat="43.37536" lon="1.31081">
        <ele>257</ele>
        <time>2024-04-06T10:09:31Z</time>
      </trkpt>
      <trkpt lat="43.37531" lon="1.31132">
        <ele>258</ele>
        <time>2024-04-06T10:09:37Z</time>
      </trkpt>
      <trkpt lat="43.37523" lon="1.31191">
        <ele>261</ele>
        <time>2024-04-06T10:09:45Z</time>
      </trkpt>
      <trkpt lat="43.37507" lon="1.31274">
        <ele>266</ele>
        <time>2024-04-06T10:09:56Z</time>
      </trkpt>
      <trkpt lat="43.37498" lon="1.313">
        <ele>266</ele>
        <time>2024-04-06T10:10:00Z</time>
      </trkpt>
      <trkpt lat="43.37475" lon="1.31401">
        <ele>265</ele>
        <time>2024-04-06T10:10:14Z</time>
      </trkpt>
      <trkpt lat="43.37465" lon="1.31462">
        <ele>266</ele>
        <time>2024-04-06T10:10:22Z</time>
      </trkpt>
      <trkpt lat="43.37461" lon="1.31513">
        <ele>266</ele>
        <time>2024-04-06T10:10:28Z</time>
      </trkpt>
      <trkpt lat="43.37461" lon="1.31602">
        <ele>262</ele>
        <time>2024-04-06T10:10:40Z</time>
      </trkpt>
      <trkpt lat="43.37465" lon="1.31788">
        <ele>255</ele>
        <time>2024-04-06T10:11:04Z</time>
      </trkpt>
      <trkpt lat="43.37459" lon="1.3184">
        <ele>253</ele>
        <time>2024-04-06T10:11:11Z</time>
      </trkpt>
      <trkpt lat="43.3744" lon="1.31932">
        <ele>247</ele>
        <time>2024-04-06T10:11:23Z</time>
      </trkpt>
      <trkpt lat="43.37434" lon="1.31974">
        <ele>244</ele>
        <time>2024-04-06T10:11:29Z</time>
      </trkpt>
      <trkpt lat="43.37414" lon="1.32071">
        <ele>243</ele>
        <time>2024-04-06T10:11:42Z</time>
      </trkpt>
      <trkpt lat="43.37388" lon="1.32164">
        <ele>241</ele>
        <time>2024-04-06T10:11:55Z</time>
      </trkpt>
      <trkpt lat="43.3738" lon="1.32202">
        <ele>238</ele>
        <time>2024-04-06T10:12:00Z</time>
      </trkpt>
      <trkpt lat="43.37368" lon="1.32237">
        <ele>236</ele>
        <time>2024-04-06T10:12:05Z</time>
      </trkpt>
      <trkpt lat="43.37344" lon="1.32326">
        <ele>232</ele>
        <time>2024-04-06T10:12:17Z</time>
      </trkpt>
      <trkpt lat="43.37292" lon="1.32475">
        <ele>229</ele>
        <time>2024-04-06T10:12:38Z</time>
      </trkpt>
      <trkpt lat="43.37258" lon="1.32583">
        <ele>226</ele>
        <time>2024-04-06T10:12:54Z</time>
      </trkpt>
      <trkpt lat="43.3724" lon="1.3262">
        <ele>226</ele>
        <time>2024-04-06T10:12:59Z</time>
      </trkpt>
      <trkpt lat="43.37224" lon="1.32679">
        <ele>225</ele>
        <time>2024-04-06T10:13:08Z</time>
      </trkpt>
      <trkpt lat="43.37206" lon="1.32781">
        <ele>222</ele>
        <time>2024-04-06T10:13:21Z</time>
      </trkpt>
      <trkpt lat="43.37191" lon="1.32882">
        <ele>220</ele>
        <time>2024-04-06T10:13:35Z</time>
      </trkpt>
      <trkpt lat="43.37188" lon="1.32947">
        <ele>219</ele>
        <time>2024-04-06T10:13:43Z</time>
      </trkpt>
      <trkpt lat="43.37175" lon="1.33085">
        <ele>214</ele>
        <time>2024-04-06T10:14:01Z</time>
      </trkpt>
      <trkpt lat="43.37123" lon="1.33237">
        <ele>204</ele>
        <time>2024-04-06T10:14:23Z</time>
      </trkpt>
      <trkpt lat="43.37062" lon="1.33399">
        <ele>194</ele>
        <time>2024-04-06T10:14:46Z</time>
      </trkpt>
      <trkpt lat="43.37175" lon="1.33477">
        <ele>193</ele>
        <time>2024-04-06T10:15:09Z</time>
      </trkpt>
      <trkpt lat="43.3757" lon="1.33704">
        <ele>190</ele>
        <time>2024-04-06T10:16:25Z</time>
      </trkpt>
      <trkpt lat="43.37614" lon="1.33736">
        <ele>192</ele>
        <time>2024-04-06T10:16:34Z</time>
      </trkpt>
      <trkpt lat="43.37663" lon="1.3378">
        <ele>193</ele>
        <time>2024-04-06T10:16:44Z</time>
      </trkpt>
      <trkpt lat="43.37969" lon="1.34182">
        <ele>192</ele>
        <time>2024-04-06T10:17:59Z</time>
      </trkpt>
      <trkpt lat="43.38152" lon="1.34417">
        <ele>193</ele>
        <time>2024-04-06T10:18:44Z</time>
      </trkpt>
      <trkpt lat="43.38177" lon="1.34449">
        <ele>192</ele>
        <time>2024-04-06T10:18:50Z</time>
      </trkpt>
      <trkpt lat="43.38203" lon="1.34491">
        <ele>191</ele>
        <time>2024-04-06T10:18:57Z</time>
      </trkpt>
      <trkpt lat="43.38231" lon="1.34558">
        <ele>190</ele>
        <time>2024-04-06T10:19:07Z</time>
      </trkpt>
      <trkpt lat="43.38242" lon="1.34579">
        <ele>190</ele>
        <time>2024-04-06T10:19:11Z</time>
      </trkpt>
      <trkpt lat="43.38284" lon="1.3465">
        <ele>190</ele>
        <time>2024-04-06T10:19:22Z</time>
      </trkpt>
      <trkpt lat="43.38309" lon="1.34681">
        <ele>189</ele>
        <time>2024-04-06T10:19:28Z</time>
      </trkpt>
      <trkpt lat="43.3835" lon="1.34717">
        <ele>189</ele>
        <time>2024-04-06T10:19:37Z</time>
      </trkpt>
      <trkpt lat="43.38374" lon="1.34733">
        <ele>188</ele>
        <time>2024-04-06T10:19:42Z</time>
      </trkpt>
      <trkpt lat="43.38399" lon="1.34743">
        <ele>189</ele>
        <time>2024-04-06T10:19:46Z</time>
      </trkpt>
      <trkpt lat="43.38484" lon="1.34769">
        <ele>188</ele>
        <time>2024-04-06T10:20:02Z</time>
      </trkpt>
      <trkpt lat="43.38561" lon="1.34785">
        <ele>188.7</ele>
      </trkpt>
      <trkpt lat="43.38564" lon="1.34808">
        <ele>187.9</ele>
        <time>2024-04-06T10:20:08Z</time>
      </trkpt>
      <trkpt lat="43.38091" lon="1.35329">
        <ele>183.3</ele>
        <time>2024-04-06T10:21:18Z</time>
      </trkpt>
      <trkpt lat="43.38063" lon="1.35724">
        <ele>198.6</ele>
        <time>2024-04-06T10:21:28Z</time>
      </trkpt>
      <trkpt lat="43.38032" lon="1.35836">
        <ele>191.8</ele>
        <time>2024-04-06T10:21:37Z</time>
      </trkpt>
      <trkpt lat="43.37832" lon="1.36479">
        <ele>259.8</ele>
      </trkpt>
      <trkpt lat="43.37895" lon="1.3666">
        <ele>278.4</ele>
        <time>2024-04-06T10:21:55Z</time>
      </trkpt>
      <trkpt lat="43.37792" lon="1.37475">
        <ele>246</ele>
      </trkpt>
      <trkpt lat="43.37941" lon="1.37775">
        <ele>235.1</ele>
      </trkpt>
      <trkpt lat="43.37608" lon="1.3826">
        <ele>229.5</ele>
        <time>2024-04-06T10:23:20Z</time>
      </trkpt>
      <trkpt lat="43.3708" lon="1.40582">
        <ele>221</ele>
      </trkpt>
      <trkpt lat="43.37211" lon="1.41046">
        <ele>215.3</ele>
      </trkpt>
      <trkpt lat="43.3713" lon="1.41144">
        <ele>203</ele>
      </trkpt>
      <trkpt lat="43.37215" lon="1.4126">
        <ele>194.6</ele>
        <time>2024-04-06T10:23:36Z</time>
      </trkpt>
      <trkpt lat="43.37264" lon="1.41466">
        <ele>188.6</ele>
      </trkpt>
      <trkpt lat="43.37311" lon="1.41728">
        <ele>186</ele>
      </trkpt>
      <trkpt lat="43.37514" lon="1.41707">
        <ele>185.6</ele>
        <time>2024-04-06T10:23:49Z</time>
      </trkpt>
      <trkpt lat="43.37907" lon="1.42131">
        <ele>182.7</ele>
      </trkpt>
      <trkpt lat="43.3855" lon="1.4253">
        <ele>180.9</ele>
        <time>2024-04-06T10:24:36Z</time>
      </trkpt>
      <trkpt lat="43.39632" lon="1.42805">
        <ele>175</ele>
        <time>2024-04-06T10:25:02Z</time>
      </trkpt>
      <trkpt lat="43.40031" lon="1.42891">
        <ele>173</ele>
        <time>2024-04-06T10:25:24Z</time>
      </trkpt>
      <trkpt lat="43.40455" lon="1.43612">
        <ele>172</ele>
      </trkpt>
      <trkpt lat="43.40717" lon="1.4459">
        <ele>181.2</ele>
        <time>2024-04-06T10:25:37Z</time>
      </trkpt>
      <trkpt lat="43.4046" lon="1.44846">
        <ele>184</ele>
      </trkpt>
      <trkpt lat="43.40469" lon="1.44851">
        <ele>184</ele>
      </trkpt>
      <trkpt lat="43.40505" lon="1.44908">
        <ele>184.7</ele>
      </trkpt>
    </trkseg>
  </trk>
</gpx>